<?xml version="1.0" encoding="UTF-8" standalone="no" ?>
<gpx xmlns="http://www.topografix.com/GPX/1/1" xmlns:xsi="http://www.w3.org/2001/XMLSchema-instance" xsi:schemaLocation="http://www.topografix.com/GPX/1/1 http://www.topografix.com/GPX/1/1/gpx.xsd" version="1.1" creator="VisuGPX - https://www.visugpx.com">
  <metadata>
    <name>14-SEP-19 Tour du Pic de Jalouvre. Rando 2.</name>
    <desc><![CDATA[Rando interclub des CAF de Valence et de Dijon, menée par Hélène.
La montée au Col du Rasoir demande de la vigilance et un pied sûr. De très beaux paysages, vu sur le Mont Blanc et l'ensemble des chaînes alentour.]]></desc>
  </metadata>
  <trk>
    <name><![CDATA[14-SEP-19 15:19:26]]></name>
    <trkseg>
      <trkpt lat="45.98884" lon="6.46761">
        <ele>1472.4</ele>
        <time>2019-09-14T07:00:02Z</time>
      </trkpt>
      <trkpt lat="45.98884" lon="6.46765">
        <ele>1471.92</ele>
        <time>2019-09-14T07:00:03Z</time>
      </trkpt>
      <trkpt lat="45.98892" lon="6.46776">
        <ele>1472.4</ele>
        <time>2019-09-14T07:00:15Z</time>
      </trkpt>
      <trkpt lat="45.98903" lon="6.46782">
        <ele>1473.84</ele>
        <time>2019-09-14T07:00:25Z</time>
      </trkpt>
      <trkpt lat="45.98908" lon="6.46781">
        <ele>1475.76</ele>
        <time>2019-09-14T07:00:39Z</time>
      </trkpt>
      <trkpt lat="45.98909" lon="6.46784">
        <ele>1479.13</ele>
        <time>2019-09-14T07:00:46Z</time>
      </trkpt>
      <trkpt lat="45.98909" lon="6.46785">
        <ele>1481.05</ele>
        <time>2019-09-14T07:00:47Z</time>
      </trkpt>
      <trkpt lat="45.98911" lon="6.46788">
        <ele>1487.78</ele>
        <time>2019-09-14T07:00:50Z</time>
      </trkpt>
      <trkpt lat="45.98913" lon="6.46789">
        <ele>1492.1</ele>
        <time>2019-09-14T07:00:52Z</time>
      </trkpt>
      <trkpt lat="45.98915" lon="6.46789">
        <ele>1496.43</ele>
        <time>2019-09-14T07:00:54Z</time>
      </trkpt>
      <trkpt lat="45.98917" lon="6.46789">
        <ele>1499.79</ele>
        <time>2019-09-14T07:00:56Z</time>
      </trkpt>
      <trkpt lat="45.98919" lon="6.4679">
        <ele>1503.64</ele>
        <time>2019-09-14T07:00:58Z</time>
      </trkpt>
      <trkpt lat="45.9892" lon="6.46791">
        <ele>1507</ele>
        <time>2019-09-14T07:01:00Z</time>
      </trkpt>
      <trkpt lat="45.98921" lon="6.4679">
        <ele>1511.33</ele>
        <time>2019-09-14T07:01:03Z</time>
      </trkpt>
      <trkpt lat="45.98926" lon="6.46792">
        <ele>1516.62</ele>
        <time>2019-09-14T07:01:08Z</time>
      </trkpt>
      <trkpt lat="45.98929" lon="6.46793">
        <ele>1519.98</ele>
        <time>2019-09-14T07:01:12Z</time>
      </trkpt>
      <trkpt lat="45.98932" lon="6.46794">
        <ele>1523.35</ele>
        <time>2019-09-14T07:01:16Z</time>
      </trkpt>
      <trkpt lat="45.98934" lon="6.46794">
        <ele>1526.71</ele>
        <time>2019-09-14T07:01:20Z</time>
      </trkpt>
      <trkpt lat="45.98936" lon="6.46795">
        <ele>1527.67</ele>
        <time>2019-09-14T07:01:22Z</time>
      </trkpt>
      <trkpt lat="45.98938" lon="6.46797">
        <ele>1529.11</ele>
        <time>2019-09-14T07:01:25Z</time>
      </trkpt>
      <trkpt lat="45.98939" lon="6.46798">
        <ele>1530.08</ele>
        <time>2019-09-14T07:01:27Z</time>
      </trkpt>
      <trkpt lat="45.9894" lon="6.468">
        <ele>1531.04</ele>
        <time>2019-09-14T07:01:29Z</time>
      </trkpt>
      <trkpt lat="45.98946" lon="6.468">
        <ele>1534.4</ele>
        <time>2019-09-14T07:01:35Z</time>
      </trkpt>
      <trkpt lat="45.98951" lon="6.46801">
        <ele>1536.8</ele>
        <time>2019-09-14T07:01:44Z</time>
      </trkpt>
      <trkpt lat="45.98955" lon="6.46798">
        <ele>1538.73</ele>
        <time>2019-09-14T07:01:53Z</time>
      </trkpt>
      <trkpt lat="45.98957" lon="6.46799">
        <ele>1540.65</ele>
        <time>2019-09-14T07:02:04Z</time>
      </trkpt>
      <trkpt lat="45.9896" lon="6.46798">
        <ele>1542.09</ele>
        <time>2019-09-14T07:02:14Z</time>
      </trkpt>
      <trkpt lat="45.98965" lon="6.46797">
        <ele>1544.01</ele>
        <time>2019-09-14T07:02:24Z</time>
      </trkpt>
      <trkpt lat="45.98971" lon="6.46793">
        <ele>1544.98</ele>
        <time>2019-09-14T07:02:33Z</time>
      </trkpt>
      <trkpt lat="45.98977" lon="6.46789">
        <ele>1546.9</ele>
        <time>2019-09-14T07:02:44Z</time>
      </trkpt>
      <trkpt lat="45.9898" lon="6.46788">
        <ele>1548.34</ele>
        <time>2019-09-14T07:02:54Z</time>
      </trkpt>
      <trkpt lat="45.98982" lon="6.46784">
        <ele>1549.78</ele>
        <time>2019-09-14T07:03:03Z</time>
      </trkpt>
      <trkpt lat="45.98981" lon="6.46782">
        <ele>1551.22</ele>
        <time>2019-09-14T07:03:12Z</time>
      </trkpt>
      <trkpt lat="45.98982" lon="6.46779">
        <ele>1552.67</ele>
        <time>2019-09-14T07:03:22Z</time>
      </trkpt>
      <trkpt lat="45.98983" lon="6.46773">
        <ele>1554.11</ele>
        <time>2019-09-14T07:03:32Z</time>
      </trkpt>
      <trkpt lat="45.98985" lon="6.46765">
        <ele>1555.55</ele>
        <time>2019-09-14T07:03:42Z</time>
      </trkpt>
      <trkpt lat="45.98985" lon="6.46757">
        <ele>1556.99</ele>
        <time>2019-09-14T07:03:51Z</time>
      </trkpt>
      <trkpt lat="45.98986" lon="6.46753">
        <ele>1557.95</ele>
        <time>2019-09-14T07:04:00Z</time>
      </trkpt>
      <trkpt lat="45.98985" lon="6.46751">
        <ele>1560.36</ele>
        <time>2019-09-14T07:04:10Z</time>
      </trkpt>
      <trkpt lat="45.98985" lon="6.46745">
        <ele>1561.32</ele>
        <time>2019-09-14T07:04:20Z</time>
      </trkpt>
      <trkpt lat="45.98988" lon="6.46742">
        <ele>1563.72</ele>
        <time>2019-09-14T07:04:32Z</time>
      </trkpt>
      <trkpt lat="45.98989" lon="6.4674">
        <ele>1565.16</ele>
        <time>2019-09-14T07:04:41Z</time>
      </trkpt>
      <trkpt lat="45.9899" lon="6.46739">
        <ele>1565.64</ele>
        <time>2019-09-14T07:04:48Z</time>
      </trkpt>
      <trkpt lat="45.9899" lon="6.46737">
        <ele>1566.61</ele>
        <time>2019-09-14T07:04:56Z</time>
      </trkpt>
      <trkpt lat="45.98991" lon="6.46736">
        <ele>1568.53</ele>
        <time>2019-09-14T07:05:08Z</time>
      </trkpt>
      <trkpt lat="45.98992" lon="6.46732">
        <ele>1569.01</ele>
        <time>2019-09-14T07:05:17Z</time>
      </trkpt>
      <trkpt lat="45.98993" lon="6.46727">
        <ele>1570.45</ele>
        <time>2019-09-14T07:05:28Z</time>
      </trkpt>
      <trkpt lat="45.98994" lon="6.46721">
        <ele>1572.37</ele>
        <time>2019-09-14T07:05:36Z</time>
      </trkpt>
      <trkpt lat="45.98996" lon="6.46718">
        <ele>1573.33</ele>
        <time>2019-09-14T07:05:45Z</time>
      </trkpt>
      <trkpt lat="45.98998" lon="6.46711">
        <ele>1575.26</ele>
        <time>2019-09-14T07:05:57Z</time>
      </trkpt>
      <trkpt lat="45.98999" lon="6.46708">
        <ele>1576.7</ele>
        <time>2019-09-14T07:06:06Z</time>
      </trkpt>
      <trkpt lat="45.99001" lon="6.46707">
        <ele>1577.66</ele>
        <time>2019-09-14T07:06:16Z</time>
      </trkpt>
      <trkpt lat="45.99001" lon="6.46706">
        <ele>1579.58</ele>
        <time>2019-09-14T07:06:26Z</time>
      </trkpt>
      <trkpt lat="45.99002" lon="6.46705">
        <ele>1581.51</ele>
        <time>2019-09-14T07:06:36Z</time>
      </trkpt>
      <trkpt lat="45.99002" lon="6.46702">
        <ele>1582.95</ele>
        <time>2019-09-14T07:06:46Z</time>
      </trkpt>
      <trkpt lat="45.99002" lon="6.467">
        <ele>1584.87</ele>
        <time>2019-09-14T07:06:57Z</time>
      </trkpt>
      <trkpt lat="45.99005" lon="6.46699">
        <ele>1586.31</ele>
        <time>2019-09-14T07:07:07Z</time>
      </trkpt>
      <trkpt lat="45.99009" lon="6.46698">
        <ele>1587.27</ele>
        <time>2019-09-14T07:07:15Z</time>
      </trkpt>
      <trkpt lat="45.9901" lon="6.46697">
        <ele>1589.2</ele>
        <time>2019-09-14T07:07:24Z</time>
      </trkpt>
      <trkpt lat="45.99014" lon="6.46692">
        <ele>1591.12</ele>
        <time>2019-09-14T07:07:35Z</time>
      </trkpt>
      <trkpt lat="45.99018" lon="6.4669">
        <ele>1593.04</ele>
        <time>2019-09-14T07:07:45Z</time>
      </trkpt>
      <trkpt lat="45.99021" lon="6.46688">
        <ele>1594</ele>
        <time>2019-09-14T07:07:54Z</time>
      </trkpt>
      <trkpt lat="45.99022" lon="6.46689">
        <ele>1595.93</ele>
        <time>2019-09-14T07:08:03Z</time>
      </trkpt>
      <trkpt lat="45.99024" lon="6.46698">
        <ele>1597.85</ele>
        <time>2019-09-14T07:08:14Z</time>
      </trkpt>
      <trkpt lat="45.99025" lon="6.46703">
        <ele>1598.81</ele>
        <time>2019-09-14T07:08:23Z</time>
      </trkpt>
      <trkpt lat="45.99025" lon="6.46705">
        <ele>1600.25</ele>
        <time>2019-09-14T07:08:34Z</time>
      </trkpt>
      <trkpt lat="45.99028" lon="6.46711">
        <ele>1602.17</ele>
        <time>2019-09-14T07:08:44Z</time>
      </trkpt>
      <trkpt lat="45.99028" lon="6.46715">
        <ele>1603.62</ele>
        <time>2019-09-14T07:08:54Z</time>
      </trkpt>
      <trkpt lat="45.99028" lon="6.46719">
        <ele>1605.06</ele>
        <time>2019-09-14T07:09:04Z</time>
      </trkpt>
      <trkpt lat="45.99026" lon="6.46721">
        <ele>1606.5</ele>
        <time>2019-09-14T07:09:12Z</time>
      </trkpt>
      <trkpt lat="45.99025" lon="6.46724">
        <ele>1608.42</ele>
        <time>2019-09-14T07:09:22Z</time>
      </trkpt>
      <trkpt lat="45.99031" lon="6.46736">
        <ele>1608.9</ele>
        <time>2019-09-14T07:09:27Z</time>
      </trkpt>
      <trkpt lat="45.99037" lon="6.46738">
        <ele>1610.83</ele>
        <time>2019-09-14T07:09:38Z</time>
      </trkpt>
      <trkpt lat="45.99042" lon="6.46738">
        <ele>1612.75</ele>
        <time>2019-09-14T07:09:50Z</time>
      </trkpt>
      <trkpt lat="45.99046" lon="6.46738">
        <ele>1614.19</ele>
        <time>2019-09-14T07:10:02Z</time>
      </trkpt>
      <trkpt lat="45.99051" lon="6.46737">
        <ele>1615.63</ele>
        <time>2019-09-14T07:10:13Z</time>
      </trkpt>
      <trkpt lat="45.99054" lon="6.46737">
        <ele>1617.56</ele>
        <time>2019-09-14T07:10:24Z</time>
      </trkpt>
      <trkpt lat="45.99056" lon="6.46737">
        <ele>1619</ele>
        <time>2019-09-14T07:10:33Z</time>
      </trkpt>
      <trkpt lat="45.9906" lon="6.46736">
        <ele>1620.44</ele>
        <time>2019-09-14T07:10:44Z</time>
      </trkpt>
      <trkpt lat="45.99063" lon="6.46737">
        <ele>1621.88</ele>
        <time>2019-09-14T07:10:53Z</time>
      </trkpt>
      <trkpt lat="45.99067" lon="6.46735">
        <ele>1624.28</ele>
        <time>2019-09-14T07:11:07Z</time>
      </trkpt>
      <trkpt lat="45.99071" lon="6.46735">
        <ele>1625.73</ele>
        <time>2019-09-14T07:11:17Z</time>
      </trkpt>
      <trkpt lat="45.99075" lon="6.46735">
        <ele>1627.65</ele>
        <time>2019-09-14T07:11:29Z</time>
      </trkpt>
      <trkpt lat="45.9908" lon="6.46736">
        <ele>1630.05</ele>
        <time>2019-09-14T07:11:40Z</time>
      </trkpt>
      <trkpt lat="45.99083" lon="6.46738">
        <ele>1630.53</ele>
        <time>2019-09-14T07:11:49Z</time>
      </trkpt>
      <trkpt lat="45.99086" lon="6.46738">
        <ele>1632.46</ele>
        <time>2019-09-14T07:11:59Z</time>
      </trkpt>
      <trkpt lat="45.9909" lon="6.46738">
        <ele>1634.38</ele>
        <time>2019-09-14T07:12:10Z</time>
      </trkpt>
      <trkpt lat="45.99092" lon="6.46735">
        <ele>1635.82</ele>
        <time>2019-09-14T07:12:21Z</time>
      </trkpt>
      <trkpt lat="45.99095" lon="6.46733">
        <ele>1638.22</ele>
        <time>2019-09-14T07:12:33Z</time>
      </trkpt>
      <trkpt lat="45.99099" lon="6.46734">
        <ele>1639.67</ele>
        <time>2019-09-14T07:12:45Z</time>
      </trkpt>
      <trkpt lat="45.99102" lon="6.46734">
        <ele>1641.11</ele>
        <time>2019-09-14T07:12:54Z</time>
      </trkpt>
      <trkpt lat="45.99102" lon="6.46742">
        <ele>1641.59</ele>
        <time>2019-09-14T07:13:03Z</time>
      </trkpt>
      <trkpt lat="45.99108" lon="6.46751">
        <ele>1642.55</ele>
        <time>2019-09-14T07:13:13Z</time>
      </trkpt>
      <trkpt lat="45.99117" lon="6.46759">
        <ele>1643.51</ele>
        <time>2019-09-14T07:13:25Z</time>
      </trkpt>
      <trkpt lat="45.99122" lon="6.46768">
        <ele>1644.47</ele>
        <time>2019-09-14T07:13:36Z</time>
      </trkpt>
      <trkpt lat="45.99123" lon="6.46769">
        <ele>1645.43</ele>
        <time>2019-09-14T07:13:40Z</time>
      </trkpt>
      <trkpt lat="45.99129" lon="6.46772">
        <ele>1646.88</ele>
        <time>2019-09-14T07:13:50Z</time>
      </trkpt>
      <trkpt lat="45.99136" lon="6.46776">
        <ele>1648.32</ele>
        <time>2019-09-14T07:14:01Z</time>
      </trkpt>
      <trkpt lat="45.99142" lon="6.46778">
        <ele>1649.76</ele>
        <time>2019-09-14T07:14:11Z</time>
      </trkpt>
      <trkpt lat="45.99146" lon="6.46779">
        <ele>1651.2</ele>
        <time>2019-09-14T07:14:20Z</time>
      </trkpt>
      <trkpt lat="45.99148" lon="6.46779">
        <ele>1651.68</ele>
        <time>2019-09-14T07:14:23Z</time>
      </trkpt>
      <trkpt lat="45.99154" lon="6.46781">
        <ele>1653.12</ele>
        <time>2019-09-14T07:14:33Z</time>
      </trkpt>
      <trkpt lat="45.99158" lon="6.46783">
        <ele>1654.57</ele>
        <time>2019-09-14T07:14:43Z</time>
      </trkpt>
      <trkpt lat="45.99161" lon="6.46788">
        <ele>1655.53</ele>
        <time>2019-09-14T07:14:54Z</time>
      </trkpt>
      <trkpt lat="45.99165" lon="6.46789">
        <ele>1657.93</ele>
        <time>2019-09-14T07:15:06Z</time>
      </trkpt>
      <trkpt lat="45.99166" lon="6.46788">
        <ele>1659.85</ele>
        <time>2019-09-14T07:15:17Z</time>
      </trkpt>
      <trkpt lat="45.99167" lon="6.46787">
        <ele>1660.33</ele>
        <time>2019-09-14T07:15:25Z</time>
      </trkpt>
      <trkpt lat="45.99167" lon="6.46783">
        <ele>1661.78</ele>
        <time>2019-09-14T07:15:34Z</time>
      </trkpt>
      <trkpt lat="45.99168" lon="6.46781">
        <ele>1662.74</ele>
        <time>2019-09-14T07:15:46Z</time>
      </trkpt>
      <trkpt lat="45.99169" lon="6.46777">
        <ele>1663.7</ele>
        <time>2019-09-14T07:15:57Z</time>
      </trkpt>
      <trkpt lat="45.99171" lon="6.46776">
        <ele>1665.14</ele>
        <time>2019-09-14T07:16:12Z</time>
      </trkpt>
      <trkpt lat="45.99172" lon="6.46774">
        <ele>1666.58</ele>
        <time>2019-09-14T07:16:22Z</time>
      </trkpt>
      <trkpt lat="45.99174" lon="6.46773">
        <ele>1667.54</ele>
        <time>2019-09-14T07:16:33Z</time>
      </trkpt>
      <trkpt lat="45.99177" lon="6.46776">
        <ele>1668.99</ele>
        <time>2019-09-14T07:16:45Z</time>
      </trkpt>
      <trkpt lat="45.99179" lon="6.46776">
        <ele>1671.39</ele>
        <time>2019-09-14T07:16:57Z</time>
      </trkpt>
      <trkpt lat="45.99181" lon="6.46775">
        <ele>1672.35</ele>
        <time>2019-09-14T07:17:05Z</time>
      </trkpt>
      <trkpt lat="45.99182" lon="6.46771">
        <ele>1673.79</ele>
        <time>2019-09-14T07:17:15Z</time>
      </trkpt>
      <trkpt lat="45.99182" lon="6.46769">
        <ele>1675.23</ele>
        <time>2019-09-14T07:17:25Z</time>
      </trkpt>
      <trkpt lat="45.99182" lon="6.46766">
        <ele>1676.2</ele>
        <time>2019-09-14T07:17:34Z</time>
      </trkpt>
      <trkpt lat="45.99183" lon="6.46763">
        <ele>1677.64</ele>
        <time>2019-09-14T07:17:46Z</time>
      </trkpt>
      <trkpt lat="45.99183" lon="6.46757">
        <ele>1679.56</ele>
        <time>2019-09-14T07:17:57Z</time>
      </trkpt>
      <trkpt lat="45.99185" lon="6.46754">
        <ele>1681</ele>
        <time>2019-09-14T07:18:07Z</time>
      </trkpt>
      <trkpt lat="45.99188" lon="6.46755">
        <ele>1682.44</ele>
        <time>2019-09-14T07:18:17Z</time>
      </trkpt>
      <trkpt lat="45.99189" lon="6.46755">
        <ele>1683.89</ele>
        <time>2019-09-14T07:18:29Z</time>
      </trkpt>
      <trkpt lat="45.99191" lon="6.46753">
        <ele>1684.85</ele>
        <time>2019-09-14T07:18:38Z</time>
      </trkpt>
      <trkpt lat="45.99192" lon="6.4675">
        <ele>1685.81</ele>
        <time>2019-09-14T07:18:48Z</time>
      </trkpt>
      <trkpt lat="45.99195" lon="6.4675">
        <ele>1687.25</ele>
        <time>2019-09-14T07:18:57Z</time>
      </trkpt>
      <trkpt lat="45.99197" lon="6.46749">
        <ele>1689.65</ele>
        <time>2019-09-14T07:19:08Z</time>
      </trkpt>
      <trkpt lat="45.99198" lon="6.46745">
        <ele>1691.58</ele>
        <time>2019-09-14T07:19:21Z</time>
      </trkpt>
      <trkpt lat="45.992" lon="6.4674">
        <ele>1688.21</ele>
        <time>2019-09-14T07:19:30Z</time>
      </trkpt>
      <trkpt lat="45.992" lon="6.4674">
        <ele>1694.46</ele>
        <time>2019-09-14T07:19:31Z</time>
      </trkpt>
      <trkpt lat="45.99201" lon="6.46738">
        <ele>1693.02</ele>
        <time>2019-09-14T07:19:42Z</time>
      </trkpt>
      <trkpt lat="45.99201" lon="6.46737">
        <ele>1693.02</ele>
        <time>2019-09-14T07:19:52Z</time>
      </trkpt>
      <trkpt lat="45.99201" lon="6.46736">
        <ele>1693.02</ele>
        <time>2019-09-14T07:20:10Z</time>
      </trkpt>
      <trkpt lat="45.99202" lon="6.46736">
        <ele>1693.02</ele>
        <time>2019-09-14T07:20:28Z</time>
      </trkpt>
      <trkpt lat="45.99201" lon="6.46735">
        <ele>1692.54</ele>
        <time>2019-09-14T07:20:48Z</time>
      </trkpt>
      <trkpt lat="45.99202" lon="6.46733">
        <ele>1693.02</ele>
        <time>2019-09-14T07:21:04Z</time>
      </trkpt>
      <trkpt lat="45.99202" lon="6.46732">
        <ele>1693.98</ele>
        <time>2019-09-14T07:21:24Z</time>
      </trkpt>
      <trkpt lat="45.99202" lon="6.46732">
        <ele>1693.5</ele>
        <time>2019-09-14T07:21:45Z</time>
      </trkpt>
      <trkpt lat="45.99202" lon="6.46731">
        <ele>1692.06</ele>
        <time>2019-09-14T07:21:50Z</time>
      </trkpt>
      <trkpt lat="45.99201" lon="6.46722">
        <ele>1694.94</ele>
        <time>2019-09-14T07:22:00Z</time>
      </trkpt>
      <trkpt lat="45.99202" lon="6.46718">
        <ele>1694.94</ele>
        <time>2019-09-14T07:22:06Z</time>
      </trkpt>
      <trkpt lat="45.99201" lon="6.46715">
        <ele>1694.46</ele>
        <time>2019-09-14T07:22:16Z</time>
      </trkpt>
      <trkpt lat="45.99201" lon="6.46714">
        <ele>1696.38</ele>
        <time>2019-09-14T07:22:19Z</time>
      </trkpt>
      <trkpt lat="45.99201" lon="6.46711">
        <ele>1697.34</ele>
        <time>2019-09-14T07:22:30Z</time>
      </trkpt>
      <trkpt lat="45.99202" lon="6.46706">
        <ele>1699.27</ele>
        <time>2019-09-14T07:22:38Z</time>
      </trkpt>
      <trkpt lat="45.99202" lon="6.46698">
        <ele>1700.71</ele>
        <time>2019-09-14T07:22:52Z</time>
      </trkpt>
      <trkpt lat="45.99202" lon="6.46691">
        <ele>1702.63</ele>
        <time>2019-09-14T07:23:04Z</time>
      </trkpt>
      <trkpt lat="45.99203" lon="6.46686">
        <ele>1704.55</ele>
        <time>2019-09-14T07:23:14Z</time>
      </trkpt>
      <trkpt lat="45.99204" lon="6.46679">
        <ele>1705.52</ele>
        <time>2019-09-14T07:23:26Z</time>
      </trkpt>
      <trkpt lat="45.99204" lon="6.46673">
        <ele>1707.44</ele>
        <time>2019-09-14T07:23:37Z</time>
      </trkpt>
      <trkpt lat="45.99205" lon="6.46668">
        <ele>1709.84</ele>
        <time>2019-09-14T07:23:50Z</time>
      </trkpt>
      <trkpt lat="45.99206" lon="6.46663">
        <ele>1710.8</ele>
        <time>2019-09-14T07:24:01Z</time>
      </trkpt>
      <trkpt lat="45.99205" lon="6.46657">
        <ele>1709.84</ele>
        <time>2019-09-14T07:24:11Z</time>
      </trkpt>
      <trkpt lat="45.99206" lon="6.46657">
        <ele>1713.21</ele>
        <time>2019-09-14T07:24:12Z</time>
      </trkpt>
      <trkpt lat="45.99205" lon="6.46654">
        <ele>1713.69</ele>
        <time>2019-09-14T07:24:25Z</time>
      </trkpt>
      <trkpt lat="45.99206" lon="6.46648">
        <ele>1714.17</ele>
        <time>2019-09-14T07:24:34Z</time>
      </trkpt>
      <trkpt lat="45.99206" lon="6.46647">
        <ele>1716.57</ele>
        <time>2019-09-14T07:24:38Z</time>
      </trkpt>
      <trkpt lat="45.99207" lon="6.46641">
        <ele>1714.65</ele>
        <time>2019-09-14T07:24:47Z</time>
      </trkpt>
      <trkpt lat="45.99207" lon="6.46641">
        <ele>1718.01</ele>
        <time>2019-09-14T07:24:48Z</time>
      </trkpt>
      <trkpt lat="45.99207" lon="6.46635">
        <ele>1718.97</ele>
        <time>2019-09-14T07:24:59Z</time>
      </trkpt>
      <trkpt lat="45.99205" lon="6.4663">
        <ele>1720.42</ele>
        <time>2019-09-14T07:25:12Z</time>
      </trkpt>
      <trkpt lat="45.99206" lon="6.46628">
        <ele>1721.86</ele>
        <time>2019-09-14T07:25:21Z</time>
      </trkpt>
      <trkpt lat="45.99207" lon="6.46627">
        <ele>1724.26</ele>
        <time>2019-09-14T07:25:33Z</time>
      </trkpt>
      <trkpt lat="45.99211" lon="6.46625">
        <ele>1724.74</ele>
        <time>2019-09-14T07:25:43Z</time>
      </trkpt>
      <trkpt lat="45.99215" lon="6.46624">
        <ele>1728.11</ele>
        <time>2019-09-14T07:25:53Z</time>
      </trkpt>
      <trkpt lat="45.99216" lon="6.46618">
        <ele>1729.55</ele>
        <time>2019-09-14T07:26:05Z</time>
      </trkpt>
      <trkpt lat="45.99217" lon="6.46611">
        <ele>1729.07</ele>
        <time>2019-09-14T07:26:18Z</time>
      </trkpt>
      <trkpt lat="45.99216" lon="6.46607">
        <ele>1732.43</ele>
        <time>2019-09-14T07:26:22Z</time>
      </trkpt>
      <trkpt lat="45.99215" lon="6.46602">
        <ele>1732.91</ele>
        <time>2019-09-14T07:26:28Z</time>
      </trkpt>
      <trkpt lat="45.99214" lon="6.46602">
        <ele>1733.39</ele>
        <time>2019-09-14T07:26:37Z</time>
      </trkpt>
      <trkpt lat="45.99216" lon="6.46599">
        <ele>1734.84</ele>
        <time>2019-09-14T07:26:45Z</time>
      </trkpt>
      <trkpt lat="45.99219" lon="6.46598">
        <ele>1736.28</ele>
        <time>2019-09-14T07:26:54Z</time>
      </trkpt>
      <trkpt lat="45.99221" lon="6.46591">
        <ele>1736.28</ele>
        <time>2019-09-14T07:27:06Z</time>
      </trkpt>
      <trkpt lat="45.99221" lon="6.46587">
        <ele>1740.12</ele>
        <time>2019-09-14T07:27:18Z</time>
      </trkpt>
      <trkpt lat="45.99223" lon="6.46581">
        <ele>1741.57</ele>
        <time>2019-09-14T07:27:29Z</time>
      </trkpt>
      <trkpt lat="45.99223" lon="6.46574">
        <ele>1742.53</ele>
        <time>2019-09-14T07:27:39Z</time>
      </trkpt>
      <trkpt lat="45.99222" lon="6.4657">
        <ele>1743.49</ele>
        <time>2019-09-14T07:27:50Z</time>
      </trkpt>
      <trkpt lat="45.99221" lon="6.46562">
        <ele>1744.93</ele>
        <time>2019-09-14T07:28:00Z</time>
      </trkpt>
      <trkpt lat="45.9922" lon="6.46557">
        <ele>1748.29</ele>
        <time>2019-09-14T07:28:10Z</time>
      </trkpt>
      <trkpt lat="45.99219" lon="6.46555">
        <ele>1748.78</ele>
        <time>2019-09-14T07:28:18Z</time>
      </trkpt>
      <trkpt lat="45.99218" lon="6.46551">
        <ele>1750.22</ele>
        <time>2019-09-14T07:28:28Z</time>
      </trkpt>
      <trkpt lat="45.99216" lon="6.46544">
        <ele>1751.18</ele>
        <time>2019-09-14T07:28:40Z</time>
      </trkpt>
      <trkpt lat="45.99219" lon="6.46544">
        <ele>1753.58</ele>
        <time>2019-09-14T07:28:51Z</time>
      </trkpt>
      <trkpt lat="45.99223" lon="6.46544">
        <ele>1755.02</ele>
        <time>2019-09-14T07:29:02Z</time>
      </trkpt>
      <trkpt lat="45.99227" lon="6.46543">
        <ele>1755.5</ele>
        <time>2019-09-14T07:29:12Z</time>
      </trkpt>
      <trkpt lat="45.99228" lon="6.46539">
        <ele>1758.39</ele>
        <time>2019-09-14T07:29:24Z</time>
      </trkpt>
      <trkpt lat="45.99231" lon="6.46538">
        <ele>1755.99</ele>
        <time>2019-09-14T07:29:33Z</time>
      </trkpt>
      <trkpt lat="45.99231" lon="6.46538">
        <ele>1759.83</ele>
        <time>2019-09-14T07:29:34Z</time>
      </trkpt>
      <trkpt lat="45.99231" lon="6.46538">
        <ele>1760.31</ele>
        <time>2019-09-14T07:29:41Z</time>
      </trkpt>
      <trkpt lat="45.99234" lon="6.46535">
        <ele>1762.23</ele>
        <time>2019-09-14T07:29:50Z</time>
      </trkpt>
      <trkpt lat="45.99234" lon="6.46535">
        <ele>1758.87</ele>
        <time>2019-09-14T07:29:51Z</time>
      </trkpt>
      <trkpt lat="45.99236" lon="6.46535">
        <ele>1762.23</ele>
        <time>2019-09-14T07:29:55Z</time>
      </trkpt>
      <trkpt lat="45.99236" lon="6.46534">
        <ele>1762.23</ele>
        <time>2019-09-14T07:29:56Z</time>
      </trkpt>
      <trkpt lat="45.99236" lon="6.46535">
        <ele>1760.31</ele>
        <time>2019-09-14T07:29:58Z</time>
      </trkpt>
      <trkpt lat="45.99238" lon="6.46534">
        <ele>1763.68</ele>
        <time>2019-09-14T07:30:05Z</time>
      </trkpt>
      <trkpt lat="45.9924" lon="6.4653">
        <ele>1764.64</ele>
        <time>2019-09-14T07:30:14Z</time>
      </trkpt>
      <trkpt lat="45.99242" lon="6.4653">
        <ele>1767.04</ele>
        <time>2019-09-14T07:30:24Z</time>
      </trkpt>
      <trkpt lat="45.99243" lon="6.46527">
        <ele>1767.52</ele>
        <time>2019-09-14T07:30:33Z</time>
      </trkpt>
      <trkpt lat="45.99245" lon="6.46526">
        <ele>1769.44</ele>
        <time>2019-09-14T07:30:43Z</time>
      </trkpt>
      <trkpt lat="45.99248" lon="6.46523">
        <ele>1769.92</ele>
        <time>2019-09-14T07:30:53Z</time>
      </trkpt>
      <trkpt lat="45.99248" lon="6.46522">
        <ele>1771.37</ele>
        <time>2019-09-14T07:31:04Z</time>
      </trkpt>
      <trkpt lat="45.99251" lon="6.46521">
        <ele>1772.81</ele>
        <time>2019-09-14T07:31:13Z</time>
      </trkpt>
      <trkpt lat="45.99254" lon="6.46518">
        <ele>1774.25</ele>
        <time>2019-09-14T07:31:24Z</time>
      </trkpt>
      <trkpt lat="45.99255" lon="6.46515">
        <ele>1774.73</ele>
        <time>2019-09-14T07:31:37Z</time>
      </trkpt>
      <trkpt lat="45.99254" lon="6.46515">
        <ele>1778.1</ele>
        <time>2019-09-14T07:31:38Z</time>
      </trkpt>
      <trkpt lat="45.99252" lon="6.46506">
        <ele>1778.1</ele>
        <time>2019-09-14T07:31:49Z</time>
      </trkpt>
      <trkpt lat="45.99252" lon="6.46506">
        <ele>1779.54</ele>
        <time>2019-09-14T07:32:04Z</time>
      </trkpt>
      <trkpt lat="45.99252" lon="6.46505">
        <ele>1778.58</ele>
        <time>2019-09-14T07:32:07Z</time>
      </trkpt>
      <trkpt lat="45.99249" lon="6.46502">
        <ele>1781.46</ele>
        <time>2019-09-14T07:32:17Z</time>
      </trkpt>
      <trkpt lat="45.99247" lon="6.46496">
        <ele>1782.9</ele>
        <time>2019-09-14T07:32:28Z</time>
      </trkpt>
      <trkpt lat="45.99245" lon="6.46485">
        <ele>1784.34</ele>
        <time>2019-09-14T07:32:40Z</time>
      </trkpt>
      <trkpt lat="45.99243" lon="6.46473">
        <ele>1787.23</ele>
        <time>2019-09-14T07:32:52Z</time>
      </trkpt>
      <trkpt lat="45.99242" lon="6.46467">
        <ele>1787.23</ele>
        <time>2019-09-14T07:33:00Z</time>
      </trkpt>
      <trkpt lat="45.99242" lon="6.46456">
        <ele>1789.63</ele>
        <time>2019-09-14T07:33:11Z</time>
      </trkpt>
      <trkpt lat="45.99244" lon="6.46448">
        <ele>1790.11</ele>
        <time>2019-09-14T07:33:20Z</time>
      </trkpt>
      <trkpt lat="45.99243" lon="6.46444">
        <ele>1791.55</ele>
        <time>2019-09-14T07:33:30Z</time>
      </trkpt>
      <trkpt lat="45.99243" lon="6.46443">
        <ele>1791.55</ele>
        <time>2019-09-14T07:33:31Z</time>
      </trkpt>
      <trkpt lat="45.99243" lon="6.46438">
        <ele>1792.52</ele>
        <time>2019-09-14T07:33:41Z</time>
      </trkpt>
      <trkpt lat="45.99243" lon="6.46438">
        <ele>1794.44</ele>
        <time>2019-09-14T07:33:43Z</time>
      </trkpt>
      <trkpt lat="45.99243" lon="6.46428">
        <ele>1795.4</ele>
        <time>2019-09-14T07:33:54Z</time>
      </trkpt>
      <trkpt lat="45.99242" lon="6.46418">
        <ele>1796.36</ele>
        <time>2019-09-14T07:34:07Z</time>
      </trkpt>
      <trkpt lat="45.99242" lon="6.46409">
        <ele>1796.84</ele>
        <time>2019-09-14T07:34:18Z</time>
      </trkpt>
      <trkpt lat="45.99241" lon="6.46406">
        <ele>1800.21</ele>
        <time>2019-09-14T07:34:24Z</time>
      </trkpt>
      <trkpt lat="45.9924" lon="6.46401">
        <ele>1802.13</ele>
        <time>2019-09-14T07:34:34Z</time>
      </trkpt>
      <trkpt lat="45.99239" lon="6.46397">
        <ele>1802.13</ele>
        <time>2019-09-14T07:34:46Z</time>
      </trkpt>
      <trkpt lat="45.99238" lon="6.46393">
        <ele>1805.01</ele>
        <time>2019-09-14T07:34:59Z</time>
      </trkpt>
      <trkpt lat="45.99237" lon="6.46392">
        <ele>1801.65</ele>
        <time>2019-09-14T07:35:00Z</time>
      </trkpt>
      <trkpt lat="45.99237" lon="6.46392">
        <ele>1805.49</ele>
        <time>2019-09-14T07:35:01Z</time>
      </trkpt>
      <trkpt lat="45.99237" lon="6.46389">
        <ele>1805.97</ele>
        <time>2019-09-14T07:35:13Z</time>
      </trkpt>
      <trkpt lat="45.99238" lon="6.46386">
        <ele>1806.45</ele>
        <time>2019-09-14T07:35:19Z</time>
      </trkpt>
      <trkpt lat="45.99239" lon="6.46379">
        <ele>1808.38</ele>
        <time>2019-09-14T07:35:30Z</time>
      </trkpt>
      <trkpt lat="45.99238" lon="6.46377">
        <ele>1809.82</ele>
        <time>2019-09-14T07:35:38Z</time>
      </trkpt>
      <trkpt lat="45.99238" lon="6.46377">
        <ele>1808.38</ele>
        <time>2019-09-14T07:35:40Z</time>
      </trkpt>
      <trkpt lat="45.9924" lon="6.4637">
        <ele>1810.3</ele>
        <time>2019-09-14T07:35:50Z</time>
      </trkpt>
      <trkpt lat="45.99239" lon="6.46368">
        <ele>1811.26</ele>
        <time>2019-09-14T07:36:01Z</time>
      </trkpt>
      <trkpt lat="45.99239" lon="6.46364">
        <ele>1814.63</ele>
        <time>2019-09-14T07:36:09Z</time>
      </trkpt>
      <trkpt lat="45.99239" lon="6.46362">
        <ele>1811.26</ele>
        <time>2019-09-14T07:36:11Z</time>
      </trkpt>
      <trkpt lat="45.99239" lon="6.46361">
        <ele>1814.63</ele>
        <time>2019-09-14T07:36:12Z</time>
      </trkpt>
      <trkpt lat="45.99238" lon="6.4636">
        <ele>1815.11</ele>
        <time>2019-09-14T07:36:24Z</time>
      </trkpt>
      <trkpt lat="45.99238" lon="6.46358">
        <ele>1816.55</ele>
        <time>2019-09-14T07:36:34Z</time>
      </trkpt>
      <trkpt lat="45.99239" lon="6.46354">
        <ele>1818.95</ele>
        <time>2019-09-14T07:36:46Z</time>
      </trkpt>
      <trkpt lat="45.9924" lon="6.4635">
        <ele>1817.03</ele>
        <time>2019-09-14T07:36:57Z</time>
      </trkpt>
      <trkpt lat="45.9924" lon="6.4635">
        <ele>1820.87</ele>
        <time>2019-09-14T07:36:58Z</time>
      </trkpt>
      <trkpt lat="45.9924" lon="6.46346">
        <ele>1821.35</ele>
        <time>2019-09-14T07:37:09Z</time>
      </trkpt>
      <trkpt lat="45.99239" lon="6.46338">
        <ele>1823.28</ele>
        <time>2019-09-14T07:37:22Z</time>
      </trkpt>
      <trkpt lat="45.99239" lon="6.46332">
        <ele>1824.24</ele>
        <time>2019-09-14T07:37:33Z</time>
      </trkpt>
      <trkpt lat="45.99238" lon="6.46327">
        <ele>1825.68</ele>
        <time>2019-09-14T07:37:41Z</time>
      </trkpt>
      <trkpt lat="45.99237" lon="6.46322">
        <ele>1826.16</ele>
        <time>2019-09-14T07:37:53Z</time>
      </trkpt>
      <trkpt lat="45.99237" lon="6.46317">
        <ele>1828.08</ele>
        <time>2019-09-14T07:38:03Z</time>
      </trkpt>
      <trkpt lat="45.99237" lon="6.46314">
        <ele>1830.97</ele>
        <time>2019-09-14T07:38:14Z</time>
      </trkpt>
      <trkpt lat="45.99236" lon="6.46308">
        <ele>1831.45</ele>
        <time>2019-09-14T07:38:27Z</time>
      </trkpt>
      <trkpt lat="45.99234" lon="6.46305">
        <ele>1832.41</ele>
        <time>2019-09-14T07:38:38Z</time>
      </trkpt>
      <trkpt lat="45.99235" lon="6.46305">
        <ele>1834.81</ele>
        <time>2019-09-14T07:38:48Z</time>
      </trkpt>
      <trkpt lat="45.99239" lon="6.46303">
        <ele>1834.81</ele>
        <time>2019-09-14T07:38:57Z</time>
      </trkpt>
      <trkpt lat="45.99244" lon="6.46305">
        <ele>1836.26</ele>
        <time>2019-09-14T07:39:09Z</time>
      </trkpt>
      <trkpt lat="45.99248" lon="6.46307">
        <ele>1838.66</ele>
        <time>2019-09-14T07:39:21Z</time>
      </trkpt>
      <trkpt lat="45.9925" lon="6.46306">
        <ele>1838.66</ele>
        <time>2019-09-14T07:39:32Z</time>
      </trkpt>
      <trkpt lat="45.99253" lon="6.46307">
        <ele>1840.1</ele>
        <time>2019-09-14T07:39:41Z</time>
      </trkpt>
      <trkpt lat="45.99257" lon="6.4631">
        <ele>1842.98</ele>
        <time>2019-09-14T07:39:53Z</time>
      </trkpt>
      <trkpt lat="45.99262" lon="6.4631">
        <ele>1841.06</ele>
        <time>2019-09-14T07:40:05Z</time>
      </trkpt>
      <trkpt lat="45.99262" lon="6.4631">
        <ele>1844.43</ele>
        <time>2019-09-14T07:40:06Z</time>
      </trkpt>
      <trkpt lat="45.99264" lon="6.46311">
        <ele>1846.35</ele>
        <time>2019-09-14T07:40:16Z</time>
      </trkpt>
      <trkpt lat="45.99267" lon="6.46314">
        <ele>1847.79</ele>
        <time>2019-09-14T07:40:27Z</time>
      </trkpt>
      <trkpt lat="45.99269" lon="6.46316">
        <ele>1847.79</ele>
        <time>2019-09-14T07:40:37Z</time>
      </trkpt>
      <trkpt lat="45.99272" lon="6.46317">
        <ele>1848.75</ele>
        <time>2019-09-14T07:40:49Z</time>
      </trkpt>
      <trkpt lat="45.99273" lon="6.46316">
        <ele>1852.6</ele>
        <time>2019-09-14T07:40:53Z</time>
      </trkpt>
      <trkpt lat="45.99273" lon="6.46316">
        <ele>1848.27</ele>
        <time>2019-09-14T07:40:56Z</time>
      </trkpt>
      <trkpt lat="45.99274" lon="6.46315">
        <ele>1852.12</ele>
        <time>2019-09-14T07:40:59Z</time>
      </trkpt>
      <trkpt lat="45.99276" lon="6.46315">
        <ele>1852.12</ele>
        <time>2019-09-14T07:41:07Z</time>
      </trkpt>
      <trkpt lat="45.99277" lon="6.46314">
        <ele>1850.68</ele>
        <time>2019-09-14T07:41:19Z</time>
      </trkpt>
      <trkpt lat="45.99277" lon="6.46314">
        <ele>1854.52</ele>
        <time>2019-09-14T07:41:20Z</time>
      </trkpt>
      <trkpt lat="45.99279" lon="6.46314">
        <ele>1854.52</ele>
        <time>2019-09-14T07:41:30Z</time>
      </trkpt>
      <trkpt lat="45.99281" lon="6.46315">
        <ele>1855.96</ele>
        <time>2019-09-14T07:41:42Z</time>
      </trkpt>
      <trkpt lat="45.99281" lon="6.46315">
        <ele>1858.85</ele>
        <time>2019-09-14T07:41:44Z</time>
      </trkpt>
      <trkpt lat="45.99282" lon="6.46315">
        <ele>1855.48</ele>
        <time>2019-09-14T07:41:50Z</time>
      </trkpt>
      <trkpt lat="45.99282" lon="6.46315">
        <ele>1858.85</ele>
        <time>2019-09-14T07:41:51Z</time>
      </trkpt>
      <trkpt lat="45.99284" lon="6.46315">
        <ele>1858.37</ele>
        <time>2019-09-14T07:42:03Z</time>
      </trkpt>
      <trkpt lat="45.99285" lon="6.46315">
        <ele>1861.73</ele>
        <time>2019-09-14T07:42:08Z</time>
      </trkpt>
      <trkpt lat="45.99286" lon="6.46315">
        <ele>1862.21</ele>
        <time>2019-09-14T07:42:15Z</time>
      </trkpt>
      <trkpt lat="45.99286" lon="6.46315">
        <ele>1858.37</ele>
        <time>2019-09-14T07:42:18Z</time>
      </trkpt>
      <trkpt lat="45.99286" lon="6.46315">
        <ele>1862.69</ele>
        <time>2019-09-14T07:42:19Z</time>
      </trkpt>
      <trkpt lat="45.99288" lon="6.46315">
        <ele>1863.17</ele>
        <time>2019-09-14T07:42:29Z</time>
      </trkpt>
      <trkpt lat="45.9929" lon="6.46315">
        <ele>1865.09</ele>
        <time>2019-09-14T07:42:39Z</time>
      </trkpt>
      <trkpt lat="45.99292" lon="6.46315">
        <ele>1867.5</ele>
        <time>2019-09-14T07:42:50Z</time>
      </trkpt>
      <trkpt lat="45.99293" lon="6.46315">
        <ele>1866.54</ele>
        <time>2019-09-14T07:43:01Z</time>
      </trkpt>
      <trkpt lat="45.99294" lon="6.46315">
        <ele>1867.02</ele>
        <time>2019-09-14T07:43:12Z</time>
      </trkpt>
      <trkpt lat="45.99294" lon="6.46315">
        <ele>1870.38</ele>
        <time>2019-09-14T07:43:15Z</time>
      </trkpt>
      <trkpt lat="45.99297" lon="6.46315">
        <ele>1871.34</ele>
        <time>2019-09-14T07:43:25Z</time>
      </trkpt>
      <trkpt lat="45.99299" lon="6.46317">
        <ele>1872.3</ele>
        <time>2019-09-14T07:43:35Z</time>
      </trkpt>
      <trkpt lat="45.99301" lon="6.46318">
        <ele>1874.23</ele>
        <time>2019-09-14T07:43:43Z</time>
      </trkpt>
      <trkpt lat="45.99302" lon="6.46318">
        <ele>1872.79</ele>
        <time>2019-09-14T07:43:45Z</time>
      </trkpt>
      <trkpt lat="45.99305" lon="6.46321">
        <ele>1876.15</ele>
        <time>2019-09-14T07:43:56Z</time>
      </trkpt>
      <trkpt lat="45.99309" lon="6.46322">
        <ele>1876.63</ele>
        <time>2019-09-14T07:44:01Z</time>
      </trkpt>
      <trkpt lat="45.99309" lon="6.46322">
        <ele>1874.71</ele>
        <time>2019-09-14T07:44:02Z</time>
      </trkpt>
      <trkpt lat="45.9931" lon="6.46325">
        <ele>1878.55</ele>
        <time>2019-09-14T07:44:10Z</time>
      </trkpt>
      <trkpt lat="45.99311" lon="6.46325">
        <ele>1876.63</ele>
        <time>2019-09-14T07:44:12Z</time>
      </trkpt>
      <trkpt lat="45.99312" lon="6.46325">
        <ele>1877.59</ele>
        <time>2019-09-14T07:44:14Z</time>
      </trkpt>
      <trkpt lat="45.99317" lon="6.46327">
        <ele>1876.15</ele>
        <time>2019-09-14T07:44:26Z</time>
      </trkpt>
      <trkpt lat="45.99322" lon="6.46329">
        <ele>1877.59</ele>
        <time>2019-09-14T07:44:43Z</time>
      </trkpt>
      <trkpt lat="45.99324" lon="6.46331">
        <ele>1877.11</ele>
        <time>2019-09-14T07:45:00Z</time>
      </trkpt>
      <trkpt lat="45.99327" lon="6.4633">
        <ele>1877.59</ele>
        <time>2019-09-14T07:45:18Z</time>
      </trkpt>
      <trkpt lat="45.99327" lon="6.46331">
        <ele>1879.03</ele>
        <time>2019-09-14T07:45:32Z</time>
      </trkpt>
      <trkpt lat="45.99327" lon="6.46331">
        <ele>1876.15</ele>
        <time>2019-09-14T07:45:33Z</time>
      </trkpt>
      <trkpt lat="45.99327" lon="6.46331">
        <ele>1877.11</ele>
        <time>2019-09-14T07:45:34Z</time>
      </trkpt>
      <trkpt lat="45.99327" lon="6.46331">
        <ele>1877.11</ele>
        <time>2019-09-14T07:45:51Z</time>
      </trkpt>
      <trkpt lat="45.99327" lon="6.46332">
        <ele>1876.15</ele>
        <time>2019-09-14T07:46:04Z</time>
      </trkpt>
      <trkpt lat="45.99328" lon="6.46332">
        <ele>1877.11</ele>
        <time>2019-09-14T07:46:17Z</time>
      </trkpt>
      <trkpt lat="45.99328" lon="6.46331">
        <ele>1877.59</ele>
        <time>2019-09-14T07:46:38Z</time>
      </trkpt>
      <trkpt lat="45.99329" lon="6.46332">
        <ele>1876.63</ele>
        <time>2019-09-14T07:46:59Z</time>
      </trkpt>
      <trkpt lat="45.99329" lon="6.46332">
        <ele>1877.11</ele>
        <time>2019-09-14T07:47:20Z</time>
      </trkpt>
      <trkpt lat="45.9933" lon="6.46332">
        <ele>1877.11</ele>
        <time>2019-09-14T07:47:41Z</time>
      </trkpt>
      <trkpt lat="45.9933" lon="6.46333">
        <ele>1876.15</ele>
        <time>2019-09-14T07:48:00Z</time>
      </trkpt>
      <trkpt lat="45.9933" lon="6.46333">
        <ele>1879.51</ele>
        <time>2019-09-14T07:48:08Z</time>
      </trkpt>
      <trkpt lat="45.9933" lon="6.46333">
        <ele>1875.67</ele>
        <time>2019-09-14T07:48:09Z</time>
      </trkpt>
      <trkpt lat="45.9933" lon="6.46333">
        <ele>1878.55</ele>
        <time>2019-09-14T07:48:11Z</time>
      </trkpt>
      <trkpt lat="45.9933" lon="6.46333">
        <ele>1875.19</ele>
        <time>2019-09-14T07:48:12Z</time>
      </trkpt>
      <trkpt lat="45.9933" lon="6.46333">
        <ele>1879.51</ele>
        <time>2019-09-14T07:48:13Z</time>
      </trkpt>
      <trkpt lat="45.9933" lon="6.46333">
        <ele>1874.71</ele>
        <time>2019-09-14T07:48:14Z</time>
      </trkpt>
      <trkpt lat="45.9933" lon="6.46333">
        <ele>1878.55</ele>
        <time>2019-09-14T07:48:15Z</time>
      </trkpt>
      <trkpt lat="45.99331" lon="6.46333">
        <ele>1879.51</ele>
        <time>2019-09-14T07:48:26Z</time>
      </trkpt>
      <trkpt lat="45.99332" lon="6.46332">
        <ele>1881.92</ele>
        <time>2019-09-14T07:48:38Z</time>
      </trkpt>
      <trkpt lat="45.99333" lon="6.46331">
        <ele>1881.92</ele>
        <time>2019-09-14T07:48:49Z</time>
      </trkpt>
      <trkpt lat="45.99334" lon="6.46331">
        <ele>1881.92</ele>
        <time>2019-09-14T07:49:00Z</time>
      </trkpt>
      <trkpt lat="45.99334" lon="6.4633">
        <ele>1885.28</ele>
        <time>2019-09-14T07:49:04Z</time>
      </trkpt>
      <trkpt lat="45.99335" lon="6.4633">
        <ele>1882.4</ele>
        <time>2019-09-14T07:49:05Z</time>
      </trkpt>
      <trkpt lat="45.99335" lon="6.4633">
        <ele>1885.28</ele>
        <time>2019-09-14T07:49:11Z</time>
      </trkpt>
      <trkpt lat="45.99336" lon="6.46325">
        <ele>1884.32</ele>
        <time>2019-09-14T07:49:21Z</time>
      </trkpt>
      <trkpt lat="45.99338" lon="6.46316">
        <ele>1888.17</ele>
        <time>2019-09-14T07:49:28Z</time>
      </trkpt>
      <trkpt lat="45.9934" lon="6.46311">
        <ele>1884.32</ele>
        <time>2019-09-14T07:49:36Z</time>
      </trkpt>
      <trkpt lat="45.9934" lon="6.4631">
        <ele>1888.17</ele>
        <time>2019-09-14T07:49:37Z</time>
      </trkpt>
      <trkpt lat="45.99341" lon="6.46309">
        <ele>1884.32</ele>
        <time>2019-09-14T07:49:40Z</time>
      </trkpt>
      <trkpt lat="45.99341" lon="6.46309">
        <ele>1887.69</ele>
        <time>2019-09-14T07:49:41Z</time>
      </trkpt>
      <trkpt lat="45.99341" lon="6.46308">
        <ele>1888.65</ele>
        <time>2019-09-14T07:49:43Z</time>
      </trkpt>
      <trkpt lat="45.99342" lon="6.46304">
        <ele>1890.09</ele>
        <time>2019-09-14T07:49:54Z</time>
      </trkpt>
      <trkpt lat="45.99343" lon="6.463">
        <ele>1891.05</ele>
        <time>2019-09-14T07:50:05Z</time>
      </trkpt>
      <trkpt lat="45.99343" lon="6.46297">
        <ele>1894.42</ele>
        <time>2019-09-14T07:50:15Z</time>
      </trkpt>
      <trkpt lat="45.99343" lon="6.46296">
        <ele>1890.57</ele>
        <time>2019-09-14T07:50:18Z</time>
      </trkpt>
      <trkpt lat="45.99343" lon="6.46295">
        <ele>1893.93</ele>
        <time>2019-09-14T07:50:19Z</time>
      </trkpt>
      <trkpt lat="45.99343" lon="6.46295">
        <ele>1891.05</ele>
        <time>2019-09-14T07:50:20Z</time>
      </trkpt>
      <trkpt lat="45.99343" lon="6.46295">
        <ele>1893.93</ele>
        <time>2019-09-14T07:50:21Z</time>
      </trkpt>
      <trkpt lat="45.99343" lon="6.46294">
        <ele>1891.05</ele>
        <time>2019-09-14T07:50:25Z</time>
      </trkpt>
      <trkpt lat="45.99343" lon="6.46293">
        <ele>1894.42</ele>
        <time>2019-09-14T07:50:26Z</time>
      </trkpt>
      <trkpt lat="45.99343" lon="6.46291">
        <ele>1894.9</ele>
        <time>2019-09-14T07:50:36Z</time>
      </trkpt>
      <trkpt lat="45.99342" lon="6.46288">
        <ele>1896.82</ele>
        <time>2019-09-14T07:50:46Z</time>
      </trkpt>
      <trkpt lat="45.99342" lon="6.46284">
        <ele>1898.26</ele>
        <time>2019-09-14T07:50:57Z</time>
      </trkpt>
      <trkpt lat="45.99342" lon="6.46281">
        <ele>1900.66</ele>
        <time>2019-09-14T07:51:07Z</time>
      </trkpt>
      <trkpt lat="45.99342" lon="6.4628">
        <ele>1896.82</ele>
        <time>2019-09-14T07:51:09Z</time>
      </trkpt>
      <trkpt lat="45.99342" lon="6.4628">
        <ele>1898.26</ele>
        <time>2019-09-14T07:51:10Z</time>
      </trkpt>
      <trkpt lat="45.99341" lon="6.46277">
        <ele>1899.7</ele>
        <time>2019-09-14T07:51:20Z</time>
      </trkpt>
      <trkpt lat="45.99339" lon="6.46275">
        <ele>1901.14</ele>
        <time>2019-09-14T07:51:32Z</time>
      </trkpt>
      <trkpt lat="45.99338" lon="6.46274">
        <ele>1902.59</ele>
        <time>2019-09-14T07:51:43Z</time>
      </trkpt>
      <trkpt lat="45.99338" lon="6.46269">
        <ele>1903.55</ele>
        <time>2019-09-14T07:51:54Z</time>
      </trkpt>
      <trkpt lat="45.99337" lon="6.46265">
        <ele>1906.91</ele>
        <time>2019-09-14T07:51:57Z</time>
      </trkpt>
      <trkpt lat="45.99338" lon="6.46257">
        <ele>1904.03</ele>
        <time>2019-09-14T07:52:04Z</time>
      </trkpt>
      <trkpt lat="45.99338" lon="6.46255">
        <ele>1907.87</ele>
        <time>2019-09-14T07:52:07Z</time>
      </trkpt>
      <trkpt lat="45.99338" lon="6.46252">
        <ele>1904.03</ele>
        <time>2019-09-14T07:52:12Z</time>
      </trkpt>
      <trkpt lat="45.99338" lon="6.46251">
        <ele>1908.83</ele>
        <time>2019-09-14T07:52:13Z</time>
      </trkpt>
      <trkpt lat="45.99338" lon="6.46251">
        <ele>1904.03</ele>
        <time>2019-09-14T07:52:14Z</time>
      </trkpt>
      <trkpt lat="45.99338" lon="6.4625">
        <ele>1908.35</ele>
        <time>2019-09-14T07:52:15Z</time>
      </trkpt>
      <trkpt lat="45.99338" lon="6.46249">
        <ele>1904.51</ele>
        <time>2019-09-14T07:52:18Z</time>
      </trkpt>
      <trkpt lat="45.99338" lon="6.46249">
        <ele>1908.83</ele>
        <time>2019-09-14T07:52:19Z</time>
      </trkpt>
      <trkpt lat="45.99338" lon="6.46248">
        <ele>1904.51</ele>
        <time>2019-09-14T07:52:20Z</time>
      </trkpt>
      <trkpt lat="45.99338" lon="6.46248">
        <ele>1908.35</ele>
        <time>2019-09-14T07:52:21Z</time>
      </trkpt>
      <trkpt lat="45.99338" lon="6.46248">
        <ele>1904.99</ele>
        <time>2019-09-14T07:52:22Z</time>
      </trkpt>
      <trkpt lat="45.99338" lon="6.46248">
        <ele>1909.32</ele>
        <time>2019-09-14T07:52:23Z</time>
      </trkpt>
      <trkpt lat="45.99337" lon="6.46246">
        <ele>1908.35</ele>
        <time>2019-09-14T07:52:33Z</time>
      </trkpt>
      <trkpt lat="45.99337" lon="6.46244">
        <ele>1912.2</ele>
        <time>2019-09-14T07:52:45Z</time>
      </trkpt>
      <trkpt lat="45.99337" lon="6.46244">
        <ele>1910.76</ele>
        <time>2019-09-14T07:52:46Z</time>
      </trkpt>
      <trkpt lat="45.99338" lon="6.4624">
        <ele>1911.72</ele>
        <time>2019-09-14T07:52:56Z</time>
      </trkpt>
      <trkpt lat="45.99338" lon="6.46237">
        <ele>1913.64</ele>
        <time>2019-09-14T07:53:04Z</time>
      </trkpt>
      <trkpt lat="45.99338" lon="6.46234">
        <ele>1914.12</ele>
        <time>2019-09-14T07:53:16Z</time>
      </trkpt>
      <trkpt lat="45.99339" lon="6.46227">
        <ele>1916.04</ele>
        <time>2019-09-14T07:53:27Z</time>
      </trkpt>
      <trkpt lat="45.99339" lon="6.46225">
        <ele>1912.68</ele>
        <time>2019-09-14T07:53:33Z</time>
      </trkpt>
      <trkpt lat="45.99339" lon="6.46224">
        <ele>1919.41</ele>
        <time>2019-09-14T07:53:34Z</time>
      </trkpt>
      <trkpt lat="45.99339" lon="6.46224">
        <ele>1915.56</ele>
        <time>2019-09-14T07:53:35Z</time>
      </trkpt>
      <trkpt lat="45.99339" lon="6.46222">
        <ele>1918.93</ele>
        <time>2019-09-14T07:53:42Z</time>
      </trkpt>
      <trkpt lat="45.99339" lon="6.4622">
        <ele>1918.45</ele>
        <time>2019-09-14T07:53:52Z</time>
      </trkpt>
      <trkpt lat="45.99339" lon="6.46218">
        <ele>1921.33</ele>
        <time>2019-09-14T07:53:59Z</time>
      </trkpt>
      <trkpt lat="45.99339" lon="6.46217">
        <ele>1917.97</ele>
        <time>2019-09-14T07:54:04Z</time>
      </trkpt>
      <trkpt lat="45.99339" lon="6.46217">
        <ele>1922.29</ele>
        <time>2019-09-14T07:54:05Z</time>
      </trkpt>
      <trkpt lat="45.99339" lon="6.46217">
        <ele>1918.93</ele>
        <time>2019-09-14T07:54:08Z</time>
      </trkpt>
      <trkpt lat="45.99339" lon="6.46217">
        <ele>1919.41</ele>
        <time>2019-09-14T07:54:09Z</time>
      </trkpt>
      <trkpt lat="45.99339" lon="6.46216">
        <ele>1922.29</ele>
        <time>2019-09-14T07:54:11Z</time>
      </trkpt>
      <trkpt lat="45.99339" lon="6.46216">
        <ele>1921.81</ele>
        <time>2019-09-14T07:54:15Z</time>
      </trkpt>
      <trkpt lat="45.99339" lon="6.46215">
        <ele>1922.29</ele>
        <time>2019-09-14T07:54:25Z</time>
      </trkpt>
      <trkpt lat="45.99339" lon="6.46213">
        <ele>1923.74</ele>
        <time>2019-09-14T07:54:35Z</time>
      </trkpt>
      <trkpt lat="45.99339" lon="6.46213">
        <ele>1923.25</ele>
        <time>2019-09-14T07:54:46Z</time>
      </trkpt>
      <trkpt lat="45.99339" lon="6.46212">
        <ele>1926.62</ele>
        <time>2019-09-14T07:54:47Z</time>
      </trkpt>
      <trkpt lat="45.99339" lon="6.46212">
        <ele>1926.62</ele>
        <time>2019-09-14T07:55:00Z</time>
      </trkpt>
      <trkpt lat="45.9934" lon="6.46209">
        <ele>1927.58</ele>
        <time>2019-09-14T07:55:11Z</time>
      </trkpt>
      <trkpt lat="45.9934" lon="6.46207">
        <ele>1930.46</ele>
        <time>2019-09-14T07:55:17Z</time>
      </trkpt>
      <trkpt lat="45.9934" lon="6.46204">
        <ele>1930.46</ele>
        <time>2019-09-14T07:55:30Z</time>
      </trkpt>
      <trkpt lat="45.99342" lon="6.46194">
        <ele>1931.43</ele>
        <time>2019-09-14T07:55:40Z</time>
      </trkpt>
      <trkpt lat="45.99343" lon="6.46184">
        <ele>1931.91</ele>
        <time>2019-09-14T07:55:56Z</time>
      </trkpt>
      <trkpt lat="45.99343" lon="6.46183">
        <ele>1935.75</ele>
        <time>2019-09-14T07:55:57Z</time>
      </trkpt>
      <trkpt lat="45.99343" lon="6.46183">
        <ele>1932.87</ele>
        <time>2019-09-14T07:55:58Z</time>
      </trkpt>
      <trkpt lat="45.99345" lon="6.46178">
        <ele>1936.71</ele>
        <time>2019-09-14T07:56:04Z</time>
      </trkpt>
      <trkpt lat="45.99346" lon="6.46177">
        <ele>1936.23</ele>
        <time>2019-09-14T07:56:05Z</time>
      </trkpt>
      <trkpt lat="45.99347" lon="6.46174">
        <ele>1936.71</ele>
        <time>2019-09-14T07:56:07Z</time>
      </trkpt>
      <trkpt lat="45.99348" lon="6.46173">
        <ele>1933.83</ele>
        <time>2019-09-14T07:56:08Z</time>
      </trkpt>
      <trkpt lat="45.9935" lon="6.46168">
        <ele>1937.67</ele>
        <time>2019-09-14T07:56:11Z</time>
      </trkpt>
      <trkpt lat="45.99353" lon="6.46166">
        <ele>1933.35</ele>
        <time>2019-09-14T07:56:17Z</time>
      </trkpt>
      <trkpt lat="45.99353" lon="6.46166">
        <ele>1937.67</ele>
        <time>2019-09-14T07:56:18Z</time>
      </trkpt>
      <trkpt lat="45.99353" lon="6.46165">
        <ele>1935.27</ele>
        <time>2019-09-14T07:56:22Z</time>
      </trkpt>
      <trkpt lat="45.99355" lon="6.46164">
        <ele>1937.67</ele>
        <time>2019-09-14T07:56:24Z</time>
      </trkpt>
      <trkpt lat="45.99358" lon="6.46161">
        <ele>1935.75</ele>
        <time>2019-09-14T07:56:27Z</time>
      </trkpt>
      <trkpt lat="45.99359" lon="6.4616">
        <ele>1937.67</ele>
        <time>2019-09-14T07:56:29Z</time>
      </trkpt>
      <trkpt lat="45.99361" lon="6.46159">
        <ele>1939.12</ele>
        <time>2019-09-14T07:56:39Z</time>
      </trkpt>
      <trkpt lat="45.99362" lon="6.46159">
        <ele>1935.75</ele>
        <time>2019-09-14T07:56:42Z</time>
      </trkpt>
      <trkpt lat="45.99364" lon="6.46157">
        <ele>1940.56</ele>
        <time>2019-09-14T07:56:46Z</time>
      </trkpt>
      <trkpt lat="45.99365" lon="6.46156">
        <ele>1940.08</ele>
        <time>2019-09-14T07:56:47Z</time>
      </trkpt>
      <trkpt lat="45.99366" lon="6.46155">
        <ele>1936.71</ele>
        <time>2019-09-14T07:56:48Z</time>
      </trkpt>
      <trkpt lat="45.99366" lon="6.46154">
        <ele>1940.08</ele>
        <time>2019-09-14T07:56:49Z</time>
      </trkpt>
      <trkpt lat="45.99369" lon="6.46151">
        <ele>1941.04</ele>
        <time>2019-09-14T07:56:59Z</time>
      </trkpt>
      <trkpt lat="45.9937" lon="6.46151">
        <ele>1937.67</ele>
        <time>2019-09-14T07:57:00Z</time>
      </trkpt>
      <trkpt lat="45.9937" lon="6.46151">
        <ele>1941.52</ele>
        <time>2019-09-14T07:57:01Z</time>
      </trkpt>
      <trkpt lat="45.9937" lon="6.46151">
        <ele>1936.23</ele>
        <time>2019-09-14T07:57:02Z</time>
      </trkpt>
      <trkpt lat="45.9937" lon="6.46151">
        <ele>1942</ele>
        <time>2019-09-14T07:57:03Z</time>
      </trkpt>
      <trkpt lat="45.9937" lon="6.46151">
        <ele>1938.64</ele>
        <time>2019-09-14T07:57:04Z</time>
      </trkpt>
      <trkpt lat="45.99372" lon="6.46151">
        <ele>1939.6</ele>
        <time>2019-09-14T07:57:26Z</time>
      </trkpt>
      <trkpt lat="45.99377" lon="6.46151">
        <ele>1938.16</ele>
        <time>2019-09-14T07:57:41Z</time>
      </trkpt>
      <trkpt lat="45.99379" lon="6.4615">
        <ele>1941.04</ele>
        <time>2019-09-14T07:57:43Z</time>
      </trkpt>
      <trkpt lat="45.99379" lon="6.4615">
        <ele>1936.71</ele>
        <time>2019-09-14T07:57:44Z</time>
      </trkpt>
      <trkpt lat="45.9938" lon="6.4615">
        <ele>1940.56</ele>
        <time>2019-09-14T07:57:45Z</time>
      </trkpt>
      <trkpt lat="45.9938" lon="6.4615">
        <ele>1935.75</ele>
        <time>2019-09-14T07:57:46Z</time>
      </trkpt>
      <trkpt lat="45.99381" lon="6.46149">
        <ele>1940.56</ele>
        <time>2019-09-14T07:57:47Z</time>
      </trkpt>
      <trkpt lat="45.99386" lon="6.46145">
        <ele>1943.44</ele>
        <time>2019-09-14T07:57:55Z</time>
      </trkpt>
      <trkpt lat="45.99387" lon="6.46144">
        <ele>1939.6</ele>
        <time>2019-09-14T07:57:56Z</time>
      </trkpt>
      <trkpt lat="45.99388" lon="6.46142">
        <ele>1942.96</ele>
        <time>2019-09-14T07:57:59Z</time>
      </trkpt>
      <trkpt lat="45.99389" lon="6.46142">
        <ele>1940.08</ele>
        <time>2019-09-14T07:58:00Z</time>
      </trkpt>
      <trkpt lat="45.9939" lon="6.46138">
        <ele>1944.4</ele>
        <time>2019-09-14T07:58:04Z</time>
      </trkpt>
      <trkpt lat="45.99391" lon="6.46138">
        <ele>1939.12</ele>
        <time>2019-09-14T07:58:05Z</time>
      </trkpt>
      <trkpt lat="45.99391" lon="6.46137">
        <ele>1943.92</ele>
        <time>2019-09-14T07:58:06Z</time>
      </trkpt>
      <trkpt lat="45.99396" lon="6.46132">
        <ele>1942.48</ele>
        <time>2019-09-14T07:58:17Z</time>
      </trkpt>
      <trkpt lat="45.99397" lon="6.4613">
        <ele>1946.33</ele>
        <time>2019-09-14T07:58:30Z</time>
      </trkpt>
      <trkpt lat="45.99398" lon="6.4613">
        <ele>1942.48</ele>
        <time>2019-09-14T07:58:31Z</time>
      </trkpt>
      <trkpt lat="45.99398" lon="6.4613">
        <ele>1946.81</ele>
        <time>2019-09-14T07:58:34Z</time>
      </trkpt>
      <trkpt lat="45.99398" lon="6.46129">
        <ele>1943.44</ele>
        <time>2019-09-14T07:58:37Z</time>
      </trkpt>
      <trkpt lat="45.99398" lon="6.46129">
        <ele>1946.81</ele>
        <time>2019-09-14T07:58:38Z</time>
      </trkpt>
      <trkpt lat="45.994" lon="6.46127">
        <ele>1948.73</ele>
        <time>2019-09-14T07:58:53Z</time>
      </trkpt>
      <trkpt lat="45.994" lon="6.46127">
        <ele>1943.92</ele>
        <time>2019-09-14T07:58:54Z</time>
      </trkpt>
      <trkpt lat="45.994" lon="6.46126">
        <ele>1949.69</ele>
        <time>2019-09-14T07:58:55Z</time>
      </trkpt>
      <trkpt lat="45.994" lon="6.46126">
        <ele>1944.4</ele>
        <time>2019-09-14T07:58:56Z</time>
      </trkpt>
      <trkpt lat="45.994" lon="6.46126">
        <ele>1949.21</ele>
        <time>2019-09-14T07:58:57Z</time>
      </trkpt>
      <trkpt lat="45.99402" lon="6.46122">
        <ele>1944.88</ele>
        <time>2019-09-14T07:59:02Z</time>
      </trkpt>
      <trkpt lat="45.99403" lon="6.46121">
        <ele>1950.17</ele>
        <time>2019-09-14T07:59:03Z</time>
      </trkpt>
      <trkpt lat="45.99405" lon="6.46118">
        <ele>1946.33</ele>
        <time>2019-09-14T07:59:06Z</time>
      </trkpt>
      <trkpt lat="45.99405" lon="6.46117">
        <ele>1951.13</ele>
        <time>2019-09-14T07:59:07Z</time>
      </trkpt>
      <trkpt lat="45.99406" lon="6.46117">
        <ele>1945.85</ele>
        <time>2019-09-14T07:59:08Z</time>
      </trkpt>
      <trkpt lat="45.99406" lon="6.46117">
        <ele>1950.65</ele>
        <time>2019-09-14T07:59:09Z</time>
      </trkpt>
      <trkpt lat="45.99407" lon="6.46116">
        <ele>1946.81</ele>
        <time>2019-09-14T07:59:12Z</time>
      </trkpt>
      <trkpt lat="45.99407" lon="6.46116">
        <ele>1950.17</ele>
        <time>2019-09-14T07:59:13Z</time>
      </trkpt>
      <trkpt lat="45.9941" lon="6.46107">
        <ele>1951.61</ele>
        <time>2019-09-14T07:59:24Z</time>
      </trkpt>
      <trkpt lat="45.9941" lon="6.46107">
        <ele>1946.33</ele>
        <time>2019-09-14T07:59:25Z</time>
      </trkpt>
      <trkpt lat="45.9941" lon="6.46107">
        <ele>1952.57</ele>
        <time>2019-09-14T07:59:26Z</time>
      </trkpt>
      <trkpt lat="45.99411" lon="6.46104">
        <ele>1949.21</ele>
        <time>2019-09-14T07:59:37Z</time>
      </trkpt>
      <trkpt lat="45.99411" lon="6.46104">
        <ele>1954.02</ele>
        <time>2019-09-14T07:59:38Z</time>
      </trkpt>
      <trkpt lat="45.99411" lon="6.46103">
        <ele>1952.57</ele>
        <time>2019-09-14T07:59:41Z</time>
      </trkpt>
      <trkpt lat="45.99412" lon="6.46102">
        <ele>1955.46</ele>
        <time>2019-09-14T07:59:46Z</time>
      </trkpt>
      <trkpt lat="45.99412" lon="6.46102">
        <ele>1952.57</ele>
        <time>2019-09-14T07:59:47Z</time>
      </trkpt>
      <trkpt lat="45.99413" lon="6.46101">
        <ele>1957.38</ele>
        <time>2019-09-14T07:59:53Z</time>
      </trkpt>
      <trkpt lat="45.99413" lon="6.46101">
        <ele>1953.54</ele>
        <time>2019-09-14T07:59:54Z</time>
      </trkpt>
      <trkpt lat="45.99413" lon="6.461">
        <ele>1956.9</ele>
        <time>2019-09-14T07:59:58Z</time>
      </trkpt>
      <trkpt lat="45.99414" lon="6.461">
        <ele>1956.9</ele>
        <time>2019-09-14T07:59:59Z</time>
      </trkpt>
      <trkpt lat="45.99414" lon="6.46099">
        <ele>1954.5</ele>
        <time>2019-09-14T08:00:01Z</time>
      </trkpt>
      <trkpt lat="45.99414" lon="6.46099">
        <ele>1956.42</ele>
        <time>2019-09-14T08:00:03Z</time>
      </trkpt>
      <trkpt lat="45.99415" lon="6.46097">
        <ele>1959.78</ele>
        <time>2019-09-14T08:00:13Z</time>
      </trkpt>
      <trkpt lat="45.99415" lon="6.46097">
        <ele>1954.02</ele>
        <time>2019-09-14T08:00:14Z</time>
      </trkpt>
      <trkpt lat="45.99415" lon="6.46096">
        <ele>1959.78</ele>
        <time>2019-09-14T08:00:15Z</time>
      </trkpt>
      <trkpt lat="45.99416" lon="6.46096">
        <ele>1956.42</ele>
        <time>2019-09-14T08:00:20Z</time>
      </trkpt>
      <trkpt lat="45.99416" lon="6.46096">
        <ele>1958.34</ele>
        <time>2019-09-14T08:00:21Z</time>
      </trkpt>
      <trkpt lat="45.99416" lon="6.46095">
        <ele>1959.78</ele>
        <time>2019-09-14T08:00:23Z</time>
      </trkpt>
      <trkpt lat="45.99416" lon="6.46095">
        <ele>1956.42</ele>
        <time>2019-09-14T08:00:24Z</time>
      </trkpt>
      <trkpt lat="45.99416" lon="6.46095">
        <ele>1960.27</ele>
        <time>2019-09-14T08:00:25Z</time>
      </trkpt>
      <trkpt lat="45.99416" lon="6.46095">
        <ele>1956.9</ele>
        <time>2019-09-14T08:00:26Z</time>
      </trkpt>
      <trkpt lat="45.99417" lon="6.46095">
        <ele>1960.75</ele>
        <time>2019-09-14T08:00:27Z</time>
      </trkpt>
      <trkpt lat="45.99417" lon="6.46095">
        <ele>1957.38</ele>
        <time>2019-09-14T08:00:28Z</time>
      </trkpt>
      <trkpt lat="45.99417" lon="6.46095">
        <ele>1961.23</ele>
        <time>2019-09-14T08:00:29Z</time>
      </trkpt>
      <trkpt lat="45.99417" lon="6.46094">
        <ele>1957.86</ele>
        <time>2019-09-14T08:00:34Z</time>
      </trkpt>
      <trkpt lat="45.99418" lon="6.46094">
        <ele>1961.71</ele>
        <time>2019-09-14T08:00:41Z</time>
      </trkpt>
      <trkpt lat="45.99418" lon="6.46094">
        <ele>1958.82</ele>
        <time>2019-09-14T08:00:42Z</time>
      </trkpt>
      <trkpt lat="45.99418" lon="6.46093">
        <ele>1962.67</ele>
        <time>2019-09-14T08:00:46Z</time>
      </trkpt>
      <trkpt lat="45.99418" lon="6.46093">
        <ele>1959.3</ele>
        <time>2019-09-14T08:00:47Z</time>
      </trkpt>
      <trkpt lat="45.99418" lon="6.46094">
        <ele>1961.23</ele>
        <time>2019-09-14T08:00:48Z</time>
      </trkpt>
      <trkpt lat="45.99418" lon="6.46093">
        <ele>1963.63</ele>
        <time>2019-09-14T08:00:49Z</time>
      </trkpt>
      <trkpt lat="45.99418" lon="6.46093">
        <ele>1958.82</ele>
        <time>2019-09-14T08:00:50Z</time>
      </trkpt>
      <trkpt lat="45.99418" lon="6.46093">
        <ele>1962.67</ele>
        <time>2019-09-14T08:00:51Z</time>
      </trkpt>
      <trkpt lat="45.99418" lon="6.46093">
        <ele>1961.23</ele>
        <time>2019-09-14T08:00:52Z</time>
      </trkpt>
      <trkpt lat="45.99419" lon="6.46093">
        <ele>1960.75</ele>
        <time>2019-09-14T08:00:55Z</time>
      </trkpt>
      <trkpt lat="45.99419" lon="6.46093">
        <ele>1959.3</ele>
        <time>2019-09-14T08:00:57Z</time>
      </trkpt>
      <trkpt lat="45.99419" lon="6.46093">
        <ele>1963.15</ele>
        <time>2019-09-14T08:00:58Z</time>
      </trkpt>
      <trkpt lat="45.99419" lon="6.46093">
        <ele>1960.27</ele>
        <time>2019-09-14T08:00:59Z</time>
      </trkpt>
      <trkpt lat="45.9942" lon="6.46093">
        <ele>1962.67</ele>
        <time>2019-09-14T08:01:00Z</time>
      </trkpt>
      <trkpt lat="45.9942" lon="6.46093">
        <ele>1963.63</ele>
        <time>2019-09-14T08:01:04Z</time>
      </trkpt>
      <trkpt lat="45.9942" lon="6.46093">
        <ele>1964.11</ele>
        <time>2019-09-14T08:01:05Z</time>
      </trkpt>
      <trkpt lat="45.9942" lon="6.46093">
        <ele>1959.3</ele>
        <time>2019-09-14T08:01:06Z</time>
      </trkpt>
      <trkpt lat="45.9942" lon="6.46093">
        <ele>1963.15</ele>
        <time>2019-09-14T08:01:07Z</time>
      </trkpt>
      <trkpt lat="45.9942" lon="6.46093">
        <ele>1965.07</ele>
        <time>2019-09-14T08:01:10Z</time>
      </trkpt>
      <trkpt lat="45.9942" lon="6.46093">
        <ele>1960.75</ele>
        <time>2019-09-14T08:01:11Z</time>
      </trkpt>
      <trkpt lat="45.9942" lon="6.46093">
        <ele>1965.55</ele>
        <time>2019-09-14T08:01:12Z</time>
      </trkpt>
      <trkpt lat="45.99421" lon="6.46093">
        <ele>1966.03</ele>
        <time>2019-09-14T08:01:17Z</time>
      </trkpt>
      <trkpt lat="45.99421" lon="6.46093">
        <ele>1963.15</ele>
        <time>2019-09-14T08:01:18Z</time>
      </trkpt>
      <trkpt lat="45.99421" lon="6.46093">
        <ele>1966.03</ele>
        <time>2019-09-14T08:01:19Z</time>
      </trkpt>
      <trkpt lat="45.99421" lon="6.46093">
        <ele>1962.67</ele>
        <time>2019-09-14T08:01:20Z</time>
      </trkpt>
      <trkpt lat="45.99421" lon="6.46093">
        <ele>1967.48</ele>
        <time>2019-09-14T08:01:21Z</time>
      </trkpt>
      <trkpt lat="45.99421" lon="6.46092">
        <ele>1962.67</ele>
        <time>2019-09-14T08:01:22Z</time>
      </trkpt>
      <trkpt lat="45.99421" lon="6.46093">
        <ele>1966.99</ele>
        <time>2019-09-14T08:01:24Z</time>
      </trkpt>
      <trkpt lat="45.99421" lon="6.46093">
        <ele>1963.15</ele>
        <time>2019-09-14T08:01:25Z</time>
      </trkpt>
      <trkpt lat="45.99421" lon="6.46093">
        <ele>1966.99</ele>
        <time>2019-09-14T08:01:26Z</time>
      </trkpt>
      <trkpt lat="45.99422" lon="6.46092">
        <ele>1962.19</ele>
        <time>2019-09-14T08:01:27Z</time>
      </trkpt>
      <trkpt lat="45.99422" lon="6.46092">
        <ele>1963.15</ele>
        <time>2019-09-14T08:01:29Z</time>
      </trkpt>
      <trkpt lat="45.99423" lon="6.46092">
        <ele>1968.44</ele>
        <time>2019-09-14T08:01:30Z</time>
      </trkpt>
      <trkpt lat="45.99423" lon="6.46092">
        <ele>1963.15</ele>
        <time>2019-09-14T08:01:31Z</time>
      </trkpt>
      <trkpt lat="45.99423" lon="6.46091">
        <ele>1966.99</ele>
        <time>2019-09-14T08:01:32Z</time>
      </trkpt>
      <trkpt lat="45.99424" lon="6.46089">
        <ele>1965.07</ele>
        <time>2019-09-14T08:01:33Z</time>
      </trkpt>
      <trkpt lat="45.99424" lon="6.46089">
        <ele>1969.4</ele>
        <time>2019-09-14T08:01:34Z</time>
      </trkpt>
      <trkpt lat="45.99425" lon="6.46087">
        <ele>1964.11</ele>
        <time>2019-09-14T08:01:35Z</time>
      </trkpt>
      <trkpt lat="45.99425" lon="6.46085">
        <ele>1966.03</ele>
        <time>2019-09-14T08:01:37Z</time>
      </trkpt>
      <trkpt lat="45.99425" lon="6.46085">
        <ele>1967.96</ele>
        <time>2019-09-14T08:01:38Z</time>
      </trkpt>
      <trkpt lat="45.99426" lon="6.46085">
        <ele>1965.55</ele>
        <time>2019-09-14T08:01:39Z</time>
      </trkpt>
      <trkpt lat="45.99426" lon="6.46085">
        <ele>1967.48</ele>
        <time>2019-09-14T08:01:40Z</time>
      </trkpt>
      <trkpt lat="45.99426" lon="6.46085">
        <ele>1964.11</ele>
        <time>2019-09-14T08:01:41Z</time>
      </trkpt>
      <trkpt lat="45.99426" lon="6.46085">
        <ele>1969.4</ele>
        <time>2019-09-14T08:01:43Z</time>
      </trkpt>
      <trkpt lat="45.99426" lon="6.46085">
        <ele>1965.55</ele>
        <time>2019-09-14T08:01:44Z</time>
      </trkpt>
      <trkpt lat="45.99426" lon="6.46085">
        <ele>1968.44</ele>
        <time>2019-09-14T08:01:45Z</time>
      </trkpt>
      <trkpt lat="45.99427" lon="6.46085">
        <ele>1966.99</ele>
        <time>2019-09-14T08:01:46Z</time>
      </trkpt>
      <trkpt lat="45.99427" lon="6.46085">
        <ele>1965.55</ele>
        <time>2019-09-14T08:01:48Z</time>
      </trkpt>
      <trkpt lat="45.99427" lon="6.46084">
        <ele>1968.44</ele>
        <time>2019-09-14T08:01:49Z</time>
      </trkpt>
      <trkpt lat="45.99427" lon="6.46085">
        <ele>1965.55</ele>
        <time>2019-09-14T08:01:50Z</time>
      </trkpt>
      <trkpt lat="45.99428" lon="6.46085">
        <ele>1970.36</ele>
        <time>2019-09-14T08:01:51Z</time>
      </trkpt>
      <trkpt lat="45.99428" lon="6.46085">
        <ele>1966.03</ele>
        <time>2019-09-14T08:01:52Z</time>
      </trkpt>
      <trkpt lat="45.99428" lon="6.46084">
        <ele>1968.92</ele>
        <time>2019-09-14T08:01:53Z</time>
      </trkpt>
      <trkpt lat="45.99428" lon="6.46084">
        <ele>1970.84</ele>
        <time>2019-09-14T08:01:55Z</time>
      </trkpt>
      <trkpt lat="45.99428" lon="6.46084">
        <ele>1968.92</ele>
        <time>2019-09-14T08:01:56Z</time>
      </trkpt>
      <trkpt lat="45.99429" lon="6.46084">
        <ele>1970.84</ele>
        <time>2019-09-14T08:01:57Z</time>
      </trkpt>
      <trkpt lat="45.99429" lon="6.46084">
        <ele>1966.99</ele>
        <time>2019-09-14T08:01:58Z</time>
      </trkpt>
      <trkpt lat="45.99429" lon="6.46084">
        <ele>1971.32</ele>
        <time>2019-09-14T08:01:59Z</time>
      </trkpt>
      <trkpt lat="45.99429" lon="6.46084">
        <ele>1969.88</ele>
        <time>2019-09-14T08:02:00Z</time>
      </trkpt>
      <trkpt lat="45.99429" lon="6.46084">
        <ele>1971.32</ele>
        <time>2019-09-14T08:02:01Z</time>
      </trkpt>
      <trkpt lat="45.99429" lon="6.46084">
        <ele>1967.48</ele>
        <time>2019-09-14T08:02:03Z</time>
      </trkpt>
      <trkpt lat="45.9943" lon="6.46084">
        <ele>1970.84</ele>
        <time>2019-09-14T08:02:04Z</time>
      </trkpt>
      <trkpt lat="45.99431" lon="6.46082">
        <ele>1971.8</ele>
        <time>2019-09-14T08:02:06Z</time>
      </trkpt>
      <trkpt lat="45.99432" lon="6.46081">
        <ele>1970.36</ele>
        <time>2019-09-14T08:02:07Z</time>
      </trkpt>
      <trkpt lat="45.99432" lon="6.46081">
        <ele>1970.84</ele>
        <time>2019-09-14T08:02:08Z</time>
      </trkpt>
      <trkpt lat="45.99434" lon="6.46079">
        <ele>1969.4</ele>
        <time>2019-09-14T08:02:12Z</time>
      </trkpt>
      <trkpt lat="45.99434" lon="6.46079">
        <ele>1973.24</ele>
        <time>2019-09-14T08:02:13Z</time>
      </trkpt>
      <trkpt lat="45.99434" lon="6.46079">
        <ele>1970.36</ele>
        <time>2019-09-14T08:02:14Z</time>
      </trkpt>
      <trkpt lat="45.99434" lon="6.46079">
        <ele>1974.2</ele>
        <time>2019-09-14T08:02:15Z</time>
      </trkpt>
      <trkpt lat="45.99435" lon="6.46079">
        <ele>1969.88</ele>
        <time>2019-09-14T08:02:16Z</time>
      </trkpt>
      <trkpt lat="45.99435" lon="6.46079">
        <ele>1973.72</ele>
        <time>2019-09-14T08:02:17Z</time>
      </trkpt>
      <trkpt lat="45.99436" lon="6.46078">
        <ele>1970.84</ele>
        <time>2019-09-14T08:02:18Z</time>
      </trkpt>
      <trkpt lat="45.99437" lon="6.46077">
        <ele>1973.72</ele>
        <time>2019-09-14T08:02:19Z</time>
      </trkpt>
      <trkpt lat="45.99437" lon="6.46077">
        <ele>1969.88</ele>
        <time>2019-09-14T08:02:20Z</time>
      </trkpt>
      <trkpt lat="45.99438" lon="6.46076">
        <ele>1974.69</ele>
        <time>2019-09-14T08:02:21Z</time>
      </trkpt>
      <trkpt lat="45.99438" lon="6.46076">
        <ele>1971.32</ele>
        <time>2019-09-14T08:02:22Z</time>
      </trkpt>
      <trkpt lat="45.99439" lon="6.46076">
        <ele>1972.76</ele>
        <time>2019-09-14T08:02:23Z</time>
      </trkpt>
      <trkpt lat="45.99439" lon="6.46075">
        <ele>1970.36</ele>
        <time>2019-09-14T08:02:24Z</time>
      </trkpt>
      <trkpt lat="45.99439" lon="6.46075">
        <ele>1975.65</ele>
        <time>2019-09-14T08:02:25Z</time>
      </trkpt>
      <trkpt lat="45.9944" lon="6.46073">
        <ele>1974.2</ele>
        <time>2019-09-14T08:02:26Z</time>
      </trkpt>
      <trkpt lat="45.9944" lon="6.46073">
        <ele>1971.8</ele>
        <time>2019-09-14T08:02:27Z</time>
      </trkpt>
      <trkpt lat="45.99441" lon="6.46072">
        <ele>1973.72</ele>
        <time>2019-09-14T08:02:28Z</time>
      </trkpt>
      <trkpt lat="45.99442" lon="6.46072">
        <ele>1974.69</ele>
        <time>2019-09-14T08:02:32Z</time>
      </trkpt>
      <trkpt lat="45.99442" lon="6.46072">
        <ele>1971.8</ele>
        <time>2019-09-14T08:02:33Z</time>
      </trkpt>
      <trkpt lat="45.99443" lon="6.46071">
        <ele>1975.17</ele>
        <time>2019-09-14T08:02:34Z</time>
      </trkpt>
      <trkpt lat="45.99443" lon="6.4607">
        <ele>1971.32</ele>
        <time>2019-09-14T08:02:35Z</time>
      </trkpt>
      <trkpt lat="45.99444" lon="6.46068">
        <ele>1976.13</ele>
        <time>2019-09-14T08:02:36Z</time>
      </trkpt>
      <trkpt lat="45.99445" lon="6.46068">
        <ele>1972.76</ele>
        <time>2019-09-14T08:02:37Z</time>
      </trkpt>
      <trkpt lat="45.99445" lon="6.46068">
        <ele>1976.13</ele>
        <time>2019-09-14T08:02:38Z</time>
      </trkpt>
      <trkpt lat="45.99444" lon="6.46068">
        <ele>1971.32</ele>
        <time>2019-09-14T08:02:39Z</time>
      </trkpt>
      <trkpt lat="45.99445" lon="6.46068">
        <ele>1976.13</ele>
        <time>2019-09-14T08:02:40Z</time>
      </trkpt>
      <trkpt lat="45.99445" lon="6.46069">
        <ele>1974.2</ele>
        <time>2019-09-14T08:02:41Z</time>
      </trkpt>
      <trkpt lat="45.99445" lon="6.46068">
        <ele>1975.65</ele>
        <time>2019-09-14T08:02:43Z</time>
      </trkpt>
      <trkpt lat="45.99445" lon="6.46067">
        <ele>1976.13</ele>
        <time>2019-09-14T08:02:45Z</time>
      </trkpt>
      <trkpt lat="45.99445" lon="6.46067">
        <ele>1977.57</ele>
        <time>2019-09-14T08:02:46Z</time>
      </trkpt>
      <trkpt lat="45.99445" lon="6.46067">
        <ele>1974.2</ele>
        <time>2019-09-14T08:02:47Z</time>
      </trkpt>
      <trkpt lat="45.99445" lon="6.46067">
        <ele>1977.57</ele>
        <time>2019-09-14T08:02:48Z</time>
      </trkpt>
      <trkpt lat="45.99445" lon="6.46066">
        <ele>1977.57</ele>
        <time>2019-09-14T08:02:49Z</time>
      </trkpt>
      <trkpt lat="45.99446" lon="6.46066">
        <ele>1974.2</ele>
        <time>2019-09-14T08:02:50Z</time>
      </trkpt>
      <trkpt lat="45.99446" lon="6.46065">
        <ele>1977.57</ele>
        <time>2019-09-14T08:02:51Z</time>
      </trkpt>
      <trkpt lat="45.99446" lon="6.46065">
        <ele>1978.05</ele>
        <time>2019-09-14T08:02:52Z</time>
      </trkpt>
      <trkpt lat="45.99446" lon="6.46065">
        <ele>1976.13</ele>
        <time>2019-09-14T08:02:53Z</time>
      </trkpt>
      <trkpt lat="45.99446" lon="6.46065">
        <ele>1975.17</ele>
        <time>2019-09-14T08:02:54Z</time>
      </trkpt>
      <trkpt lat="45.99446" lon="6.46064">
        <ele>1977.57</ele>
        <time>2019-09-14T08:02:55Z</time>
      </trkpt>
      <trkpt lat="45.99446" lon="6.46064">
        <ele>1973.72</ele>
        <time>2019-09-14T08:02:56Z</time>
      </trkpt>
      <trkpt lat="45.99446" lon="6.46064">
        <ele>1975.65</ele>
        <time>2019-09-14T08:02:57Z</time>
      </trkpt>
      <trkpt lat="45.99446" lon="6.46064">
        <ele>1973.72</ele>
        <time>2019-09-14T08:02:58Z</time>
      </trkpt>
      <trkpt lat="45.99447" lon="6.46063">
        <ele>1974.2</ele>
        <time>2019-09-14T08:03:00Z</time>
      </trkpt>
      <trkpt lat="45.99459" lon="6.46014">
        <ele>1979.01</ele>
        <time>2019-09-14T08:03:01Z</time>
      </trkpt>
      <trkpt lat="45.99459" lon="6.46014">
        <ele>1975.17</ele>
        <time>2019-09-14T08:03:02Z</time>
      </trkpt>
      <trkpt lat="45.99461" lon="6.46011">
        <ele>1979.49</ele>
        <time>2019-09-14T08:03:05Z</time>
      </trkpt>
      <trkpt lat="45.99461" lon="6.46011">
        <ele>1974.69</ele>
        <time>2019-09-14T08:03:06Z</time>
      </trkpt>
      <trkpt lat="45.99462" lon="6.4601">
        <ele>1978.53</ele>
        <time>2019-09-14T08:03:07Z</time>
      </trkpt>
      <trkpt lat="45.99463" lon="6.46008">
        <ele>1975.17</ele>
        <time>2019-09-14T08:03:10Z</time>
      </trkpt>
      <trkpt lat="45.99464" lon="6.46007">
        <ele>1979.49</ele>
        <time>2019-09-14T08:03:11Z</time>
      </trkpt>
      <trkpt lat="45.99467" lon="6.46003">
        <ele>1981.9</ele>
        <time>2019-09-14T08:03:22Z</time>
      </trkpt>
      <trkpt lat="45.99467" lon="6.46001">
        <ele>1978.53</ele>
        <time>2019-09-14T08:03:28Z</time>
      </trkpt>
      <trkpt lat="45.99468" lon="6.46001">
        <ele>1982.86</ele>
        <time>2019-09-14T08:03:29Z</time>
      </trkpt>
      <trkpt lat="45.99468" lon="6.46">
        <ele>1978.05</ele>
        <time>2019-09-14T08:03:30Z</time>
      </trkpt>
      <trkpt lat="45.99468" lon="6.45999">
        <ele>1983.34</ele>
        <time>2019-09-14T08:03:31Z</time>
      </trkpt>
      <trkpt lat="45.99469" lon="6.45998">
        <ele>1980.45</ele>
        <time>2019-09-14T08:03:34Z</time>
      </trkpt>
      <trkpt lat="45.9947" lon="6.45997">
        <ele>1983.82</ele>
        <time>2019-09-14T08:03:37Z</time>
      </trkpt>
      <trkpt lat="45.9947" lon="6.45996">
        <ele>1980.45</ele>
        <time>2019-09-14T08:03:38Z</time>
      </trkpt>
      <trkpt lat="45.9947" lon="6.45996">
        <ele>1983.82</ele>
        <time>2019-09-14T08:03:41Z</time>
      </trkpt>
      <trkpt lat="45.99471" lon="6.45994">
        <ele>1980.45</ele>
        <time>2019-09-14T08:03:45Z</time>
      </trkpt>
      <trkpt lat="45.99471" lon="6.45993">
        <ele>1983.82</ele>
        <time>2019-09-14T08:03:46Z</time>
      </trkpt>
      <trkpt lat="45.99473" lon="6.45991">
        <ele>1984.78</ele>
        <time>2019-09-14T08:03:57Z</time>
      </trkpt>
      <trkpt lat="45.99473" lon="6.4599">
        <ele>1985.26</ele>
        <time>2019-09-14T08:04:01Z</time>
      </trkpt>
      <trkpt lat="45.99474" lon="6.45986">
        <ele>1989.1</ele>
        <time>2019-09-14T08:04:10Z</time>
      </trkpt>
      <trkpt lat="45.99475" lon="6.45985">
        <ele>1986.22</ele>
        <time>2019-09-14T08:04:11Z</time>
      </trkpt>
      <trkpt lat="45.99477" lon="6.45982">
        <ele>1989.59</ele>
        <time>2019-09-14T08:04:20Z</time>
      </trkpt>
      <trkpt lat="45.99478" lon="6.45982">
        <ele>1986.22</ele>
        <time>2019-09-14T08:04:21Z</time>
      </trkpt>
      <trkpt lat="45.99478" lon="6.45981">
        <ele>1990.07</ele>
        <time>2019-09-14T08:04:24Z</time>
      </trkpt>
      <trkpt lat="45.99482" lon="6.4598">
        <ele>1990.55</ele>
        <time>2019-09-14T08:04:34Z</time>
      </trkpt>
      <trkpt lat="45.99483" lon="6.45981">
        <ele>1986.7</ele>
        <time>2019-09-14T08:04:35Z</time>
      </trkpt>
      <trkpt lat="45.99483" lon="6.45981">
        <ele>1991.51</ele>
        <time>2019-09-14T08:04:36Z</time>
      </trkpt>
      <trkpt lat="45.99484" lon="6.45982">
        <ele>1988.62</ele>
        <time>2019-09-14T08:04:39Z</time>
      </trkpt>
      <trkpt lat="45.99484" lon="6.45982">
        <ele>1991.99</ele>
        <time>2019-09-14T08:04:42Z</time>
      </trkpt>
      <trkpt lat="45.99485" lon="6.45981">
        <ele>1992.95</ele>
        <time>2019-09-14T08:04:53Z</time>
      </trkpt>
      <trkpt lat="45.99488" lon="6.45969">
        <ele>1993.91</ele>
        <time>2019-09-14T08:05:05Z</time>
      </trkpt>
      <trkpt lat="45.99491" lon="6.45966">
        <ele>1997.28</ele>
        <time>2019-09-14T08:05:12Z</time>
      </trkpt>
      <trkpt lat="45.99491" lon="6.45966">
        <ele>1992.95</ele>
        <time>2019-09-14T08:05:15Z</time>
      </trkpt>
      <trkpt lat="45.99491" lon="6.45967">
        <ele>1995.83</ele>
        <time>2019-09-14T08:05:16Z</time>
      </trkpt>
      <trkpt lat="45.99493" lon="6.45967">
        <ele>1997.28</ele>
        <time>2019-09-14T08:05:27Z</time>
      </trkpt>
      <trkpt lat="45.99493" lon="6.45968">
        <ele>1996.32</ele>
        <time>2019-09-14T08:05:38Z</time>
      </trkpt>
      <trkpt lat="45.99493" lon="6.45968">
        <ele>2000.64</ele>
        <time>2019-09-14T08:05:39Z</time>
      </trkpt>
      <trkpt lat="45.99493" lon="6.45968">
        <ele>1997.28</ele>
        <time>2019-09-14T08:05:40Z</time>
      </trkpt>
      <trkpt lat="45.99493" lon="6.45968">
        <ele>2000.64</ele>
        <time>2019-09-14T08:05:41Z</time>
      </trkpt>
      <trkpt lat="45.99495" lon="6.45968">
        <ele>2001.12</ele>
        <time>2019-09-14T08:05:52Z</time>
      </trkpt>
      <trkpt lat="45.99498" lon="6.45961">
        <ele>2004.49</ele>
        <time>2019-09-14T08:06:03Z</time>
      </trkpt>
      <trkpt lat="45.99499" lon="6.45958">
        <ele>1999.2</ele>
        <time>2019-09-14T08:06:06Z</time>
      </trkpt>
      <trkpt lat="45.995" lon="6.45958">
        <ele>2004.49</ele>
        <time>2019-09-14T08:06:07Z</time>
      </trkpt>
      <trkpt lat="45.995" lon="6.45958">
        <ele>2000.16</ele>
        <time>2019-09-14T08:06:08Z</time>
      </trkpt>
      <trkpt lat="45.99501" lon="6.45957">
        <ele>2005.45</ele>
        <time>2019-09-14T08:06:09Z</time>
      </trkpt>
      <trkpt lat="45.995" lon="6.45959">
        <ele>2002.08</ele>
        <time>2019-09-14T08:06:13Z</time>
      </trkpt>
      <trkpt lat="45.99501" lon="6.45958">
        <ele>2005.45</ele>
        <time>2019-09-14T08:06:15Z</time>
      </trkpt>
      <trkpt lat="45.99506" lon="6.4595">
        <ele>2004.97</ele>
        <time>2019-09-14T08:06:24Z</time>
      </trkpt>
      <trkpt lat="45.9951" lon="6.45942">
        <ele>2003.52</ele>
        <time>2019-09-14T08:06:34Z</time>
      </trkpt>
      <trkpt lat="45.9951" lon="6.45942">
        <ele>2008.33</ele>
        <time>2019-09-14T08:06:35Z</time>
      </trkpt>
      <trkpt lat="45.9951" lon="6.45941">
        <ele>2004.97</ele>
        <time>2019-09-14T08:06:36Z</time>
      </trkpt>
      <trkpt lat="45.9951" lon="6.45942">
        <ele>2008.33</ele>
        <time>2019-09-14T08:06:37Z</time>
      </trkpt>
      <trkpt lat="45.9951" lon="6.45942">
        <ele>2004.49</ele>
        <time>2019-09-14T08:06:38Z</time>
      </trkpt>
      <trkpt lat="45.9951" lon="6.45943">
        <ele>2008.33</ele>
        <time>2019-09-14T08:06:41Z</time>
      </trkpt>
      <trkpt lat="45.9951" lon="6.45945">
        <ele>2006.89</ele>
        <time>2019-09-14T08:06:55Z</time>
      </trkpt>
      <trkpt lat="45.99511" lon="6.45945">
        <ele>2011.7</ele>
        <time>2019-09-14T08:06:57Z</time>
      </trkpt>
      <trkpt lat="45.99511" lon="6.45945">
        <ele>2008.81</ele>
        <time>2019-09-14T08:06:58Z</time>
      </trkpt>
      <trkpt lat="45.99512" lon="6.45944">
        <ele>2010.73</ele>
        <time>2019-09-14T08:07:06Z</time>
      </trkpt>
      <trkpt lat="45.99514" lon="6.45943">
        <ele>2012.18</ele>
        <time>2019-09-14T08:07:21Z</time>
      </trkpt>
      <trkpt lat="45.99515" lon="6.45942">
        <ele>2014.58</ele>
        <time>2019-09-14T08:07:31Z</time>
      </trkpt>
      <trkpt lat="45.99516" lon="6.45942">
        <ele>2010.73</ele>
        <time>2019-09-14T08:07:32Z</time>
      </trkpt>
      <trkpt lat="45.99516" lon="6.45942">
        <ele>2014.58</ele>
        <time>2019-09-14T08:07:33Z</time>
      </trkpt>
      <trkpt lat="45.99519" lon="6.45938">
        <ele>2015.54</ele>
        <time>2019-09-14T08:07:42Z</time>
      </trkpt>
      <trkpt lat="45.99521" lon="6.45934">
        <ele>2012.66</ele>
        <time>2019-09-14T08:07:45Z</time>
      </trkpt>
      <trkpt lat="45.99521" lon="6.45934">
        <ele>2016.02</ele>
        <time>2019-09-14T08:07:46Z</time>
      </trkpt>
      <trkpt lat="45.99523" lon="6.45933">
        <ele>2013.14</ele>
        <time>2019-09-14T08:07:49Z</time>
      </trkpt>
      <trkpt lat="45.99523" lon="6.45932">
        <ele>2016.98</ele>
        <time>2019-09-14T08:07:50Z</time>
      </trkpt>
      <trkpt lat="45.99526" lon="6.45928">
        <ele>2016.02</ele>
        <time>2019-09-14T08:08:04Z</time>
      </trkpt>
      <trkpt lat="45.99526" lon="6.45928">
        <ele>2018.91</ele>
        <time>2019-09-14T08:08:05Z</time>
      </trkpt>
      <trkpt lat="45.99529" lon="6.45921">
        <ele>2020.35</ele>
        <time>2019-09-14T08:08:17Z</time>
      </trkpt>
      <trkpt lat="45.99533" lon="6.45914">
        <ele>2021.31</ele>
        <time>2019-09-14T08:08:29Z</time>
      </trkpt>
      <trkpt lat="45.99536" lon="6.45904">
        <ele>2025.15</ele>
        <time>2019-09-14T08:08:40Z</time>
      </trkpt>
      <trkpt lat="45.99537" lon="6.45903">
        <ele>2021.31</ele>
        <time>2019-09-14T08:08:41Z</time>
      </trkpt>
      <trkpt lat="45.99537" lon="6.45903">
        <ele>2024.67</ele>
        <time>2019-09-14T08:08:42Z</time>
      </trkpt>
      <trkpt lat="45.99538" lon="6.45901">
        <ele>2025.15</ele>
        <time>2019-09-14T08:08:53Z</time>
      </trkpt>
      <trkpt lat="45.99541" lon="6.45891">
        <ele>2028.52</ele>
        <time>2019-09-14T08:09:03Z</time>
      </trkpt>
      <trkpt lat="45.99541" lon="6.45886">
        <ele>2025.15</ele>
        <time>2019-09-14T08:09:08Z</time>
      </trkpt>
      <trkpt lat="45.99542" lon="6.45884">
        <ele>2028.52</ele>
        <time>2019-09-14T08:09:13Z</time>
      </trkpt>
      <trkpt lat="45.99539" lon="6.45883">
        <ele>2029</ele>
        <time>2019-09-14T08:09:24Z</time>
      </trkpt>
      <trkpt lat="45.99541" lon="6.45879">
        <ele>2032.36</ele>
        <time>2019-09-14T08:09:33Z</time>
      </trkpt>
      <trkpt lat="45.99541" lon="6.45878">
        <ele>2027.08</ele>
        <time>2019-09-14T08:09:34Z</time>
      </trkpt>
      <trkpt lat="45.99541" lon="6.45877">
        <ele>2032.84</ele>
        <time>2019-09-14T08:09:35Z</time>
      </trkpt>
      <trkpt lat="45.99541" lon="6.45875">
        <ele>2028.04</ele>
        <time>2019-09-14T08:09:36Z</time>
      </trkpt>
      <trkpt lat="45.99541" lon="6.45875">
        <ele>2031.88</ele>
        <time>2019-09-14T08:09:37Z</time>
      </trkpt>
      <trkpt lat="45.99541" lon="6.45874">
        <ele>2028.52</ele>
        <time>2019-09-14T08:09:38Z</time>
      </trkpt>
      <trkpt lat="45.99541" lon="6.45874">
        <ele>2031.88</ele>
        <time>2019-09-14T08:09:39Z</time>
      </trkpt>
      <trkpt lat="45.99541" lon="6.45874">
        <ele>2028.04</ele>
        <time>2019-09-14T08:09:40Z</time>
      </trkpt>
      <trkpt lat="45.99541" lon="6.45874">
        <ele>2031.88</ele>
        <time>2019-09-14T08:09:41Z</time>
      </trkpt>
      <trkpt lat="45.99541" lon="6.45874">
        <ele>2029</ele>
        <time>2019-09-14T08:09:47Z</time>
      </trkpt>
      <trkpt lat="45.9954" lon="6.45874">
        <ele>2032.84</ele>
        <time>2019-09-14T08:09:48Z</time>
      </trkpt>
      <trkpt lat="45.9954" lon="6.45874">
        <ele>2029.96</ele>
        <time>2019-09-14T08:09:49Z</time>
      </trkpt>
      <trkpt lat="45.9954" lon="6.45873">
        <ele>2034.29</ele>
        <time>2019-09-14T08:09:55Z</time>
      </trkpt>
      <trkpt lat="45.99541" lon="6.45871">
        <ele>2029.96</ele>
        <time>2019-09-14T08:10:02Z</time>
      </trkpt>
      <trkpt lat="45.99541" lon="6.45871">
        <ele>2035.73</ele>
        <time>2019-09-14T08:10:03Z</time>
      </trkpt>
      <trkpt lat="45.99541" lon="6.45871">
        <ele>2031.88</ele>
        <time>2019-09-14T08:10:04Z</time>
      </trkpt>
      <trkpt lat="45.9954" lon="6.4587">
        <ele>2036.21</ele>
        <time>2019-09-14T08:10:07Z</time>
      </trkpt>
      <trkpt lat="45.99539" lon="6.45868">
        <ele>2037.65</ele>
        <time>2019-09-14T08:10:17Z</time>
      </trkpt>
      <trkpt lat="45.99539" lon="6.45868">
        <ele>2034.29</ele>
        <time>2019-09-14T08:10:18Z</time>
      </trkpt>
      <trkpt lat="45.99539" lon="6.45868">
        <ele>2038.61</ele>
        <time>2019-09-14T08:10:19Z</time>
      </trkpt>
      <trkpt lat="45.99539" lon="6.45868">
        <ele>2035.25</ele>
        <time>2019-09-14T08:10:20Z</time>
      </trkpt>
      <trkpt lat="45.99539" lon="6.45868">
        <ele>2038.61</ele>
        <time>2019-09-14T08:10:21Z</time>
      </trkpt>
      <trkpt lat="45.99539" lon="6.45864">
        <ele>2035.25</ele>
        <time>2019-09-14T08:10:28Z</time>
      </trkpt>
      <trkpt lat="45.9954" lon="6.45861">
        <ele>2041.02</ele>
        <time>2019-09-14T08:10:31Z</time>
      </trkpt>
      <trkpt lat="45.9954" lon="6.45861">
        <ele>2037.65</ele>
        <time>2019-09-14T08:10:32Z</time>
      </trkpt>
      <trkpt lat="45.99541" lon="6.45859">
        <ele>2039.57</ele>
        <time>2019-09-14T08:10:43Z</time>
      </trkpt>
      <trkpt lat="45.99541" lon="6.45858">
        <ele>2041.5</ele>
        <time>2019-09-14T08:10:47Z</time>
      </trkpt>
      <trkpt lat="45.99542" lon="6.45858">
        <ele>2039.09</ele>
        <time>2019-09-14T08:10:59Z</time>
      </trkpt>
      <trkpt lat="45.99542" lon="6.45859">
        <ele>2043.9</ele>
        <time>2019-09-14T08:11:00Z</time>
      </trkpt>
      <trkpt lat="45.99542" lon="6.45859">
        <ele>2039.57</ele>
        <time>2019-09-14T08:11:01Z</time>
      </trkpt>
      <trkpt lat="45.99543" lon="6.45859">
        <ele>2044.38</ele>
        <time>2019-09-14T08:11:02Z</time>
      </trkpt>
      <trkpt lat="45.99544" lon="6.45858">
        <ele>2041.02</ele>
        <time>2019-09-14T08:11:06Z</time>
      </trkpt>
      <trkpt lat="45.99544" lon="6.45857">
        <ele>2044.38</ele>
        <time>2019-09-14T08:11:07Z</time>
      </trkpt>
      <trkpt lat="45.99548" lon="6.45855">
        <ele>2046.3</ele>
        <time>2019-09-14T08:11:18Z</time>
      </trkpt>
      <trkpt lat="45.99548" lon="6.45855">
        <ele>2045.82</ele>
        <time>2019-09-14T08:11:19Z</time>
      </trkpt>
      <trkpt lat="45.99553" lon="6.45846">
        <ele>2043.9</ele>
        <time>2019-09-14T08:11:30Z</time>
      </trkpt>
      <trkpt lat="45.99554" lon="6.45846">
        <ele>2048.23</ele>
        <time>2019-09-14T08:11:33Z</time>
      </trkpt>
      <trkpt lat="45.99554" lon="6.45846">
        <ele>2044.38</ele>
        <time>2019-09-14T08:11:34Z</time>
      </trkpt>
      <trkpt lat="45.99554" lon="6.45846">
        <ele>2047.26</ele>
        <time>2019-09-14T08:11:35Z</time>
      </trkpt>
      <trkpt lat="45.99557" lon="6.45845">
        <ele>2047.75</ele>
        <time>2019-09-14T08:11:47Z</time>
      </trkpt>
      <trkpt lat="45.99559" lon="6.45843">
        <ele>2050.63</ele>
        <time>2019-09-14T08:11:58Z</time>
      </trkpt>
      <trkpt lat="45.99561" lon="6.45843">
        <ele>2053.51</ele>
        <time>2019-09-14T08:12:12Z</time>
      </trkpt>
      <trkpt lat="45.99562" lon="6.45843">
        <ele>2049.19</ele>
        <time>2019-09-14T08:12:13Z</time>
      </trkpt>
      <trkpt lat="45.99562" lon="6.45843">
        <ele>2053.99</ele>
        <time>2019-09-14T08:12:14Z</time>
      </trkpt>
      <trkpt lat="45.99563" lon="6.45843">
        <ele>2049.19</ele>
        <time>2019-09-14T08:12:15Z</time>
      </trkpt>
      <trkpt lat="45.99563" lon="6.45843">
        <ele>2052.55</ele>
        <time>2019-09-14T08:12:16Z</time>
      </trkpt>
      <trkpt lat="45.99565" lon="6.45842">
        <ele>2053.03</ele>
        <time>2019-09-14T08:12:27Z</time>
      </trkpt>
      <trkpt lat="45.99566" lon="6.45841">
        <ele>2057.36</ele>
        <time>2019-09-14T08:12:32Z</time>
      </trkpt>
      <trkpt lat="45.99566" lon="6.45841">
        <ele>2053.99</ele>
        <time>2019-09-14T08:12:33Z</time>
      </trkpt>
      <trkpt lat="45.99566" lon="6.4584">
        <ele>2057.36</ele>
        <time>2019-09-14T08:12:41Z</time>
      </trkpt>
      <trkpt lat="45.99566" lon="6.4584">
        <ele>2053.03</ele>
        <time>2019-09-14T08:12:42Z</time>
      </trkpt>
      <trkpt lat="45.99566" lon="6.4584">
        <ele>2056.4</ele>
        <time>2019-09-14T08:12:43Z</time>
      </trkpt>
      <trkpt lat="45.99567" lon="6.4584">
        <ele>2057.36</ele>
        <time>2019-09-14T08:12:53Z</time>
      </trkpt>
      <trkpt lat="45.99572" lon="6.4584">
        <ele>2059.28</ele>
        <time>2019-09-14T08:13:06Z</time>
      </trkpt>
      <trkpt lat="45.99573" lon="6.45838">
        <ele>2061.2</ele>
        <time>2019-09-14T08:13:14Z</time>
      </trkpt>
      <trkpt lat="45.99575" lon="6.45834">
        <ele>2060.24</ele>
        <time>2019-09-14T08:13:26Z</time>
      </trkpt>
      <trkpt lat="45.99576" lon="6.45831">
        <ele>2063.61</ele>
        <time>2019-09-14T08:13:32Z</time>
      </trkpt>
      <trkpt lat="45.99577" lon="6.4583">
        <ele>2060.24</ele>
        <time>2019-09-14T08:13:36Z</time>
      </trkpt>
      <trkpt lat="45.99577" lon="6.4583">
        <ele>2065.05</ele>
        <time>2019-09-14T08:13:37Z</time>
      </trkpt>
      <trkpt lat="45.99578" lon="6.45828">
        <ele>2066.49</ele>
        <time>2019-09-14T08:13:50Z</time>
      </trkpt>
      <trkpt lat="45.9958" lon="6.45828">
        <ele>2066.97</ele>
        <time>2019-09-14T08:14:01Z</time>
      </trkpt>
      <trkpt lat="45.99583" lon="6.45826">
        <ele>2067.93</ele>
        <time>2019-09-14T08:14:11Z</time>
      </trkpt>
      <trkpt lat="45.99584" lon="6.45822">
        <ele>2068.89</ele>
        <time>2019-09-14T08:14:20Z</time>
      </trkpt>
      <trkpt lat="45.99587" lon="6.45823">
        <ele>2072.26</ele>
        <time>2019-09-14T08:14:26Z</time>
      </trkpt>
      <trkpt lat="45.99587" lon="6.45822">
        <ele>2067.93</ele>
        <time>2019-09-14T08:14:27Z</time>
      </trkpt>
      <trkpt lat="45.99588" lon="6.45821">
        <ele>2070.34</ele>
        <time>2019-09-14T08:14:30Z</time>
      </trkpt>
      <trkpt lat="45.9959" lon="6.45819">
        <ele>2071.78</ele>
        <time>2019-09-14T08:14:40Z</time>
      </trkpt>
      <trkpt lat="45.99592" lon="6.45815">
        <ele>2072.26</ele>
        <time>2019-09-14T08:14:49Z</time>
      </trkpt>
      <trkpt lat="45.99595" lon="6.45813">
        <ele>2074.66</ele>
        <time>2019-09-14T08:15:01Z</time>
      </trkpt>
      <trkpt lat="45.99595" lon="6.45813">
        <ele>2071.3</ele>
        <time>2019-09-14T08:15:04Z</time>
      </trkpt>
      <trkpt lat="45.99596" lon="6.45813">
        <ele>2076.1</ele>
        <time>2019-09-14T08:15:05Z</time>
      </trkpt>
      <trkpt lat="45.99597" lon="6.45813">
        <ele>2071.78</ele>
        <time>2019-09-14T08:15:06Z</time>
      </trkpt>
      <trkpt lat="45.99597" lon="6.45813">
        <ele>2075.62</ele>
        <time>2019-09-14T08:15:07Z</time>
      </trkpt>
      <trkpt lat="45.99597" lon="6.45814">
        <ele>2072.74</ele>
        <time>2019-09-14T08:15:08Z</time>
      </trkpt>
      <trkpt lat="45.99601" lon="6.45813">
        <ele>2076.59</ele>
        <time>2019-09-14T08:15:13Z</time>
      </trkpt>
      <trkpt lat="45.99601" lon="6.45813">
        <ele>2076.1</ele>
        <time>2019-09-14T08:15:14Z</time>
      </trkpt>
      <trkpt lat="45.99602" lon="6.45813">
        <ele>2076.59</ele>
        <time>2019-09-14T08:15:23Z</time>
      </trkpt>
      <trkpt lat="45.99603" lon="6.45814">
        <ele>2078.03</ele>
        <time>2019-09-14T08:15:35Z</time>
      </trkpt>
      <trkpt lat="45.99604" lon="6.45814">
        <ele>2078.99</ele>
        <time>2019-09-14T08:15:37Z</time>
      </trkpt>
      <trkpt lat="45.99604" lon="6.45813">
        <ele>2079.47</ele>
        <time>2019-09-14T08:15:39Z</time>
      </trkpt>
      <trkpt lat="45.99606" lon="6.45812">
        <ele>2081.87</ele>
        <time>2019-09-14T08:15:48Z</time>
      </trkpt>
      <trkpt lat="45.99608" lon="6.4581">
        <ele>2079.95</ele>
        <time>2019-09-14T08:15:59Z</time>
      </trkpt>
      <trkpt lat="45.99609" lon="6.45808">
        <ele>2083.31</ele>
        <time>2019-09-14T08:16:04Z</time>
      </trkpt>
      <trkpt lat="45.9961" lon="6.45808">
        <ele>2079.95</ele>
        <time>2019-09-14T08:16:05Z</time>
      </trkpt>
      <trkpt lat="45.9961" lon="6.45808">
        <ele>2083.79</ele>
        <time>2019-09-14T08:16:06Z</time>
      </trkpt>
      <trkpt lat="45.9961" lon="6.45807">
        <ele>2080.43</ele>
        <time>2019-09-14T08:16:07Z</time>
      </trkpt>
      <trkpt lat="45.99611" lon="6.45806">
        <ele>2083.79</ele>
        <time>2019-09-14T08:16:11Z</time>
      </trkpt>
      <trkpt lat="45.99611" lon="6.45806">
        <ele>2083.79</ele>
        <time>2019-09-14T08:16:12Z</time>
      </trkpt>
      <trkpt lat="45.99613" lon="6.45806">
        <ele>2083.79</ele>
        <time>2019-09-14T08:16:23Z</time>
      </trkpt>
      <trkpt lat="45.99613" lon="6.45805">
        <ele>2084.28</ele>
        <time>2019-09-14T08:16:33Z</time>
      </trkpt>
      <trkpt lat="45.99614" lon="6.45805">
        <ele>2087.64</ele>
        <time>2019-09-14T08:16:35Z</time>
      </trkpt>
      <trkpt lat="45.99614" lon="6.45805">
        <ele>2084.28</ele>
        <time>2019-09-14T08:16:37Z</time>
      </trkpt>
      <trkpt lat="45.99615" lon="6.45805">
        <ele>2087.16</ele>
        <time>2019-09-14T08:16:38Z</time>
      </trkpt>
      <trkpt lat="45.99617" lon="6.45805">
        <ele>2088.6</ele>
        <time>2019-09-14T08:16:49Z</time>
      </trkpt>
      <trkpt lat="45.99619" lon="6.45801">
        <ele>2089.56</ele>
        <time>2019-09-14T08:17:00Z</time>
      </trkpt>
      <trkpt lat="45.9962" lon="6.458">
        <ele>2086.2</ele>
        <time>2019-09-14T08:17:01Z</time>
      </trkpt>
      <trkpt lat="45.99619" lon="6.458">
        <ele>2090.52</ele>
        <time>2019-09-14T08:17:02Z</time>
      </trkpt>
      <trkpt lat="45.9962" lon="6.458">
        <ele>2086.68</ele>
        <time>2019-09-14T08:17:03Z</time>
      </trkpt>
      <trkpt lat="45.9962" lon="6.45799">
        <ele>2087.16</ele>
        <time>2019-09-14T08:17:05Z</time>
      </trkpt>
      <trkpt lat="45.9962" lon="6.45799">
        <ele>2091</ele>
        <time>2019-09-14T08:17:06Z</time>
      </trkpt>
      <trkpt lat="45.9962" lon="6.45799">
        <ele>2087.16</ele>
        <time>2019-09-14T08:17:07Z</time>
      </trkpt>
      <trkpt lat="45.9962" lon="6.45799">
        <ele>2090.04</ele>
        <time>2019-09-14T08:17:08Z</time>
      </trkpt>
      <trkpt lat="45.9962" lon="6.45799">
        <ele>2091.49</ele>
        <time>2019-09-14T08:17:11Z</time>
      </trkpt>
      <trkpt lat="45.9962" lon="6.45798">
        <ele>2088.6</ele>
        <time>2019-09-14T08:17:12Z</time>
      </trkpt>
      <trkpt lat="45.9962" lon="6.45798">
        <ele>2093.41</ele>
        <time>2019-09-14T08:17:13Z</time>
      </trkpt>
      <trkpt lat="45.9962" lon="6.45798">
        <ele>2089.56</ele>
        <time>2019-09-14T08:17:14Z</time>
      </trkpt>
      <trkpt lat="45.9962" lon="6.45798">
        <ele>2090.52</ele>
        <time>2019-09-14T08:17:15Z</time>
      </trkpt>
      <trkpt lat="45.99621" lon="6.45797">
        <ele>2092.93</ele>
        <time>2019-09-14T08:17:24Z</time>
      </trkpt>
      <trkpt lat="45.99623" lon="6.45794">
        <ele>2091</ele>
        <time>2019-09-14T08:17:34Z</time>
      </trkpt>
      <trkpt lat="45.99623" lon="6.45794">
        <ele>2091.97</ele>
        <time>2019-09-14T08:17:35Z</time>
      </trkpt>
      <trkpt lat="45.99623" lon="6.45793">
        <ele>2094.37</ele>
        <time>2019-09-14T08:17:38Z</time>
      </trkpt>
      <trkpt lat="45.99625" lon="6.45793">
        <ele>2097.25</ele>
        <time>2019-09-14T08:17:46Z</time>
      </trkpt>
      <trkpt lat="45.99626" lon="6.45793">
        <ele>2092.93</ele>
        <time>2019-09-14T08:17:50Z</time>
      </trkpt>
      <trkpt lat="45.99626" lon="6.45793">
        <ele>2095.33</ele>
        <time>2019-09-14T08:17:51Z</time>
      </trkpt>
      <trkpt lat="45.99628" lon="6.45792">
        <ele>2091.49</ele>
        <time>2019-09-14T08:17:57Z</time>
      </trkpt>
      <trkpt lat="45.99629" lon="6.45792">
        <ele>2097.25</ele>
        <time>2019-09-14T08:17:58Z</time>
      </trkpt>
      <trkpt lat="45.99629" lon="6.45792">
        <ele>2091.49</ele>
        <time>2019-09-14T08:18:00Z</time>
      </trkpt>
      <trkpt lat="45.99629" lon="6.45791">
        <ele>2095.33</ele>
        <time>2019-09-14T08:18:01Z</time>
      </trkpt>
      <trkpt lat="45.99631" lon="6.45791">
        <ele>2095.33</ele>
        <time>2019-09-14T08:18:11Z</time>
      </trkpt>
      <trkpt lat="45.99631" lon="6.45791">
        <ele>2098.21</ele>
        <time>2019-09-14T08:18:17Z</time>
      </trkpt>
      <trkpt lat="45.99632" lon="6.45791">
        <ele>2096.77</ele>
        <time>2019-09-14T08:18:19Z</time>
      </trkpt>
      <trkpt lat="45.99632" lon="6.4579">
        <ele>2098.7</ele>
        <time>2019-09-14T08:18:25Z</time>
      </trkpt>
      <trkpt lat="45.99634" lon="6.4579">
        <ele>2100.62</ele>
        <time>2019-09-14T08:18:38Z</time>
      </trkpt>
      <trkpt lat="45.99637" lon="6.45786">
        <ele>2097.73</ele>
        <time>2019-09-14T08:18:44Z</time>
      </trkpt>
      <trkpt lat="45.99637" lon="6.45786">
        <ele>2101.58</ele>
        <time>2019-09-14T08:18:45Z</time>
      </trkpt>
      <trkpt lat="45.99638" lon="6.45786">
        <ele>2097.73</ele>
        <time>2019-09-14T08:18:46Z</time>
      </trkpt>
      <trkpt lat="45.99638" lon="6.45786">
        <ele>2101.58</ele>
        <time>2019-09-14T08:18:47Z</time>
      </trkpt>
      <trkpt lat="45.99639" lon="6.45785">
        <ele>2097.25</ele>
        <time>2019-09-14T08:18:51Z</time>
      </trkpt>
      <trkpt lat="45.99639" lon="6.45785">
        <ele>2101.1</ele>
        <time>2019-09-14T08:18:52Z</time>
      </trkpt>
      <trkpt lat="45.99641" lon="6.45784">
        <ele>2102.54</ele>
        <time>2019-09-14T08:19:01Z</time>
      </trkpt>
      <trkpt lat="45.99643" lon="6.45781">
        <ele>2103.5</ele>
        <time>2019-09-14T08:19:13Z</time>
      </trkpt>
      <trkpt lat="45.99643" lon="6.45781">
        <ele>2103.02</ele>
        <time>2019-09-14T08:19:14Z</time>
      </trkpt>
      <trkpt lat="45.99643" lon="6.45781">
        <ele>2106.39</ele>
        <time>2019-09-14T08:19:17Z</time>
      </trkpt>
      <trkpt lat="45.99645" lon="6.4578">
        <ele>2103.98</ele>
        <time>2019-09-14T08:19:26Z</time>
      </trkpt>
      <trkpt lat="45.99645" lon="6.4578">
        <ele>2106.39</ele>
        <time>2019-09-14T08:19:27Z</time>
      </trkpt>
      <trkpt lat="45.99645" lon="6.4578">
        <ele>2103.98</ele>
        <time>2019-09-14T08:19:28Z</time>
      </trkpt>
      <trkpt lat="45.99645" lon="6.4578">
        <ele>2107.35</ele>
        <time>2019-09-14T08:19:29Z</time>
      </trkpt>
      <trkpt lat="45.99646" lon="6.4578">
        <ele>2103.98</ele>
        <time>2019-09-14T08:19:30Z</time>
      </trkpt>
      <trkpt lat="45.99646" lon="6.45779">
        <ele>2105.42</ele>
        <time>2019-09-14T08:19:31Z</time>
      </trkpt>
      <trkpt lat="45.99646" lon="6.45779">
        <ele>2107.35</ele>
        <time>2019-09-14T08:19:36Z</time>
      </trkpt>
      <trkpt lat="45.99646" lon="6.45779">
        <ele>2105.42</ele>
        <time>2019-09-14T08:19:37Z</time>
      </trkpt>
      <trkpt lat="45.99646" lon="6.45779">
        <ele>2106.39</ele>
        <time>2019-09-14T08:19:42Z</time>
      </trkpt>
      <trkpt lat="45.99647" lon="6.45779">
        <ele>2108.79</ele>
        <time>2019-09-14T08:19:44Z</time>
      </trkpt>
      <trkpt lat="45.99647" lon="6.45779">
        <ele>2104.46</ele>
        <time>2019-09-14T08:19:45Z</time>
      </trkpt>
      <trkpt lat="45.99647" lon="6.45779">
        <ele>2107.83</ele>
        <time>2019-09-14T08:19:46Z</time>
      </trkpt>
      <trkpt lat="45.99649" lon="6.45778">
        <ele>2109.27</ele>
        <time>2019-09-14T08:19:55Z</time>
      </trkpt>
      <trkpt lat="45.9965" lon="6.45777">
        <ele>2109.75</ele>
        <time>2019-09-14T08:20:04Z</time>
      </trkpt>
      <trkpt lat="45.9965" lon="6.45777">
        <ele>2109.75</ele>
        <time>2019-09-14T08:20:06Z</time>
      </trkpt>
      <trkpt lat="45.9965" lon="6.45777">
        <ele>2111.67</ele>
        <time>2019-09-14T08:20:08Z</time>
      </trkpt>
      <trkpt lat="45.99652" lon="6.45777">
        <ele>2113.12</ele>
        <time>2019-09-14T08:20:19Z</time>
      </trkpt>
      <trkpt lat="45.99653" lon="6.45775">
        <ele>2111.19</ele>
        <time>2019-09-14T08:20:30Z</time>
      </trkpt>
      <trkpt lat="45.99654" lon="6.45775">
        <ele>2110.71</ele>
        <time>2019-09-14T08:20:32Z</time>
      </trkpt>
      <trkpt lat="45.99654" lon="6.45774">
        <ele>2115.04</ele>
        <time>2019-09-14T08:20:33Z</time>
      </trkpt>
      <trkpt lat="45.99654" lon="6.45775">
        <ele>2112.63</ele>
        <time>2019-09-14T08:20:34Z</time>
      </trkpt>
      <trkpt lat="45.99655" lon="6.45774">
        <ele>2115.52</ele>
        <time>2019-09-14T08:20:38Z</time>
      </trkpt>
      <trkpt lat="45.99656" lon="6.45773">
        <ele>2113.12</ele>
        <time>2019-09-14T08:20:45Z</time>
      </trkpt>
      <trkpt lat="45.99656" lon="6.45773">
        <ele>2116.48</ele>
        <time>2019-09-14T08:20:46Z</time>
      </trkpt>
      <trkpt lat="45.99656" lon="6.45773">
        <ele>2116.96</ele>
        <time>2019-09-14T08:20:50Z</time>
      </trkpt>
      <trkpt lat="45.99657" lon="6.45772">
        <ele>2115.04</ele>
        <time>2019-09-14T08:20:54Z</time>
      </trkpt>
      <trkpt lat="45.99658" lon="6.45771">
        <ele>2117.92</ele>
        <time>2019-09-14T08:20:57Z</time>
      </trkpt>
      <trkpt lat="45.99659" lon="6.45772">
        <ele>2114.56</ele>
        <time>2019-09-14T08:21:05Z</time>
      </trkpt>
      <trkpt lat="45.99659" lon="6.45772">
        <ele>2118.88</ele>
        <time>2019-09-14T08:21:06Z</time>
      </trkpt>
      <trkpt lat="45.99661" lon="6.45771">
        <ele>2119.84</ele>
        <time>2019-09-14T08:21:17Z</time>
      </trkpt>
      <trkpt lat="45.99663" lon="6.4577">
        <ele>2119.84</ele>
        <time>2019-09-14T08:21:27Z</time>
      </trkpt>
      <trkpt lat="45.99666" lon="6.45768">
        <ele>2122.73</ele>
        <time>2019-09-14T08:21:38Z</time>
      </trkpt>
      <trkpt lat="45.99667" lon="6.45767">
        <ele>2119.36</ele>
        <time>2019-09-14T08:21:40Z</time>
      </trkpt>
      <trkpt lat="45.99667" lon="6.45767">
        <ele>2122.73</ele>
        <time>2019-09-14T08:21:41Z</time>
      </trkpt>
      <trkpt lat="45.99667" lon="6.45767">
        <ele>2119.36</ele>
        <time>2019-09-14T08:21:42Z</time>
      </trkpt>
      <trkpt lat="45.99668" lon="6.45767">
        <ele>2122.73</ele>
        <time>2019-09-14T08:21:46Z</time>
      </trkpt>
      <trkpt lat="45.99672" lon="6.45763">
        <ele>2122.25</ele>
        <time>2019-09-14T08:21:57Z</time>
      </trkpt>
      <trkpt lat="45.99673" lon="6.4576">
        <ele>2126.09</ele>
        <time>2019-09-14T08:22:07Z</time>
      </trkpt>
      <trkpt lat="45.99673" lon="6.4576">
        <ele>2122.25</ele>
        <time>2019-09-14T08:22:09Z</time>
      </trkpt>
      <trkpt lat="45.99674" lon="6.4576">
        <ele>2125.13</ele>
        <time>2019-09-14T08:22:10Z</time>
      </trkpt>
      <trkpt lat="45.99676" lon="6.45758">
        <ele>2126.57</ele>
        <time>2019-09-14T08:22:23Z</time>
      </trkpt>
      <trkpt lat="45.99678" lon="6.45758">
        <ele>2127.05</ele>
        <time>2019-09-14T08:22:32Z</time>
      </trkpt>
      <trkpt lat="45.9968" lon="6.45756">
        <ele>2128.5</ele>
        <time>2019-09-14T08:22:43Z</time>
      </trkpt>
      <trkpt lat="45.99681" lon="6.45755">
        <ele>2128.5</ele>
        <time>2019-09-14T08:22:49Z</time>
      </trkpt>
      <trkpt lat="45.99681" lon="6.45755">
        <ele>2130.42</ele>
        <time>2019-09-14T08:22:53Z</time>
      </trkpt>
      <trkpt lat="45.99681" lon="6.45754">
        <ele>2127.05</ele>
        <time>2019-09-14T08:22:54Z</time>
      </trkpt>
      <trkpt lat="45.99682" lon="6.45754">
        <ele>2129.94</ele>
        <time>2019-09-14T08:22:55Z</time>
      </trkpt>
      <trkpt lat="45.99683" lon="6.45754">
        <ele>2130.9</ele>
        <time>2019-09-14T08:23:02Z</time>
      </trkpt>
      <trkpt lat="45.99685" lon="6.45753">
        <ele>2132.34</ele>
        <time>2019-09-14T08:23:11Z</time>
      </trkpt>
      <trkpt lat="45.99688" lon="6.45753">
        <ele>2131.86</ele>
        <time>2019-09-14T08:23:23Z</time>
      </trkpt>
      <trkpt lat="45.9969" lon="6.45752">
        <ele>2131.86</ele>
        <time>2019-09-14T08:23:33Z</time>
      </trkpt>
      <trkpt lat="45.9969" lon="6.45752">
        <ele>2135.71</ele>
        <time>2019-09-14T08:23:34Z</time>
      </trkpt>
      <trkpt lat="45.9969" lon="6.45752">
        <ele>2132.34</ele>
        <time>2019-09-14T08:23:35Z</time>
      </trkpt>
      <trkpt lat="45.99691" lon="6.45752">
        <ele>2135.71</ele>
        <time>2019-09-14T08:23:39Z</time>
      </trkpt>
      <trkpt lat="45.99692" lon="6.45752">
        <ele>2136.67</ele>
        <time>2019-09-14T08:23:48Z</time>
      </trkpt>
      <trkpt lat="45.99692" lon="6.45752">
        <ele>2132.34</ele>
        <time>2019-09-14T08:23:49Z</time>
      </trkpt>
      <trkpt lat="45.99693" lon="6.45752">
        <ele>2137.63</ele>
        <time>2019-09-14T08:23:50Z</time>
      </trkpt>
      <trkpt lat="45.99694" lon="6.45752">
        <ele>2134.26</ele>
        <time>2019-09-14T08:23:55Z</time>
      </trkpt>
      <trkpt lat="45.99694" lon="6.45752">
        <ele>2138.59</ele>
        <time>2019-09-14T08:23:56Z</time>
      </trkpt>
      <trkpt lat="45.99694" lon="6.45752">
        <ele>2137.63</ele>
        <time>2019-09-14T08:24:00Z</time>
      </trkpt>
      <trkpt lat="45.99695" lon="6.45752">
        <ele>2140.03</ele>
        <time>2019-09-14T08:24:05Z</time>
      </trkpt>
      <trkpt lat="45.99695" lon="6.45752">
        <ele>2136.67</ele>
        <time>2019-09-14T08:24:06Z</time>
      </trkpt>
      <trkpt lat="45.99695" lon="6.45752">
        <ele>2138.11</ele>
        <time>2019-09-14T08:24:07Z</time>
      </trkpt>
      <trkpt lat="45.99696" lon="6.45753">
        <ele>2138.11</ele>
        <time>2019-09-14T08:24:18Z</time>
      </trkpt>
      <trkpt lat="45.99696" lon="6.45753">
        <ele>2141.95</ele>
        <time>2019-09-14T08:24:21Z</time>
      </trkpt>
      <trkpt lat="45.99697" lon="6.45753">
        <ele>2138.11</ele>
        <time>2019-09-14T08:24:23Z</time>
      </trkpt>
      <trkpt lat="45.99697" lon="6.45753">
        <ele>2141.47</ele>
        <time>2019-09-14T08:24:25Z</time>
      </trkpt>
      <trkpt lat="45.99698" lon="6.45753">
        <ele>2140.51</ele>
        <time>2019-09-14T08:24:35Z</time>
      </trkpt>
      <trkpt lat="45.99698" lon="6.45754">
        <ele>2143.88</ele>
        <time>2019-09-14T08:24:42Z</time>
      </trkpt>
      <trkpt lat="45.997" lon="6.45757">
        <ele>2140.51</ele>
        <time>2019-09-14T08:24:53Z</time>
      </trkpt>
      <trkpt lat="45.99701" lon="6.45758">
        <ele>2144.84</ele>
        <time>2019-09-14T08:24:55Z</time>
      </trkpt>
      <trkpt lat="45.99701" lon="6.45758">
        <ele>2144.36</ele>
        <time>2019-09-14T08:24:56Z</time>
      </trkpt>
      <trkpt lat="45.99702" lon="6.45758">
        <ele>2145.32</ele>
        <time>2019-09-14T08:25:05Z</time>
      </trkpt>
      <trkpt lat="45.99702" lon="6.45758">
        <ele>2141.95</ele>
        <time>2019-09-14T08:25:07Z</time>
      </trkpt>
      <trkpt lat="45.99702" lon="6.45758">
        <ele>2145.32</ele>
        <time>2019-09-14T08:25:08Z</time>
      </trkpt>
      <trkpt lat="45.99703" lon="6.45759">
        <ele>2147.24</ele>
        <time>2019-09-14T08:25:19Z</time>
      </trkpt>
      <trkpt lat="45.99703" lon="6.45759">
        <ele>2147.24</ele>
        <time>2019-09-14T08:25:20Z</time>
      </trkpt>
      <trkpt lat="45.99705" lon="6.45761">
        <ele>2149.16</ele>
        <time>2019-09-14T08:25:33Z</time>
      </trkpt>
      <trkpt lat="45.99707" lon="6.45762">
        <ele>2150.61</ele>
        <time>2019-09-14T08:25:45Z</time>
      </trkpt>
      <trkpt lat="45.99709" lon="6.45763">
        <ele>2149.65</ele>
        <time>2019-09-14T08:25:56Z</time>
      </trkpt>
      <trkpt lat="45.9971" lon="6.45765">
        <ele>2152.05</ele>
        <time>2019-09-14T08:26:00Z</time>
      </trkpt>
      <trkpt lat="45.99712" lon="6.45767">
        <ele>2154.93</ele>
        <time>2019-09-14T08:26:13Z</time>
      </trkpt>
      <trkpt lat="45.99712" lon="6.45768">
        <ele>2152.05</ele>
        <time>2019-09-14T08:26:15Z</time>
      </trkpt>
      <trkpt lat="45.99712" lon="6.45768">
        <ele>2152.05</ele>
        <time>2019-09-14T08:26:16Z</time>
      </trkpt>
      <trkpt lat="45.99713" lon="6.45769">
        <ele>2155.41</ele>
        <time>2019-09-14T08:26:18Z</time>
      </trkpt>
      <trkpt lat="45.99715" lon="6.45771">
        <ele>2154.93</ele>
        <time>2019-09-14T08:26:29Z</time>
      </trkpt>
      <trkpt lat="45.99717" lon="6.45775">
        <ele>2155.89</ele>
        <time>2019-09-14T08:26:40Z</time>
      </trkpt>
      <trkpt lat="45.9972" lon="6.4578">
        <ele>2158.3</ele>
        <time>2019-09-14T08:26:52Z</time>
      </trkpt>
      <trkpt lat="45.9972" lon="6.45781">
        <ele>2155.41</ele>
        <time>2019-09-14T08:26:56Z</time>
      </trkpt>
      <trkpt lat="45.99722" lon="6.45783">
        <ele>2159.74</ele>
        <time>2019-09-14T08:27:05Z</time>
      </trkpt>
      <trkpt lat="45.99727" lon="6.45786">
        <ele>2158.3</ele>
        <time>2019-09-14T08:27:19Z</time>
      </trkpt>
      <trkpt lat="45.99728" lon="6.45787">
        <ele>2159.26</ele>
        <time>2019-09-14T08:27:36Z</time>
      </trkpt>
      <trkpt lat="45.99728" lon="6.45788">
        <ele>2161.18</ele>
        <time>2019-09-14T08:27:48Z</time>
      </trkpt>
      <trkpt lat="45.9973" lon="6.4579">
        <ele>2162.62</ele>
        <time>2019-09-14T08:27:59Z</time>
      </trkpt>
      <trkpt lat="45.99732" lon="6.4579">
        <ele>2163.58</ele>
        <time>2019-09-14T08:28:14Z</time>
      </trkpt>
      <trkpt lat="45.99733" lon="6.45791">
        <ele>2163.58</ele>
        <time>2019-09-14T08:28:29Z</time>
      </trkpt>
      <trkpt lat="45.99735" lon="6.45791">
        <ele>2164.06</ele>
        <time>2019-09-14T08:28:44Z</time>
      </trkpt>
      <trkpt lat="45.99735" lon="6.45791">
        <ele>2164.06</ele>
        <time>2019-09-14T08:28:45Z</time>
      </trkpt>
      <trkpt lat="45.99736" lon="6.45791">
        <ele>2165.03</ele>
        <time>2019-09-14T08:28:57Z</time>
      </trkpt>
      <trkpt lat="45.99736" lon="6.45791">
        <ele>2165.99</ele>
        <time>2019-09-14T08:29:03Z</time>
      </trkpt>
      <trkpt lat="45.99737" lon="6.45792">
        <ele>2166.95</ele>
        <time>2019-09-14T08:29:14Z</time>
      </trkpt>
      <trkpt lat="45.99738" lon="6.45792">
        <ele>2168.87</ele>
        <time>2019-09-14T08:29:24Z</time>
      </trkpt>
      <trkpt lat="45.99738" lon="6.45793">
        <ele>2168.39</ele>
        <time>2019-09-14T08:29:28Z</time>
      </trkpt>
      <trkpt lat="45.9974" lon="6.45799">
        <ele>2170.31</ele>
        <time>2019-09-14T08:29:40Z</time>
      </trkpt>
      <trkpt lat="45.99742" lon="6.45802">
        <ele>2171.27</ele>
        <time>2019-09-14T08:29:52Z</time>
      </trkpt>
      <trkpt lat="45.99744" lon="6.45806">
        <ele>2174.64</ele>
        <time>2019-09-14T08:30:02Z</time>
      </trkpt>
      <trkpt lat="45.99746" lon="6.45807">
        <ele>2172.72</ele>
        <time>2019-09-14T08:30:10Z</time>
      </trkpt>
      <trkpt lat="45.99746" lon="6.45807">
        <ele>2175.12</ele>
        <time>2019-09-14T08:30:13Z</time>
      </trkpt>
      <trkpt lat="45.99747" lon="6.45808">
        <ele>2176.08</ele>
        <time>2019-09-14T08:30:25Z</time>
      </trkpt>
      <trkpt lat="45.99748" lon="6.45809">
        <ele>2176.56</ele>
        <time>2019-09-14T08:30:36Z</time>
      </trkpt>
      <trkpt lat="45.99749" lon="6.4581">
        <ele>2179.93</ele>
        <time>2019-09-14T08:30:45Z</time>
      </trkpt>
      <trkpt lat="45.99749" lon="6.45811">
        <ele>2178.48</ele>
        <time>2019-09-14T08:30:59Z</time>
      </trkpt>
      <trkpt lat="45.99751" lon="6.45814">
        <ele>2176.56</ele>
        <time>2019-09-14T08:31:10Z</time>
      </trkpt>
      <trkpt lat="45.99751" lon="6.45814">
        <ele>2179.45</ele>
        <time>2019-09-14T08:31:13Z</time>
      </trkpt>
      <trkpt lat="45.99752" lon="6.45816">
        <ele>2179.45</ele>
        <time>2019-09-14T08:31:25Z</time>
      </trkpt>
      <trkpt lat="45.99753" lon="6.45816">
        <ele>2182.81</ele>
        <time>2019-09-14T08:31:32Z</time>
      </trkpt>
      <trkpt lat="45.99753" lon="6.45816">
        <ele>2183.29</ele>
        <time>2019-09-14T08:31:36Z</time>
      </trkpt>
      <trkpt lat="45.99753" lon="6.45816">
        <ele>2181.37</ele>
        <time>2019-09-14T08:31:38Z</time>
      </trkpt>
      <trkpt lat="45.99755" lon="6.45816">
        <ele>2184.73</ele>
        <time>2019-09-14T08:31:52Z</time>
      </trkpt>
      <trkpt lat="45.99759" lon="6.45811">
        <ele>2182.81</ele>
        <time>2019-09-14T08:32:02Z</time>
      </trkpt>
      <trkpt lat="45.99761" lon="6.45811">
        <ele>2187.14</ele>
        <time>2019-09-14T08:32:05Z</time>
      </trkpt>
      <trkpt lat="45.99764" lon="6.45812">
        <ele>2183.77</ele>
        <time>2019-09-14T08:32:10Z</time>
      </trkpt>
      <trkpt lat="45.99764" lon="6.45812">
        <ele>2188.1</ele>
        <time>2019-09-14T08:32:11Z</time>
      </trkpt>
      <trkpt lat="45.99764" lon="6.45812">
        <ele>2184.25</ele>
        <time>2019-09-14T08:32:12Z</time>
      </trkpt>
      <trkpt lat="45.99764" lon="6.45812">
        <ele>2187.14</ele>
        <time>2019-09-14T08:32:13Z</time>
      </trkpt>
      <trkpt lat="45.99766" lon="6.4581">
        <ele>2188.1</ele>
        <time>2019-09-14T08:32:28Z</time>
      </trkpt>
      <trkpt lat="45.99767" lon="6.45809">
        <ele>2190.98</ele>
        <time>2019-09-14T08:32:31Z</time>
      </trkpt>
      <trkpt lat="45.99768" lon="6.45808">
        <ele>2191.46</ele>
        <time>2019-09-14T08:32:42Z</time>
      </trkpt>
      <trkpt lat="45.9977" lon="6.45805">
        <ele>2190.02</ele>
        <time>2019-09-14T08:32:54Z</time>
      </trkpt>
      <trkpt lat="45.9977" lon="6.45804">
        <ele>2193.87</ele>
        <time>2019-09-14T08:32:55Z</time>
      </trkpt>
      <trkpt lat="45.9977" lon="6.45804">
        <ele>2190.02</ele>
        <time>2019-09-14T08:32:56Z</time>
      </trkpt>
      <trkpt lat="45.9977" lon="6.45803">
        <ele>2194.35</ele>
        <time>2019-09-14T08:32:57Z</time>
      </trkpt>
      <trkpt lat="45.9977" lon="6.45803">
        <ele>2190.98</ele>
        <time>2019-09-14T08:32:58Z</time>
      </trkpt>
      <trkpt lat="45.9977" lon="6.45803">
        <ele>2195.31</ele>
        <time>2019-09-14T08:32:59Z</time>
      </trkpt>
      <trkpt lat="45.9977" lon="6.45803">
        <ele>2192.42</ele>
        <time>2019-09-14T08:33:05Z</time>
      </trkpt>
      <trkpt lat="45.99771" lon="6.45802">
        <ele>2196.27</ele>
        <time>2019-09-14T08:33:10Z</time>
      </trkpt>
      <trkpt lat="45.99771" lon="6.45802">
        <ele>2195.31</ele>
        <time>2019-09-14T08:33:11Z</time>
      </trkpt>
      <trkpt lat="45.99772" lon="6.45801">
        <ele>2194.35</ele>
        <time>2019-09-14T08:33:28Z</time>
      </trkpt>
      <trkpt lat="45.99773" lon="6.45801">
        <ele>2196.27</ele>
        <time>2019-09-14T08:33:34Z</time>
      </trkpt>
      <trkpt lat="45.99773" lon="6.458">
        <ele>2194.35</ele>
        <time>2019-09-14T08:33:36Z</time>
      </trkpt>
      <trkpt lat="45.99773" lon="6.458">
        <ele>2195.31</ele>
        <time>2019-09-14T08:33:38Z</time>
      </trkpt>
      <trkpt lat="45.99773" lon="6.45799">
        <ele>2195.79</ele>
        <time>2019-09-14T08:33:46Z</time>
      </trkpt>
      <trkpt lat="45.99776" lon="6.45796">
        <ele>2194.35</ele>
        <time>2019-09-14T08:34:05Z</time>
      </trkpt>
      <trkpt lat="45.99777" lon="6.45795">
        <ele>2197.71</ele>
        <time>2019-09-14T08:34:21Z</time>
      </trkpt>
      <trkpt lat="45.99777" lon="6.45795">
        <ele>2194.83</ele>
        <time>2019-09-14T08:34:22Z</time>
      </trkpt>
      <trkpt lat="45.99777" lon="6.45795">
        <ele>2198.19</ele>
        <time>2019-09-14T08:34:25Z</time>
      </trkpt>
      <trkpt lat="45.99777" lon="6.45793">
        <ele>2197.71</ele>
        <time>2019-09-14T08:34:40Z</time>
      </trkpt>
      <trkpt lat="45.99777" lon="6.45792">
        <ele>2198.67</ele>
        <time>2019-09-14T08:34:54Z</time>
      </trkpt>
      <trkpt lat="45.99777" lon="6.45792">
        <ele>2198.67</ele>
        <time>2019-09-14T08:35:12Z</time>
      </trkpt>
      <trkpt lat="45.99777" lon="6.45792">
        <ele>2198.67</ele>
        <time>2019-09-14T08:35:30Z</time>
      </trkpt>
      <trkpt lat="45.99778" lon="6.45792">
        <ele>2199.63</ele>
        <time>2019-09-14T08:35:51Z</time>
      </trkpt>
      <trkpt lat="45.99778" lon="6.4579">
        <ele>2199.15</ele>
        <time>2019-09-14T08:36:09Z</time>
      </trkpt>
      <trkpt lat="45.99778" lon="6.45789">
        <ele>2200.59</ele>
        <time>2019-09-14T08:36:30Z</time>
      </trkpt>
      <trkpt lat="45.99778" lon="6.45786">
        <ele>2202.52</ele>
        <time>2019-09-14T08:36:42Z</time>
      </trkpt>
      <trkpt lat="45.99779" lon="6.45785">
        <ele>2203</ele>
        <time>2019-09-14T08:36:52Z</time>
      </trkpt>
      <trkpt lat="45.99779" lon="6.45785">
        <ele>2203.48</ele>
        <time>2019-09-14T08:37:01Z</time>
      </trkpt>
      <trkpt lat="45.9978" lon="6.45783">
        <ele>2207.32</ele>
        <time>2019-09-14T08:37:13Z</time>
      </trkpt>
      <trkpt lat="45.99783" lon="6.45782">
        <ele>2205.4</ele>
        <time>2019-09-14T08:37:31Z</time>
      </trkpt>
      <trkpt lat="45.99784" lon="6.45781">
        <ele>2204.92</ele>
        <time>2019-09-14T08:37:50Z</time>
      </trkpt>
      <trkpt lat="45.99784" lon="6.45781">
        <ele>2208.77</ele>
        <time>2019-09-14T08:37:51Z</time>
      </trkpt>
      <trkpt lat="45.99784" lon="6.45781">
        <ele>2204.92</ele>
        <time>2019-09-14T08:37:52Z</time>
      </trkpt>
      <trkpt lat="45.99785" lon="6.45779">
        <ele>2208.77</ele>
        <time>2019-09-14T08:37:57Z</time>
      </trkpt>
      <trkpt lat="45.99785" lon="6.45779">
        <ele>2208.77</ele>
        <time>2019-09-14T08:37:58Z</time>
      </trkpt>
      <trkpt lat="45.99785" lon="6.45776">
        <ele>2208.29</ele>
        <time>2019-09-14T08:38:11Z</time>
      </trkpt>
      <trkpt lat="45.99786" lon="6.45774">
        <ele>2209.25</ele>
        <time>2019-09-14T08:38:29Z</time>
      </trkpt>
      <trkpt lat="45.99786" lon="6.45773">
        <ele>2210.69</ele>
        <time>2019-09-14T08:38:45Z</time>
      </trkpt>
      <trkpt lat="45.99786" lon="6.45772">
        <ele>2210.21</ele>
        <time>2019-09-14T08:38:51Z</time>
      </trkpt>
      <trkpt lat="45.99786" lon="6.45771">
        <ele>2210.21</ele>
        <time>2019-09-14T08:39:12Z</time>
      </trkpt>
      <trkpt lat="45.99786" lon="6.45769">
        <ele>2210.21</ele>
        <time>2019-09-14T08:39:28Z</time>
      </trkpt>
      <trkpt lat="45.99786" lon="6.45768">
        <ele>2210.69</ele>
        <time>2019-09-14T08:39:48Z</time>
      </trkpt>
      <trkpt lat="45.99786" lon="6.45767">
        <ele>2211.17</ele>
        <time>2019-09-14T08:40:01Z</time>
      </trkpt>
      <trkpt lat="45.99787" lon="6.45766">
        <ele>2214.53</ele>
        <time>2019-09-14T08:40:04Z</time>
      </trkpt>
      <trkpt lat="45.99789" lon="6.45762">
        <ele>2214.05</ele>
        <time>2019-09-14T08:40:17Z</time>
      </trkpt>
      <trkpt lat="45.99789" lon="6.45762">
        <ele>2214.53</ele>
        <time>2019-09-14T08:40:24Z</time>
      </trkpt>
      <trkpt lat="45.99791" lon="6.4576">
        <ele>2217.42</ele>
        <time>2019-09-14T08:40:38Z</time>
      </trkpt>
      <trkpt lat="45.99792" lon="6.45759">
        <ele>2214.05</ele>
        <time>2019-09-14T08:40:41Z</time>
      </trkpt>
      <trkpt lat="45.99792" lon="6.45758">
        <ele>2217.9</ele>
        <time>2019-09-14T08:40:45Z</time>
      </trkpt>
      <trkpt lat="45.99793" lon="6.45758">
        <ele>2215.01</ele>
        <time>2019-09-14T08:40:48Z</time>
      </trkpt>
      <trkpt lat="45.99793" lon="6.45758">
        <ele>2217.9</ele>
        <time>2019-09-14T08:40:51Z</time>
      </trkpt>
      <trkpt lat="45.99793" lon="6.45755">
        <ele>2218.86</ele>
        <time>2019-09-14T08:41:03Z</time>
      </trkpt>
      <trkpt lat="45.99794" lon="6.45754">
        <ele>2219.82</ele>
        <time>2019-09-14T08:41:17Z</time>
      </trkpt>
      <trkpt lat="45.99795" lon="6.45753">
        <ele>2221.26</ele>
        <time>2019-09-14T08:41:30Z</time>
      </trkpt>
      <trkpt lat="45.99796" lon="6.4575">
        <ele>2222.71</ele>
        <time>2019-09-14T08:41:44Z</time>
      </trkpt>
      <trkpt lat="45.99796" lon="6.45747">
        <ele>2223.67</ele>
        <time>2019-09-14T08:41:54Z</time>
      </trkpt>
      <trkpt lat="45.99797" lon="6.45744">
        <ele>2224.63</ele>
        <time>2019-09-14T08:42:06Z</time>
      </trkpt>
      <trkpt lat="45.99797" lon="6.45742">
        <ele>2226.07</ele>
        <time>2019-09-14T08:42:08Z</time>
      </trkpt>
      <trkpt lat="45.998" lon="6.45735">
        <ele>2227.99</ele>
        <time>2019-09-14T08:42:18Z</time>
      </trkpt>
      <trkpt lat="45.99802" lon="6.45731">
        <ele>2228.47</ele>
        <time>2019-09-14T08:42:28Z</time>
      </trkpt>
      <trkpt lat="45.99803" lon="6.45728">
        <ele>2231.36</ele>
        <time>2019-09-14T08:42:38Z</time>
      </trkpt>
      <trkpt lat="45.99803" lon="6.45728">
        <ele>2231.36</ele>
        <time>2019-09-14T08:42:39Z</time>
      </trkpt>
      <trkpt lat="45.99803" lon="6.45727">
        <ele>2230.4</ele>
        <time>2019-09-14T08:42:41Z</time>
      </trkpt>
      <trkpt lat="45.99804" lon="6.45724">
        <ele>2233.28</ele>
        <time>2019-09-14T08:42:49Z</time>
      </trkpt>
      <trkpt lat="45.99806" lon="6.4572">
        <ele>2234.24</ele>
        <time>2019-09-14T08:42:58Z</time>
      </trkpt>
      <trkpt lat="45.99807" lon="6.45716">
        <ele>2236.64</ele>
        <time>2019-09-14T08:43:08Z</time>
      </trkpt>
      <trkpt lat="45.99809" lon="6.4571">
        <ele>2238.09</ele>
        <time>2019-09-14T08:43:20Z</time>
      </trkpt>
      <trkpt lat="45.99809" lon="6.45706">
        <ele>2240.97</ele>
        <time>2019-09-14T08:43:29Z</time>
      </trkpt>
      <trkpt lat="45.99809" lon="6.45706">
        <ele>2238.09</ele>
        <time>2019-09-14T08:43:34Z</time>
      </trkpt>
      <trkpt lat="45.99809" lon="6.45706">
        <ele>2240.01</ele>
        <time>2019-09-14T08:43:46Z</time>
      </trkpt>
      <trkpt lat="45.99809" lon="6.45708">
        <ele>2240.97</ele>
        <time>2019-09-14T08:43:56Z</time>
      </trkpt>
      <trkpt lat="45.99809" lon="6.45708">
        <ele>2240.97</ele>
        <time>2019-09-14T08:44:11Z</time>
      </trkpt>
      <trkpt lat="45.9981" lon="6.45707">
        <ele>2241.45</ele>
        <time>2019-09-14T08:44:29Z</time>
      </trkpt>
      <trkpt lat="45.9981" lon="6.45707">
        <ele>2238.57</ele>
        <time>2019-09-14T08:44:52Z</time>
      </trkpt>
      <trkpt lat="45.9981" lon="6.45707">
        <ele>2241.93</ele>
        <time>2019-09-14T08:44:54Z</time>
      </trkpt>
      <trkpt lat="45.99811" lon="6.45707">
        <ele>2240.97</ele>
        <time>2019-09-14T08:45:06Z</time>
      </trkpt>
      <trkpt lat="45.99811" lon="6.45707">
        <ele>2240.97</ele>
        <time>2019-09-14T08:45:22Z</time>
      </trkpt>
      <trkpt lat="45.99812" lon="6.45707">
        <ele>2242.89</ele>
        <time>2019-09-14T08:45:38Z</time>
      </trkpt>
      <trkpt lat="45.99812" lon="6.45707">
        <ele>2242.89</ele>
        <time>2019-09-14T08:45:42Z</time>
      </trkpt>
      <trkpt lat="45.99812" lon="6.45707">
        <ele>2242.41</ele>
        <time>2019-09-14T08:45:55Z</time>
      </trkpt>
      <trkpt lat="45.99812" lon="6.45707">
        <ele>2243.85</ele>
        <time>2019-09-14T08:46:00Z</time>
      </trkpt>
      <trkpt lat="45.99813" lon="6.45708">
        <ele>2242.89</ele>
        <time>2019-09-14T08:46:19Z</time>
      </trkpt>
      <trkpt lat="45.99813" lon="6.45708">
        <ele>2242.89</ele>
        <time>2019-09-14T08:46:24Z</time>
      </trkpt>
      <trkpt lat="45.99813" lon="6.45708">
        <ele>2244.82</ele>
        <time>2019-09-14T08:46:41Z</time>
      </trkpt>
      <trkpt lat="45.99813" lon="6.45708">
        <ele>2243.85</ele>
        <time>2019-09-14T08:46:51Z</time>
      </trkpt>
      <trkpt lat="45.99813" lon="6.45708">
        <ele>2244.82</ele>
        <time>2019-09-14T08:47:06Z</time>
      </trkpt>
      <trkpt lat="45.99813" lon="6.45708">
        <ele>2242.89</ele>
        <time>2019-09-14T08:47:09Z</time>
      </trkpt>
      <trkpt lat="45.99814" lon="6.45707">
        <ele>2244.33</ele>
        <time>2019-09-14T08:47:28Z</time>
      </trkpt>
      <trkpt lat="45.99814" lon="6.45708">
        <ele>2244.82</ele>
        <time>2019-09-14T08:47:43Z</time>
      </trkpt>
      <trkpt lat="45.99814" lon="6.45708">
        <ele>2244.33</ele>
        <time>2019-09-14T08:48:03Z</time>
      </trkpt>
      <trkpt lat="45.99814" lon="6.45708">
        <ele>2243.85</ele>
        <time>2019-09-14T08:48:24Z</time>
      </trkpt>
      <trkpt lat="45.99814" lon="6.45708">
        <ele>2244.82</ele>
        <time>2019-09-14T08:48:45Z</time>
      </trkpt>
      <trkpt lat="45.99814" lon="6.45708">
        <ele>2244.82</ele>
        <time>2019-09-14T08:48:57Z</time>
      </trkpt>
      <trkpt lat="45.99814" lon="6.45708">
        <ele>2240.97</ele>
        <time>2019-09-14T08:49:13Z</time>
      </trkpt>
      <trkpt lat="45.99814" lon="6.45708">
        <ele>2248.18</ele>
        <time>2019-09-14T08:49:14Z</time>
      </trkpt>
      <trkpt lat="45.99814" lon="6.45708">
        <ele>2241.93</ele>
        <time>2019-09-14T08:49:15Z</time>
      </trkpt>
      <trkpt lat="45.99814" lon="6.45708">
        <ele>2248.66</ele>
        <time>2019-09-14T08:49:17Z</time>
      </trkpt>
      <trkpt lat="45.99814" lon="6.45708">
        <ele>2244.82</ele>
        <time>2019-09-14T08:49:18Z</time>
      </trkpt>
      <trkpt lat="45.99814" lon="6.45708">
        <ele>2232.32</ele>
        <time>2019-09-14T08:49:28Z</time>
      </trkpt>
      <trkpt lat="45.99814" lon="6.45708">
        <ele>2246.74</ele>
        <time>2019-09-14T08:49:29Z</time>
      </trkpt>
      <trkpt lat="45.99814" lon="6.45708">
        <ele>2239.53</ele>
        <time>2019-09-14T08:49:31Z</time>
      </trkpt>
      <trkpt lat="45.99814" lon="6.45708">
        <ele>2245.3</ele>
        <time>2019-09-14T08:49:32Z</time>
      </trkpt>
      <trkpt lat="45.99813" lon="6.45708">
        <ele>2244.82</ele>
        <time>2019-09-14T08:49:54Z</time>
      </trkpt>
      <trkpt lat="45.99813" lon="6.45707">
        <ele>2244.33</ele>
        <time>2019-09-14T08:50:10Z</time>
      </trkpt>
      <trkpt lat="45.99813" lon="6.45707">
        <ele>2245.3</ele>
        <time>2019-09-14T08:50:36Z</time>
      </trkpt>
      <trkpt lat="45.99813" lon="6.45706">
        <ele>2246.26</ele>
        <time>2019-09-14T08:50:57Z</time>
      </trkpt>
      <trkpt lat="45.99813" lon="6.45706">
        <ele>2242.89</ele>
        <time>2019-09-14T08:51:11Z</time>
      </trkpt>
      <trkpt lat="45.99813" lon="6.45706">
        <ele>2245.78</ele>
        <time>2019-09-14T08:51:13Z</time>
      </trkpt>
      <trkpt lat="45.99813" lon="6.45706">
        <ele>2245.3</ele>
        <time>2019-09-14T08:51:37Z</time>
      </trkpt>
      <trkpt lat="45.99813" lon="6.45706">
        <ele>2245.3</ele>
        <time>2019-09-14T08:51:58Z</time>
      </trkpt>
      <trkpt lat="45.99813" lon="6.45706">
        <ele>2241.45</ele>
        <time>2019-09-14T08:52:14Z</time>
      </trkpt>
      <trkpt lat="45.99813" lon="6.45706">
        <ele>2247.22</ele>
        <time>2019-09-14T08:52:15Z</time>
      </trkpt>
      <trkpt lat="45.99813" lon="6.45706">
        <ele>2244.82</ele>
        <time>2019-09-14T08:52:41Z</time>
      </trkpt>
      <trkpt lat="45.99813" lon="6.45706">
        <ele>2245.3</ele>
        <time>2019-09-14T08:53:08Z</time>
      </trkpt>
      <trkpt lat="45.99812" lon="6.45707">
        <ele>2246.26</ele>
        <time>2019-09-14T08:53:37Z</time>
      </trkpt>
      <trkpt lat="45.99813" lon="6.45707">
        <ele>2241.93</ele>
        <time>2019-09-14T08:53:42Z</time>
      </trkpt>
      <trkpt lat="45.99813" lon="6.45707">
        <ele>2246.74</ele>
        <time>2019-09-14T08:53:43Z</time>
      </trkpt>
      <trkpt lat="45.99813" lon="6.45707">
        <ele>2246.74</ele>
        <time>2019-09-14T08:54:08Z</time>
      </trkpt>
      <trkpt lat="45.99813" lon="6.45707">
        <ele>2246.26</ele>
        <time>2019-09-14T08:54:37Z</time>
      </trkpt>
      <trkpt lat="45.99812" lon="6.45708">
        <ele>2246.26</ele>
        <time>2019-09-14T08:55:01Z</time>
      </trkpt>
      <trkpt lat="45.99813" lon="6.45708">
        <ele>2246.26</ele>
        <time>2019-09-14T08:55:29Z</time>
      </trkpt>
      <trkpt lat="45.99813" lon="6.45708">
        <ele>2246.26</ele>
        <time>2019-09-14T08:55:56Z</time>
      </trkpt>
      <trkpt lat="45.99812" lon="6.45708">
        <ele>2247.22</ele>
        <time>2019-09-14T08:56:23Z</time>
      </trkpt>
      <trkpt lat="45.99812" lon="6.45708">
        <ele>2248.66</ele>
        <time>2019-09-14T08:56:32Z</time>
      </trkpt>
      <trkpt lat="45.99813" lon="6.45708">
        <ele>2246.74</ele>
        <time>2019-09-14T08:56:34Z</time>
      </trkpt>
      <trkpt lat="45.99813" lon="6.45708">
        <ele>2247.7</ele>
        <time>2019-09-14T08:56:50Z</time>
      </trkpt>
      <trkpt lat="45.99813" lon="6.45708">
        <ele>2248.18</ele>
        <time>2019-09-14T08:57:00Z</time>
      </trkpt>
      <trkpt lat="45.99813" lon="6.45709">
        <ele>2247.7</ele>
        <time>2019-09-14T08:57:10Z</time>
      </trkpt>
      <trkpt lat="45.99813" lon="6.4571">
        <ele>2247.7</ele>
        <time>2019-09-14T08:57:30Z</time>
      </trkpt>
      <trkpt lat="45.99813" lon="6.4571">
        <ele>2247.7</ele>
        <time>2019-09-14T08:57:53Z</time>
      </trkpt>
      <trkpt lat="45.99813" lon="6.4571">
        <ele>2248.18</ele>
        <time>2019-09-14T08:58:17Z</time>
      </trkpt>
      <trkpt lat="45.99813" lon="6.4571">
        <ele>2248.18</ele>
        <time>2019-09-14T08:58:33Z</time>
      </trkpt>
      <trkpt lat="45.99812" lon="6.45711">
        <ele>2248.18</ele>
        <time>2019-09-14T08:58:59Z</time>
      </trkpt>
      <trkpt lat="45.99812" lon="6.4571">
        <ele>2248.66</ele>
        <time>2019-09-14T08:59:25Z</time>
      </trkpt>
      <trkpt lat="45.99811" lon="6.45711">
        <ele>2248.66</ele>
        <time>2019-09-14T08:59:50Z</time>
      </trkpt>
      <trkpt lat="45.99811" lon="6.45711">
        <ele>2248.66</ele>
        <time>2019-09-14T09:00:13Z</time>
      </trkpt>
      <trkpt lat="45.99811" lon="6.45711">
        <ele>2248.66</ele>
        <time>2019-09-14T09:00:39Z</time>
      </trkpt>
      <trkpt lat="45.99811" lon="6.4571">
        <ele>2249.14</ele>
        <time>2019-09-14T09:01:03Z</time>
      </trkpt>
      <trkpt lat="45.99811" lon="6.4571">
        <ele>2249.14</ele>
        <time>2019-09-14T09:01:32Z</time>
      </trkpt>
      <trkpt lat="45.99812" lon="6.4571">
        <ele>2249.62</ele>
        <time>2019-09-14T09:01:59Z</time>
      </trkpt>
      <trkpt lat="45.99812" lon="6.4571">
        <ele>2249.62</ele>
        <time>2019-09-14T09:02:23Z</time>
      </trkpt>
      <trkpt lat="45.99813" lon="6.4571">
        <ele>2249.62</ele>
        <time>2019-09-14T09:02:55Z</time>
      </trkpt>
      <trkpt lat="45.99813" lon="6.45711">
        <ele>2249.62</ele>
        <time>2019-09-14T09:03:26Z</time>
      </trkpt>
      <trkpt lat="45.99813" lon="6.45711">
        <ele>2250.1</ele>
        <time>2019-09-14T09:03:52Z</time>
      </trkpt>
      <trkpt lat="45.99813" lon="6.45712">
        <ele>2250.1</ele>
        <time>2019-09-14T09:04:26Z</time>
      </trkpt>
      <trkpt lat="45.99813" lon="6.45711">
        <ele>2250.58</ele>
        <time>2019-09-14T09:04:45Z</time>
      </trkpt>
      <trkpt lat="45.99813" lon="6.45711">
        <ele>2250.1</ele>
        <time>2019-09-14T09:05:08Z</time>
      </trkpt>
      <trkpt lat="45.99813" lon="6.45711">
        <ele>2254.43</ele>
        <time>2019-09-14T09:05:16Z</time>
      </trkpt>
      <trkpt lat="45.99813" lon="6.45711">
        <ele>2250.1</ele>
        <time>2019-09-14T09:05:18Z</time>
      </trkpt>
      <trkpt lat="45.99813" lon="6.45711">
        <ele>2245.78</ele>
        <time>2019-09-14T09:05:23Z</time>
      </trkpt>
      <trkpt lat="45.99813" lon="6.45711">
        <ele>2253.47</ele>
        <time>2019-09-14T09:05:24Z</time>
      </trkpt>
      <trkpt lat="45.99813" lon="6.45711">
        <ele>2250.58</ele>
        <time>2019-09-14T09:05:29Z</time>
      </trkpt>
      <trkpt lat="45.99814" lon="6.45711">
        <ele>2249.62</ele>
        <time>2019-09-14T09:05:47Z</time>
      </trkpt>
      <trkpt lat="45.99814" lon="6.45711">
        <ele>2252.99</ele>
        <time>2019-09-14T09:05:56Z</time>
      </trkpt>
      <trkpt lat="45.99814" lon="6.45711">
        <ele>2249.62</ele>
        <time>2019-09-14T09:06:00Z</time>
      </trkpt>
      <trkpt lat="45.99814" lon="6.45711">
        <ele>2253.47</ele>
        <time>2019-09-14T09:06:04Z</time>
      </trkpt>
      <trkpt lat="45.99814" lon="6.45711">
        <ele>2248.18</ele>
        <time>2019-09-14T09:06:05Z</time>
      </trkpt>
      <trkpt lat="45.99814" lon="6.45711">
        <ele>2252.03</ele>
        <time>2019-09-14T09:06:06Z</time>
      </trkpt>
      <trkpt lat="45.99813" lon="6.45711">
        <ele>2250.1</ele>
        <time>2019-09-14T09:06:26Z</time>
      </trkpt>
      <trkpt lat="45.99813" lon="6.45711">
        <ele>2250.58</ele>
        <time>2019-09-14T09:06:42Z</time>
      </trkpt>
      <trkpt lat="45.99812" lon="6.45707">
        <ele>2247.22</ele>
        <time>2019-09-14T09:06:51Z</time>
      </trkpt>
      <trkpt lat="45.99812" lon="6.45707">
        <ele>2252.03</ele>
        <time>2019-09-14T09:06:52Z</time>
      </trkpt>
      <trkpt lat="45.99812" lon="6.45706">
        <ele>2248.66</ele>
        <time>2019-09-14T09:06:56Z</time>
      </trkpt>
      <trkpt lat="45.99812" lon="6.45706">
        <ele>2249.62</ele>
        <time>2019-09-14T09:07:19Z</time>
      </trkpt>
      <trkpt lat="45.99813" lon="6.45706">
        <ele>2249.14</ele>
        <time>2019-09-14T09:07:39Z</time>
      </trkpt>
      <trkpt lat="45.99813" lon="6.45707">
        <ele>2252.51</ele>
        <time>2019-09-14T09:07:53Z</time>
      </trkpt>
      <trkpt lat="45.99813" lon="6.45707">
        <ele>2251.06</ele>
        <time>2019-09-14T09:07:54Z</time>
      </trkpt>
      <trkpt lat="45.99813" lon="6.45707">
        <ele>2249.62</ele>
        <time>2019-09-14T09:08:11Z</time>
      </trkpt>
      <trkpt lat="45.99813" lon="6.45706">
        <ele>2253.47</ele>
        <time>2019-09-14T09:08:16Z</time>
      </trkpt>
      <trkpt lat="45.99813" lon="6.45706">
        <ele>2250.1</ele>
        <time>2019-09-14T09:08:20Z</time>
      </trkpt>
      <trkpt lat="45.99813" lon="6.45706">
        <ele>2252.03</ele>
        <time>2019-09-14T09:08:34Z</time>
      </trkpt>
      <trkpt lat="45.99812" lon="6.45705">
        <ele>2250.1</ele>
        <time>2019-09-14T09:08:36Z</time>
      </trkpt>
      <trkpt lat="45.99812" lon="6.45705">
        <ele>2250.58</ele>
        <time>2019-09-14T09:08:51Z</time>
      </trkpt>
      <trkpt lat="45.99812" lon="6.45705">
        <ele>2249.62</ele>
        <time>2019-09-14T09:09:00Z</time>
      </trkpt>
      <trkpt lat="45.99812" lon="6.45705">
        <ele>2249.14</ele>
        <time>2019-09-14T09:09:13Z</time>
      </trkpt>
      <trkpt lat="45.99812" lon="6.45705">
        <ele>2244.82</ele>
        <time>2019-09-14T09:09:15Z</time>
      </trkpt>
      <trkpt lat="45.99812" lon="6.45705">
        <ele>2248.18</ele>
        <time>2019-09-14T09:09:16Z</time>
      </trkpt>
      <trkpt lat="45.99812" lon="6.45705">
        <ele>2243.37</ele>
        <time>2019-09-14T09:09:21Z</time>
      </trkpt>
      <trkpt lat="45.99812" lon="6.45705">
        <ele>2244.82</ele>
        <time>2019-09-14T09:09:22Z</time>
      </trkpt>
      <trkpt lat="45.99812" lon="6.45705">
        <ele>2243.37</ele>
        <time>2019-09-14T09:09:33Z</time>
      </trkpt>
      <trkpt lat="45.99813" lon="6.45704">
        <ele>2241.45</ele>
        <time>2019-09-14T09:09:39Z</time>
      </trkpt>
      <trkpt lat="45.99813" lon="6.45704">
        <ele>2246.74</ele>
        <time>2019-09-14T09:09:40Z</time>
      </trkpt>
      <trkpt lat="45.99813" lon="6.45704">
        <ele>2242.41</ele>
        <time>2019-09-14T09:09:41Z</time>
      </trkpt>
      <trkpt lat="45.99817" lon="6.45704">
        <ele>2240.97</ele>
        <time>2019-09-14T09:09:55Z</time>
      </trkpt>
      <trkpt lat="45.99819" lon="6.45704">
        <ele>2241.45</ele>
        <time>2019-09-14T09:10:07Z</time>
      </trkpt>
      <trkpt lat="45.99822" lon="6.45704">
        <ele>2238.57</ele>
        <time>2019-09-14T09:10:12Z</time>
      </trkpt>
      <trkpt lat="45.99825" lon="6.45704">
        <ele>2240.01</ele>
        <time>2019-09-14T09:10:22Z</time>
      </trkpt>
      <trkpt lat="45.99825" lon="6.45704">
        <ele>2236.64</ele>
        <time>2019-09-14T09:10:23Z</time>
      </trkpt>
      <trkpt lat="45.99825" lon="6.45703">
        <ele>2240.49</ele>
        <time>2019-09-14T09:10:24Z</time>
      </trkpt>
      <trkpt lat="45.99826" lon="6.45704">
        <ele>2237.13</ele>
        <time>2019-09-14T09:10:28Z</time>
      </trkpt>
      <trkpt lat="45.99832" lon="6.45705">
        <ele>2236.16</ele>
        <time>2019-09-14T09:10:38Z</time>
      </trkpt>
      <trkpt lat="45.99833" lon="6.45706">
        <ele>2236.64</ele>
        <time>2019-09-14T09:10:49Z</time>
      </trkpt>
      <trkpt lat="45.99833" lon="6.45706">
        <ele>2235.2</ele>
        <time>2019-09-14T09:10:51Z</time>
      </trkpt>
      <trkpt lat="45.99833" lon="6.45705">
        <ele>2233.76</ele>
        <time>2019-09-14T09:10:58Z</time>
      </trkpt>
      <trkpt lat="45.99833" lon="6.45705">
        <ele>2235.2</ele>
        <time>2019-09-14T09:11:00Z</time>
      </trkpt>
      <trkpt lat="45.99836" lon="6.45704">
        <ele>2233.28</ele>
        <time>2019-09-14T09:11:11Z</time>
      </trkpt>
      <trkpt lat="45.99837" lon="6.45704">
        <ele>2232.32</ele>
        <time>2019-09-14T09:11:22Z</time>
      </trkpt>
      <trkpt lat="45.99838" lon="6.45703">
        <ele>2231.84</ele>
        <time>2019-09-14T09:11:29Z</time>
      </trkpt>
      <trkpt lat="45.9984" lon="6.457">
        <ele>2229.92</ele>
        <time>2019-09-14T09:11:40Z</time>
      </trkpt>
      <trkpt lat="45.99842" lon="6.457">
        <ele>2228.47</ele>
        <time>2019-09-14T09:11:49Z</time>
      </trkpt>
      <trkpt lat="45.99844" lon="6.45698">
        <ele>2223.19</ele>
        <time>2019-09-14T09:11:58Z</time>
      </trkpt>
      <trkpt lat="45.99844" lon="6.45698">
        <ele>2228.47</ele>
        <time>2019-09-14T09:11:59Z</time>
      </trkpt>
      <trkpt lat="45.99844" lon="6.45692">
        <ele>2227.03</ele>
        <time>2019-09-14T09:12:09Z</time>
      </trkpt>
      <trkpt lat="45.99846" lon="6.45691">
        <ele>2223.67</ele>
        <time>2019-09-14T09:12:12Z</time>
      </trkpt>
      <trkpt lat="45.99849" lon="6.45687">
        <ele>2222.71</ele>
        <time>2019-09-14T09:12:18Z</time>
      </trkpt>
      <trkpt lat="45.99849" lon="6.45686">
        <ele>2224.15</ele>
        <time>2019-09-14T09:12:20Z</time>
      </trkpt>
      <trkpt lat="45.99849" lon="6.45686">
        <ele>2220.78</ele>
        <time>2019-09-14T09:12:21Z</time>
      </trkpt>
      <trkpt lat="45.99848" lon="6.45685">
        <ele>2221.26</ele>
        <time>2019-09-14T09:12:22Z</time>
      </trkpt>
      <trkpt lat="45.99848" lon="6.45684">
        <ele>2222.71</ele>
        <time>2019-09-14T09:12:24Z</time>
      </trkpt>
      <trkpt lat="45.9985" lon="6.45681">
        <ele>2218.86</ele>
        <time>2019-09-14T09:12:35Z</time>
      </trkpt>
      <trkpt lat="45.99851" lon="6.45681">
        <ele>2219.82</ele>
        <time>2019-09-14T09:12:36Z</time>
      </trkpt>
      <trkpt lat="45.99853" lon="6.45681">
        <ele>2220.78</ele>
        <time>2019-09-14T09:12:38Z</time>
      </trkpt>
      <trkpt lat="45.99856" lon="6.4568">
        <ele>2219.34</ele>
        <time>2019-09-14T09:12:45Z</time>
      </trkpt>
      <trkpt lat="45.99858" lon="6.4568">
        <ele>2215.98</ele>
        <time>2019-09-14T09:12:52Z</time>
      </trkpt>
      <trkpt lat="45.99859" lon="6.4568">
        <ele>2219.34</ele>
        <time>2019-09-14T09:12:56Z</time>
      </trkpt>
      <trkpt lat="45.99861" lon="6.45679">
        <ele>2215.01</ele>
        <time>2019-09-14T09:12:58Z</time>
      </trkpt>
      <trkpt lat="45.99862" lon="6.45679">
        <ele>2217.42</ele>
        <time>2019-09-14T09:12:59Z</time>
      </trkpt>
      <trkpt lat="45.99863" lon="6.45679">
        <ele>2214.05</ele>
        <time>2019-09-14T09:13:01Z</time>
      </trkpt>
      <trkpt lat="45.99867" lon="6.45674">
        <ele>2212.61</ele>
        <time>2019-09-14T09:13:10Z</time>
      </trkpt>
      <trkpt lat="45.99868" lon="6.45673">
        <ele>2212.61</ele>
        <time>2019-09-14T09:13:11Z</time>
      </trkpt>
      <trkpt lat="45.99874" lon="6.4567">
        <ele>2212.13</ele>
        <time>2019-09-14T09:13:19Z</time>
      </trkpt>
      <trkpt lat="45.99877" lon="6.45667">
        <ele>2207.81</ele>
        <time>2019-09-14T09:13:29Z</time>
      </trkpt>
      <trkpt lat="45.99878" lon="6.45667">
        <ele>2211.17</ele>
        <time>2019-09-14T09:13:30Z</time>
      </trkpt>
      <trkpt lat="45.99879" lon="6.45666">
        <ele>2209.25</ele>
        <time>2019-09-14T09:13:33Z</time>
      </trkpt>
      <trkpt lat="45.99881" lon="6.45664">
        <ele>2209.73</ele>
        <time>2019-09-14T09:13:38Z</time>
      </trkpt>
      <trkpt lat="45.99885" lon="6.45663">
        <ele>2208.29</ele>
        <time>2019-09-14T09:13:43Z</time>
      </trkpt>
      <trkpt lat="45.99887" lon="6.45661">
        <ele>2208.77</ele>
        <time>2019-09-14T09:13:48Z</time>
      </trkpt>
      <trkpt lat="45.99887" lon="6.45661">
        <ele>2206.84</ele>
        <time>2019-09-14T09:13:51Z</time>
      </trkpt>
      <trkpt lat="45.99891" lon="6.45657">
        <ele>2204.92</ele>
        <time>2019-09-14T09:14:00Z</time>
      </trkpt>
      <trkpt lat="45.99892" lon="6.45655">
        <ele>2203.96</ele>
        <time>2019-09-14T09:14:06Z</time>
      </trkpt>
      <trkpt lat="45.99893" lon="6.45654">
        <ele>2205.4</ele>
        <time>2019-09-14T09:14:08Z</time>
      </trkpt>
      <trkpt lat="45.99894" lon="6.45652">
        <ele>2202.04</ele>
        <time>2019-09-14T09:14:11Z</time>
      </trkpt>
      <trkpt lat="45.99899" lon="6.4565">
        <ele>2203</ele>
        <time>2019-09-14T09:14:21Z</time>
      </trkpt>
      <trkpt lat="45.99901" lon="6.45647">
        <ele>2199.63</ele>
        <time>2019-09-14T09:14:25Z</time>
      </trkpt>
      <trkpt lat="45.99901" lon="6.45646">
        <ele>2203</ele>
        <time>2019-09-14T09:14:26Z</time>
      </trkpt>
      <trkpt lat="45.99902" lon="6.45642">
        <ele>2198.67</ele>
        <time>2019-09-14T09:14:31Z</time>
      </trkpt>
      <trkpt lat="45.99903" lon="6.45641">
        <ele>2199.15</ele>
        <time>2019-09-14T09:14:32Z</time>
      </trkpt>
      <trkpt lat="45.99906" lon="6.45637">
        <ele>2196.27</ele>
        <time>2019-09-14T09:14:45Z</time>
      </trkpt>
      <trkpt lat="45.9991" lon="6.45628">
        <ele>2194.35</ele>
        <time>2019-09-14T09:14:57Z</time>
      </trkpt>
      <trkpt lat="45.99913" lon="6.45621">
        <ele>2191.46</ele>
        <time>2019-09-14T09:15:05Z</time>
      </trkpt>
      <trkpt lat="45.99918" lon="6.45612">
        <ele>2188.1</ele>
        <time>2019-09-14T09:15:16Z</time>
      </trkpt>
      <trkpt lat="45.99923" lon="6.4561">
        <ele>2185.21</ele>
        <time>2019-09-14T09:15:25Z</time>
      </trkpt>
      <trkpt lat="45.99929" lon="6.45608">
        <ele>2184.25</ele>
        <time>2019-09-14T09:15:31Z</time>
      </trkpt>
      <trkpt lat="45.99929" lon="6.45608">
        <ele>2187.14</ele>
        <time>2019-09-14T09:15:32Z</time>
      </trkpt>
      <trkpt lat="45.99931" lon="6.45606">
        <ele>2183.77</ele>
        <time>2019-09-14T09:15:34Z</time>
      </trkpt>
      <trkpt lat="45.99931" lon="6.45606">
        <ele>2187.14</ele>
        <time>2019-09-14T09:15:35Z</time>
      </trkpt>
      <trkpt lat="45.99933" lon="6.45605">
        <ele>2184.25</ele>
        <time>2019-09-14T09:15:38Z</time>
      </trkpt>
      <trkpt lat="45.99935" lon="6.45602">
        <ele>2183.77</ele>
        <time>2019-09-14T09:15:49Z</time>
      </trkpt>
      <trkpt lat="45.99941" lon="6.45597">
        <ele>2181.37</ele>
        <time>2019-09-14T09:16:03Z</time>
      </trkpt>
      <trkpt lat="45.99943" lon="6.45595">
        <ele>2180.89</ele>
        <time>2019-09-14T09:16:14Z</time>
      </trkpt>
      <trkpt lat="45.99944" lon="6.45596">
        <ele>2181.37</ele>
        <time>2019-09-14T09:16:30Z</time>
      </trkpt>
      <trkpt lat="45.99955" lon="6.45595">
        <ele>2178</ele>
        <time>2019-09-14T09:16:43Z</time>
      </trkpt>
      <trkpt lat="45.99962" lon="6.45591">
        <ele>2174.64</ele>
        <time>2019-09-14T09:16:51Z</time>
      </trkpt>
      <trkpt lat="45.99963" lon="6.4559">
        <ele>2178</ele>
        <time>2019-09-14T09:16:52Z</time>
      </trkpt>
      <trkpt lat="45.99967" lon="6.45582">
        <ele>2176.08</ele>
        <time>2019-09-14T09:17:03Z</time>
      </trkpt>
      <trkpt lat="45.99971" lon="6.45578">
        <ele>2172.72</ele>
        <time>2019-09-14T09:17:12Z</time>
      </trkpt>
      <trkpt lat="45.99974" lon="6.45572">
        <ele>2172.24</ele>
        <time>2019-09-14T09:17:24Z</time>
      </trkpt>
      <trkpt lat="45.99976" lon="6.45569">
        <ele>2168.39</ele>
        <time>2019-09-14T09:17:32Z</time>
      </trkpt>
      <trkpt lat="45.99976" lon="6.45568">
        <ele>2171.76</ele>
        <time>2019-09-14T09:17:33Z</time>
      </trkpt>
      <trkpt lat="45.99976" lon="6.45566">
        <ele>2168.39</ele>
        <time>2019-09-14T09:17:36Z</time>
      </trkpt>
      <trkpt lat="45.99976" lon="6.45566">
        <ele>2169.35</ele>
        <time>2019-09-14T09:17:37Z</time>
      </trkpt>
      <trkpt lat="45.99978" lon="6.45564">
        <ele>2168.39</ele>
        <time>2019-09-14T09:17:42Z</time>
      </trkpt>
      <trkpt lat="45.9998" lon="6.4556">
        <ele>2164.06</ele>
        <time>2019-09-14T09:17:49Z</time>
      </trkpt>
      <trkpt lat="45.99981" lon="6.45559">
        <ele>2165.99</ele>
        <time>2019-09-14T09:17:50Z</time>
      </trkpt>
      <trkpt lat="45.99984" lon="6.45556">
        <ele>2165.51</ele>
        <time>2019-09-14T09:18:01Z</time>
      </trkpt>
      <trkpt lat="45.99985" lon="6.45555">
        <ele>2164.06</ele>
        <time>2019-09-14T09:18:03Z</time>
      </trkpt>
      <trkpt lat="45.99986" lon="6.45554">
        <ele>2163.1</ele>
        <time>2019-09-14T09:18:13Z</time>
      </trkpt>
      <trkpt lat="45.99989" lon="6.45551">
        <ele>2164.55</ele>
        <time>2019-09-14T09:18:23Z</time>
      </trkpt>
      <trkpt lat="45.99989" lon="6.45551">
        <ele>2160.7</ele>
        <time>2019-09-14T09:18:24Z</time>
      </trkpt>
      <trkpt lat="45.99991" lon="6.45546">
        <ele>2158.3</ele>
        <time>2019-09-14T09:18:34Z</time>
      </trkpt>
      <trkpt lat="45.99988" lon="6.45541">
        <ele>2161.66</ele>
        <time>2019-09-14T09:18:42Z</time>
      </trkpt>
      <trkpt lat="45.99986" lon="6.4554">
        <ele>2157.34</ele>
        <time>2019-09-14T09:18:43Z</time>
      </trkpt>
      <trkpt lat="45.9998" lon="6.45534">
        <ele>2158.78</ele>
        <time>2019-09-14T09:18:53Z</time>
      </trkpt>
      <trkpt lat="45.9998" lon="6.45533">
        <ele>2156.86</ele>
        <time>2019-09-14T09:18:56Z</time>
      </trkpt>
      <trkpt lat="45.99979" lon="6.45532">
        <ele>2155.41</ele>
        <time>2019-09-14T09:18:58Z</time>
      </trkpt>
      <trkpt lat="45.99975" lon="6.45528">
        <ele>2152.53</ele>
        <time>2019-09-14T09:19:09Z</time>
      </trkpt>
      <trkpt lat="45.99975" lon="6.45527">
        <ele>2155.41</ele>
        <time>2019-09-14T09:19:10Z</time>
      </trkpt>
      <trkpt lat="45.99973" lon="6.45524">
        <ele>2152.53</ele>
        <time>2019-09-14T09:19:14Z</time>
      </trkpt>
      <trkpt lat="45.99971" lon="6.45522">
        <ele>2149.65</ele>
        <time>2019-09-14T09:19:23Z</time>
      </trkpt>
      <trkpt lat="45.99969" lon="6.45521">
        <ele>2146.76</ele>
        <time>2019-09-14T09:19:30Z</time>
      </trkpt>
      <trkpt lat="45.99969" lon="6.45521">
        <ele>2151.09</ele>
        <time>2019-09-14T09:19:31Z</time>
      </trkpt>
      <trkpt lat="45.99969" lon="6.45519">
        <ele>2147.72</ele>
        <time>2019-09-14T09:19:34Z</time>
      </trkpt>
      <trkpt lat="45.99967" lon="6.45518">
        <ele>2149.16</ele>
        <time>2019-09-14T09:19:37Z</time>
      </trkpt>
      <trkpt lat="45.99966" lon="6.45518">
        <ele>2145.8</ele>
        <time>2019-09-14T09:19:38Z</time>
      </trkpt>
      <trkpt lat="45.99962" lon="6.45513">
        <ele>2146.76</ele>
        <time>2019-09-14T09:19:47Z</time>
      </trkpt>
      <trkpt lat="45.99962" lon="6.45513">
        <ele>2146.28</ele>
        <time>2019-09-14T09:19:49Z</time>
      </trkpt>
      <trkpt lat="45.99961" lon="6.45512">
        <ele>2140.03</ele>
        <time>2019-09-14T09:19:51Z</time>
      </trkpt>
      <trkpt lat="45.99961" lon="6.45512">
        <ele>2143.4</ele>
        <time>2019-09-14T09:19:52Z</time>
      </trkpt>
      <trkpt lat="45.99961" lon="6.45512">
        <ele>2145.8</ele>
        <time>2019-09-14T09:19:54Z</time>
      </trkpt>
      <trkpt lat="45.99957" lon="6.45508">
        <ele>2141.95</ele>
        <time>2019-09-14T09:20:03Z</time>
      </trkpt>
      <trkpt lat="45.99956" lon="6.45508">
        <ele>2142.44</ele>
        <time>2019-09-14T09:20:04Z</time>
      </trkpt>
      <trkpt lat="45.99956" lon="6.45504">
        <ele>2141.47</ele>
        <time>2019-09-14T09:20:11Z</time>
      </trkpt>
      <trkpt lat="45.99956" lon="6.45502">
        <ele>2139.55</ele>
        <time>2019-09-14T09:20:20Z</time>
      </trkpt>
      <trkpt lat="45.99957" lon="6.45498">
        <ele>2139.07</ele>
        <time>2019-09-14T09:20:31Z</time>
      </trkpt>
      <trkpt lat="45.99956" lon="6.45494">
        <ele>2139.07</ele>
        <time>2019-09-14T09:20:39Z</time>
      </trkpt>
      <trkpt lat="45.99955" lon="6.45492">
        <ele>2137.63</ele>
        <time>2019-09-14T09:20:54Z</time>
      </trkpt>
      <trkpt lat="45.99954" lon="6.45489">
        <ele>2136.19</ele>
        <time>2019-09-14T09:21:03Z</time>
      </trkpt>
      <trkpt lat="45.99953" lon="6.45488">
        <ele>2135.71</ele>
        <time>2019-09-14T09:21:15Z</time>
      </trkpt>
      <trkpt lat="45.99953" lon="6.45488">
        <ele>2135.23</ele>
        <time>2019-09-14T09:21:23Z</time>
      </trkpt>
      <trkpt lat="45.9995" lon="6.45486">
        <ele>2134.74</ele>
        <time>2019-09-14T09:21:28Z</time>
      </trkpt>
      <trkpt lat="45.99948" lon="6.45485">
        <ele>2131.86</ele>
        <time>2019-09-14T09:21:30Z</time>
      </trkpt>
      <trkpt lat="45.99947" lon="6.45485">
        <ele>2135.71</ele>
        <time>2019-09-14T09:21:31Z</time>
      </trkpt>
      <trkpt lat="45.99945" lon="6.45485">
        <ele>2129.94</ele>
        <time>2019-09-14T09:21:32Z</time>
      </trkpt>
      <trkpt lat="45.99945" lon="6.45485">
        <ele>2135.23</ele>
        <time>2019-09-14T09:21:33Z</time>
      </trkpt>
      <trkpt lat="45.9994" lon="6.45485">
        <ele>2131.86</ele>
        <time>2019-09-14T09:21:42Z</time>
      </trkpt>
      <trkpt lat="45.99939" lon="6.4548">
        <ele>2133.3</ele>
        <time>2019-09-14T09:21:52Z</time>
      </trkpt>
      <trkpt lat="45.99938" lon="6.45479">
        <ele>2128.98</ele>
        <time>2019-09-14T09:21:54Z</time>
      </trkpt>
      <trkpt lat="45.99937" lon="6.4548">
        <ele>2132.34</ele>
        <time>2019-09-14T09:21:56Z</time>
      </trkpt>
      <trkpt lat="45.99936" lon="6.4548">
        <ele>2131.86</ele>
        <time>2019-09-14T09:21:57Z</time>
      </trkpt>
      <trkpt lat="45.99936" lon="6.4548">
        <ele>2130.42</ele>
        <time>2019-09-14T09:21:59Z</time>
      </trkpt>
      <trkpt lat="45.99936" lon="6.45479">
        <ele>2129.46</ele>
        <time>2019-09-14T09:22:09Z</time>
      </trkpt>
      <trkpt lat="45.99935" lon="6.45478">
        <ele>2127.53</ele>
        <time>2019-09-14T09:22:12Z</time>
      </trkpt>
      <trkpt lat="45.99934" lon="6.4547">
        <ele>2125.61</ele>
        <time>2019-09-14T09:22:24Z</time>
      </trkpt>
      <trkpt lat="45.99936" lon="6.45466">
        <ele>2124.17</ele>
        <time>2019-09-14T09:22:37Z</time>
      </trkpt>
      <trkpt lat="45.99936" lon="6.45464">
        <ele>2123.21</ele>
        <time>2019-09-14T09:22:46Z</time>
      </trkpt>
      <trkpt lat="45.99936" lon="6.45463">
        <ele>2119.84</ele>
        <time>2019-09-14T09:22:48Z</time>
      </trkpt>
      <trkpt lat="45.99937" lon="6.4546">
        <ele>2119.84</ele>
        <time>2019-09-14T09:22:58Z</time>
      </trkpt>
      <trkpt lat="45.99938" lon="6.45457">
        <ele>2120.32</ele>
        <time>2019-09-14T09:23:06Z</time>
      </trkpt>
      <trkpt lat="45.99937" lon="6.45454">
        <ele>2116</ele>
        <time>2019-09-14T09:23:12Z</time>
      </trkpt>
      <trkpt lat="45.99937" lon="6.45454">
        <ele>2117.44</ele>
        <time>2019-09-14T09:23:13Z</time>
      </trkpt>
      <trkpt lat="45.99937" lon="6.45449">
        <ele>2116.48</ele>
        <time>2019-09-14T09:23:24Z</time>
      </trkpt>
      <trkpt lat="45.99938" lon="6.45446">
        <ele>2117.92</ele>
        <time>2019-09-14T09:23:36Z</time>
      </trkpt>
      <trkpt lat="45.99939" lon="6.45445">
        <ele>2114.56</ele>
        <time>2019-09-14T09:23:38Z</time>
      </trkpt>
      <trkpt lat="45.99938" lon="6.45444">
        <ele>2116</ele>
        <time>2019-09-14T09:23:55Z</time>
      </trkpt>
      <trkpt lat="45.99936" lon="6.45444">
        <ele>2115.52</ele>
        <time>2019-09-14T09:24:08Z</time>
      </trkpt>
      <trkpt lat="45.99936" lon="6.45438">
        <ele>2112.15</ele>
        <time>2019-09-14T09:24:16Z</time>
      </trkpt>
      <trkpt lat="45.99936" lon="6.45433">
        <ele>2110.71</ele>
        <time>2019-09-14T09:24:25Z</time>
      </trkpt>
      <trkpt lat="45.99936" lon="6.45431">
        <ele>2114.08</ele>
        <time>2019-09-14T09:24:28Z</time>
      </trkpt>
      <trkpt lat="45.99936" lon="6.4543">
        <ele>2109.75</ele>
        <time>2019-09-14T09:24:30Z</time>
      </trkpt>
      <trkpt lat="45.99936" lon="6.45429">
        <ele>2111.19</ele>
        <time>2019-09-14T09:24:31Z</time>
      </trkpt>
      <trkpt lat="45.99938" lon="6.45423">
        <ele>2108.31</ele>
        <time>2019-09-14T09:24:40Z</time>
      </trkpt>
      <trkpt lat="45.99938" lon="6.45422">
        <ele>2109.75</ele>
        <time>2019-09-14T09:24:43Z</time>
      </trkpt>
      <trkpt lat="45.99937" lon="6.4542">
        <ele>2107.83</ele>
        <time>2019-09-14T09:24:46Z</time>
      </trkpt>
      <trkpt lat="45.99939" lon="6.45414">
        <ele>2103.98</ele>
        <time>2019-09-14T09:24:54Z</time>
      </trkpt>
      <trkpt lat="45.99938" lon="6.45411">
        <ele>2107.35</ele>
        <time>2019-09-14T09:24:59Z</time>
      </trkpt>
      <trkpt lat="45.99939" lon="6.45411">
        <ele>2102.54</ele>
        <time>2019-09-14T09:25:00Z</time>
      </trkpt>
      <trkpt lat="45.99939" lon="6.45411">
        <ele>2104.46</ele>
        <time>2019-09-14T09:25:01Z</time>
      </trkpt>
      <trkpt lat="45.9994" lon="6.45411">
        <ele>2105.91</ele>
        <time>2019-09-14T09:25:03Z</time>
      </trkpt>
      <trkpt lat="45.99941" lon="6.45409">
        <ele>2104.46</ele>
        <time>2019-09-14T09:25:05Z</time>
      </trkpt>
      <trkpt lat="45.99942" lon="6.45407">
        <ele>2105.42</ele>
        <time>2019-09-14T09:25:09Z</time>
      </trkpt>
      <trkpt lat="45.99941" lon="6.45405">
        <ele>2099.66</ele>
        <time>2019-09-14T09:25:15Z</time>
      </trkpt>
      <trkpt lat="45.99941" lon="6.45405">
        <ele>2103.98</ele>
        <time>2019-09-14T09:25:16Z</time>
      </trkpt>
      <trkpt lat="45.99941" lon="6.45406">
        <ele>2100.62</ele>
        <time>2019-09-14T09:25:17Z</time>
      </trkpt>
      <trkpt lat="45.99941" lon="6.45405">
        <ele>2104.46</ele>
        <time>2019-09-14T09:25:18Z</time>
      </trkpt>
      <trkpt lat="45.9994" lon="6.45405">
        <ele>2101.58</ele>
        <time>2019-09-14T09:25:20Z</time>
      </trkpt>
      <trkpt lat="45.99939" lon="6.45405">
        <ele>2100.62</ele>
        <time>2019-09-14T09:25:22Z</time>
      </trkpt>
      <trkpt lat="45.99935" lon="6.45403">
        <ele>2097.73</ele>
        <time>2019-09-14T09:25:34Z</time>
      </trkpt>
      <trkpt lat="45.99931" lon="6.45401">
        <ele>2098.7</ele>
        <time>2019-09-14T09:25:43Z</time>
      </trkpt>
      <trkpt lat="45.9993" lon="6.454">
        <ele>2096.29</ele>
        <time>2019-09-14T09:25:46Z</time>
      </trkpt>
      <trkpt lat="45.99931" lon="6.45397">
        <ele>2095.33</ele>
        <time>2019-09-14T09:25:56Z</time>
      </trkpt>
      <trkpt lat="45.99931" lon="6.45395">
        <ele>2093.89</ele>
        <time>2019-09-14T09:26:02Z</time>
      </trkpt>
      <trkpt lat="45.99929" lon="6.45392">
        <ele>2093.89</ele>
        <time>2019-09-14T09:26:11Z</time>
      </trkpt>
      <trkpt lat="45.99927" lon="6.45391">
        <ele>2090.52</ele>
        <time>2019-09-14T09:26:13Z</time>
      </trkpt>
      <trkpt lat="45.99928" lon="6.45386">
        <ele>2091</ele>
        <time>2019-09-14T09:26:22Z</time>
      </trkpt>
      <trkpt lat="45.99931" lon="6.45384">
        <ele>2087.64</ele>
        <time>2019-09-14T09:26:31Z</time>
      </trkpt>
      <trkpt lat="45.99931" lon="6.45384">
        <ele>2091</ele>
        <time>2019-09-14T09:26:32Z</time>
      </trkpt>
      <trkpt lat="45.9993" lon="6.45383">
        <ele>2090.52</ele>
        <time>2019-09-14T09:26:33Z</time>
      </trkpt>
      <trkpt lat="45.99929" lon="6.4538">
        <ele>2087.16</ele>
        <time>2019-09-14T09:26:37Z</time>
      </trkpt>
      <trkpt lat="45.99926" lon="6.45379">
        <ele>2084.28</ele>
        <time>2019-09-14T09:26:45Z</time>
      </trkpt>
      <trkpt lat="45.99927" lon="6.45377">
        <ele>2086.2</ele>
        <time>2019-09-14T09:26:48Z</time>
      </trkpt>
      <trkpt lat="45.99927" lon="6.45376">
        <ele>2083.79</ele>
        <time>2019-09-14T09:27:00Z</time>
      </trkpt>
      <trkpt lat="45.99927" lon="6.45377">
        <ele>2082.35</ele>
        <time>2019-09-14T09:27:05Z</time>
      </trkpt>
      <trkpt lat="45.99927" lon="6.45376">
        <ele>2085.72</ele>
        <time>2019-09-14T09:27:07Z</time>
      </trkpt>
      <trkpt lat="45.99927" lon="6.45376">
        <ele>2083.79</ele>
        <time>2019-09-14T09:27:09Z</time>
      </trkpt>
      <trkpt lat="45.99927" lon="6.45375">
        <ele>2082.83</ele>
        <time>2019-09-14T09:27:18Z</time>
      </trkpt>
      <trkpt lat="45.99927" lon="6.45374">
        <ele>2079.95</ele>
        <time>2019-09-14T09:27:23Z</time>
      </trkpt>
      <trkpt lat="45.99927" lon="6.45374">
        <ele>2083.79</ele>
        <time>2019-09-14T09:27:24Z</time>
      </trkpt>
      <trkpt lat="45.99927" lon="6.45374">
        <ele>2078.51</ele>
        <time>2019-09-14T09:27:25Z</time>
      </trkpt>
      <trkpt lat="45.99927" lon="6.45373">
        <ele>2082.83</ele>
        <time>2019-09-14T09:27:26Z</time>
      </trkpt>
      <trkpt lat="45.99927" lon="6.45372">
        <ele>2078.51</ele>
        <time>2019-09-14T09:27:30Z</time>
      </trkpt>
      <trkpt lat="45.99927" lon="6.45372">
        <ele>2081.87</ele>
        <time>2019-09-14T09:27:31Z</time>
      </trkpt>
      <trkpt lat="45.99927" lon="6.45372">
        <ele>2078.51</ele>
        <time>2019-09-14T09:27:32Z</time>
      </trkpt>
      <trkpt lat="45.99926" lon="6.4537">
        <ele>2079.95</ele>
        <time>2019-09-14T09:27:44Z</time>
      </trkpt>
      <trkpt lat="45.99926" lon="6.4537">
        <ele>2076.59</ele>
        <time>2019-09-14T09:27:45Z</time>
      </trkpt>
      <trkpt lat="45.99926" lon="6.4537">
        <ele>2077.07</ele>
        <time>2019-09-14T09:27:46Z</time>
      </trkpt>
      <trkpt lat="45.99926" lon="6.4537">
        <ele>2079.95</ele>
        <time>2019-09-14T09:27:47Z</time>
      </trkpt>
      <trkpt lat="45.99926" lon="6.4537">
        <ele>2078.99</ele>
        <time>2019-09-14T09:27:48Z</time>
      </trkpt>
      <trkpt lat="45.99926" lon="6.45368">
        <ele>2075.62</ele>
        <time>2019-09-14T09:27:52Z</time>
      </trkpt>
      <trkpt lat="45.99926" lon="6.45368">
        <ele>2078.03</ele>
        <time>2019-09-14T09:27:54Z</time>
      </trkpt>
      <trkpt lat="45.99928" lon="6.45368">
        <ele>2073.7</ele>
        <time>2019-09-14T09:28:04Z</time>
      </trkpt>
      <trkpt lat="45.9993" lon="6.45367">
        <ele>2071.78</ele>
        <time>2019-09-14T09:28:12Z</time>
      </trkpt>
      <trkpt lat="45.99936" lon="6.45368">
        <ele>2071.3</ele>
        <time>2019-09-14T09:28:18Z</time>
      </trkpt>
      <trkpt lat="45.99942" lon="6.45366">
        <ele>2069.86</ele>
        <time>2019-09-14T09:28:24Z</time>
      </trkpt>
      <trkpt lat="45.99943" lon="6.45365">
        <ele>2070.34</ele>
        <time>2019-09-14T09:28:26Z</time>
      </trkpt>
      <trkpt lat="45.99944" lon="6.45364">
        <ele>2068.89</ele>
        <time>2019-09-14T09:28:30Z</time>
      </trkpt>
      <trkpt lat="45.99945" lon="6.45362">
        <ele>2067.93</ele>
        <time>2019-09-14T09:28:39Z</time>
      </trkpt>
      <trkpt lat="45.99946" lon="6.45363">
        <ele>2066.49</ele>
        <time>2019-09-14T09:28:41Z</time>
      </trkpt>
      <trkpt lat="45.9995" lon="6.45358">
        <ele>2065.53</ele>
        <time>2019-09-14T09:28:48Z</time>
      </trkpt>
      <trkpt lat="45.99951" lon="6.45357">
        <ele>2061.68</ele>
        <time>2019-09-14T09:28:51Z</time>
      </trkpt>
      <trkpt lat="45.99951" lon="6.45357">
        <ele>2064.57</ele>
        <time>2019-09-14T09:28:52Z</time>
      </trkpt>
      <trkpt lat="45.99955" lon="6.45355">
        <ele>2061.68</ele>
        <time>2019-09-14T09:28:59Z</time>
      </trkpt>
      <trkpt lat="45.99955" lon="6.45352">
        <ele>2061.68</ele>
        <time>2019-09-14T09:29:12Z</time>
      </trkpt>
      <trkpt lat="45.99955" lon="6.4535">
        <ele>2060.72</ele>
        <time>2019-09-14T09:29:17Z</time>
      </trkpt>
      <trkpt lat="45.99964" lon="6.45345">
        <ele>2058.32</ele>
        <time>2019-09-14T09:29:26Z</time>
      </trkpt>
      <trkpt lat="45.99965" lon="6.45345">
        <ele>2054.96</ele>
        <time>2019-09-14T09:29:27Z</time>
      </trkpt>
      <trkpt lat="45.99965" lon="6.45344">
        <ele>2058.32</ele>
        <time>2019-09-14T09:29:28Z</time>
      </trkpt>
      <trkpt lat="45.9997" lon="6.45338">
        <ele>2054.96</ele>
        <time>2019-09-14T09:29:38Z</time>
      </trkpt>
      <trkpt lat="45.99969" lon="6.45334">
        <ele>2055.44</ele>
        <time>2019-09-14T09:29:47Z</time>
      </trkpt>
      <trkpt lat="45.99969" lon="6.45334">
        <ele>2052.07</ele>
        <time>2019-09-14T09:29:49Z</time>
      </trkpt>
      <trkpt lat="45.99969" lon="6.45333">
        <ele>2053.03</ele>
        <time>2019-09-14T09:29:50Z</time>
      </trkpt>
      <trkpt lat="45.99971" lon="6.45332">
        <ele>2054.96</ele>
        <time>2019-09-14T09:29:52Z</time>
      </trkpt>
      <trkpt lat="45.99973" lon="6.45331">
        <ele>2053.99</ele>
        <time>2019-09-14T09:29:54Z</time>
      </trkpt>
      <trkpt lat="45.99974" lon="6.45328">
        <ele>2050.15</ele>
        <time>2019-09-14T09:29:58Z</time>
      </trkpt>
      <trkpt lat="45.99974" lon="6.45328">
        <ele>2050.15</ele>
        <time>2019-09-14T09:29:59Z</time>
      </trkpt>
      <trkpt lat="45.99974" lon="6.45327">
        <ele>2049.67</ele>
        <time>2019-09-14T09:30:05Z</time>
      </trkpt>
      <trkpt lat="45.99975" lon="6.45327">
        <ele>2050.15</ele>
        <time>2019-09-14T09:30:15Z</time>
      </trkpt>
      <trkpt lat="45.99977" lon="6.45327">
        <ele>2047.26</ele>
        <time>2019-09-14T09:30:19Z</time>
      </trkpt>
      <trkpt lat="45.99977" lon="6.45327">
        <ele>2051.11</ele>
        <time>2019-09-14T09:30:20Z</time>
      </trkpt>
      <trkpt lat="45.99977" lon="6.45327">
        <ele>2047.75</ele>
        <time>2019-09-14T09:30:23Z</time>
      </trkpt>
      <trkpt lat="45.99977" lon="6.45327">
        <ele>2050.63</ele>
        <time>2019-09-14T09:30:26Z</time>
      </trkpt>
      <trkpt lat="45.99977" lon="6.45327">
        <ele>2050.63</ele>
        <time>2019-09-14T09:30:27Z</time>
      </trkpt>
      <trkpt lat="45.99977" lon="6.45327">
        <ele>2047.75</ele>
        <time>2019-09-14T09:30:38Z</time>
      </trkpt>
      <trkpt lat="45.99977" lon="6.45326">
        <ele>2049.67</ele>
        <time>2019-09-14T09:30:49Z</time>
      </trkpt>
      <trkpt lat="45.99978" lon="6.45326">
        <ele>2047.75</ele>
        <time>2019-09-14T09:30:54Z</time>
      </trkpt>
      <trkpt lat="45.99978" lon="6.45326">
        <ele>2049.19</ele>
        <time>2019-09-14T09:30:56Z</time>
      </trkpt>
      <trkpt lat="45.99978" lon="6.45325">
        <ele>2049.19</ele>
        <time>2019-09-14T09:31:18Z</time>
      </trkpt>
      <trkpt lat="45.99978" lon="6.45324">
        <ele>2047.26</ele>
        <time>2019-09-14T09:31:33Z</time>
      </trkpt>
      <trkpt lat="45.99978" lon="6.45324">
        <ele>2047.26</ele>
        <time>2019-09-14T09:31:34Z</time>
      </trkpt>
      <trkpt lat="45.99978" lon="6.45324">
        <ele>2051.11</ele>
        <time>2019-09-14T09:31:35Z</time>
      </trkpt>
      <trkpt lat="45.99978" lon="6.45324">
        <ele>2046.3</ele>
        <time>2019-09-14T09:31:36Z</time>
      </trkpt>
      <trkpt lat="45.99978" lon="6.45324">
        <ele>2050.63</ele>
        <time>2019-09-14T09:31:47Z</time>
      </trkpt>
      <trkpt lat="45.99978" lon="6.45325">
        <ele>2047.75</ele>
        <time>2019-09-14T09:31:50Z</time>
      </trkpt>
      <trkpt lat="45.99978" lon="6.45324">
        <ele>2043.42</ele>
        <time>2019-09-14T09:31:52Z</time>
      </trkpt>
      <trkpt lat="45.99978" lon="6.45324">
        <ele>2049.67</ele>
        <time>2019-09-14T09:31:53Z</time>
      </trkpt>
      <trkpt lat="45.99977" lon="6.45324">
        <ele>2048.23</ele>
        <time>2019-09-14T09:32:11Z</time>
      </trkpt>
      <trkpt lat="45.99978" lon="6.45325">
        <ele>2048.71</ele>
        <time>2019-09-14T09:32:24Z</time>
      </trkpt>
      <trkpt lat="45.99978" lon="6.45324">
        <ele>2044.38</ele>
        <time>2019-09-14T09:32:35Z</time>
      </trkpt>
      <trkpt lat="45.99978" lon="6.45324">
        <ele>2048.23</ele>
        <time>2019-09-14T09:32:36Z</time>
      </trkpt>
      <trkpt lat="45.99978" lon="6.45324">
        <ele>2045.34</ele>
        <time>2019-09-14T09:32:41Z</time>
      </trkpt>
      <trkpt lat="45.99978" lon="6.45323">
        <ele>2049.67</ele>
        <time>2019-09-14T09:32:42Z</time>
      </trkpt>
      <trkpt lat="45.99978" lon="6.45323">
        <ele>2049.67</ele>
        <time>2019-09-14T09:32:43Z</time>
      </trkpt>
      <trkpt lat="45.99978" lon="6.45323">
        <ele>2048.23</ele>
        <time>2019-09-14T09:33:01Z</time>
      </trkpt>
      <trkpt lat="45.99978" lon="6.45323">
        <ele>2046.78</ele>
        <time>2019-09-14T09:33:06Z</time>
      </trkpt>
      <trkpt lat="45.99978" lon="6.45324">
        <ele>2048.71</ele>
        <time>2019-09-14T09:33:08Z</time>
      </trkpt>
      <trkpt lat="45.99979" lon="6.45323">
        <ele>2046.78</ele>
        <time>2019-09-14T09:33:13Z</time>
      </trkpt>
      <trkpt lat="45.99978" lon="6.45318">
        <ele>2045.34</ele>
        <time>2019-09-14T09:33:22Z</time>
      </trkpt>
      <trkpt lat="45.99978" lon="6.45317">
        <ele>2042.94</ele>
        <time>2019-09-14T09:33:23Z</time>
      </trkpt>
      <trkpt lat="45.99977" lon="6.45316">
        <ele>2046.78</ele>
        <time>2019-09-14T09:33:25Z</time>
      </trkpt>
      <trkpt lat="45.99976" lon="6.45315">
        <ele>2042.46</ele>
        <time>2019-09-14T09:33:27Z</time>
      </trkpt>
      <trkpt lat="45.99975" lon="6.45314">
        <ele>2042.46</ele>
        <time>2019-09-14T09:33:28Z</time>
      </trkpt>
      <trkpt lat="45.99971" lon="6.45309">
        <ele>2043.42</ele>
        <time>2019-09-14T09:33:37Z</time>
      </trkpt>
      <trkpt lat="45.9997" lon="6.45307">
        <ele>2040.05</ele>
        <time>2019-09-14T09:33:40Z</time>
      </trkpt>
      <trkpt lat="45.99969" lon="6.45301">
        <ele>2039.57</ele>
        <time>2019-09-14T09:33:49Z</time>
      </trkpt>
      <trkpt lat="45.99969" lon="6.453">
        <ele>2040.54</ele>
        <time>2019-09-14T09:33:59Z</time>
      </trkpt>
      <trkpt lat="45.99969" lon="6.453">
        <ele>2037.17</ele>
        <time>2019-09-14T09:34:00Z</time>
      </trkpt>
      <trkpt lat="45.99969" lon="6.453">
        <ele>2038.13</ele>
        <time>2019-09-14T09:34:01Z</time>
      </trkpt>
      <trkpt lat="45.99966" lon="6.45294">
        <ele>2034.29</ele>
        <time>2019-09-14T09:34:09Z</time>
      </trkpt>
      <trkpt lat="45.99962" lon="6.45282">
        <ele>2034.29</ele>
        <time>2019-09-14T09:34:22Z</time>
      </trkpt>
      <trkpt lat="45.99961" lon="6.45282">
        <ele>2035.73</ele>
        <time>2019-09-14T09:34:23Z</time>
      </trkpt>
      <trkpt lat="45.9996" lon="6.45278">
        <ele>2033.33</ele>
        <time>2019-09-14T09:34:26Z</time>
      </trkpt>
      <trkpt lat="45.99959" lon="6.45275">
        <ele>2031.4</ele>
        <time>2019-09-14T09:34:28Z</time>
      </trkpt>
      <trkpt lat="45.99959" lon="6.45274">
        <ele>2034.77</ele>
        <time>2019-09-14T09:34:30Z</time>
      </trkpt>
      <trkpt lat="45.99959" lon="6.45272">
        <ele>2031.88</ele>
        <time>2019-09-14T09:34:31Z</time>
      </trkpt>
      <trkpt lat="45.99957" lon="6.45267">
        <ele>2029.48</ele>
        <time>2019-09-14T09:34:42Z</time>
      </trkpt>
      <trkpt lat="45.99958" lon="6.45265">
        <ele>2028.52</ele>
        <time>2019-09-14T09:34:55Z</time>
      </trkpt>
      <trkpt lat="45.99957" lon="6.45263">
        <ele>2024.19</ele>
        <time>2019-09-14T09:35:06Z</time>
      </trkpt>
      <trkpt lat="45.99958" lon="6.4526">
        <ele>2024.19</ele>
        <time>2019-09-14T09:35:15Z</time>
      </trkpt>
      <trkpt lat="45.99958" lon="6.45258">
        <ele>2020.83</ele>
        <time>2019-09-14T09:35:24Z</time>
      </trkpt>
      <trkpt lat="45.99958" lon="6.45257">
        <ele>2023.71</ele>
        <time>2019-09-14T09:35:26Z</time>
      </trkpt>
      <trkpt lat="45.99958" lon="6.45257">
        <ele>2019.87</ele>
        <time>2019-09-14T09:35:29Z</time>
      </trkpt>
      <trkpt lat="45.99959" lon="6.45257">
        <ele>2019.39</ele>
        <time>2019-09-14T09:35:30Z</time>
      </trkpt>
      <trkpt lat="45.99959" lon="6.45256">
        <ele>2022.75</ele>
        <time>2019-09-14T09:35:33Z</time>
      </trkpt>
      <trkpt lat="45.99959" lon="6.45256">
        <ele>2019.39</ele>
        <time>2019-09-14T09:35:36Z</time>
      </trkpt>
      <trkpt lat="45.99959" lon="6.45254">
        <ele>2017.46</ele>
        <time>2019-09-14T09:35:43Z</time>
      </trkpt>
      <trkpt lat="45.9996" lon="6.45252">
        <ele>2016.98</ele>
        <time>2019-09-14T09:35:53Z</time>
      </trkpt>
      <trkpt lat="45.99958" lon="6.45248">
        <ele>2014.58</ele>
        <time>2019-09-14T09:36:05Z</time>
      </trkpt>
      <trkpt lat="45.99957" lon="6.45246">
        <ele>2015.54</ele>
        <time>2019-09-14T09:36:09Z</time>
      </trkpt>
      <trkpt lat="45.99951" lon="6.4524">
        <ele>2011.7</ele>
        <time>2019-09-14T09:36:19Z</time>
      </trkpt>
      <trkpt lat="45.99953" lon="6.45236">
        <ele>2012.18</ele>
        <time>2019-09-14T09:36:30Z</time>
      </trkpt>
      <trkpt lat="45.99953" lon="6.45234">
        <ele>2007.85</ele>
        <time>2019-09-14T09:36:36Z</time>
      </trkpt>
      <trkpt lat="45.99953" lon="6.45234">
        <ele>2012.18</ele>
        <time>2019-09-14T09:36:37Z</time>
      </trkpt>
      <trkpt lat="45.99953" lon="6.45231">
        <ele>2009.29</ele>
        <time>2019-09-14T09:36:46Z</time>
      </trkpt>
      <trkpt lat="45.99952" lon="6.45228">
        <ele>2011.7</ele>
        <time>2019-09-14T09:36:48Z</time>
      </trkpt>
      <trkpt lat="45.9995" lon="6.4522">
        <ele>2010.25</ele>
        <time>2019-09-14T09:36:53Z</time>
      </trkpt>
      <trkpt lat="45.9995" lon="6.45219">
        <ele>2006.41</ele>
        <time>2019-09-14T09:36:54Z</time>
      </trkpt>
      <trkpt lat="45.99949" lon="6.45217">
        <ele>2009.77</ele>
        <time>2019-09-14T09:36:55Z</time>
      </trkpt>
      <trkpt lat="45.99948" lon="6.45215">
        <ele>2005.45</ele>
        <time>2019-09-14T09:36:57Z</time>
      </trkpt>
      <trkpt lat="45.99947" lon="6.45214">
        <ele>2005.93</ele>
        <time>2019-09-14T09:36:58Z</time>
      </trkpt>
      <trkpt lat="45.99946" lon="6.45212">
        <ele>2008.81</ele>
        <time>2019-09-14T09:37:00Z</time>
      </trkpt>
      <trkpt lat="45.99943" lon="6.45209">
        <ele>2004.97</ele>
        <time>2019-09-14T09:37:03Z</time>
      </trkpt>
      <trkpt lat="45.99943" lon="6.45208">
        <ele>2008.33</ele>
        <time>2019-09-14T09:37:04Z</time>
      </trkpt>
      <trkpt lat="45.9994" lon="6.45201">
        <ele>2003.52</ele>
        <time>2019-09-14T09:37:08Z</time>
      </trkpt>
      <trkpt lat="45.99937" lon="6.45196">
        <ele>2006.41</ele>
        <time>2019-09-14T09:37:11Z</time>
      </trkpt>
      <trkpt lat="45.99935" lon="6.45193">
        <ele>2003.04</ele>
        <time>2019-09-14T09:37:14Z</time>
      </trkpt>
      <trkpt lat="45.99934" lon="6.45191">
        <ele>2004.01</ele>
        <time>2019-09-14T09:37:15Z</time>
      </trkpt>
      <trkpt lat="45.99931" lon="6.45186">
        <ele>2007.85</ele>
        <time>2019-09-14T09:37:20Z</time>
      </trkpt>
      <trkpt lat="45.99931" lon="6.45185">
        <ele>2002.56</ele>
        <time>2019-09-14T09:37:21Z</time>
      </trkpt>
      <trkpt lat="45.99929" lon="6.45182">
        <ele>2003.52</ele>
        <time>2019-09-14T09:37:25Z</time>
      </trkpt>
      <trkpt lat="45.99929" lon="6.45174">
        <ele>2004.01</ele>
        <time>2019-09-14T09:37:36Z</time>
      </trkpt>
      <trkpt lat="45.99929" lon="6.45169">
        <ele>2002.08</ele>
        <time>2019-09-14T09:37:40Z</time>
      </trkpt>
      <trkpt lat="45.99928" lon="6.4516">
        <ele>2000.64</ele>
        <time>2019-09-14T09:37:49Z</time>
      </trkpt>
      <trkpt lat="45.99929" lon="6.45153">
        <ele>1998.72</ele>
        <time>2019-09-14T09:37:56Z</time>
      </trkpt>
      <trkpt lat="45.9993" lon="6.45149">
        <ele>1996.32</ele>
        <time>2019-09-14T09:38:00Z</time>
      </trkpt>
      <trkpt lat="45.99929" lon="6.45148">
        <ele>2000.64</ele>
        <time>2019-09-14T09:38:01Z</time>
      </trkpt>
      <trkpt lat="45.99928" lon="6.45145">
        <ele>1998.24</ele>
        <time>2019-09-14T09:38:04Z</time>
      </trkpt>
      <trkpt lat="45.99928" lon="6.45142">
        <ele>1996.8</ele>
        <time>2019-09-14T09:38:06Z</time>
      </trkpt>
      <trkpt lat="45.99927" lon="6.45141">
        <ele>2001.12</ele>
        <time>2019-09-14T09:38:08Z</time>
      </trkpt>
      <trkpt lat="45.99927" lon="6.4514">
        <ele>1996.8</ele>
        <time>2019-09-14T09:38:09Z</time>
      </trkpt>
      <trkpt lat="45.99927" lon="6.45138">
        <ele>1996.32</ele>
        <time>2019-09-14T09:38:11Z</time>
      </trkpt>
      <trkpt lat="45.99927" lon="6.45133">
        <ele>1999.68</ele>
        <time>2019-09-14T09:38:14Z</time>
      </trkpt>
      <trkpt lat="45.99926" lon="6.45126">
        <ele>1999.68</ele>
        <time>2019-09-14T09:38:21Z</time>
      </trkpt>
      <trkpt lat="45.99925" lon="6.45125">
        <ele>1998.24</ele>
        <time>2019-09-14T09:38:23Z</time>
      </trkpt>
      <trkpt lat="45.99923" lon="6.45121">
        <ele>1999.68</ele>
        <time>2019-09-14T09:38:26Z</time>
      </trkpt>
      <trkpt lat="45.99922" lon="6.45119">
        <ele>1994.39</ele>
        <time>2019-09-14T09:38:28Z</time>
      </trkpt>
      <trkpt lat="45.99922" lon="6.45118">
        <ele>1998.72</ele>
        <time>2019-09-14T09:38:29Z</time>
      </trkpt>
      <trkpt lat="45.99921" lon="6.45113">
        <ele>1994.39</ele>
        <time>2019-09-14T09:38:35Z</time>
      </trkpt>
      <trkpt lat="45.99921" lon="6.45113">
        <ele>1998.24</ele>
        <time>2019-09-14T09:38:36Z</time>
      </trkpt>
      <trkpt lat="45.9992" lon="6.45107">
        <ele>1993.43</ele>
        <time>2019-09-14T09:38:42Z</time>
      </trkpt>
      <trkpt lat="45.99919" lon="6.45107">
        <ele>1995.83</ele>
        <time>2019-09-14T09:38:43Z</time>
      </trkpt>
      <trkpt lat="45.99916" lon="6.451">
        <ele>1992.95</ele>
        <time>2019-09-14T09:38:54Z</time>
      </trkpt>
      <trkpt lat="45.99916" lon="6.45098">
        <ele>1996.8</ele>
        <time>2019-09-14T09:38:55Z</time>
      </trkpt>
      <trkpt lat="45.99915" lon="6.45097">
        <ele>1992.95</ele>
        <time>2019-09-14T09:38:57Z</time>
      </trkpt>
      <trkpt lat="45.99914" lon="6.45096">
        <ele>1994.39</ele>
        <time>2019-09-14T09:38:58Z</time>
      </trkpt>
      <trkpt lat="45.99912" lon="6.45092">
        <ele>1990.55</ele>
        <time>2019-09-14T09:39:02Z</time>
      </trkpt>
      <trkpt lat="45.99912" lon="6.45092">
        <ele>1997.28</ele>
        <time>2019-09-14T09:39:03Z</time>
      </trkpt>
      <trkpt lat="45.9991" lon="6.4509">
        <ele>1992.95</ele>
        <time>2019-09-14T09:39:05Z</time>
      </trkpt>
      <trkpt lat="45.9991" lon="6.45089">
        <ele>1993.91</ele>
        <time>2019-09-14T09:39:06Z</time>
      </trkpt>
      <trkpt lat="45.9991" lon="6.45085">
        <ele>1990.07</ele>
        <time>2019-09-14T09:39:12Z</time>
      </trkpt>
      <trkpt lat="45.99909" lon="6.45084">
        <ele>1992.95</ele>
        <time>2019-09-14T09:39:13Z</time>
      </trkpt>
      <trkpt lat="45.99911" lon="6.45076">
        <ele>1991.03</ele>
        <time>2019-09-14T09:39:22Z</time>
      </trkpt>
      <trkpt lat="45.9991" lon="6.45071">
        <ele>1988.62</ele>
        <time>2019-09-14T09:39:27Z</time>
      </trkpt>
      <trkpt lat="45.99909" lon="6.4507">
        <ele>1990.07</ele>
        <time>2019-09-14T09:39:29Z</time>
      </trkpt>
      <trkpt lat="45.99908" lon="6.45061">
        <ele>1988.62</ele>
        <time>2019-09-14T09:39:38Z</time>
      </trkpt>
      <trkpt lat="45.99907" lon="6.45059">
        <ele>1986.22</ele>
        <time>2019-09-14T09:39:41Z</time>
      </trkpt>
      <trkpt lat="45.99907" lon="6.45059">
        <ele>1989.59</ele>
        <time>2019-09-14T09:39:42Z</time>
      </trkpt>
      <trkpt lat="45.99907" lon="6.45058">
        <ele>1988.14</ele>
        <time>2019-09-14T09:39:43Z</time>
      </trkpt>
      <trkpt lat="45.99905" lon="6.45051">
        <ele>1984.78</ele>
        <time>2019-09-14T09:39:52Z</time>
      </trkpt>
      <trkpt lat="45.99905" lon="6.45049">
        <ele>1987.66</ele>
        <time>2019-09-14T09:39:54Z</time>
      </trkpt>
      <trkpt lat="45.99904" lon="6.45048">
        <ele>1984.3</ele>
        <time>2019-09-14T09:39:55Z</time>
      </trkpt>
      <trkpt lat="45.99903" lon="6.45042">
        <ele>1984.78</ele>
        <time>2019-09-14T09:39:59Z</time>
      </trkpt>
      <trkpt lat="45.99903" lon="6.4504">
        <ele>1986.7</ele>
        <time>2019-09-14T09:40:01Z</time>
      </trkpt>
      <trkpt lat="45.99902" lon="6.45039">
        <ele>1986.7</ele>
        <time>2019-09-14T09:40:02Z</time>
      </trkpt>
      <trkpt lat="45.99902" lon="6.45032">
        <ele>1986.7</ele>
        <time>2019-09-14T09:40:08Z</time>
      </trkpt>
      <trkpt lat="45.99901" lon="6.4503">
        <ele>1985.74</ele>
        <time>2019-09-14T09:40:10Z</time>
      </trkpt>
      <trkpt lat="45.99901" lon="6.45025">
        <ele>1981.9</ele>
        <time>2019-09-14T09:40:16Z</time>
      </trkpt>
      <trkpt lat="45.99901" lon="6.45024">
        <ele>1985.74</ele>
        <time>2019-09-14T09:40:17Z</time>
      </trkpt>
      <trkpt lat="45.999" lon="6.45022">
        <ele>1982.38</ele>
        <time>2019-09-14T09:40:23Z</time>
      </trkpt>
      <trkpt lat="45.999" lon="6.45018">
        <ele>1981.9</ele>
        <time>2019-09-14T09:40:31Z</time>
      </trkpt>
      <trkpt lat="45.999" lon="6.45016">
        <ele>1980.93</ele>
        <time>2019-09-14T09:40:32Z</time>
      </trkpt>
      <trkpt lat="45.999" lon="6.45013">
        <ele>1979.97</ele>
        <time>2019-09-14T09:40:34Z</time>
      </trkpt>
      <trkpt lat="45.999" lon="6.45012">
        <ele>1983.82</ele>
        <time>2019-09-14T09:40:35Z</time>
      </trkpt>
      <trkpt lat="45.999" lon="6.45011">
        <ele>1981.41</ele>
        <time>2019-09-14T09:40:36Z</time>
      </trkpt>
      <trkpt lat="45.999" lon="6.45008">
        <ele>1983.34</ele>
        <time>2019-09-14T09:40:38Z</time>
      </trkpt>
      <trkpt lat="45.999" lon="6.45006">
        <ele>1979.01</ele>
        <time>2019-09-14T09:40:40Z</time>
      </trkpt>
      <trkpt lat="45.99901" lon="6.44996">
        <ele>1982.38</ele>
        <time>2019-09-14T09:40:49Z</time>
      </trkpt>
      <trkpt lat="45.99901" lon="6.44995">
        <ele>1975.17</ele>
        <time>2019-09-14T09:40:50Z</time>
      </trkpt>
      <trkpt lat="45.99901" lon="6.44994">
        <ele>1982.38</ele>
        <time>2019-09-14T09:40:51Z</time>
      </trkpt>
      <trkpt lat="45.99901" lon="6.44991">
        <ele>1977.57</ele>
        <time>2019-09-14T09:40:55Z</time>
      </trkpt>
      <trkpt lat="45.99901" lon="6.44983">
        <ele>1979.01</ele>
        <time>2019-09-14T09:41:02Z</time>
      </trkpt>
      <trkpt lat="45.99901" lon="6.44981">
        <ele>1978.05</ele>
        <time>2019-09-14T09:41:04Z</time>
      </trkpt>
      <trkpt lat="45.99903" lon="6.44974">
        <ele>1974.69</ele>
        <time>2019-09-14T09:41:10Z</time>
      </trkpt>
      <trkpt lat="45.99903" lon="6.44973">
        <ele>1975.65</ele>
        <time>2019-09-14T09:41:11Z</time>
      </trkpt>
      <trkpt lat="45.99904" lon="6.44966">
        <ele>1972.76</ele>
        <time>2019-09-14T09:41:17Z</time>
      </trkpt>
      <trkpt lat="45.99905" lon="6.4496">
        <ele>1977.57</ele>
        <time>2019-09-14T09:41:22Z</time>
      </trkpt>
      <trkpt lat="45.99905" lon="6.44959">
        <ele>1974.2</ele>
        <time>2019-09-14T09:41:23Z</time>
      </trkpt>
      <trkpt lat="45.99905" lon="6.44959">
        <ele>1974.69</ele>
        <time>2019-09-14T09:41:24Z</time>
      </trkpt>
      <trkpt lat="45.99905" lon="6.44956">
        <ele>1974.2</ele>
        <time>2019-09-14T09:41:26Z</time>
      </trkpt>
      <trkpt lat="45.99907" lon="6.44944">
        <ele>1972.76</ele>
        <time>2019-09-14T09:41:38Z</time>
      </trkpt>
      <trkpt lat="45.99907" lon="6.44939">
        <ele>1969.88</ele>
        <time>2019-09-14T09:41:43Z</time>
      </trkpt>
      <trkpt lat="45.99907" lon="6.44932">
        <ele>1970.84</ele>
        <time>2019-09-14T09:41:53Z</time>
      </trkpt>
      <trkpt lat="45.99908" lon="6.44929">
        <ele>1967.48</ele>
        <time>2019-09-14T09:41:59Z</time>
      </trkpt>
      <trkpt lat="45.99908" lon="6.44926">
        <ele>1967.48</ele>
        <time>2019-09-14T09:42:04Z</time>
      </trkpt>
      <trkpt lat="45.99908" lon="6.44923">
        <ele>1965.55</ele>
        <time>2019-09-14T09:42:15Z</time>
      </trkpt>
      <trkpt lat="45.99908" lon="6.44922">
        <ele>1966.51</ele>
        <time>2019-09-14T09:42:19Z</time>
      </trkpt>
      <trkpt lat="45.99908" lon="6.4492">
        <ele>1964.11</ele>
        <time>2019-09-14T09:42:31Z</time>
      </trkpt>
      <trkpt lat="45.99912" lon="6.44915">
        <ele>1959.78</ele>
        <time>2019-09-14T09:42:39Z</time>
      </trkpt>
      <trkpt lat="45.99913" lon="6.4491">
        <ele>1959.78</ele>
        <time>2019-09-14T09:42:42Z</time>
      </trkpt>
      <trkpt lat="45.99914" lon="6.44907">
        <ele>1959.78</ele>
        <time>2019-09-14T09:42:44Z</time>
      </trkpt>
      <trkpt lat="45.99914" lon="6.44904">
        <ele>1960.75</ele>
        <time>2019-09-14T09:42:46Z</time>
      </trkpt>
      <trkpt lat="45.99913" lon="6.44902">
        <ele>1956.9</ele>
        <time>2019-09-14T09:42:47Z</time>
      </trkpt>
      <trkpt lat="45.99913" lon="6.44901">
        <ele>1957.38</ele>
        <time>2019-09-14T09:42:48Z</time>
      </trkpt>
      <trkpt lat="45.99913" lon="6.44899">
        <ele>1959.3</ele>
        <time>2019-09-14T09:42:49Z</time>
      </trkpt>
      <trkpt lat="45.99913" lon="6.44897">
        <ele>1958.82</ele>
        <time>2019-09-14T09:42:51Z</time>
      </trkpt>
      <trkpt lat="45.99911" lon="6.44888">
        <ele>1954.5</ele>
        <time>2019-09-14T09:42:59Z</time>
      </trkpt>
      <trkpt lat="45.99911" lon="6.44887">
        <ele>1959.3</ele>
        <time>2019-09-14T09:43:00Z</time>
      </trkpt>
      <trkpt lat="45.9991" lon="6.44883">
        <ele>1955.46</ele>
        <time>2019-09-14T09:43:10Z</time>
      </trkpt>
      <trkpt lat="45.9991" lon="6.44882">
        <ele>1958.82</ele>
        <time>2019-09-14T09:43:13Z</time>
      </trkpt>
      <trkpt lat="45.9991" lon="6.44882">
        <ele>1955.94</ele>
        <time>2019-09-14T09:43:14Z</time>
      </trkpt>
      <trkpt lat="45.99911" lon="6.44879">
        <ele>1956.9</ele>
        <time>2019-09-14T09:43:25Z</time>
      </trkpt>
      <trkpt lat="45.99911" lon="6.44877">
        <ele>1948.25</ele>
        <time>2019-09-14T09:43:29Z</time>
      </trkpt>
      <trkpt lat="45.99911" lon="6.44875">
        <ele>1956.9</ele>
        <time>2019-09-14T09:43:30Z</time>
      </trkpt>
      <trkpt lat="45.9991" lon="6.44865">
        <ele>1953.54</ele>
        <time>2019-09-14T09:43:39Z</time>
      </trkpt>
      <trkpt lat="45.9991" lon="6.44858">
        <ele>1954.5</ele>
        <time>2019-09-14T09:43:50Z</time>
      </trkpt>
      <trkpt lat="45.9991" lon="6.44857">
        <ele>1950.65</ele>
        <time>2019-09-14T09:43:53Z</time>
      </trkpt>
      <trkpt lat="45.9991" lon="6.44856">
        <ele>1952.09</ele>
        <time>2019-09-14T09:43:54Z</time>
      </trkpt>
      <trkpt lat="45.9991" lon="6.44854">
        <ele>1954.02</ele>
        <time>2019-09-14T09:43:56Z</time>
      </trkpt>
      <trkpt lat="45.99909" lon="6.44853">
        <ele>1951.13</ele>
        <time>2019-09-14T09:43:57Z</time>
      </trkpt>
      <trkpt lat="45.99909" lon="6.44853">
        <ele>1954.5</ele>
        <time>2019-09-14T09:43:58Z</time>
      </trkpt>
      <trkpt lat="45.99909" lon="6.44851">
        <ele>1950.65</ele>
        <time>2019-09-14T09:44:04Z</time>
      </trkpt>
      <trkpt lat="45.9991" lon="6.44843">
        <ele>1948.73</ele>
        <time>2019-09-14T09:44:15Z</time>
      </trkpt>
      <trkpt lat="45.9991" lon="6.44841">
        <ele>1951.61</ele>
        <time>2019-09-14T09:44:16Z</time>
      </trkpt>
      <trkpt lat="45.9991" lon="6.44838">
        <ele>1946.81</ele>
        <time>2019-09-14T09:44:18Z</time>
      </trkpt>
      <trkpt lat="45.9991" lon="6.44836">
        <ele>1949.69</ele>
        <time>2019-09-14T09:44:19Z</time>
      </trkpt>
      <trkpt lat="45.99909" lon="6.44834">
        <ele>1950.65</ele>
        <time>2019-09-14T09:44:21Z</time>
      </trkpt>
      <trkpt lat="45.99908" lon="6.44829">
        <ele>1947.77</ele>
        <time>2019-09-14T09:44:26Z</time>
      </trkpt>
      <trkpt lat="45.99908" lon="6.44826">
        <ele>1951.13</ele>
        <time>2019-09-14T09:44:28Z</time>
      </trkpt>
      <trkpt lat="45.99908" lon="6.44822">
        <ele>1941.04</ele>
        <time>2019-09-14T09:44:31Z</time>
      </trkpt>
      <trkpt lat="45.99908" lon="6.44821">
        <ele>1949.69</ele>
        <time>2019-09-14T09:44:32Z</time>
      </trkpt>
      <trkpt lat="45.99908" lon="6.4482">
        <ele>1946.33</ele>
        <time>2019-09-14T09:44:35Z</time>
      </trkpt>
      <trkpt lat="45.99908" lon="6.44819">
        <ele>1949.21</ele>
        <time>2019-09-14T09:44:38Z</time>
      </trkpt>
      <trkpt lat="45.99908" lon="6.4481">
        <ele>1944.4</ele>
        <time>2019-09-14T09:44:46Z</time>
      </trkpt>
      <trkpt lat="45.99908" lon="6.44809">
        <ele>1948.73</ele>
        <time>2019-09-14T09:44:47Z</time>
      </trkpt>
      <trkpt lat="45.99908" lon="6.44804">
        <ele>1947.77</ele>
        <time>2019-09-14T09:44:58Z</time>
      </trkpt>
      <trkpt lat="45.99908" lon="6.44803">
        <ele>1947.77</ele>
        <time>2019-09-14T09:44:59Z</time>
      </trkpt>
      <trkpt lat="45.99908" lon="6.448">
        <ele>1944.4</ele>
        <time>2019-09-14T09:45:04Z</time>
      </trkpt>
      <trkpt lat="45.99909" lon="6.44795">
        <ele>1943.44</ele>
        <time>2019-09-14T09:45:13Z</time>
      </trkpt>
      <trkpt lat="45.99911" lon="6.44786">
        <ele>1942.48</ele>
        <time>2019-09-14T09:45:22Z</time>
      </trkpt>
      <trkpt lat="45.99911" lon="6.44784">
        <ele>1941.52</ele>
        <time>2019-09-14T09:45:27Z</time>
      </trkpt>
      <trkpt lat="45.9991" lon="6.44782">
        <ele>1941.04</ele>
        <time>2019-09-14T09:45:38Z</time>
      </trkpt>
      <trkpt lat="45.99911" lon="6.44777">
        <ele>1934.31</ele>
        <time>2019-09-14T09:45:47Z</time>
      </trkpt>
      <trkpt lat="45.99911" lon="6.44776">
        <ele>1941.52</ele>
        <time>2019-09-14T09:45:48Z</time>
      </trkpt>
      <trkpt lat="45.99911" lon="6.44774">
        <ele>1934.79</ele>
        <time>2019-09-14T09:45:50Z</time>
      </trkpt>
      <trkpt lat="45.99911" lon="6.44773">
        <ele>1940.08</ele>
        <time>2019-09-14T09:45:51Z</time>
      </trkpt>
      <trkpt lat="45.99912" lon="6.44768">
        <ele>1937.19</ele>
        <time>2019-09-14T09:45:55Z</time>
      </trkpt>
      <trkpt lat="45.99913" lon="6.44759">
        <ele>1935.27</ele>
        <time>2019-09-14T09:46:05Z</time>
      </trkpt>
      <trkpt lat="45.99912" lon="6.44752">
        <ele>1933.83</ele>
        <time>2019-09-14T09:46:10Z</time>
      </trkpt>
      <trkpt lat="45.99912" lon="6.44742">
        <ele>1929.98</ele>
        <time>2019-09-14T09:46:18Z</time>
      </trkpt>
      <trkpt lat="45.99909" lon="6.44736">
        <ele>1929.98</ele>
        <time>2019-09-14T09:46:23Z</time>
      </trkpt>
      <trkpt lat="45.99908" lon="6.44734">
        <ele>1936.23</ele>
        <time>2019-09-14T09:46:25Z</time>
      </trkpt>
      <trkpt lat="45.99908" lon="6.44732">
        <ele>1930.46</ele>
        <time>2019-09-14T09:46:26Z</time>
      </trkpt>
      <trkpt lat="45.99908" lon="6.44731">
        <ele>1934.79</ele>
        <time>2019-09-14T09:46:27Z</time>
      </trkpt>
      <trkpt lat="45.99907" lon="6.44728">
        <ele>1930.46</ele>
        <time>2019-09-14T09:46:30Z</time>
      </trkpt>
      <trkpt lat="45.99908" lon="6.44727">
        <ele>1933.35</ele>
        <time>2019-09-14T09:46:31Z</time>
      </trkpt>
      <trkpt lat="45.9991" lon="6.44715">
        <ele>1933.35</ele>
        <time>2019-09-14T09:46:41Z</time>
      </trkpt>
      <trkpt lat="45.99908" lon="6.44712">
        <ele>1929.02</ele>
        <time>2019-09-14T09:46:45Z</time>
      </trkpt>
      <trkpt lat="45.99908" lon="6.44712">
        <ele>1933.83</ele>
        <time>2019-09-14T09:46:46Z</time>
      </trkpt>
      <trkpt lat="45.99907" lon="6.44711">
        <ele>1930.46</ele>
        <time>2019-09-14T09:46:55Z</time>
      </trkpt>
      <trkpt lat="45.99907" lon="6.44711">
        <ele>1930.95</ele>
        <time>2019-09-14T09:46:56Z</time>
      </trkpt>
      <trkpt lat="45.99907" lon="6.44709">
        <ele>1935.75</ele>
        <time>2019-09-14T09:46:57Z</time>
      </trkpt>
      <trkpt lat="45.99907" lon="6.44709">
        <ele>1931.91</ele>
        <time>2019-09-14T09:46:58Z</time>
      </trkpt>
      <trkpt lat="45.99906" lon="6.44706">
        <ele>1935.75</ele>
        <time>2019-09-14T09:47:04Z</time>
      </trkpt>
      <trkpt lat="45.99906" lon="6.44705">
        <ele>1932.39</ele>
        <time>2019-09-14T09:47:07Z</time>
      </trkpt>
      <trkpt lat="45.99906" lon="6.44704">
        <ele>1935.27</ele>
        <time>2019-09-14T09:47:08Z</time>
      </trkpt>
      <trkpt lat="45.99906" lon="6.44702">
        <ele>1931.43</ele>
        <time>2019-09-14T09:47:16Z</time>
      </trkpt>
      <trkpt lat="45.99905" lon="6.44697">
        <ele>1933.35</ele>
        <time>2019-09-14T09:47:26Z</time>
      </trkpt>
      <trkpt lat="45.99904" lon="6.44694">
        <ele>1929.5</ele>
        <time>2019-09-14T09:47:32Z</time>
      </trkpt>
      <trkpt lat="45.99905" lon="6.44688">
        <ele>1927.1</ele>
        <time>2019-09-14T09:47:41Z</time>
      </trkpt>
      <trkpt lat="45.99904" lon="6.44685">
        <ele>1930.46</ele>
        <time>2019-09-14T09:47:44Z</time>
      </trkpt>
      <trkpt lat="45.99905" lon="6.44682">
        <ele>1927.58</ele>
        <time>2019-09-14T09:47:46Z</time>
      </trkpt>
      <trkpt lat="45.99905" lon="6.4468">
        <ele>1926.62</ele>
        <time>2019-09-14T09:47:47Z</time>
      </trkpt>
      <trkpt lat="45.99905" lon="6.44666">
        <ele>1925.66</ele>
        <time>2019-09-14T09:47:55Z</time>
      </trkpt>
      <trkpt lat="45.99903" lon="6.4466">
        <ele>1926.14</ele>
        <time>2019-09-14T09:48:01Z</time>
      </trkpt>
      <trkpt lat="45.999" lon="6.44654">
        <ele>1928.54</ele>
        <time>2019-09-14T09:48:10Z</time>
      </trkpt>
      <trkpt lat="45.999" lon="6.4465">
        <ele>1927.58</ele>
        <time>2019-09-14T09:48:19Z</time>
      </trkpt>
      <trkpt lat="45.99901" lon="6.44643">
        <ele>1929.5</ele>
        <time>2019-09-14T09:48:25Z</time>
      </trkpt>
      <trkpt lat="45.999" lon="6.44631">
        <ele>1928.06</ele>
        <time>2019-09-14T09:48:34Z</time>
      </trkpt>
      <trkpt lat="45.99899" lon="6.44629">
        <ele>1924.7</ele>
        <time>2019-09-14T09:48:36Z</time>
      </trkpt>
      <trkpt lat="45.99899" lon="6.44628">
        <ele>1929.02</ele>
        <time>2019-09-14T09:48:37Z</time>
      </trkpt>
      <trkpt lat="45.99898" lon="6.44626">
        <ele>1924.7</ele>
        <time>2019-09-14T09:48:39Z</time>
      </trkpt>
      <trkpt lat="45.99897" lon="6.44624">
        <ele>1929.98</ele>
        <time>2019-09-14T09:48:40Z</time>
      </trkpt>
      <trkpt lat="45.99893" lon="6.44614">
        <ele>1930.95</ele>
        <time>2019-09-14T09:48:50Z</time>
      </trkpt>
      <trkpt lat="45.99892" lon="6.44613">
        <ele>1930.95</ele>
        <time>2019-09-14T09:48:54Z</time>
      </trkpt>
      <trkpt lat="45.9989" lon="6.44611">
        <ele>1931.43</ele>
        <time>2019-09-14T09:48:56Z</time>
      </trkpt>
      <trkpt lat="45.99888" lon="6.44607">
        <ele>1932.39</ele>
        <time>2019-09-14T09:49:10Z</time>
      </trkpt>
      <trkpt lat="45.99886" lon="6.44602">
        <ele>1936.23</ele>
        <time>2019-09-14T09:49:18Z</time>
      </trkpt>
      <trkpt lat="45.99884" lon="6.446">
        <ele>1930.46</ele>
        <time>2019-09-14T09:49:21Z</time>
      </trkpt>
      <trkpt lat="45.99884" lon="6.44599">
        <ele>1935.75</ele>
        <time>2019-09-14T09:49:22Z</time>
      </trkpt>
      <trkpt lat="45.99884" lon="6.44598">
        <ele>1931.91</ele>
        <time>2019-09-14T09:49:23Z</time>
      </trkpt>
      <trkpt lat="45.99884" lon="6.44596">
        <ele>1935.27</ele>
        <time>2019-09-14T09:49:24Z</time>
      </trkpt>
      <trkpt lat="45.99883" lon="6.44585">
        <ele>1931.91</ele>
        <time>2019-09-14T09:49:37Z</time>
      </trkpt>
      <trkpt lat="45.99883" lon="6.44584">
        <ele>1936.23</ele>
        <time>2019-09-14T09:49:38Z</time>
      </trkpt>
      <trkpt lat="45.99881" lon="6.44579">
        <ele>1937.19</ele>
        <time>2019-09-14T09:49:49Z</time>
      </trkpt>
      <trkpt lat="45.99881" lon="6.44577">
        <ele>1938.16</ele>
        <time>2019-09-14T09:49:53Z</time>
      </trkpt>
      <trkpt lat="45.99882" lon="6.44574">
        <ele>1939.6</ele>
        <time>2019-09-14T09:50:03Z</time>
      </trkpt>
      <trkpt lat="45.99882" lon="6.44571">
        <ele>1940.56</ele>
        <time>2019-09-14T09:50:13Z</time>
      </trkpt>
      <trkpt lat="45.99884" lon="6.44565">
        <ele>1942.96</ele>
        <time>2019-09-14T09:50:24Z</time>
      </trkpt>
      <trkpt lat="45.99884" lon="6.44563">
        <ele>1941.04</ele>
        <time>2019-09-14T09:50:27Z</time>
      </trkpt>
      <trkpt lat="45.99884" lon="6.44562">
        <ele>1944.4</ele>
        <time>2019-09-14T09:50:28Z</time>
      </trkpt>
      <trkpt lat="45.99884" lon="6.44561">
        <ele>1941.04</ele>
        <time>2019-09-14T09:50:29Z</time>
      </trkpt>
      <trkpt lat="45.99883" lon="6.4456">
        <ele>1943.92</ele>
        <time>2019-09-14T09:50:30Z</time>
      </trkpt>
      <trkpt lat="45.99879" lon="6.44552">
        <ele>1941.52</ele>
        <time>2019-09-14T09:50:40Z</time>
      </trkpt>
      <trkpt lat="45.99878" lon="6.4455">
        <ele>1944.88</ele>
        <time>2019-09-14T09:50:44Z</time>
      </trkpt>
      <trkpt lat="45.99877" lon="6.44546">
        <ele>1942.48</ele>
        <time>2019-09-14T09:50:48Z</time>
      </trkpt>
      <trkpt lat="45.99876" lon="6.44539">
        <ele>1946.81</ele>
        <time>2019-09-14T09:50:54Z</time>
      </trkpt>
      <trkpt lat="45.99876" lon="6.44537">
        <ele>1945.36</ele>
        <time>2019-09-14T09:50:56Z</time>
      </trkpt>
      <trkpt lat="45.99876" lon="6.44532">
        <ele>1946.33</ele>
        <time>2019-09-14T09:51:00Z</time>
      </trkpt>
      <trkpt lat="45.99876" lon="6.44523">
        <ele>1946.81</ele>
        <time>2019-09-14T09:51:09Z</time>
      </trkpt>
      <trkpt lat="45.99878" lon="6.44512">
        <ele>1948.73</ele>
        <time>2019-09-14T09:51:21Z</time>
      </trkpt>
      <trkpt lat="45.99878" lon="6.44511">
        <ele>1948.73</ele>
        <time>2019-09-14T09:51:22Z</time>
      </trkpt>
      <trkpt lat="45.99877" lon="6.44507">
        <ele>1951.13</ele>
        <time>2019-09-14T09:51:25Z</time>
      </trkpt>
      <trkpt lat="45.99876" lon="6.44504">
        <ele>1950.65</ele>
        <time>2019-09-14T09:51:27Z</time>
      </trkpt>
      <trkpt lat="45.99875" lon="6.44494">
        <ele>1950.65</ele>
        <time>2019-09-14T09:51:36Z</time>
      </trkpt>
      <trkpt lat="45.99875" lon="6.44485">
        <ele>1951.13</ele>
        <time>2019-09-14T09:51:45Z</time>
      </trkpt>
      <trkpt lat="45.99874" lon="6.44482">
        <ele>1955.46</ele>
        <time>2019-09-14T09:51:48Z</time>
      </trkpt>
      <trkpt lat="45.99874" lon="6.44482">
        <ele>1951.13</ele>
        <time>2019-09-14T09:51:49Z</time>
      </trkpt>
      <trkpt lat="45.99874" lon="6.4448">
        <ele>1955.94</ele>
        <time>2019-09-14T09:51:51Z</time>
      </trkpt>
      <trkpt lat="45.99873" lon="6.44479">
        <ele>1952.09</ele>
        <time>2019-09-14T09:51:52Z</time>
      </trkpt>
      <trkpt lat="45.99874" lon="6.44478">
        <ele>1955.46</ele>
        <time>2019-09-14T09:51:54Z</time>
      </trkpt>
      <trkpt lat="45.99875" lon="6.44471">
        <ele>1952.09</ele>
        <time>2019-09-14T09:52:03Z</time>
      </trkpt>
      <trkpt lat="45.99876" lon="6.44469">
        <ele>1950.17</ele>
        <time>2019-09-14T09:52:13Z</time>
      </trkpt>
      <trkpt lat="45.99876" lon="6.44469">
        <ele>1953.54</ele>
        <time>2019-09-14T09:52:15Z</time>
      </trkpt>
      <trkpt lat="45.99877" lon="6.44469">
        <ele>1952.09</ele>
        <time>2019-09-14T09:52:33Z</time>
      </trkpt>
      <trkpt lat="45.99878" lon="6.44469">
        <ele>1954.02</ele>
        <time>2019-09-14T09:52:52Z</time>
      </trkpt>
      <trkpt lat="45.99878" lon="6.44469">
        <ele>1950.17</ele>
        <time>2019-09-14T09:52:54Z</time>
      </trkpt>
      <trkpt lat="45.99878" lon="6.44469">
        <ele>1954.02</ele>
        <time>2019-09-14T09:52:55Z</time>
      </trkpt>
      <trkpt lat="45.99878" lon="6.44468">
        <ele>1950.17</ele>
        <time>2019-09-14T09:53:12Z</time>
      </trkpt>
      <trkpt lat="45.99878" lon="6.44467">
        <ele>1954.02</ele>
        <time>2019-09-14T09:53:13Z</time>
      </trkpt>
      <trkpt lat="45.99879" lon="6.44465">
        <ele>1953.06</ele>
        <time>2019-09-14T09:53:32Z</time>
      </trkpt>
      <trkpt lat="45.9988" lon="6.44464">
        <ele>1952.09</ele>
        <time>2019-09-14T09:53:42Z</time>
      </trkpt>
      <trkpt lat="45.9988" lon="6.44464">
        <ele>1952.57</ele>
        <time>2019-09-14T09:53:55Z</time>
      </trkpt>
      <trkpt lat="45.99881" lon="6.44463">
        <ele>1952.57</ele>
        <time>2019-09-14T09:54:08Z</time>
      </trkpt>
      <trkpt lat="45.99881" lon="6.44463">
        <ele>1953.06</ele>
        <time>2019-09-14T09:54:27Z</time>
      </trkpt>
      <trkpt lat="45.99881" lon="6.44463">
        <ele>1952.57</ele>
        <time>2019-09-14T09:54:50Z</time>
      </trkpt>
      <trkpt lat="45.99881" lon="6.44463">
        <ele>1955.94</ele>
        <time>2019-09-14T09:55:01Z</time>
      </trkpt>
      <trkpt lat="45.99881" lon="6.44463">
        <ele>1953.06</ele>
        <time>2019-09-14T09:55:02Z</time>
      </trkpt>
      <trkpt lat="45.99881" lon="6.44462">
        <ele>1953.06</ele>
        <time>2019-09-14T09:55:22Z</time>
      </trkpt>
      <trkpt lat="45.99881" lon="6.44462">
        <ele>1951.13</ele>
        <time>2019-09-14T09:55:43Z</time>
      </trkpt>
      <trkpt lat="45.99881" lon="6.44462">
        <ele>1953.06</ele>
        <time>2019-09-14T09:56:06Z</time>
      </trkpt>
      <trkpt lat="45.99881" lon="6.44462">
        <ele>1952.57</ele>
        <time>2019-09-14T09:56:25Z</time>
      </trkpt>
      <trkpt lat="45.99881" lon="6.44462">
        <ele>1952.57</ele>
        <time>2019-09-14T09:56:50Z</time>
      </trkpt>
      <trkpt lat="45.99881" lon="6.44462">
        <ele>1952.57</ele>
        <time>2019-09-14T09:57:12Z</time>
      </trkpt>
      <trkpt lat="45.99882" lon="6.44462">
        <ele>1951.61</ele>
        <time>2019-09-14T09:57:24Z</time>
      </trkpt>
      <trkpt lat="45.99881" lon="6.44462">
        <ele>1951.13</ele>
        <time>2019-09-14T09:57:36Z</time>
      </trkpt>
      <trkpt lat="45.99882" lon="6.44461">
        <ele>1952.09</ele>
        <time>2019-09-14T09:57:38Z</time>
      </trkpt>
      <trkpt lat="45.99882" lon="6.44461">
        <ele>1950.65</ele>
        <time>2019-09-14T09:57:53Z</time>
      </trkpt>
      <trkpt lat="45.99882" lon="6.4446">
        <ele>1950.65</ele>
        <time>2019-09-14T09:57:54Z</time>
      </trkpt>
      <trkpt lat="45.99877" lon="6.44461">
        <ele>1944.88</ele>
        <time>2019-09-14T09:58:03Z</time>
      </trkpt>
      <trkpt lat="45.99877" lon="6.44462">
        <ele>1953.54</ele>
        <time>2019-09-14T09:58:04Z</time>
      </trkpt>
      <trkpt lat="45.99876" lon="6.44462">
        <ele>1950.65</ele>
        <time>2019-09-14T09:58:05Z</time>
      </trkpt>
      <trkpt lat="45.99874" lon="6.44463">
        <ele>1948.73</ele>
        <time>2019-09-14T09:58:08Z</time>
      </trkpt>
      <trkpt lat="45.99874" lon="6.44463">
        <ele>1949.21</ele>
        <time>2019-09-14T09:58:18Z</time>
      </trkpt>
      <trkpt lat="45.99874" lon="6.44458">
        <ele>1946.33</ele>
        <time>2019-09-14T09:58:26Z</time>
      </trkpt>
      <trkpt lat="45.99876" lon="6.44455">
        <ele>1944.4</ele>
        <time>2019-09-14T09:58:29Z</time>
      </trkpt>
      <trkpt lat="45.9988" lon="6.44444">
        <ele>1940.56</ele>
        <time>2019-09-14T09:58:41Z</time>
      </trkpt>
      <trkpt lat="45.9988" lon="6.44443">
        <ele>1941.04</ele>
        <time>2019-09-14T09:58:42Z</time>
      </trkpt>
      <trkpt lat="45.9988" lon="6.44437">
        <ele>1941.04</ele>
        <time>2019-09-14T09:58:50Z</time>
      </trkpt>
      <trkpt lat="45.99879" lon="6.44433">
        <ele>1937.67</ele>
        <time>2019-09-14T09:58:53Z</time>
      </trkpt>
      <trkpt lat="45.99877" lon="6.44433">
        <ele>1938.64</ele>
        <time>2019-09-14T09:58:55Z</time>
      </trkpt>
      <trkpt lat="45.99874" lon="6.44434">
        <ele>1936.23</ele>
        <time>2019-09-14T09:59:00Z</time>
      </trkpt>
      <trkpt lat="45.99872" lon="6.44435">
        <ele>1935.75</ele>
        <time>2019-09-14T09:59:02Z</time>
      </trkpt>
      <trkpt lat="45.99865" lon="6.44438">
        <ele>1931.43</ele>
        <time>2019-09-14T09:59:11Z</time>
      </trkpt>
      <trkpt lat="45.99863" lon="6.44437">
        <ele>1933.35</ele>
        <time>2019-09-14T09:59:17Z</time>
      </trkpt>
      <trkpt lat="45.99855" lon="6.44441">
        <ele>1926.62</ele>
        <time>2019-09-14T09:59:24Z</time>
      </trkpt>
      <trkpt lat="45.99854" lon="6.44443">
        <ele>1929.5</ele>
        <time>2019-09-14T09:59:25Z</time>
      </trkpt>
      <trkpt lat="45.99852" lon="6.44446">
        <ele>1930.46</ele>
        <time>2019-09-14T09:59:27Z</time>
      </trkpt>
      <trkpt lat="45.99849" lon="6.4445">
        <ele>1929.5</ele>
        <time>2019-09-14T09:59:31Z</time>
      </trkpt>
      <trkpt lat="45.99844" lon="6.44454">
        <ele>1926.14</ele>
        <time>2019-09-14T09:59:37Z</time>
      </trkpt>
      <trkpt lat="45.99843" lon="6.44455">
        <ele>1929.5</ele>
        <time>2019-09-14T09:59:38Z</time>
      </trkpt>
      <trkpt lat="45.9984" lon="6.44458">
        <ele>1925.18</ele>
        <time>2019-09-14T09:59:42Z</time>
      </trkpt>
      <trkpt lat="45.99835" lon="6.44462">
        <ele>1929.02</ele>
        <time>2019-09-14T09:59:47Z</time>
      </trkpt>
      <trkpt lat="45.99834" lon="6.44463">
        <ele>1924.22</ele>
        <time>2019-09-14T09:59:48Z</time>
      </trkpt>
      <trkpt lat="45.99832" lon="6.44467">
        <ele>1926.62</ele>
        <time>2019-09-14T09:59:52Z</time>
      </trkpt>
      <trkpt lat="45.99826" lon="6.4447">
        <ele>1923.25</ele>
        <time>2019-09-14T09:59:58Z</time>
      </trkpt>
      <trkpt lat="45.99824" lon="6.44471">
        <ele>1925.66</ele>
        <time>2019-09-14T10:00:01Z</time>
      </trkpt>
      <trkpt lat="45.99822" lon="6.44473">
        <ele>1920.37</ele>
        <time>2019-09-14T10:00:03Z</time>
      </trkpt>
      <trkpt lat="45.9982" lon="6.44477">
        <ele>1924.22</ele>
        <time>2019-09-14T10:00:06Z</time>
      </trkpt>
      <trkpt lat="45.99819" lon="6.44478">
        <ele>1923.74</ele>
        <time>2019-09-14T10:00:07Z</time>
      </trkpt>
      <trkpt lat="45.99819" lon="6.44479">
        <ele>1922.77</ele>
        <time>2019-09-14T10:00:09Z</time>
      </trkpt>
      <trkpt lat="45.99816" lon="6.44481">
        <ele>1920.37</ele>
        <time>2019-09-14T10:00:16Z</time>
      </trkpt>
      <trkpt lat="45.99815" lon="6.44479">
        <ele>1920.37</ele>
        <time>2019-09-14T10:00:22Z</time>
      </trkpt>
      <trkpt lat="45.99815" lon="6.44477">
        <ele>1918.45</ele>
        <time>2019-09-14T10:00:24Z</time>
      </trkpt>
      <trkpt lat="45.9981" lon="6.44471">
        <ele>1916.04</ele>
        <time>2019-09-14T10:00:32Z</time>
      </trkpt>
      <trkpt lat="45.99807" lon="6.44467">
        <ele>1914.6</ele>
        <time>2019-09-14T10:00:38Z</time>
      </trkpt>
      <trkpt lat="45.99805" lon="6.44467">
        <ele>1913.64</ele>
        <time>2019-09-14T10:00:40Z</time>
      </trkpt>
      <trkpt lat="45.99802" lon="6.44468">
        <ele>1913.64</ele>
        <time>2019-09-14T10:00:44Z</time>
      </trkpt>
      <trkpt lat="45.998" lon="6.44469">
        <ele>1910.28</ele>
        <time>2019-09-14T10:00:46Z</time>
      </trkpt>
      <trkpt lat="45.998" lon="6.44469">
        <ele>1914.6</ele>
        <time>2019-09-14T10:00:47Z</time>
      </trkpt>
      <trkpt lat="45.99798" lon="6.44464">
        <ele>1909.8</ele>
        <time>2019-09-14T10:00:54Z</time>
      </trkpt>
      <trkpt lat="45.99798" lon="6.44463">
        <ele>1911.24</ele>
        <time>2019-09-14T10:01:07Z</time>
      </trkpt>
      <trkpt lat="45.99798" lon="6.44463">
        <ele>1907.87</ele>
        <time>2019-09-14T10:01:15Z</time>
      </trkpt>
      <trkpt lat="45.99797" lon="6.44463">
        <ele>1913.16</ele>
        <time>2019-09-14T10:01:16Z</time>
      </trkpt>
      <trkpt lat="45.99797" lon="6.44463">
        <ele>1910.28</ele>
        <time>2019-09-14T10:01:17Z</time>
      </trkpt>
      <trkpt lat="45.99796" lon="6.44462">
        <ele>1911.24</ele>
        <time>2019-09-14T10:01:24Z</time>
      </trkpt>
      <trkpt lat="45.99795" lon="6.44461">
        <ele>1909.8</ele>
        <time>2019-09-14T10:01:26Z</time>
      </trkpt>
      <trkpt lat="45.99793" lon="6.44459">
        <ele>1911.24</ele>
        <time>2019-09-14T10:01:28Z</time>
      </trkpt>
      <trkpt lat="45.9979" lon="6.44453">
        <ele>1908.83</ele>
        <time>2019-09-14T10:01:33Z</time>
      </trkpt>
      <trkpt lat="45.99784" lon="6.4445">
        <ele>1906.91</ele>
        <time>2019-09-14T10:01:39Z</time>
      </trkpt>
      <trkpt lat="45.99783" lon="6.44448">
        <ele>1906.43</ele>
        <time>2019-09-14T10:01:41Z</time>
      </trkpt>
      <trkpt lat="45.99777" lon="6.44444">
        <ele>1902.11</ele>
        <time>2019-09-14T10:01:49Z</time>
      </trkpt>
      <trkpt lat="45.99773" lon="6.44439">
        <ele>1901.63</ele>
        <time>2019-09-14T10:01:56Z</time>
      </trkpt>
      <trkpt lat="45.9977" lon="6.44436">
        <ele>1902.11</ele>
        <time>2019-09-14T10:02:00Z</time>
      </trkpt>
      <trkpt lat="45.99767" lon="6.44435">
        <ele>1903.07</ele>
        <time>2019-09-14T10:02:02Z</time>
      </trkpt>
      <trkpt lat="45.99763" lon="6.44434">
        <ele>1898.74</ele>
        <time>2019-09-14T10:02:07Z</time>
      </trkpt>
      <trkpt lat="45.99763" lon="6.44433">
        <ele>1897.78</ele>
        <time>2019-09-14T10:02:08Z</time>
      </trkpt>
      <trkpt lat="45.9976" lon="6.44432">
        <ele>1899.7</ele>
        <time>2019-09-14T10:02:11Z</time>
      </trkpt>
      <trkpt lat="45.99759" lon="6.44431">
        <ele>1897.3</ele>
        <time>2019-09-14T10:02:13Z</time>
      </trkpt>
      <trkpt lat="45.99749" lon="6.44426">
        <ele>1895.38</ele>
        <time>2019-09-14T10:02:24Z</time>
      </trkpt>
      <trkpt lat="45.99746" lon="6.44426">
        <ele>1897.3</ele>
        <time>2019-09-14T10:02:27Z</time>
      </trkpt>
      <trkpt lat="45.99743" lon="6.44427">
        <ele>1895.38</ele>
        <time>2019-09-14T10:02:29Z</time>
      </trkpt>
      <trkpt lat="45.99741" lon="6.44427">
        <ele>1892.01</ele>
        <time>2019-09-14T10:02:31Z</time>
      </trkpt>
      <trkpt lat="45.99739" lon="6.44427">
        <ele>1896.34</ele>
        <time>2019-09-14T10:02:33Z</time>
      </trkpt>
      <trkpt lat="45.99727" lon="6.44424">
        <ele>1892.01</ele>
        <time>2019-09-14T10:02:44Z</time>
      </trkpt>
      <trkpt lat="45.99724" lon="6.44425">
        <ele>1888.65</ele>
        <time>2019-09-14T10:02:46Z</time>
      </trkpt>
      <trkpt lat="45.99723" lon="6.44426">
        <ele>1891.53</ele>
        <time>2019-09-14T10:02:47Z</time>
      </trkpt>
      <trkpt lat="45.99722" lon="6.44426">
        <ele>1890.57</ele>
        <time>2019-09-14T10:02:48Z</time>
      </trkpt>
      <trkpt lat="45.99718" lon="6.44424">
        <ele>1888.65</ele>
        <time>2019-09-14T10:02:52Z</time>
      </trkpt>
      <trkpt lat="45.99716" lon="6.44423">
        <ele>1892.49</ele>
        <time>2019-09-14T10:02:54Z</time>
      </trkpt>
      <trkpt lat="45.99715" lon="6.44422">
        <ele>1888.17</ele>
        <time>2019-09-14T10:02:55Z</time>
      </trkpt>
      <trkpt lat="45.99712" lon="6.4442">
        <ele>1891.53</ele>
        <time>2019-09-14T10:02:58Z</time>
      </trkpt>
      <trkpt lat="45.99709" lon="6.44418">
        <ele>1888.17</ele>
        <time>2019-09-14T10:03:00Z</time>
      </trkpt>
      <trkpt lat="45.99708" lon="6.44418">
        <ele>1888.17</ele>
        <time>2019-09-14T10:03:01Z</time>
      </trkpt>
      <trkpt lat="45.99701" lon="6.44414">
        <ele>1890.09</ele>
        <time>2019-09-14T10:03:09Z</time>
      </trkpt>
      <trkpt lat="45.997" lon="6.44412">
        <ele>1887.21</ele>
        <time>2019-09-14T10:03:11Z</time>
      </trkpt>
      <trkpt lat="45.99696" lon="6.4441">
        <ele>1888.65</ele>
        <time>2019-09-14T10:03:14Z</time>
      </trkpt>
      <trkpt lat="45.99694" lon="6.44409">
        <ele>1884.8</ele>
        <time>2019-09-14T10:03:16Z</time>
      </trkpt>
      <trkpt lat="45.99693" lon="6.44409">
        <ele>1887.21</ele>
        <time>2019-09-14T10:03:17Z</time>
      </trkpt>
      <trkpt lat="45.9969" lon="6.44407">
        <ele>1889.13</ele>
        <time>2019-09-14T10:03:20Z</time>
      </trkpt>
      <trkpt lat="45.99687" lon="6.44408">
        <ele>1883.84</ele>
        <time>2019-09-14T10:03:22Z</time>
      </trkpt>
      <trkpt lat="45.99686" lon="6.44408">
        <ele>1885.76</ele>
        <time>2019-09-14T10:03:23Z</time>
      </trkpt>
      <trkpt lat="45.99682" lon="6.44407">
        <ele>1889.13</ele>
        <time>2019-09-14T10:03:27Z</time>
      </trkpt>
      <trkpt lat="45.99681" lon="6.44407">
        <ele>1884.8</ele>
        <time>2019-09-14T10:03:28Z</time>
      </trkpt>
      <trkpt lat="45.9968" lon="6.44406">
        <ele>1883.36</ele>
        <time>2019-09-14T10:03:29Z</time>
      </trkpt>
      <trkpt lat="45.99676" lon="6.44406">
        <ele>1889.61</ele>
        <time>2019-09-14T10:03:32Z</time>
      </trkpt>
      <trkpt lat="45.99674" lon="6.44406">
        <ele>1885.76</ele>
        <time>2019-09-14T10:03:33Z</time>
      </trkpt>
      <trkpt lat="45.99664" lon="6.44401">
        <ele>1882.88</ele>
        <time>2019-09-14T10:03:44Z</time>
      </trkpt>
      <trkpt lat="45.99661" lon="6.44396">
        <ele>1882.4</ele>
        <time>2019-09-14T10:03:50Z</time>
      </trkpt>
      <trkpt lat="45.99659" lon="6.44395">
        <ele>1880.96</ele>
        <time>2019-09-14T10:03:54Z</time>
      </trkpt>
      <trkpt lat="45.99655" lon="6.44397">
        <ele>1877.59</ele>
        <time>2019-09-14T10:03:57Z</time>
      </trkpt>
      <trkpt lat="45.99655" lon="6.44397">
        <ele>1878.07</ele>
        <time>2019-09-14T10:03:58Z</time>
      </trkpt>
      <trkpt lat="45.99651" lon="6.44394">
        <ele>1878.55</ele>
        <time>2019-09-14T10:04:03Z</time>
      </trkpt>
      <trkpt lat="45.99648" lon="6.44394">
        <ele>1874.71</ele>
        <time>2019-09-14T10:04:08Z</time>
      </trkpt>
      <trkpt lat="45.99646" lon="6.44394">
        <ele>1875.67</ele>
        <time>2019-09-14T10:04:10Z</time>
      </trkpt>
      <trkpt lat="45.99643" lon="6.44393">
        <ele>1874.71</ele>
        <time>2019-09-14T10:04:12Z</time>
      </trkpt>
      <trkpt lat="45.9964" lon="6.44392">
        <ele>1873.27</ele>
        <time>2019-09-14T10:04:15Z</time>
      </trkpt>
      <trkpt lat="45.99637" lon="6.44392">
        <ele>1875.67</ele>
        <time>2019-09-14T10:04:18Z</time>
      </trkpt>
      <trkpt lat="45.99633" lon="6.44389">
        <ele>1869.9</ele>
        <time>2019-09-14T10:04:22Z</time>
      </trkpt>
      <trkpt lat="45.99629" lon="6.44387">
        <ele>1873.27</ele>
        <time>2019-09-14T10:04:25Z</time>
      </trkpt>
      <trkpt lat="45.99624" lon="6.44385">
        <ele>1869.9</ele>
        <time>2019-09-14T10:04:30Z</time>
      </trkpt>
      <trkpt lat="45.9962" lon="6.4438">
        <ele>1867.02</ele>
        <time>2019-09-14T10:04:37Z</time>
      </trkpt>
      <trkpt lat="45.99619" lon="6.44379">
        <ele>1870.86</ele>
        <time>2019-09-14T10:04:38Z</time>
      </trkpt>
      <trkpt lat="45.99617" lon="6.44378">
        <ele>1867.98</ele>
        <time>2019-09-14T10:04:40Z</time>
      </trkpt>
      <trkpt lat="45.99617" lon="6.44378">
        <ele>1869.9</ele>
        <time>2019-09-14T10:04:41Z</time>
      </trkpt>
      <trkpt lat="45.99615" lon="6.44377">
        <ele>1868.94</ele>
        <time>2019-09-14T10:04:44Z</time>
      </trkpt>
      <trkpt lat="45.99611" lon="6.44375">
        <ele>1867.5</ele>
        <time>2019-09-14T10:04:49Z</time>
      </trkpt>
      <trkpt lat="45.99608" lon="6.44374">
        <ele>1866.06</ele>
        <time>2019-09-14T10:04:52Z</time>
      </trkpt>
      <trkpt lat="45.99606" lon="6.44372">
        <ele>1866.06</ele>
        <time>2019-09-14T10:04:55Z</time>
      </trkpt>
      <trkpt lat="45.99602" lon="6.44368">
        <ele>1863.65</ele>
        <time>2019-09-14T10:04:59Z</time>
      </trkpt>
      <trkpt lat="45.99596" lon="6.44367">
        <ele>1862.69</ele>
        <time>2019-09-14T10:05:05Z</time>
      </trkpt>
      <trkpt lat="45.99589" lon="6.44363">
        <ele>1861.25</ele>
        <time>2019-09-14T10:05:11Z</time>
      </trkpt>
      <trkpt lat="45.99588" lon="6.44363">
        <ele>1861.25</ele>
        <time>2019-09-14T10:05:12Z</time>
      </trkpt>
      <trkpt lat="45.99585" lon="6.44362">
        <ele>1865.58</ele>
        <time>2019-09-14T10:05:14Z</time>
      </trkpt>
      <trkpt lat="45.99584" lon="6.44361">
        <ele>1865.58</ele>
        <time>2019-09-14T10:05:15Z</time>
      </trkpt>
      <trkpt lat="45.99581" lon="6.4436">
        <ele>1860.29</ele>
        <time>2019-09-14T10:05:17Z</time>
      </trkpt>
      <trkpt lat="45.9958" lon="6.4436">
        <ele>1863.65</ele>
        <time>2019-09-14T10:05:18Z</time>
      </trkpt>
      <trkpt lat="45.99571" lon="6.4436">
        <ele>1863.65</ele>
        <time>2019-09-14T10:05:27Z</time>
      </trkpt>
      <trkpt lat="45.9957" lon="6.4436">
        <ele>1862.21</ele>
        <time>2019-09-14T10:05:28Z</time>
      </trkpt>
      <trkpt lat="45.99564" lon="6.44362">
        <ele>1861.73</ele>
        <time>2019-09-14T10:05:33Z</time>
      </trkpt>
      <trkpt lat="45.99559" lon="6.44362">
        <ele>1857.4</ele>
        <time>2019-09-14T10:05:38Z</time>
      </trkpt>
      <trkpt lat="45.99558" lon="6.44362">
        <ele>1861.25</ele>
        <time>2019-09-14T10:05:39Z</time>
      </trkpt>
      <trkpt lat="45.99555" lon="6.44361">
        <ele>1857.89</ele>
        <time>2019-09-14T10:05:42Z</time>
      </trkpt>
      <trkpt lat="45.99547" lon="6.44356">
        <ele>1856.44</ele>
        <time>2019-09-14T10:05:53Z</time>
      </trkpt>
      <trkpt lat="45.99544" lon="6.4435">
        <ele>1856.92</ele>
        <time>2019-09-14T10:06:03Z</time>
      </trkpt>
      <trkpt lat="45.99543" lon="6.44348">
        <ele>1853.56</ele>
        <time>2019-09-14T10:06:13Z</time>
      </trkpt>
      <trkpt lat="45.9954" lon="6.44346">
        <ele>1852.6</ele>
        <time>2019-09-14T10:06:18Z</time>
      </trkpt>
      <trkpt lat="45.99538" lon="6.44344">
        <ele>1851.64</ele>
        <time>2019-09-14T10:06:23Z</time>
      </trkpt>
      <trkpt lat="45.99536" lon="6.4434">
        <ele>1851.16</ele>
        <time>2019-09-14T10:06:27Z</time>
      </trkpt>
      <trkpt lat="45.99532" lon="6.44338">
        <ele>1849.71</ele>
        <time>2019-09-14T10:06:32Z</time>
      </trkpt>
      <trkpt lat="45.99527" lon="6.44335">
        <ele>1848.27</ele>
        <time>2019-09-14T10:06:37Z</time>
      </trkpt>
      <trkpt lat="45.99526" lon="6.44333">
        <ele>1846.83</ele>
        <time>2019-09-14T10:06:39Z</time>
      </trkpt>
      <trkpt lat="45.99519" lon="6.44331">
        <ele>1842.98</ele>
        <time>2019-09-14T10:06:46Z</time>
      </trkpt>
      <trkpt lat="45.99511" lon="6.44326">
        <ele>1842.5</ele>
        <time>2019-09-14T10:06:57Z</time>
      </trkpt>
      <trkpt lat="45.99509" lon="6.44326">
        <ele>1840.58</ele>
        <time>2019-09-14T10:07:00Z</time>
      </trkpt>
      <trkpt lat="45.99505" lon="6.44324">
        <ele>1838.66</ele>
        <time>2019-09-14T10:07:04Z</time>
      </trkpt>
      <trkpt lat="45.99501" lon="6.44323">
        <ele>1839.14</ele>
        <time>2019-09-14T10:07:07Z</time>
      </trkpt>
      <trkpt lat="45.99494" lon="6.44322">
        <ele>1836.74</ele>
        <time>2019-09-14T10:07:16Z</time>
      </trkpt>
      <trkpt lat="45.99488" lon="6.44319">
        <ele>1833.85</ele>
        <time>2019-09-14T10:07:21Z</time>
      </trkpt>
      <trkpt lat="45.99486" lon="6.4432">
        <ele>1832.41</ele>
        <time>2019-09-14T10:07:28Z</time>
      </trkpt>
      <trkpt lat="45.99484" lon="6.4432">
        <ele>1833.37</ele>
        <time>2019-09-14T10:07:31Z</time>
      </trkpt>
      <trkpt lat="45.99475" lon="6.44322">
        <ele>1831.93</ele>
        <time>2019-09-14T10:07:40Z</time>
      </trkpt>
      <trkpt lat="45.99474" lon="6.44321">
        <ele>1832.89</ele>
        <time>2019-09-14T10:07:41Z</time>
      </trkpt>
      <trkpt lat="45.99472" lon="6.44319">
        <ele>1831.93</ele>
        <time>2019-09-14T10:07:44Z</time>
      </trkpt>
      <trkpt lat="45.99465" lon="6.44314">
        <ele>1827.12</ele>
        <time>2019-09-14T10:07:54Z</time>
      </trkpt>
      <trkpt lat="45.99464" lon="6.4431">
        <ele>1827.6</ele>
        <time>2019-09-14T10:07:57Z</time>
      </trkpt>
      <trkpt lat="45.99459" lon="6.4431">
        <ele>1829.53</ele>
        <time>2019-09-14T10:08:01Z</time>
      </trkpt>
      <trkpt lat="45.99457" lon="6.44311">
        <ele>1829.05</ele>
        <time>2019-09-14T10:08:02Z</time>
      </trkpt>
      <trkpt lat="45.99456" lon="6.44311">
        <ele>1825.68</ele>
        <time>2019-09-14T10:08:03Z</time>
      </trkpt>
      <trkpt lat="45.99453" lon="6.44312">
        <ele>1829.05</ele>
        <time>2019-09-14T10:08:05Z</time>
      </trkpt>
      <trkpt lat="45.99452" lon="6.44312">
        <ele>1827.6</ele>
        <time>2019-09-14T10:08:06Z</time>
      </trkpt>
      <trkpt lat="45.99449" lon="6.44312">
        <ele>1828.56</ele>
        <time>2019-09-14T10:08:09Z</time>
      </trkpt>
      <trkpt lat="45.9944" lon="6.44314">
        <ele>1828.56</ele>
        <time>2019-09-14T10:08:18Z</time>
      </trkpt>
      <trkpt lat="45.99439" lon="6.44314">
        <ele>1825.2</ele>
        <time>2019-09-14T10:08:19Z</time>
      </trkpt>
      <trkpt lat="45.99433" lon="6.44315">
        <ele>1823.76</ele>
        <time>2019-09-14T10:08:25Z</time>
      </trkpt>
      <trkpt lat="45.99429" lon="6.44315">
        <ele>1824.72</ele>
        <time>2019-09-14T10:08:30Z</time>
      </trkpt>
      <trkpt lat="45.99426" lon="6.44314">
        <ele>1820.39</ele>
        <time>2019-09-14T10:08:34Z</time>
      </trkpt>
      <trkpt lat="45.99423" lon="6.44313">
        <ele>1820.39</ele>
        <time>2019-09-14T10:08:37Z</time>
      </trkpt>
      <trkpt lat="45.99422" lon="6.44313">
        <ele>1820.87</ele>
        <time>2019-09-14T10:08:38Z</time>
      </trkpt>
      <trkpt lat="45.9942" lon="6.44313">
        <ele>1824.24</ele>
        <time>2019-09-14T10:08:40Z</time>
      </trkpt>
      <trkpt lat="45.99418" lon="6.44313">
        <ele>1821.35</ele>
        <time>2019-09-14T10:08:42Z</time>
      </trkpt>
      <trkpt lat="45.99415" lon="6.44313">
        <ele>1825.68</ele>
        <time>2019-09-14T10:08:44Z</time>
      </trkpt>
      <trkpt lat="45.99414" lon="6.44312">
        <ele>1821.35</ele>
        <time>2019-09-14T10:08:45Z</time>
      </trkpt>
      <trkpt lat="45.99408" lon="6.4431">
        <ele>1822.8</ele>
        <time>2019-09-14T10:08:50Z</time>
      </trkpt>
      <trkpt lat="45.99407" lon="6.4431">
        <ele>1819.91</ele>
        <time>2019-09-14T10:08:51Z</time>
      </trkpt>
      <trkpt lat="45.99405" lon="6.44309">
        <ele>1823.76</ele>
        <time>2019-09-14T10:08:53Z</time>
      </trkpt>
      <trkpt lat="45.99402" lon="6.44308">
        <ele>1819.43</ele>
        <time>2019-09-14T10:08:56Z</time>
      </trkpt>
      <trkpt lat="45.99401" lon="6.44308">
        <ele>1822.32</ele>
        <time>2019-09-14T10:08:57Z</time>
      </trkpt>
      <trkpt lat="45.99396" lon="6.44306">
        <ele>1821.35</ele>
        <time>2019-09-14T10:09:02Z</time>
      </trkpt>
      <trkpt lat="45.99383" lon="6.44301">
        <ele>1817.51</ele>
        <time>2019-09-14T10:09:13Z</time>
      </trkpt>
      <trkpt lat="45.9938" lon="6.443">
        <ele>1821.35</ele>
        <time>2019-09-14T10:09:16Z</time>
      </trkpt>
      <trkpt lat="45.99378" lon="6.443">
        <ele>1816.07</ele>
        <time>2019-09-14T10:09:18Z</time>
      </trkpt>
      <trkpt lat="45.99376" lon="6.443">
        <ele>1819.91</ele>
        <time>2019-09-14T10:09:19Z</time>
      </trkpt>
      <trkpt lat="45.9937" lon="6.44298">
        <ele>1816.07</ele>
        <time>2019-09-14T10:09:24Z</time>
      </trkpt>
      <trkpt lat="45.99368" lon="6.44297">
        <ele>1819.91</ele>
        <time>2019-09-14T10:09:26Z</time>
      </trkpt>
      <trkpt lat="45.99366" lon="6.44296">
        <ele>1819.43</ele>
        <time>2019-09-14T10:09:27Z</time>
      </trkpt>
      <trkpt lat="45.99365" lon="6.44296">
        <ele>1815.59</ele>
        <time>2019-09-14T10:09:28Z</time>
      </trkpt>
      <trkpt lat="45.99364" lon="6.44295">
        <ele>1817.51</ele>
        <time>2019-09-14T10:09:29Z</time>
      </trkpt>
      <trkpt lat="45.99362" lon="6.44293">
        <ele>1819.43</ele>
        <time>2019-09-14T10:09:31Z</time>
      </trkpt>
      <trkpt lat="45.99361" lon="6.44293">
        <ele>1816.07</ele>
        <time>2019-09-14T10:09:32Z</time>
      </trkpt>
      <trkpt lat="45.9936" lon="6.44293">
        <ele>1817.99</ele>
        <time>2019-09-14T10:09:33Z</time>
      </trkpt>
      <trkpt lat="45.99355" lon="6.44291">
        <ele>1814.63</ele>
        <time>2019-09-14T10:09:38Z</time>
      </trkpt>
      <trkpt lat="45.99354" lon="6.4429">
        <ele>1817.03</ele>
        <time>2019-09-14T10:09:39Z</time>
      </trkpt>
      <trkpt lat="45.99352" lon="6.44289">
        <ele>1818.95</ele>
        <time>2019-09-14T10:09:41Z</time>
      </trkpt>
      <trkpt lat="45.99348" lon="6.44287">
        <ele>1818.95</ele>
        <time>2019-09-14T10:09:45Z</time>
      </trkpt>
      <trkpt lat="45.99346" lon="6.44285">
        <ele>1818.47</ele>
        <time>2019-09-14T10:09:47Z</time>
      </trkpt>
      <trkpt lat="45.99344" lon="6.44285">
        <ele>1814.63</ele>
        <time>2019-09-14T10:09:48Z</time>
      </trkpt>
      <trkpt lat="45.99342" lon="6.44284">
        <ele>1819.43</ele>
        <time>2019-09-14T10:09:50Z</time>
      </trkpt>
      <trkpt lat="45.99341" lon="6.44283">
        <ele>1817.51</ele>
        <time>2019-09-14T10:09:51Z</time>
      </trkpt>
      <trkpt lat="45.99339" lon="6.44282">
        <ele>1814.15</ele>
        <time>2019-09-14T10:09:53Z</time>
      </trkpt>
      <trkpt lat="45.99337" lon="6.4428">
        <ele>1817.51</ele>
        <time>2019-09-14T10:09:55Z</time>
      </trkpt>
      <trkpt lat="45.99337" lon="6.44279">
        <ele>1817.99</ele>
        <time>2019-09-14T10:09:56Z</time>
      </trkpt>
      <trkpt lat="45.99335" lon="6.44278">
        <ele>1814.63</ele>
        <time>2019-09-14T10:09:58Z</time>
      </trkpt>
      <trkpt lat="45.99333" lon="6.44276">
        <ele>1817.51</ele>
        <time>2019-09-14T10:10:00Z</time>
      </trkpt>
      <trkpt lat="45.99333" lon="6.44275">
        <ele>1813.66</ele>
        <time>2019-09-14T10:10:01Z</time>
      </trkpt>
      <trkpt lat="45.9933" lon="6.44275">
        <ele>1815.11</ele>
        <time>2019-09-14T10:10:04Z</time>
      </trkpt>
      <trkpt lat="45.99328" lon="6.44273">
        <ele>1816.07</ele>
        <time>2019-09-14T10:10:06Z</time>
      </trkpt>
      <trkpt lat="45.99327" lon="6.44272">
        <ele>1812.7</ele>
        <time>2019-09-14T10:10:07Z</time>
      </trkpt>
      <trkpt lat="45.99326" lon="6.44271">
        <ele>1815.59</ele>
        <time>2019-09-14T10:10:08Z</time>
      </trkpt>
      <trkpt lat="45.99321" lon="6.44266">
        <ele>1815.59</ele>
        <time>2019-09-14T10:10:15Z</time>
      </trkpt>
      <trkpt lat="45.99318" lon="6.44265">
        <ele>1811.74</ele>
        <time>2019-09-14T10:10:17Z</time>
      </trkpt>
      <trkpt lat="45.99317" lon="6.44264">
        <ele>1811.74</ele>
        <time>2019-09-14T10:10:18Z</time>
      </trkpt>
      <trkpt lat="45.99316" lon="6.44264">
        <ele>1814.63</ele>
        <time>2019-09-14T10:10:19Z</time>
      </trkpt>
      <trkpt lat="45.99314" lon="6.44263">
        <ele>1807.42</ele>
        <time>2019-09-14T10:10:21Z</time>
      </trkpt>
      <trkpt lat="45.99313" lon="6.44262">
        <ele>1812.7</ele>
        <time>2019-09-14T10:10:22Z</time>
      </trkpt>
      <trkpt lat="45.99311" lon="6.44259">
        <ele>1812.7</ele>
        <time>2019-09-14T10:10:26Z</time>
      </trkpt>
      <trkpt lat="45.99308" lon="6.44256">
        <ele>1809.34</ele>
        <time>2019-09-14T10:10:29Z</time>
      </trkpt>
      <trkpt lat="45.99307" lon="6.44256">
        <ele>1810.3</ele>
        <time>2019-09-14T10:10:30Z</time>
      </trkpt>
      <trkpt lat="45.99305" lon="6.44255">
        <ele>1811.26</ele>
        <time>2019-09-14T10:10:32Z</time>
      </trkpt>
      <trkpt lat="45.99304" lon="6.44255">
        <ele>1807.9</ele>
        <time>2019-09-14T10:10:33Z</time>
      </trkpt>
      <trkpt lat="45.99304" lon="6.44254">
        <ele>1810.78</ele>
        <time>2019-09-14T10:10:34Z</time>
      </trkpt>
      <trkpt lat="45.99303" lon="6.44253">
        <ele>1809.34</ele>
        <time>2019-09-14T10:10:35Z</time>
      </trkpt>
      <trkpt lat="45.99298" lon="6.44249">
        <ele>1807.42</ele>
        <time>2019-09-14T10:10:42Z</time>
      </trkpt>
      <trkpt lat="45.99289" lon="6.44244">
        <ele>1807.42</ele>
        <time>2019-09-14T10:10:53Z</time>
      </trkpt>
      <trkpt lat="45.99287" lon="6.44243">
        <ele>1803.09</ele>
        <time>2019-09-14T10:10:55Z</time>
      </trkpt>
      <trkpt lat="45.99286" lon="6.44243">
        <ele>1806.94</ele>
        <time>2019-09-14T10:10:56Z</time>
      </trkpt>
      <trkpt lat="45.99285" lon="6.44243">
        <ele>1806.94</ele>
        <time>2019-09-14T10:10:57Z</time>
      </trkpt>
      <trkpt lat="45.99284" lon="6.44242">
        <ele>1802.61</ele>
        <time>2019-09-14T10:11:00Z</time>
      </trkpt>
      <trkpt lat="45.99281" lon="6.44239">
        <ele>1804.05</ele>
        <time>2019-09-14T10:11:04Z</time>
      </trkpt>
      <trkpt lat="45.9928" lon="6.44238">
        <ele>1805.01</ele>
        <time>2019-09-14T10:11:06Z</time>
      </trkpt>
      <trkpt lat="45.99276" lon="6.44235">
        <ele>1804.53</ele>
        <time>2019-09-14T10:11:11Z</time>
      </trkpt>
      <trkpt lat="45.99274" lon="6.44234">
        <ele>1798.28</ele>
        <time>2019-09-14T10:11:13Z</time>
      </trkpt>
      <trkpt lat="45.99273" lon="6.44234">
        <ele>1801.17</ele>
        <time>2019-09-14T10:11:14Z</time>
      </trkpt>
      <trkpt lat="45.99269" lon="6.44232">
        <ele>1795.88</ele>
        <time>2019-09-14T10:11:18Z</time>
      </trkpt>
      <trkpt lat="45.99268" lon="6.44232">
        <ele>1800.21</ele>
        <time>2019-09-14T10:11:19Z</time>
      </trkpt>
      <trkpt lat="45.99268" lon="6.44231">
        <ele>1802.61</ele>
        <time>2019-09-14T10:11:20Z</time>
      </trkpt>
      <trkpt lat="45.99265" lon="6.44229">
        <ele>1796.84</ele>
        <time>2019-09-14T10:11:23Z</time>
      </trkpt>
      <trkpt lat="45.99265" lon="6.44228">
        <ele>1798.76</ele>
        <time>2019-09-14T10:11:24Z</time>
      </trkpt>
      <trkpt lat="45.9926" lon="6.44225">
        <ele>1793.96</ele>
        <time>2019-09-14T10:11:30Z</time>
      </trkpt>
      <trkpt lat="45.99259" lon="6.44224">
        <ele>1801.65</ele>
        <time>2019-09-14T10:11:31Z</time>
      </trkpt>
      <trkpt lat="45.99256" lon="6.44221">
        <ele>1798.76</ele>
        <time>2019-09-14T10:11:35Z</time>
      </trkpt>
      <trkpt lat="45.99254" lon="6.4422">
        <ele>1797.32</ele>
        <time>2019-09-14T10:11:37Z</time>
      </trkpt>
      <trkpt lat="45.99247" lon="6.44219">
        <ele>1793</ele>
        <time>2019-09-14T10:11:45Z</time>
      </trkpt>
      <trkpt lat="45.99247" lon="6.44218">
        <ele>1796.36</ele>
        <time>2019-09-14T10:11:46Z</time>
      </trkpt>
      <trkpt lat="45.99245" lon="6.44218">
        <ele>1795.4</ele>
        <time>2019-09-14T10:11:47Z</time>
      </trkpt>
      <trkpt lat="45.99241" lon="6.44219">
        <ele>1791.55</ele>
        <time>2019-09-14T10:11:51Z</time>
      </trkpt>
      <trkpt lat="45.9924" lon="6.44219">
        <ele>1791.55</ele>
        <time>2019-09-14T10:11:52Z</time>
      </trkpt>
      <trkpt lat="45.9924" lon="6.4422">
        <ele>1793</ele>
        <time>2019-09-14T10:11:54Z</time>
      </trkpt>
      <trkpt lat="45.99239" lon="6.4422">
        <ele>1795.88</ele>
        <time>2019-09-14T10:11:55Z</time>
      </trkpt>
      <trkpt lat="45.99238" lon="6.44219">
        <ele>1794.44</ele>
        <time>2019-09-14T10:11:56Z</time>
      </trkpt>
      <trkpt lat="45.99237" lon="6.44219">
        <ele>1790.11</ele>
        <time>2019-09-14T10:11:58Z</time>
      </trkpt>
      <trkpt lat="45.99236" lon="6.4422">
        <ele>1792.52</ele>
        <time>2019-09-14T10:11:59Z</time>
      </trkpt>
      <trkpt lat="45.99234" lon="6.4422">
        <ele>1793.96</ele>
        <time>2019-09-14T10:12:01Z</time>
      </trkpt>
      <trkpt lat="45.99234" lon="6.44221">
        <ele>1791.55</ele>
        <time>2019-09-14T10:12:02Z</time>
      </trkpt>
      <trkpt lat="45.99231" lon="6.44222">
        <ele>1791.55</ele>
        <time>2019-09-14T10:12:04Z</time>
      </trkpt>
      <trkpt lat="45.99225" lon="6.44224">
        <ele>1790.11</ele>
        <time>2019-09-14T10:12:10Z</time>
      </trkpt>
      <trkpt lat="45.99224" lon="6.44223">
        <ele>1786.75</ele>
        <time>2019-09-14T10:12:11Z</time>
      </trkpt>
      <trkpt lat="45.99224" lon="6.44223">
        <ele>1792.52</ele>
        <time>2019-09-14T10:12:12Z</time>
      </trkpt>
      <trkpt lat="45.99223" lon="6.44221">
        <ele>1786.75</ele>
        <time>2019-09-14T10:12:13Z</time>
      </trkpt>
      <trkpt lat="45.99221" lon="6.44219">
        <ele>1790.59</ele>
        <time>2019-09-14T10:12:15Z</time>
      </trkpt>
      <trkpt lat="45.99221" lon="6.44219">
        <ele>1789.15</ele>
        <time>2019-09-14T10:12:16Z</time>
      </trkpt>
      <trkpt lat="45.99218" lon="6.44216">
        <ele>1786.27</ele>
        <time>2019-09-14T10:12:19Z</time>
      </trkpt>
      <trkpt lat="45.99218" lon="6.44215">
        <ele>1787.71</ele>
        <time>2019-09-14T10:12:20Z</time>
      </trkpt>
      <trkpt lat="45.99217" lon="6.44213">
        <ele>1787.71</ele>
        <time>2019-09-14T10:12:22Z</time>
      </trkpt>
      <trkpt lat="45.99212" lon="6.44209">
        <ele>1782.9</ele>
        <time>2019-09-14T10:12:28Z</time>
      </trkpt>
      <trkpt lat="45.99207" lon="6.44203">
        <ele>1782.9</ele>
        <time>2019-09-14T10:12:35Z</time>
      </trkpt>
      <trkpt lat="45.99203" lon="6.44196">
        <ele>1782.42</ele>
        <time>2019-09-14T10:12:42Z</time>
      </trkpt>
      <trkpt lat="45.992" lon="6.4419">
        <ele>1779.06</ele>
        <time>2019-09-14T10:12:50Z</time>
      </trkpt>
      <trkpt lat="45.99197" lon="6.44182">
        <ele>1777.13</ele>
        <time>2019-09-14T10:12:57Z</time>
      </trkpt>
      <trkpt lat="45.99197" lon="6.44181">
        <ele>1777.13</ele>
        <time>2019-09-14T10:12:58Z</time>
      </trkpt>
      <trkpt lat="45.99195" lon="6.44177">
        <ele>1774.25</ele>
        <time>2019-09-14T10:13:01Z</time>
      </trkpt>
      <trkpt lat="45.99194" lon="6.44175">
        <ele>1777.61</ele>
        <time>2019-09-14T10:13:02Z</time>
      </trkpt>
      <trkpt lat="45.99194" lon="6.44172">
        <ele>1773.77</ele>
        <time>2019-09-14T10:13:04Z</time>
      </trkpt>
      <trkpt lat="45.99192" lon="6.4417">
        <ele>1775.21</ele>
        <time>2019-09-14T10:13:06Z</time>
      </trkpt>
      <trkpt lat="45.99184" lon="6.44164">
        <ele>1772.33</ele>
        <time>2019-09-14T10:13:13Z</time>
      </trkpt>
      <trkpt lat="45.99178" lon="6.44158">
        <ele>1775.21</ele>
        <time>2019-09-14T10:13:18Z</time>
      </trkpt>
      <trkpt lat="45.99172" lon="6.44155">
        <ele>1775.69</ele>
        <time>2019-09-14T10:13:23Z</time>
      </trkpt>
      <trkpt lat="45.99169" lon="6.44154">
        <ele>1776.17</ele>
        <time>2019-09-14T10:13:25Z</time>
      </trkpt>
      <trkpt lat="45.99165" lon="6.44151">
        <ele>1775.21</ele>
        <time>2019-09-14T10:13:28Z</time>
      </trkpt>
      <trkpt lat="45.99163" lon="6.4415">
        <ele>1769.44</ele>
        <time>2019-09-14T10:13:30Z</time>
      </trkpt>
      <trkpt lat="45.99162" lon="6.4415">
        <ele>1770.41</ele>
        <time>2019-09-14T10:13:31Z</time>
      </trkpt>
      <trkpt lat="45.9916" lon="6.4415">
        <ele>1776.17</ele>
        <time>2019-09-14T10:13:32Z</time>
      </trkpt>
      <trkpt lat="45.99158" lon="6.4415">
        <ele>1776.65</ele>
        <time>2019-09-14T10:13:34Z</time>
      </trkpt>
      <trkpt lat="45.99155" lon="6.44148">
        <ele>1770.89</ele>
        <time>2019-09-14T10:13:36Z</time>
      </trkpt>
      <trkpt lat="45.99154" lon="6.44148">
        <ele>1773.77</ele>
        <time>2019-09-14T10:13:37Z</time>
      </trkpt>
      <trkpt lat="45.9915" lon="6.44144">
        <ele>1775.21</ele>
        <time>2019-09-14T10:13:41Z</time>
      </trkpt>
      <trkpt lat="45.99148" lon="6.4414">
        <ele>1774.25</ele>
        <time>2019-09-14T10:13:45Z</time>
      </trkpt>
      <trkpt lat="45.99145" lon="6.44134">
        <ele>1776.65</ele>
        <time>2019-09-14T10:13:49Z</time>
      </trkpt>
      <trkpt lat="45.99144" lon="6.44132">
        <ele>1778.58</ele>
        <time>2019-09-14T10:13:51Z</time>
      </trkpt>
      <trkpt lat="45.99142" lon="6.44128">
        <ele>1774.73</ele>
        <time>2019-09-14T10:13:54Z</time>
      </trkpt>
      <trkpt lat="45.99141" lon="6.44127">
        <ele>1778.1</ele>
        <time>2019-09-14T10:13:55Z</time>
      </trkpt>
      <trkpt lat="45.99138" lon="6.44124">
        <ele>1774.25</ele>
        <time>2019-09-14T10:13:58Z</time>
      </trkpt>
      <trkpt lat="45.99137" lon="6.44123">
        <ele>1778.1</ele>
        <time>2019-09-14T10:13:59Z</time>
      </trkpt>
      <trkpt lat="45.99132" lon="6.44117">
        <ele>1775.21</ele>
        <time>2019-09-14T10:14:05Z</time>
      </trkpt>
      <trkpt lat="45.99131" lon="6.44117">
        <ele>1780.02</ele>
        <time>2019-09-14T10:14:06Z</time>
      </trkpt>
      <trkpt lat="45.9913" lon="6.44114">
        <ele>1776.17</ele>
        <time>2019-09-14T10:14:08Z</time>
      </trkpt>
      <trkpt lat="45.99128" lon="6.44113">
        <ele>1780.5</ele>
        <time>2019-09-14T10:14:10Z</time>
      </trkpt>
      <trkpt lat="45.99126" lon="6.44112">
        <ele>1776.17</ele>
        <time>2019-09-14T10:14:12Z</time>
      </trkpt>
      <trkpt lat="45.99126" lon="6.44111">
        <ele>1778.1</ele>
        <time>2019-09-14T10:14:13Z</time>
      </trkpt>
      <trkpt lat="45.99123" lon="6.44109">
        <ele>1780.98</ele>
        <time>2019-09-14T10:14:16Z</time>
      </trkpt>
      <trkpt lat="45.99122" lon="6.44109">
        <ele>1780.98</ele>
        <time>2019-09-14T10:14:17Z</time>
      </trkpt>
      <trkpt lat="45.99121" lon="6.44108">
        <ele>1775.21</ele>
        <time>2019-09-14T10:14:18Z</time>
      </trkpt>
      <trkpt lat="45.9912" lon="6.44107">
        <ele>1777.61</ele>
        <time>2019-09-14T10:14:19Z</time>
      </trkpt>
      <trkpt lat="45.99119" lon="6.44107">
        <ele>1781.94</ele>
        <time>2019-09-14T10:14:20Z</time>
      </trkpt>
      <trkpt lat="45.99119" lon="6.44106">
        <ele>1780.5</ele>
        <time>2019-09-14T10:14:21Z</time>
      </trkpt>
      <trkpt lat="45.99118" lon="6.44105">
        <ele>1777.13</ele>
        <time>2019-09-14T10:14:22Z</time>
      </trkpt>
      <trkpt lat="45.99117" lon="6.44104">
        <ele>1778.58</ele>
        <time>2019-09-14T10:14:23Z</time>
      </trkpt>
      <trkpt lat="45.99114" lon="6.44102">
        <ele>1780.98</ele>
        <time>2019-09-14T10:14:26Z</time>
      </trkpt>
      <trkpt lat="45.99111" lon="6.44099">
        <ele>1775.21</ele>
        <time>2019-09-14T10:14:29Z</time>
      </trkpt>
      <trkpt lat="45.9911" lon="6.44098">
        <ele>1777.13</ele>
        <time>2019-09-14T10:14:30Z</time>
      </trkpt>
      <trkpt lat="45.99109" lon="6.44097">
        <ele>1780.5</ele>
        <time>2019-09-14T10:14:31Z</time>
      </trkpt>
      <trkpt lat="45.99108" lon="6.44095">
        <ele>1776.17</ele>
        <time>2019-09-14T10:14:33Z</time>
      </trkpt>
      <trkpt lat="45.99107" lon="6.44094">
        <ele>1778.58</ele>
        <time>2019-09-14T10:14:34Z</time>
      </trkpt>
      <trkpt lat="45.99105" lon="6.44092">
        <ele>1781.94</ele>
        <time>2019-09-14T10:14:36Z</time>
      </trkpt>
      <trkpt lat="45.99104" lon="6.44091">
        <ele>1781.46</ele>
        <time>2019-09-14T10:14:37Z</time>
      </trkpt>
      <trkpt lat="45.99101" lon="6.4409">
        <ele>1777.61</ele>
        <time>2019-09-14T10:14:39Z</time>
      </trkpt>
      <trkpt lat="45.99098" lon="6.44087">
        <ele>1782.42</ele>
        <time>2019-09-14T10:14:42Z</time>
      </trkpt>
      <trkpt lat="45.99098" lon="6.44085">
        <ele>1778.58</ele>
        <time>2019-09-14T10:14:43Z</time>
      </trkpt>
      <trkpt lat="45.99094" lon="6.44078">
        <ele>1782.42</ele>
        <time>2019-09-14T10:14:48Z</time>
      </trkpt>
      <trkpt lat="45.99091" lon="6.44076">
        <ele>1777.13</ele>
        <time>2019-09-14T10:14:51Z</time>
      </trkpt>
      <trkpt lat="45.99088" lon="6.44074">
        <ele>1780.98</ele>
        <time>2019-09-14T10:14:54Z</time>
      </trkpt>
      <trkpt lat="45.99086" lon="6.44072">
        <ele>1783.38</ele>
        <time>2019-09-14T10:14:56Z</time>
      </trkpt>
      <trkpt lat="45.99085" lon="6.44071">
        <ele>1780.02</ele>
        <time>2019-09-14T10:14:57Z</time>
      </trkpt>
      <trkpt lat="45.99084" lon="6.44068">
        <ele>1779.06</ele>
        <time>2019-09-14T10:14:59Z</time>
      </trkpt>
      <trkpt lat="45.99082" lon="6.44065">
        <ele>1782.9</ele>
        <time>2019-09-14T10:15:01Z</time>
      </trkpt>
      <trkpt lat="45.99079" lon="6.44062">
        <ele>1779.06</ele>
        <time>2019-09-14T10:15:04Z</time>
      </trkpt>
      <trkpt lat="45.99076" lon="6.44058">
        <ele>1783.86</ele>
        <time>2019-09-14T10:15:08Z</time>
      </trkpt>
      <trkpt lat="45.99075" lon="6.44058">
        <ele>1783.86</ele>
        <time>2019-09-14T10:15:09Z</time>
      </trkpt>
      <trkpt lat="45.99073" lon="6.44056">
        <ele>1778.58</ele>
        <time>2019-09-14T10:15:11Z</time>
      </trkpt>
      <trkpt lat="45.99072" lon="6.44055">
        <ele>1782.42</ele>
        <time>2019-09-14T10:15:12Z</time>
      </trkpt>
      <trkpt lat="45.99069" lon="6.44052">
        <ele>1783.86</ele>
        <time>2019-09-14T10:15:15Z</time>
      </trkpt>
      <trkpt lat="45.99068" lon="6.44051">
        <ele>1778.1</ele>
        <time>2019-09-14T10:15:16Z</time>
      </trkpt>
      <trkpt lat="45.99067" lon="6.44049">
        <ele>1780.5</ele>
        <time>2019-09-14T10:15:18Z</time>
      </trkpt>
      <trkpt lat="45.99065" lon="6.44047">
        <ele>1777.61</ele>
        <time>2019-09-14T10:15:20Z</time>
      </trkpt>
      <trkpt lat="45.99065" lon="6.44046">
        <ele>1782.42</ele>
        <time>2019-09-14T10:15:21Z</time>
      </trkpt>
      <trkpt lat="45.99064" lon="6.44045">
        <ele>1778.1</ele>
        <time>2019-09-14T10:15:22Z</time>
      </trkpt>
      <trkpt lat="45.99062" lon="6.44042">
        <ele>1782.42</ele>
        <time>2019-09-14T10:15:24Z</time>
      </trkpt>
      <trkpt lat="45.9906" lon="6.44039">
        <ele>1778.58</ele>
        <time>2019-09-14T10:15:27Z</time>
      </trkpt>
      <trkpt lat="45.99056" lon="6.44034">
        <ele>1781.46</ele>
        <time>2019-09-14T10:15:31Z</time>
      </trkpt>
      <trkpt lat="45.99054" lon="6.44031">
        <ele>1777.61</ele>
        <time>2019-09-14T10:15:34Z</time>
      </trkpt>
      <trkpt lat="45.99053" lon="6.44029">
        <ele>1780.98</ele>
        <time>2019-09-14T10:15:35Z</time>
      </trkpt>
      <trkpt lat="45.99051" lon="6.44027">
        <ele>1782.9</ele>
        <time>2019-09-14T10:15:37Z</time>
      </trkpt>
      <trkpt lat="45.9905" lon="6.44024">
        <ele>1778.1</ele>
        <time>2019-09-14T10:15:39Z</time>
      </trkpt>
      <trkpt lat="45.99049" lon="6.44023">
        <ele>1782.42</ele>
        <time>2019-09-14T10:15:40Z</time>
      </trkpt>
      <trkpt lat="45.99048" lon="6.44021">
        <ele>1778.58</ele>
        <time>2019-09-14T10:15:41Z</time>
      </trkpt>
      <trkpt lat="45.99046" lon="6.4402">
        <ele>1782.42</ele>
        <time>2019-09-14T10:15:43Z</time>
      </trkpt>
      <trkpt lat="45.99043" lon="6.44018">
        <ele>1777.61</ele>
        <time>2019-09-14T10:15:46Z</time>
      </trkpt>
      <trkpt lat="45.99042" lon="6.44018">
        <ele>1779.54</ele>
        <time>2019-09-14T10:15:47Z</time>
      </trkpt>
      <trkpt lat="45.9904" lon="6.44017">
        <ele>1783.38</ele>
        <time>2019-09-14T10:15:49Z</time>
      </trkpt>
      <trkpt lat="45.99039" lon="6.44017">
        <ele>1778.58</ele>
        <time>2019-09-14T10:15:50Z</time>
      </trkpt>
      <trkpt lat="45.99038" lon="6.44016">
        <ele>1779.06</ele>
        <time>2019-09-14T10:15:51Z</time>
      </trkpt>
      <trkpt lat="45.99036" lon="6.44016">
        <ele>1784.34</ele>
        <time>2019-09-14T10:15:53Z</time>
      </trkpt>
      <trkpt lat="45.99035" lon="6.44016">
        <ele>1778.1</ele>
        <time>2019-09-14T10:15:54Z</time>
      </trkpt>
      <trkpt lat="45.99035" lon="6.44016">
        <ele>1782.42</ele>
        <time>2019-09-14T10:15:55Z</time>
      </trkpt>
      <trkpt lat="45.99034" lon="6.44016">
        <ele>1776.17</ele>
        <time>2019-09-14T10:15:56Z</time>
      </trkpt>
      <trkpt lat="45.99034" lon="6.44016">
        <ele>1783.38</ele>
        <time>2019-09-14T10:15:57Z</time>
      </trkpt>
      <trkpt lat="45.99034" lon="6.44016">
        <ele>1780.02</ele>
        <time>2019-09-14T10:15:59Z</time>
      </trkpt>
      <trkpt lat="45.99034" lon="6.44016">
        <ele>1780.98</ele>
        <time>2019-09-14T10:16:12Z</time>
      </trkpt>
      <trkpt lat="45.99034" lon="6.44016">
        <ele>1779.54</ele>
        <time>2019-09-14T10:16:14Z</time>
      </trkpt>
      <trkpt lat="45.99034" lon="6.44016">
        <ele>1780.5</ele>
        <time>2019-09-14T10:16:16Z</time>
      </trkpt>
      <trkpt lat="45.99034" lon="6.44016">
        <ele>1780.02</ele>
        <time>2019-09-14T10:16:38Z</time>
      </trkpt>
      <trkpt lat="45.99034" lon="6.44016">
        <ele>1776.65</ele>
        <time>2019-09-14T10:16:58Z</time>
      </trkpt>
      <trkpt lat="45.99034" lon="6.44015">
        <ele>1780.02</ele>
        <time>2019-09-14T10:16:59Z</time>
      </trkpt>
      <trkpt lat="45.99034" lon="6.44015">
        <ele>1776.17</ele>
        <time>2019-09-14T10:17:00Z</time>
      </trkpt>
      <trkpt lat="45.99034" lon="6.44015">
        <ele>1779.54</ele>
        <time>2019-09-14T10:17:01Z</time>
      </trkpt>
      <trkpt lat="45.99034" lon="6.44016">
        <ele>1781.94</ele>
        <time>2019-09-14T10:17:03Z</time>
      </trkpt>
      <trkpt lat="45.99035" lon="6.44016">
        <ele>1779.54</ele>
        <time>2019-09-14T10:17:05Z</time>
      </trkpt>
      <trkpt lat="45.99034" lon="6.44015">
        <ele>1781.46</ele>
        <time>2019-09-14T10:17:25Z</time>
      </trkpt>
      <trkpt lat="45.99034" lon="6.44015">
        <ele>1779.54</ele>
        <time>2019-09-14T10:17:45Z</time>
      </trkpt>
      <trkpt lat="45.99034" lon="6.44015">
        <ele>1779.54</ele>
        <time>2019-09-14T10:18:04Z</time>
      </trkpt>
      <trkpt lat="45.99034" lon="6.44015">
        <ele>1780.5</ele>
        <time>2019-09-14T10:18:21Z</time>
      </trkpt>
      <trkpt lat="45.99034" lon="6.44015">
        <ele>1779.54</ele>
        <time>2019-09-14T10:18:39Z</time>
      </trkpt>
      <trkpt lat="45.99033" lon="6.44015">
        <ele>1779.06</ele>
        <time>2019-09-14T10:18:56Z</time>
      </trkpt>
      <trkpt lat="45.99033" lon="6.44015">
        <ele>1779.06</ele>
        <time>2019-09-14T10:19:10Z</time>
      </trkpt>
      <trkpt lat="45.99033" lon="6.44016">
        <ele>1779.54</ele>
        <time>2019-09-14T10:19:29Z</time>
      </trkpt>
      <trkpt lat="45.99032" lon="6.44016">
        <ele>1779.54</ele>
        <time>2019-09-14T10:19:48Z</time>
      </trkpt>
      <trkpt lat="45.99032" lon="6.44016">
        <ele>1780.5</ele>
        <time>2019-09-14T10:20:03Z</time>
      </trkpt>
      <trkpt lat="45.99032" lon="6.44016">
        <ele>1779.06</ele>
        <time>2019-09-14T10:20:25Z</time>
      </trkpt>
      <trkpt lat="45.99032" lon="6.44016">
        <ele>1780.02</ele>
        <time>2019-09-14T10:20:41Z</time>
      </trkpt>
      <trkpt lat="45.99031" lon="6.44016">
        <ele>1776.65</ele>
        <time>2019-09-14T10:20:53Z</time>
      </trkpt>
      <trkpt lat="45.99031" lon="6.44016">
        <ele>1778.1</ele>
        <time>2019-09-14T10:20:54Z</time>
      </trkpt>
      <trkpt lat="45.99031" lon="6.44016">
        <ele>1778.1</ele>
        <time>2019-09-14T10:21:02Z</time>
      </trkpt>
      <trkpt lat="45.99029" lon="6.44016">
        <ele>1779.06</ele>
        <time>2019-09-14T10:21:22Z</time>
      </trkpt>
      <trkpt lat="45.99029" lon="6.44016">
        <ele>1778.58</ele>
        <time>2019-09-14T10:21:42Z</time>
      </trkpt>
      <trkpt lat="45.99029" lon="6.44017">
        <ele>1777.61</ele>
        <time>2019-09-14T10:22:00Z</time>
      </trkpt>
      <trkpt lat="45.99029" lon="6.44017">
        <ele>1779.06</ele>
        <time>2019-09-14T10:22:02Z</time>
      </trkpt>
      <trkpt lat="45.9903" lon="6.44016">
        <ele>1778.58</ele>
        <time>2019-09-14T10:22:20Z</time>
      </trkpt>
      <trkpt lat="45.9903" lon="6.44016">
        <ele>1780.02</ele>
        <time>2019-09-14T10:22:42Z</time>
      </trkpt>
      <trkpt lat="45.9903" lon="6.44016">
        <ele>1781.46</ele>
        <time>2019-09-14T10:22:47Z</time>
      </trkpt>
      <trkpt lat="45.99029" lon="6.44016">
        <ele>1779.06</ele>
        <time>2019-09-14T10:22:49Z</time>
      </trkpt>
      <trkpt lat="45.99029" lon="6.44016">
        <ele>1779.06</ele>
        <time>2019-09-14T10:23:06Z</time>
      </trkpt>
      <trkpt lat="45.99029" lon="6.44017">
        <ele>1779.06</ele>
        <time>2019-09-14T10:23:25Z</time>
      </trkpt>
      <trkpt lat="45.99029" lon="6.44017">
        <ele>1778.58</ele>
        <time>2019-09-14T10:23:45Z</time>
      </trkpt>
      <trkpt lat="45.99029" lon="6.44017">
        <ele>1782.42</ele>
        <time>2019-09-14T10:23:56Z</time>
      </trkpt>
      <trkpt lat="45.9903" lon="6.44016">
        <ele>1777.61</ele>
        <time>2019-09-14T10:23:59Z</time>
      </trkpt>
      <trkpt lat="45.99029" lon="6.44016">
        <ele>1781.46</ele>
        <time>2019-09-14T10:24:01Z</time>
      </trkpt>
      <trkpt lat="45.99028" lon="6.44014">
        <ele>1779.06</ele>
        <time>2019-09-14T10:24:04Z</time>
      </trkpt>
      <trkpt lat="45.99028" lon="6.44014">
        <ele>1776.17</ele>
        <time>2019-09-14T10:24:11Z</time>
      </trkpt>
      <trkpt lat="45.99028" lon="6.44013">
        <ele>1777.61</ele>
        <time>2019-09-14T10:24:12Z</time>
      </trkpt>
      <trkpt lat="45.99018" lon="6.44006">
        <ele>1778.1</ele>
        <time>2019-09-14T10:24:27Z</time>
      </trkpt>
      <trkpt lat="45.99015" lon="6.44005">
        <ele>1778.58</ele>
        <time>2019-09-14T10:24:30Z</time>
      </trkpt>
      <trkpt lat="45.99011" lon="6.44001">
        <ele>1776.17</ele>
        <time>2019-09-14T10:24:35Z</time>
      </trkpt>
      <trkpt lat="45.99008" lon="6.43997">
        <ele>1772.81</ele>
        <time>2019-09-14T10:24:40Z</time>
      </trkpt>
      <trkpt lat="45.99008" lon="6.43996">
        <ele>1776.65</ele>
        <time>2019-09-14T10:24:41Z</time>
      </trkpt>
      <trkpt lat="45.99006" lon="6.43993">
        <ele>1772.81</ele>
        <time>2019-09-14T10:24:43Z</time>
      </trkpt>
      <trkpt lat="45.99006" lon="6.43992">
        <ele>1772.81</ele>
        <time>2019-09-14T10:24:44Z</time>
      </trkpt>
      <trkpt lat="45.99005" lon="6.43991">
        <ele>1776.17</ele>
        <time>2019-09-14T10:24:45Z</time>
      </trkpt>
      <trkpt lat="45.99005" lon="6.43989">
        <ele>1774.73</ele>
        <time>2019-09-14T10:24:46Z</time>
      </trkpt>
      <trkpt lat="45.99002" lon="6.43983">
        <ele>1775.21</ele>
        <time>2019-09-14T10:24:52Z</time>
      </trkpt>
      <trkpt lat="45.99001" lon="6.4398">
        <ele>1772.33</ele>
        <time>2019-09-14T10:24:54Z</time>
      </trkpt>
      <trkpt lat="45.98998" lon="6.43977">
        <ele>1776.17</ele>
        <time>2019-09-14T10:24:58Z</time>
      </trkpt>
      <trkpt lat="45.98997" lon="6.43976">
        <ele>1770.41</ele>
        <time>2019-09-14T10:24:59Z</time>
      </trkpt>
      <trkpt lat="45.98996" lon="6.43976">
        <ele>1772.81</ele>
        <time>2019-09-14T10:25:00Z</time>
      </trkpt>
      <trkpt lat="45.98992" lon="6.43972">
        <ele>1777.13</ele>
        <time>2019-09-14T10:25:05Z</time>
      </trkpt>
      <trkpt lat="45.98991" lon="6.43972">
        <ele>1771.37</ele>
        <time>2019-09-14T10:25:06Z</time>
      </trkpt>
      <trkpt lat="45.9899" lon="6.43971">
        <ele>1773.29</ele>
        <time>2019-09-14T10:25:07Z</time>
      </trkpt>
      <trkpt lat="45.98988" lon="6.43971">
        <ele>1776.65</ele>
        <time>2019-09-14T10:25:10Z</time>
      </trkpt>
      <trkpt lat="45.98987" lon="6.4397">
        <ele>1769.44</ele>
        <time>2019-09-14T10:25:11Z</time>
      </trkpt>
      <trkpt lat="45.98986" lon="6.4397">
        <ele>1773.29</ele>
        <time>2019-09-14T10:25:12Z</time>
      </trkpt>
      <trkpt lat="45.98985" lon="6.4397">
        <ele>1776.65</ele>
        <time>2019-09-14T10:25:13Z</time>
      </trkpt>
      <trkpt lat="45.98984" lon="6.43969">
        <ele>1774.25</ele>
        <time>2019-09-14T10:25:14Z</time>
      </trkpt>
      <trkpt lat="45.98983" lon="6.43968">
        <ele>1769.92</ele>
        <time>2019-09-14T10:25:15Z</time>
      </trkpt>
      <trkpt lat="45.98982" lon="6.43967">
        <ele>1773.77</ele>
        <time>2019-09-14T10:25:16Z</time>
      </trkpt>
      <trkpt lat="45.98979" lon="6.43965">
        <ele>1768.96</ele>
        <time>2019-09-14T10:25:19Z</time>
      </trkpt>
      <trkpt lat="45.98978" lon="6.43964">
        <ele>1769.92</ele>
        <time>2019-09-14T10:25:20Z</time>
      </trkpt>
      <trkpt lat="45.98977" lon="6.43962">
        <ele>1775.69</ele>
        <time>2019-09-14T10:25:22Z</time>
      </trkpt>
      <trkpt lat="45.98976" lon="6.43961">
        <ele>1770.89</ele>
        <time>2019-09-14T10:25:23Z</time>
      </trkpt>
      <trkpt lat="45.98974" lon="6.4396">
        <ele>1775.21</ele>
        <time>2019-09-14T10:25:25Z</time>
      </trkpt>
      <trkpt lat="45.98973" lon="6.43959">
        <ele>1768.96</ele>
        <time>2019-09-14T10:25:26Z</time>
      </trkpt>
      <trkpt lat="45.98972" lon="6.43958">
        <ele>1772.81</ele>
        <time>2019-09-14T10:25:27Z</time>
      </trkpt>
      <trkpt lat="45.98971" lon="6.43958">
        <ele>1769.44</ele>
        <time>2019-09-14T10:25:28Z</time>
      </trkpt>
      <trkpt lat="45.9897" lon="6.43954">
        <ele>1773.29</ele>
        <time>2019-09-14T10:25:32Z</time>
      </trkpt>
      <trkpt lat="45.98968" lon="6.43952">
        <ele>1770.41</ele>
        <time>2019-09-14T10:25:34Z</time>
      </trkpt>
      <trkpt lat="45.98968" lon="6.43952">
        <ele>1771.85</ele>
        <time>2019-09-14T10:25:35Z</time>
      </trkpt>
      <trkpt lat="45.98965" lon="6.43951">
        <ele>1772.81</ele>
        <time>2019-09-14T10:25:46Z</time>
      </trkpt>
      <trkpt lat="45.98965" lon="6.4395">
        <ele>1768.48</ele>
        <time>2019-09-14T10:25:54Z</time>
      </trkpt>
      <trkpt lat="45.98965" lon="6.4395">
        <ele>1768.96</ele>
        <time>2019-09-14T10:25:55Z</time>
      </trkpt>
      <trkpt lat="45.98965" lon="6.4395">
        <ele>1765.12</ele>
        <time>2019-09-14T10:25:56Z</time>
      </trkpt>
      <trkpt lat="45.98965" lon="6.4395">
        <ele>1771.85</ele>
        <time>2019-09-14T10:25:57Z</time>
      </trkpt>
      <trkpt lat="45.98965" lon="6.4395">
        <ele>1771.85</ele>
        <time>2019-09-14T10:25:58Z</time>
      </trkpt>
      <trkpt lat="45.98965" lon="6.4395">
        <ele>1770.89</ele>
        <time>2019-09-14T10:26:05Z</time>
      </trkpt>
      <trkpt lat="45.98965" lon="6.4395">
        <ele>1775.21</ele>
        <time>2019-09-14T10:26:06Z</time>
      </trkpt>
      <trkpt lat="45.98964" lon="6.43949">
        <ele>1772.33</ele>
        <time>2019-09-14T10:26:07Z</time>
      </trkpt>
      <trkpt lat="45.98962" lon="6.43946">
        <ele>1772.81</ele>
        <time>2019-09-14T10:26:10Z</time>
      </trkpt>
      <trkpt lat="45.9896" lon="6.43942">
        <ele>1774.25</ele>
        <time>2019-09-14T10:26:13Z</time>
      </trkpt>
      <trkpt lat="45.9896" lon="6.43941">
        <ele>1773.29</ele>
        <time>2019-09-14T10:26:14Z</time>
      </trkpt>
      <trkpt lat="45.9896" lon="6.43941">
        <ele>1768.96</ele>
        <time>2019-09-14T10:26:15Z</time>
      </trkpt>
      <trkpt lat="45.9896" lon="6.43939">
        <ele>1769.92</ele>
        <time>2019-09-14T10:26:16Z</time>
      </trkpt>
      <trkpt lat="45.9896" lon="6.43938">
        <ele>1773.77</ele>
        <time>2019-09-14T10:26:17Z</time>
      </trkpt>
      <trkpt lat="45.9896" lon="6.43936">
        <ele>1771.85</ele>
        <time>2019-09-14T10:26:18Z</time>
      </trkpt>
      <trkpt lat="45.9896" lon="6.43934">
        <ele>1767.52</ele>
        <time>2019-09-14T10:26:19Z</time>
      </trkpt>
      <trkpt lat="45.98959" lon="6.43933">
        <ele>1770.41</ele>
        <time>2019-09-14T10:26:20Z</time>
      </trkpt>
      <trkpt lat="45.98958" lon="6.43928">
        <ele>1767.04</ele>
        <time>2019-09-14T10:26:24Z</time>
      </trkpt>
      <trkpt lat="45.98958" lon="6.43927">
        <ele>1773.77</ele>
        <time>2019-09-14T10:26:25Z</time>
      </trkpt>
      <trkpt lat="45.98958" lon="6.43924">
        <ele>1768.48</ele>
        <time>2019-09-14T10:26:27Z</time>
      </trkpt>
      <trkpt lat="45.98958" lon="6.43923">
        <ele>1774.25</ele>
        <time>2019-09-14T10:26:28Z</time>
      </trkpt>
      <trkpt lat="45.98958" lon="6.43922">
        <ele>1770.41</ele>
        <time>2019-09-14T10:26:29Z</time>
      </trkpt>
      <trkpt lat="45.98959" lon="6.43921">
        <ele>1773.77</ele>
        <time>2019-09-14T10:26:31Z</time>
      </trkpt>
      <trkpt lat="45.98959" lon="6.4392">
        <ele>1773.29</ele>
        <time>2019-09-14T10:26:32Z</time>
      </trkpt>
      <trkpt lat="45.9896" lon="6.4392">
        <ele>1770.41</ele>
        <time>2019-09-14T10:26:33Z</time>
      </trkpt>
      <trkpt lat="45.9896" lon="6.4392">
        <ele>1771.37</ele>
        <time>2019-09-14T10:26:34Z</time>
      </trkpt>
      <trkpt lat="45.9896" lon="6.4392">
        <ele>1771.85</ele>
        <time>2019-09-14T10:26:51Z</time>
      </trkpt>
      <trkpt lat="45.98959" lon="6.4392">
        <ele>1768.48</ele>
        <time>2019-09-14T10:26:55Z</time>
      </trkpt>
      <trkpt lat="45.98958" lon="6.43919">
        <ele>1772.33</ele>
        <time>2019-09-14T10:26:57Z</time>
      </trkpt>
      <trkpt lat="45.98958" lon="6.43919">
        <ele>1770.41</ele>
        <time>2019-09-14T10:26:58Z</time>
      </trkpt>
      <trkpt lat="45.98958" lon="6.43919">
        <ele>1767.04</ele>
        <time>2019-09-14T10:26:59Z</time>
      </trkpt>
      <trkpt lat="45.98957" lon="6.43919">
        <ele>1767.04</ele>
        <time>2019-09-14T10:27:00Z</time>
      </trkpt>
      <trkpt lat="45.98957" lon="6.43919">
        <ele>1770.89</ele>
        <time>2019-09-14T10:27:01Z</time>
      </trkpt>
      <trkpt lat="45.98957" lon="6.43919">
        <ele>1770.89</ele>
        <time>2019-09-14T10:27:02Z</time>
      </trkpt>
      <trkpt lat="45.98957" lon="6.43917">
        <ele>1767.04</ele>
        <time>2019-09-14T10:27:16Z</time>
      </trkpt>
      <trkpt lat="45.98956" lon="6.43916">
        <ele>1773.77</ele>
        <time>2019-09-14T10:27:17Z</time>
      </trkpt>
      <trkpt lat="45.98955" lon="6.43915">
        <ele>1768</ele>
        <time>2019-09-14T10:27:18Z</time>
      </trkpt>
      <trkpt lat="45.98953" lon="6.43911">
        <ele>1771.37</ele>
        <time>2019-09-14T10:27:22Z</time>
      </trkpt>
      <trkpt lat="45.98951" lon="6.4391">
        <ele>1767.52</ele>
        <time>2019-09-14T10:27:24Z</time>
      </trkpt>
      <trkpt lat="45.98951" lon="6.43909">
        <ele>1768</ele>
        <time>2019-09-14T10:27:25Z</time>
      </trkpt>
      <trkpt lat="45.9895" lon="6.43908">
        <ele>1771.37</ele>
        <time>2019-09-14T10:27:26Z</time>
      </trkpt>
      <trkpt lat="45.9895" lon="6.43907">
        <ele>1771.37</ele>
        <time>2019-09-14T10:27:27Z</time>
      </trkpt>
      <trkpt lat="45.98949" lon="6.43906">
        <ele>1767.04</ele>
        <time>2019-09-14T10:27:29Z</time>
      </trkpt>
      <trkpt lat="45.98949" lon="6.43905">
        <ele>1768.48</ele>
        <time>2019-09-14T10:27:30Z</time>
      </trkpt>
      <trkpt lat="45.98948" lon="6.43903">
        <ele>1771.85</ele>
        <time>2019-09-14T10:27:32Z</time>
      </trkpt>
      <trkpt lat="45.98947" lon="6.43902">
        <ele>1767.52</ele>
        <time>2019-09-14T10:27:33Z</time>
      </trkpt>
      <trkpt lat="45.98947" lon="6.43901">
        <ele>1770.89</ele>
        <time>2019-09-14T10:27:34Z</time>
      </trkpt>
      <trkpt lat="45.98946" lon="6.43898">
        <ele>1766.08</ele>
        <time>2019-09-14T10:27:36Z</time>
      </trkpt>
      <trkpt lat="45.98944" lon="6.4389">
        <ele>1768.48</ele>
        <time>2019-09-14T10:27:44Z</time>
      </trkpt>
      <trkpt lat="45.98943" lon="6.43888">
        <ele>1765.6</ele>
        <time>2019-09-14T10:27:46Z</time>
      </trkpt>
      <trkpt lat="45.98943" lon="6.43887">
        <ele>1768.96</ele>
        <time>2019-09-14T10:27:47Z</time>
      </trkpt>
      <trkpt lat="45.98941" lon="6.43882">
        <ele>1765.6</ele>
        <time>2019-09-14T10:27:51Z</time>
      </trkpt>
      <trkpt lat="45.9894" lon="6.43882">
        <ele>1769.44</ele>
        <time>2019-09-14T10:27:52Z</time>
      </trkpt>
      <trkpt lat="45.98939" lon="6.4388">
        <ele>1767.52</ele>
        <time>2019-09-14T10:27:54Z</time>
      </trkpt>
      <trkpt lat="45.98937" lon="6.43877">
        <ele>1769.92</ele>
        <time>2019-09-14T10:27:56Z</time>
      </trkpt>
      <trkpt lat="45.98936" lon="6.43876">
        <ele>1765.12</ele>
        <time>2019-09-14T10:27:58Z</time>
      </trkpt>
      <trkpt lat="45.98935" lon="6.43875">
        <ele>1769.44</ele>
        <time>2019-09-14T10:27:59Z</time>
      </trkpt>
      <trkpt lat="45.98934" lon="6.43873">
        <ele>1770.41</ele>
        <time>2019-09-14T10:28:01Z</time>
      </trkpt>
      <trkpt lat="45.98931" lon="6.4387">
        <ele>1765.6</ele>
        <time>2019-09-14T10:28:04Z</time>
      </trkpt>
      <trkpt lat="45.9893" lon="6.4387">
        <ele>1769.92</ele>
        <time>2019-09-14T10:28:05Z</time>
      </trkpt>
      <trkpt lat="45.98929" lon="6.43869">
        <ele>1768.48</ele>
        <time>2019-09-14T10:28:06Z</time>
      </trkpt>
      <trkpt lat="45.98924" lon="6.43868">
        <ele>1763.68</ele>
        <time>2019-09-14T10:28:11Z</time>
      </trkpt>
      <trkpt lat="45.98923" lon="6.43868">
        <ele>1766.56</ele>
        <time>2019-09-14T10:28:12Z</time>
      </trkpt>
      <trkpt lat="45.9892" lon="6.43868">
        <ele>1770.41</ele>
        <time>2019-09-14T10:28:17Z</time>
      </trkpt>
      <trkpt lat="45.98919" lon="6.43868">
        <ele>1768.96</ele>
        <time>2019-09-14T10:28:18Z</time>
      </trkpt>
      <trkpt lat="45.98919" lon="6.43868">
        <ele>1765.6</ele>
        <time>2019-09-14T10:28:19Z</time>
      </trkpt>
      <trkpt lat="45.98919" lon="6.43868">
        <ele>1768</ele>
        <time>2019-09-14T10:28:20Z</time>
      </trkpt>
      <trkpt lat="45.98918" lon="6.43869">
        <ele>1765.6</ele>
        <time>2019-09-14T10:28:21Z</time>
      </trkpt>
      <trkpt lat="45.98916" lon="6.43873">
        <ele>1767.52</ele>
        <time>2019-09-14T10:28:24Z</time>
      </trkpt>
      <trkpt lat="45.98914" lon="6.43879">
        <ele>1763.2</ele>
        <time>2019-09-14T10:28:29Z</time>
      </trkpt>
      <trkpt lat="45.98914" lon="6.4388">
        <ele>1766.56</ele>
        <time>2019-09-14T10:28:30Z</time>
      </trkpt>
      <trkpt lat="45.98913" lon="6.43882">
        <ele>1762.71</ele>
        <time>2019-09-14T10:28:32Z</time>
      </trkpt>
      <trkpt lat="45.98913" lon="6.43884">
        <ele>1768</ele>
        <time>2019-09-14T10:28:33Z</time>
      </trkpt>
      <trkpt lat="45.98913" lon="6.43885">
        <ele>1764.64</ele>
        <time>2019-09-14T10:28:35Z</time>
      </trkpt>
      <trkpt lat="45.98912" lon="6.43889">
        <ele>1764.64</ele>
        <time>2019-09-14T10:28:39Z</time>
      </trkpt>
      <trkpt lat="45.98911" lon="6.43899">
        <ele>1765.12</ele>
        <time>2019-09-14T10:28:47Z</time>
      </trkpt>
      <trkpt lat="45.98913" lon="6.43911">
        <ele>1760.31</ele>
        <time>2019-09-14T10:28:57Z</time>
      </trkpt>
      <trkpt lat="45.98913" lon="6.43912">
        <ele>1760.79</ele>
        <time>2019-09-14T10:28:58Z</time>
      </trkpt>
      <trkpt lat="45.98914" lon="6.43914">
        <ele>1762.71</ele>
        <time>2019-09-14T10:29:00Z</time>
      </trkpt>
      <trkpt lat="45.98915" lon="6.43919">
        <ele>1763.2</ele>
        <time>2019-09-14T10:29:04Z</time>
      </trkpt>
      <trkpt lat="45.98915" lon="6.4392">
        <ele>1756.47</ele>
        <time>2019-09-14T10:29:05Z</time>
      </trkpt>
      <trkpt lat="45.98915" lon="6.43922">
        <ele>1765.12</ele>
        <time>2019-09-14T10:29:06Z</time>
      </trkpt>
      <trkpt lat="45.98917" lon="6.43925">
        <ele>1760.79</ele>
        <time>2019-09-14T10:29:09Z</time>
      </trkpt>
      <trkpt lat="45.98919" lon="6.4393">
        <ele>1761.27</ele>
        <time>2019-09-14T10:29:14Z</time>
      </trkpt>
      <trkpt lat="45.98919" lon="6.43933">
        <ele>1758.87</ele>
        <time>2019-09-14T10:29:17Z</time>
      </trkpt>
      <trkpt lat="45.98918" lon="6.43945">
        <ele>1759.35</ele>
        <time>2019-09-14T10:29:28Z</time>
      </trkpt>
      <trkpt lat="45.98917" lon="6.43948">
        <ele>1760.31</ele>
        <time>2019-09-14T10:29:30Z</time>
      </trkpt>
      <trkpt lat="45.98916" lon="6.43948">
        <ele>1756.47</ele>
        <time>2019-09-14T10:29:31Z</time>
      </trkpt>
      <trkpt lat="45.98911" lon="6.43959">
        <ele>1756.95</ele>
        <time>2019-09-14T10:29:46Z</time>
      </trkpt>
      <trkpt lat="45.9891" lon="6.4396">
        <ele>1753.1</ele>
        <time>2019-09-14T10:29:50Z</time>
      </trkpt>
      <trkpt lat="45.9891" lon="6.4396">
        <ele>1759.35</ele>
        <time>2019-09-14T10:29:51Z</time>
      </trkpt>
      <trkpt lat="45.98907" lon="6.43963">
        <ele>1754.06</ele>
        <time>2019-09-14T10:29:55Z</time>
      </trkpt>
      <trkpt lat="45.98907" lon="6.43964">
        <ele>1758.87</ele>
        <time>2019-09-14T10:29:56Z</time>
      </trkpt>
      <trkpt lat="45.98906" lon="6.43965">
        <ele>1755.02</ele>
        <time>2019-09-14T10:29:58Z</time>
      </trkpt>
      <trkpt lat="45.98905" lon="6.43965">
        <ele>1758.87</ele>
        <time>2019-09-14T10:30:11Z</time>
      </trkpt>
      <trkpt lat="45.98905" lon="6.43966">
        <ele>1755.99</ele>
        <time>2019-09-14T10:30:12Z</time>
      </trkpt>
      <trkpt lat="45.98905" lon="6.43969">
        <ele>1755.02</ele>
        <time>2019-09-14T10:30:14Z</time>
      </trkpt>
      <trkpt lat="45.98904" lon="6.43971">
        <ele>1754.06</ele>
        <time>2019-09-14T10:30:16Z</time>
      </trkpt>
      <trkpt lat="45.98904" lon="6.43975">
        <ele>1751.18</ele>
        <time>2019-09-14T10:30:18Z</time>
      </trkpt>
      <trkpt lat="45.98904" lon="6.43982">
        <ele>1750.22</ele>
        <time>2019-09-14T10:30:23Z</time>
      </trkpt>
      <trkpt lat="45.98904" lon="6.43983">
        <ele>1752.62</ele>
        <time>2019-09-14T10:30:24Z</time>
      </trkpt>
      <trkpt lat="45.98906" lon="6.4399">
        <ele>1753.1</ele>
        <time>2019-09-14T10:30:29Z</time>
      </trkpt>
      <trkpt lat="45.98907" lon="6.43995">
        <ele>1750.22</ele>
        <time>2019-09-14T10:30:33Z</time>
      </trkpt>
      <trkpt lat="45.98908" lon="6.43999">
        <ele>1754.54</ele>
        <time>2019-09-14T10:30:36Z</time>
      </trkpt>
      <trkpt lat="45.98908" lon="6.44">
        <ele>1749.74</ele>
        <time>2019-09-14T10:30:37Z</time>
      </trkpt>
      <trkpt lat="45.98909" lon="6.44003">
        <ele>1753.58</ele>
        <time>2019-09-14T10:30:39Z</time>
      </trkpt>
      <trkpt lat="45.98909" lon="6.44006">
        <ele>1750.22</ele>
        <time>2019-09-14T10:30:42Z</time>
      </trkpt>
      <trkpt lat="45.98908" lon="6.44009">
        <ele>1754.54</ele>
        <time>2019-09-14T10:30:44Z</time>
      </trkpt>
      <trkpt lat="45.98909" lon="6.44012">
        <ele>1749.26</ele>
        <time>2019-09-14T10:30:46Z</time>
      </trkpt>
      <trkpt lat="45.98909" lon="6.44016">
        <ele>1752.14</ele>
        <time>2019-09-14T10:30:49Z</time>
      </trkpt>
      <trkpt lat="45.9891" lon="6.44019">
        <ele>1752.14</ele>
        <time>2019-09-14T10:30:53Z</time>
      </trkpt>
      <trkpt lat="45.98909" lon="6.44031">
        <ele>1747.81</ele>
        <time>2019-09-14T10:31:05Z</time>
      </trkpt>
      <trkpt lat="45.98905" lon="6.44039">
        <ele>1744.45</ele>
        <time>2019-09-14T10:31:15Z</time>
      </trkpt>
      <trkpt lat="45.98905" lon="6.4404">
        <ele>1744.93</ele>
        <time>2019-09-14T10:31:16Z</time>
      </trkpt>
      <trkpt lat="45.98905" lon="6.44041">
        <ele>1744.45</ele>
        <time>2019-09-14T10:31:18Z</time>
      </trkpt>
      <trkpt lat="45.98903" lon="6.44044">
        <ele>1746.85</ele>
        <time>2019-09-14T10:31:20Z</time>
      </trkpt>
      <trkpt lat="45.98895" lon="6.44044">
        <ele>1745.41</ele>
        <time>2019-09-14T10:31:30Z</time>
      </trkpt>
      <trkpt lat="45.98892" lon="6.44045">
        <ele>1748.29</ele>
        <time>2019-09-14T10:31:33Z</time>
      </trkpt>
      <trkpt lat="45.98889" lon="6.4405">
        <ele>1743.97</ele>
        <time>2019-09-14T10:31:40Z</time>
      </trkpt>
      <trkpt lat="45.98888" lon="6.44051">
        <ele>1744.93</ele>
        <time>2019-09-14T10:31:41Z</time>
      </trkpt>
      <trkpt lat="45.98888" lon="6.44051">
        <ele>1750.22</ele>
        <time>2019-09-14T10:31:42Z</time>
      </trkpt>
      <trkpt lat="45.98888" lon="6.44052">
        <ele>1745.89</ele>
        <time>2019-09-14T10:31:43Z</time>
      </trkpt>
      <trkpt lat="45.98887" lon="6.44052">
        <ele>1749.74</ele>
        <time>2019-09-14T10:31:44Z</time>
      </trkpt>
      <trkpt lat="45.98887" lon="6.44053">
        <ele>1745.89</ele>
        <time>2019-09-14T10:31:45Z</time>
      </trkpt>
      <trkpt lat="45.98886" lon="6.44054">
        <ele>1749.74</ele>
        <time>2019-09-14T10:31:47Z</time>
      </trkpt>
      <trkpt lat="45.98886" lon="6.44054">
        <ele>1749.74</ele>
        <time>2019-09-14T10:31:48Z</time>
      </trkpt>
      <trkpt lat="45.98886" lon="6.44055">
        <ele>1746.85</ele>
        <time>2019-09-14T10:31:50Z</time>
      </trkpt>
      <trkpt lat="45.98884" lon="6.44055">
        <ele>1742.05</ele>
        <time>2019-09-14T10:31:54Z</time>
      </trkpt>
      <trkpt lat="45.98883" lon="6.44056">
        <ele>1745.89</ele>
        <time>2019-09-14T10:31:55Z</time>
      </trkpt>
      <trkpt lat="45.98883" lon="6.44056">
        <ele>1750.22</ele>
        <time>2019-09-14T10:31:56Z</time>
      </trkpt>
      <trkpt lat="45.98883" lon="6.44056">
        <ele>1743.97</ele>
        <time>2019-09-14T10:31:57Z</time>
      </trkpt>
      <trkpt lat="45.98883" lon="6.44056">
        <ele>1747.81</ele>
        <time>2019-09-14T10:32:00Z</time>
      </trkpt>
      <trkpt lat="45.98883" lon="6.44056">
        <ele>1744.45</ele>
        <time>2019-09-14T10:32:08Z</time>
      </trkpt>
      <trkpt lat="45.98883" lon="6.44056">
        <ele>1752.62</ele>
        <time>2019-09-14T10:32:09Z</time>
      </trkpt>
      <trkpt lat="45.98883" lon="6.44057">
        <ele>1745.89</ele>
        <time>2019-09-14T10:32:10Z</time>
      </trkpt>
      <trkpt lat="45.98882" lon="6.44064">
        <ele>1744.45</ele>
        <time>2019-09-14T10:32:15Z</time>
      </trkpt>
      <trkpt lat="45.9888" lon="6.44068">
        <ele>1743.97</ele>
        <time>2019-09-14T10:32:20Z</time>
      </trkpt>
      <trkpt lat="45.98878" lon="6.44071">
        <ele>1743.97</ele>
        <time>2019-09-14T10:32:23Z</time>
      </trkpt>
      <trkpt lat="45.98877" lon="6.44072">
        <ele>1740.6</ele>
        <time>2019-09-14T10:32:24Z</time>
      </trkpt>
      <trkpt lat="45.98877" lon="6.44073">
        <ele>1746.37</ele>
        <time>2019-09-14T10:32:25Z</time>
      </trkpt>
      <trkpt lat="45.98876" lon="6.44074">
        <ele>1743.01</ele>
        <time>2019-09-14T10:32:27Z</time>
      </trkpt>
      <trkpt lat="45.98875" lon="6.44075">
        <ele>1746.85</ele>
        <time>2019-09-14T10:32:28Z</time>
      </trkpt>
      <trkpt lat="45.98874" lon="6.44077">
        <ele>1743.01</ele>
        <time>2019-09-14T10:32:30Z</time>
      </trkpt>
      <trkpt lat="45.98873" lon="6.44078">
        <ele>1748.29</ele>
        <time>2019-09-14T10:32:31Z</time>
      </trkpt>
      <trkpt lat="45.98873" lon="6.44081">
        <ele>1742.53</ele>
        <time>2019-09-14T10:32:33Z</time>
      </trkpt>
      <trkpt lat="45.98873" lon="6.44081">
        <ele>1748.78</ele>
        <time>2019-09-14T10:32:34Z</time>
      </trkpt>
      <trkpt lat="45.98872" lon="6.44082">
        <ele>1739.64</ele>
        <time>2019-09-14T10:32:35Z</time>
      </trkpt>
      <trkpt lat="45.98872" lon="6.44082">
        <ele>1743.01</ele>
        <time>2019-09-14T10:32:36Z</time>
      </trkpt>
      <trkpt lat="45.98871" lon="6.44082">
        <ele>1747.33</ele>
        <time>2019-09-14T10:32:37Z</time>
      </trkpt>
      <trkpt lat="45.9887" lon="6.44083">
        <ele>1748.29</ele>
        <time>2019-09-14T10:32:39Z</time>
      </trkpt>
      <trkpt lat="45.9887" lon="6.44084">
        <ele>1742.05</ele>
        <time>2019-09-14T10:32:40Z</time>
      </trkpt>
      <trkpt lat="45.9887" lon="6.44084">
        <ele>1747.81</ele>
        <time>2019-09-14T10:32:41Z</time>
      </trkpt>
      <trkpt lat="45.9887" lon="6.44084">
        <ele>1745.89</ele>
        <time>2019-09-14T10:32:44Z</time>
      </trkpt>
      <trkpt lat="45.9887" lon="6.44085">
        <ele>1748.78</ele>
        <time>2019-09-14T10:32:47Z</time>
      </trkpt>
      <trkpt lat="45.9887" lon="6.44085">
        <ele>1748.29</ele>
        <time>2019-09-14T10:32:48Z</time>
      </trkpt>
      <trkpt lat="45.9887" lon="6.44083">
        <ele>1743.97</ele>
        <time>2019-09-14T10:32:55Z</time>
      </trkpt>
      <trkpt lat="45.98869" lon="6.44082">
        <ele>1744.93</ele>
        <time>2019-09-14T10:33:05Z</time>
      </trkpt>
      <trkpt lat="45.9887" lon="6.4408">
        <ele>1745.41</ele>
        <time>2019-09-14T10:33:20Z</time>
      </trkpt>
      <trkpt lat="45.9887" lon="6.44081">
        <ele>1743.49</ele>
        <time>2019-09-14T10:33:34Z</time>
      </trkpt>
      <trkpt lat="45.98868" lon="6.44081">
        <ele>1744.93</ele>
        <time>2019-09-14T10:33:59Z</time>
      </trkpt>
      <trkpt lat="45.98868" lon="6.44081">
        <ele>1744.45</ele>
        <time>2019-09-14T10:34:26Z</time>
      </trkpt>
      <trkpt lat="45.98869" lon="6.44082">
        <ele>1744.45</ele>
        <time>2019-09-14T10:34:52Z</time>
      </trkpt>
      <trkpt lat="45.98868" lon="6.44082">
        <ele>1743.97</ele>
        <time>2019-09-14T10:35:14Z</time>
      </trkpt>
      <trkpt lat="45.98869" lon="6.44082">
        <ele>1743.97</ele>
        <time>2019-09-14T10:35:41Z</time>
      </trkpt>
      <trkpt lat="45.98869" lon="6.44082">
        <ele>1744.93</ele>
        <time>2019-09-14T10:35:49Z</time>
      </trkpt>
      <trkpt lat="45.98869" lon="6.44082">
        <ele>1739.64</ele>
        <time>2019-09-14T10:35:51Z</time>
      </trkpt>
      <trkpt lat="45.98869" lon="6.44082">
        <ele>1743.49</ele>
        <time>2019-09-14T10:35:52Z</time>
      </trkpt>
      <trkpt lat="45.98869" lon="6.44082">
        <ele>1755.5</ele>
        <time>2019-09-14T10:36:08Z</time>
      </trkpt>
      <trkpt lat="45.98869" lon="6.44082">
        <ele>1744.93</ele>
        <time>2019-09-14T10:36:09Z</time>
      </trkpt>
      <trkpt lat="45.98869" lon="6.44082">
        <ele>1744.93</ele>
        <time>2019-09-14T10:36:35Z</time>
      </trkpt>
      <trkpt lat="45.98869" lon="6.44082">
        <ele>1743.97</ele>
        <time>2019-09-14T10:36:58Z</time>
      </trkpt>
      <trkpt lat="45.98869" lon="6.44081">
        <ele>1743.49</ele>
        <time>2019-09-14T10:37:25Z</time>
      </trkpt>
      <trkpt lat="45.98869" lon="6.44082">
        <ele>1743.97</ele>
        <time>2019-09-14T10:37:53Z</time>
      </trkpt>
      <trkpt lat="45.98869" lon="6.44081">
        <ele>1743.97</ele>
        <time>2019-09-14T10:38:18Z</time>
      </trkpt>
      <trkpt lat="45.98869" lon="6.44081">
        <ele>1743.97</ele>
        <time>2019-09-14T10:38:36Z</time>
      </trkpt>
      <trkpt lat="45.98869" lon="6.44082">
        <ele>1743.97</ele>
        <time>2019-09-14T10:38:58Z</time>
      </trkpt>
      <trkpt lat="45.98869" lon="6.44081">
        <ele>1743.49</ele>
        <time>2019-09-14T10:39:16Z</time>
      </trkpt>
      <trkpt lat="45.9887" lon="6.44082">
        <ele>1743.97</ele>
        <time>2019-09-14T10:39:38Z</time>
      </trkpt>
      <trkpt lat="45.98869" lon="6.44083">
        <ele>1743.97</ele>
        <time>2019-09-14T10:40:01Z</time>
      </trkpt>
      <trkpt lat="45.98869" lon="6.44082">
        <ele>1743.49</ele>
        <time>2019-09-14T10:40:19Z</time>
      </trkpt>
      <trkpt lat="45.9887" lon="6.44082">
        <ele>1743.49</ele>
        <time>2019-09-14T10:40:44Z</time>
      </trkpt>
      <trkpt lat="45.9887" lon="6.44082">
        <ele>1743.49</ele>
        <time>2019-09-14T10:41:04Z</time>
      </trkpt>
      <trkpt lat="45.9887" lon="6.44083">
        <ele>1743.01</ele>
        <time>2019-09-14T10:41:24Z</time>
      </trkpt>
      <trkpt lat="45.9887" lon="6.44083">
        <ele>1743.49</ele>
        <time>2019-09-14T10:41:44Z</time>
      </trkpt>
      <trkpt lat="45.9887" lon="6.44082">
        <ele>1743.49</ele>
        <time>2019-09-14T10:42:04Z</time>
      </trkpt>
      <trkpt lat="45.98871" lon="6.44083">
        <ele>1743.01</ele>
        <time>2019-09-14T10:42:26Z</time>
      </trkpt>
      <trkpt lat="45.9887" lon="6.44085">
        <ele>1743.01</ele>
        <time>2019-09-14T10:42:46Z</time>
      </trkpt>
      <trkpt lat="45.98871" lon="6.44085">
        <ele>1743.01</ele>
        <time>2019-09-14T10:43:05Z</time>
      </trkpt>
      <trkpt lat="45.98871" lon="6.44085">
        <ele>1743.01</ele>
        <time>2019-09-14T10:43:24Z</time>
      </trkpt>
      <trkpt lat="45.98872" lon="6.44085">
        <ele>1743.01</ele>
        <time>2019-09-14T10:43:43Z</time>
      </trkpt>
      <trkpt lat="45.98871" lon="6.44084">
        <ele>1742.05</ele>
        <time>2019-09-14T10:44:02Z</time>
      </trkpt>
      <trkpt lat="45.98871" lon="6.44084">
        <ele>1742.53</ele>
        <time>2019-09-14T10:44:20Z</time>
      </trkpt>
      <trkpt lat="45.98871" lon="6.44084">
        <ele>1742.05</ele>
        <time>2019-09-14T10:44:43Z</time>
      </trkpt>
      <trkpt lat="45.98871" lon="6.44084">
        <ele>1742.53</ele>
        <time>2019-09-14T10:45:02Z</time>
      </trkpt>
      <trkpt lat="45.98871" lon="6.44084">
        <ele>1742.53</ele>
        <time>2019-09-14T10:45:19Z</time>
      </trkpt>
      <trkpt lat="45.98871" lon="6.44084">
        <ele>1742.05</ele>
        <time>2019-09-14T10:45:38Z</time>
      </trkpt>
      <trkpt lat="45.98871" lon="6.44083">
        <ele>1742.53</ele>
        <time>2019-09-14T10:45:59Z</time>
      </trkpt>
      <trkpt lat="45.98871" lon="6.44083">
        <ele>1742.53</ele>
        <time>2019-09-14T10:46:19Z</time>
      </trkpt>
      <trkpt lat="45.98871" lon="6.44083">
        <ele>1742.53</ele>
        <time>2019-09-14T10:46:38Z</time>
      </trkpt>
      <trkpt lat="45.98871" lon="6.44083">
        <ele>1742.53</ele>
        <time>2019-09-14T10:46:56Z</time>
      </trkpt>
      <trkpt lat="45.98871" lon="6.44084">
        <ele>1742.05</ele>
        <time>2019-09-14T10:47:13Z</time>
      </trkpt>
      <trkpt lat="45.98871" lon="6.44083">
        <ele>1742.53</ele>
        <time>2019-09-14T10:47:32Z</time>
      </trkpt>
      <trkpt lat="45.98872" lon="6.44083">
        <ele>1742.53</ele>
        <time>2019-09-14T10:47:52Z</time>
      </trkpt>
      <trkpt lat="45.98871" lon="6.44083">
        <ele>1742.05</ele>
        <time>2019-09-14T10:48:12Z</time>
      </trkpt>
      <trkpt lat="45.98871" lon="6.44083">
        <ele>1742.05</ele>
        <time>2019-09-14T10:48:29Z</time>
      </trkpt>
      <trkpt lat="45.98871" lon="6.44084">
        <ele>1742.53</ele>
        <time>2019-09-14T10:48:48Z</time>
      </trkpt>
      <trkpt lat="45.98871" lon="6.44084">
        <ele>1742.53</ele>
        <time>2019-09-14T10:49:09Z</time>
      </trkpt>
      <trkpt lat="45.98871" lon="6.44083">
        <ele>1742.05</ele>
        <time>2019-09-14T10:49:29Z</time>
      </trkpt>
      <trkpt lat="45.98871" lon="6.44084">
        <ele>1742.05</ele>
        <time>2019-09-14T10:49:49Z</time>
      </trkpt>
      <trkpt lat="45.98872" lon="6.44084">
        <ele>1742.05</ele>
        <time>2019-09-14T10:50:12Z</time>
      </trkpt>
      <trkpt lat="45.98872" lon="6.44084">
        <ele>1741.57</ele>
        <time>2019-09-14T10:50:35Z</time>
      </trkpt>
      <trkpt lat="45.98872" lon="6.44085">
        <ele>1741.57</ele>
        <time>2019-09-14T10:50:57Z</time>
      </trkpt>
      <trkpt lat="45.98872" lon="6.44084">
        <ele>1741.57</ele>
        <time>2019-09-14T10:51:17Z</time>
      </trkpt>
      <trkpt lat="45.98872" lon="6.44084">
        <ele>1742.05</ele>
        <time>2019-09-14T10:51:40Z</time>
      </trkpt>
      <trkpt lat="45.98872" lon="6.44085">
        <ele>1742.05</ele>
        <time>2019-09-14T10:52:02Z</time>
      </trkpt>
      <trkpt lat="45.98872" lon="6.44085">
        <ele>1741.08</ele>
        <time>2019-09-14T10:52:23Z</time>
      </trkpt>
      <trkpt lat="45.98871" lon="6.44085">
        <ele>1741.08</ele>
        <time>2019-09-14T10:52:45Z</time>
      </trkpt>
      <trkpt lat="45.98871" lon="6.44085">
        <ele>1741.08</ele>
        <time>2019-09-14T10:53:08Z</time>
      </trkpt>
      <trkpt lat="45.98871" lon="6.44085">
        <ele>1741.08</ele>
        <time>2019-09-14T10:53:26Z</time>
      </trkpt>
      <trkpt lat="45.98871" lon="6.44085">
        <ele>1740.6</ele>
        <time>2019-09-14T10:53:47Z</time>
      </trkpt>
      <trkpt lat="45.98871" lon="6.44085">
        <ele>1741.08</ele>
        <time>2019-09-14T10:54:06Z</time>
      </trkpt>
      <trkpt lat="45.9887" lon="6.44085">
        <ele>1741.08</ele>
        <time>2019-09-14T10:54:25Z</time>
      </trkpt>
      <trkpt lat="45.9887" lon="6.44084">
        <ele>1741.08</ele>
        <time>2019-09-14T10:54:48Z</time>
      </trkpt>
      <trkpt lat="45.9887" lon="6.44084">
        <ele>1741.08</ele>
        <time>2019-09-14T10:55:13Z</time>
      </trkpt>
      <trkpt lat="45.9887" lon="6.44083">
        <ele>1741.08</ele>
        <time>2019-09-14T10:55:36Z</time>
      </trkpt>
      <trkpt lat="45.98871" lon="6.44082">
        <ele>1740.12</ele>
        <time>2019-09-14T10:55:56Z</time>
      </trkpt>
      <trkpt lat="45.9887" lon="6.44083">
        <ele>1740.6</ele>
        <time>2019-09-14T10:56:14Z</time>
      </trkpt>
      <trkpt lat="45.98871" lon="6.44082">
        <ele>1740.6</ele>
        <time>2019-09-14T10:56:36Z</time>
      </trkpt>
      <trkpt lat="45.9887" lon="6.44083">
        <ele>1740.12</ele>
        <time>2019-09-14T10:57:00Z</time>
      </trkpt>
      <trkpt lat="45.9887" lon="6.44083">
        <ele>1740.6</ele>
        <time>2019-09-14T10:57:21Z</time>
      </trkpt>
      <trkpt lat="45.98871" lon="6.44083">
        <ele>1740.6</ele>
        <time>2019-09-14T10:57:40Z</time>
      </trkpt>
      <trkpt lat="45.98871" lon="6.44083">
        <ele>1740.6</ele>
        <time>2019-09-14T10:58:02Z</time>
      </trkpt>
      <trkpt lat="45.98871" lon="6.44083">
        <ele>1741.08</ele>
        <time>2019-09-14T10:58:19Z</time>
      </trkpt>
      <trkpt lat="45.9887" lon="6.44082">
        <ele>1740.6</ele>
        <time>2019-09-14T10:58:39Z</time>
      </trkpt>
      <trkpt lat="45.9887" lon="6.44083">
        <ele>1740.12</ele>
        <time>2019-09-14T10:59:01Z</time>
      </trkpt>
      <trkpt lat="45.9887" lon="6.44083">
        <ele>1740.6</ele>
        <time>2019-09-14T10:59:23Z</time>
      </trkpt>
      <trkpt lat="45.9887" lon="6.44083">
        <ele>1740.12</ele>
        <time>2019-09-14T10:59:43Z</time>
      </trkpt>
      <trkpt lat="45.9887" lon="6.44083">
        <ele>1740.12</ele>
        <time>2019-09-14T11:00:01Z</time>
      </trkpt>
      <trkpt lat="45.9887" lon="6.44083">
        <ele>1734.84</ele>
        <time>2019-09-14T11:00:03Z</time>
      </trkpt>
      <trkpt lat="45.9887" lon="6.44083">
        <ele>1739.64</ele>
        <time>2019-09-14T11:00:04Z</time>
      </trkpt>
      <trkpt lat="45.9887" lon="6.44083">
        <ele>1742.05</ele>
        <time>2019-09-14T11:00:14Z</time>
      </trkpt>
      <trkpt lat="45.9887" lon="6.44083">
        <ele>1740.12</ele>
        <time>2019-09-14T11:00:17Z</time>
      </trkpt>
      <trkpt lat="45.9887" lon="6.44083">
        <ele>1740.12</ele>
        <time>2019-09-14T11:00:39Z</time>
      </trkpt>
      <trkpt lat="45.9887" lon="6.44084">
        <ele>1740.12</ele>
        <time>2019-09-14T11:01:00Z</time>
      </trkpt>
      <trkpt lat="45.98869" lon="6.44083">
        <ele>1739.64</ele>
        <time>2019-09-14T11:01:24Z</time>
      </trkpt>
      <trkpt lat="45.98869" lon="6.44083">
        <ele>1739.64</ele>
        <time>2019-09-14T11:01:49Z</time>
      </trkpt>
      <trkpt lat="45.98869" lon="6.44084">
        <ele>1739.64</ele>
        <time>2019-09-14T11:02:07Z</time>
      </trkpt>
      <trkpt lat="45.98869" lon="6.44084">
        <ele>1739.64</ele>
        <time>2019-09-14T11:02:31Z</time>
      </trkpt>
      <trkpt lat="45.98869" lon="6.44084">
        <ele>1739.16</ele>
        <time>2019-09-14T11:02:54Z</time>
      </trkpt>
      <trkpt lat="45.98869" lon="6.44084">
        <ele>1739.64</ele>
        <time>2019-09-14T11:03:14Z</time>
      </trkpt>
      <trkpt lat="45.98869" lon="6.44084">
        <ele>1739.64</ele>
        <time>2019-09-14T11:03:39Z</time>
      </trkpt>
      <trkpt lat="45.98869" lon="6.44084">
        <ele>1739.64</ele>
        <time>2019-09-14T11:04:03Z</time>
      </trkpt>
      <trkpt lat="45.98869" lon="6.44084">
        <ele>1739.16</ele>
        <time>2019-09-14T11:04:26Z</time>
      </trkpt>
      <trkpt lat="45.98869" lon="6.44084">
        <ele>1739.16</ele>
        <time>2019-09-14T11:04:47Z</time>
      </trkpt>
      <trkpt lat="45.98869" lon="6.44083">
        <ele>1739.64</ele>
        <time>2019-09-14T11:05:11Z</time>
      </trkpt>
      <trkpt lat="45.98869" lon="6.44083">
        <ele>1739.16</ele>
        <time>2019-09-14T11:05:32Z</time>
      </trkpt>
      <trkpt lat="45.98868" lon="6.44083">
        <ele>1739.16</ele>
        <time>2019-09-14T11:05:50Z</time>
      </trkpt>
      <trkpt lat="45.98868" lon="6.44083">
        <ele>1739.16</ele>
        <time>2019-09-14T11:06:09Z</time>
      </trkpt>
      <trkpt lat="45.98868" lon="6.44083">
        <ele>1738.68</ele>
        <time>2019-09-14T11:06:31Z</time>
      </trkpt>
      <trkpt lat="45.98868" lon="6.44083">
        <ele>1738.2</ele>
        <time>2019-09-14T11:06:54Z</time>
      </trkpt>
      <trkpt lat="45.98868" lon="6.44083">
        <ele>1739.64</ele>
        <time>2019-09-14T11:07:02Z</time>
      </trkpt>
      <trkpt lat="45.98868" lon="6.44082">
        <ele>1739.16</ele>
        <time>2019-09-14T11:07:12Z</time>
      </trkpt>
      <trkpt lat="45.98868" lon="6.44082">
        <ele>1743.01</ele>
        <time>2019-09-14T11:07:19Z</time>
      </trkpt>
      <trkpt lat="45.98868" lon="6.44082">
        <ele>1742.53</ele>
        <time>2019-09-14T11:07:20Z</time>
      </trkpt>
      <trkpt lat="45.98868" lon="6.44082">
        <ele>1738.68</ele>
        <time>2019-09-14T11:07:22Z</time>
      </trkpt>
      <trkpt lat="45.98868" lon="6.44082">
        <ele>1739.64</ele>
        <time>2019-09-14T11:07:23Z</time>
      </trkpt>
      <trkpt lat="45.98868" lon="6.44083">
        <ele>1733.39</ele>
        <time>2019-09-14T11:07:40Z</time>
      </trkpt>
      <trkpt lat="45.98868" lon="6.44083">
        <ele>1742.53</ele>
        <time>2019-09-14T11:07:41Z</time>
      </trkpt>
      <trkpt lat="45.98868" lon="6.44083">
        <ele>1736.28</ele>
        <time>2019-09-14T11:07:43Z</time>
      </trkpt>
      <trkpt lat="45.98868" lon="6.44083">
        <ele>1741.57</ele>
        <time>2019-09-14T11:07:44Z</time>
      </trkpt>
      <trkpt lat="45.98868" lon="6.44083">
        <ele>1736.76</ele>
        <time>2019-09-14T11:07:47Z</time>
      </trkpt>
      <trkpt lat="45.98868" lon="6.44083">
        <ele>1745.41</ele>
        <time>2019-09-14T11:07:48Z</time>
      </trkpt>
      <trkpt lat="45.98868" lon="6.44083">
        <ele>1739.64</ele>
        <time>2019-09-14T11:07:49Z</time>
      </trkpt>
      <trkpt lat="45.98868" lon="6.44083">
        <ele>1738.68</ele>
        <time>2019-09-14T11:07:51Z</time>
      </trkpt>
      <trkpt lat="45.98872" lon="6.44082">
        <ele>1742.53</ele>
        <time>2019-09-14T11:07:57Z</time>
      </trkpt>
      <trkpt lat="45.98872" lon="6.44082">
        <ele>1739.16</ele>
        <time>2019-09-14T11:07:58Z</time>
      </trkpt>
      <trkpt lat="45.98876" lon="6.44076">
        <ele>1739.16</ele>
        <time>2019-09-14T11:08:07Z</time>
      </trkpt>
      <trkpt lat="45.98877" lon="6.44075">
        <ele>1740.6</ele>
        <time>2019-09-14T11:08:08Z</time>
      </trkpt>
      <trkpt lat="45.98881" lon="6.44069">
        <ele>1742.05</ele>
        <time>2019-09-14T11:08:16Z</time>
      </trkpt>
      <trkpt lat="45.98882" lon="6.44069">
        <ele>1738.2</ele>
        <time>2019-09-14T11:08:17Z</time>
      </trkpt>
      <trkpt lat="45.98882" lon="6.44068">
        <ele>1742.05</ele>
        <time>2019-09-14T11:08:18Z</time>
      </trkpt>
      <trkpt lat="45.98884" lon="6.44064">
        <ele>1738.68</ele>
        <time>2019-09-14T11:08:22Z</time>
      </trkpt>
      <trkpt lat="45.98885" lon="6.44063">
        <ele>1742.05</ele>
        <time>2019-09-14T11:08:24Z</time>
      </trkpt>
      <trkpt lat="45.98888" lon="6.44059">
        <ele>1738.68</ele>
        <time>2019-09-14T11:08:29Z</time>
      </trkpt>
      <trkpt lat="45.98889" lon="6.44055">
        <ele>1742.53</ele>
        <time>2019-09-14T11:08:34Z</time>
      </trkpt>
      <trkpt lat="45.9889" lon="6.44054">
        <ele>1739.16</ele>
        <time>2019-09-14T11:08:35Z</time>
      </trkpt>
      <trkpt lat="45.98892" lon="6.44051">
        <ele>1742.53</ele>
        <time>2019-09-14T11:08:41Z</time>
      </trkpt>
      <trkpt lat="45.98893" lon="6.44049">
        <ele>1739.16</ele>
        <time>2019-09-14T11:08:50Z</time>
      </trkpt>
      <trkpt lat="45.98901" lon="6.44046">
        <ele>1736.76</ele>
        <time>2019-09-14T11:09:03Z</time>
      </trkpt>
      <trkpt lat="45.98902" lon="6.44047">
        <ele>1741.08</ele>
        <time>2019-09-14T11:09:05Z</time>
      </trkpt>
      <trkpt lat="45.98903" lon="6.44047">
        <ele>1739.64</ele>
        <time>2019-09-14T11:09:06Z</time>
      </trkpt>
      <trkpt lat="45.98907" lon="6.44044">
        <ele>1735.8</ele>
        <time>2019-09-14T11:09:10Z</time>
      </trkpt>
      <trkpt lat="45.98907" lon="6.44044">
        <ele>1739.16</ele>
        <time>2019-09-14T11:09:11Z</time>
      </trkpt>
      <trkpt lat="45.9891" lon="6.4404">
        <ele>1742.53</ele>
        <time>2019-09-14T11:09:15Z</time>
      </trkpt>
      <trkpt lat="45.9891" lon="6.44038">
        <ele>1740.6</ele>
        <time>2019-09-14T11:09:18Z</time>
      </trkpt>
      <trkpt lat="45.98909" lon="6.4403">
        <ele>1741.57</ele>
        <time>2019-09-14T11:09:30Z</time>
      </trkpt>
      <trkpt lat="45.9891" lon="6.44023">
        <ele>1741.08</ele>
        <time>2019-09-14T11:09:41Z</time>
      </trkpt>
      <trkpt lat="45.9891" lon="6.4402">
        <ele>1743.97</ele>
        <time>2019-09-14T11:09:43Z</time>
      </trkpt>
      <trkpt lat="45.98911" lon="6.44015">
        <ele>1740.6</ele>
        <time>2019-09-14T11:09:48Z</time>
      </trkpt>
      <trkpt lat="45.98911" lon="6.44012">
        <ele>1744.93</ele>
        <time>2019-09-14T11:09:50Z</time>
      </trkpt>
      <trkpt lat="45.9891" lon="6.44011">
        <ele>1745.41</ele>
        <time>2019-09-14T11:09:51Z</time>
      </trkpt>
      <trkpt lat="45.9891" lon="6.44009">
        <ele>1741.57</ele>
        <time>2019-09-14T11:09:52Z</time>
      </trkpt>
      <trkpt lat="45.98909" lon="6.44008">
        <ele>1744.93</ele>
        <time>2019-09-14T11:09:53Z</time>
      </trkpt>
      <trkpt lat="45.98909" lon="6.43991">
        <ele>1742.53</ele>
        <time>2019-09-14T11:10:06Z</time>
      </trkpt>
      <trkpt lat="45.98909" lon="6.4399">
        <ele>1746.85</ele>
        <time>2019-09-14T11:10:07Z</time>
      </trkpt>
      <trkpt lat="45.98908" lon="6.43979">
        <ele>1747.81</ele>
        <time>2019-09-14T11:10:16Z</time>
      </trkpt>
      <trkpt lat="45.98907" lon="6.43977">
        <ele>1744.45</ele>
        <time>2019-09-14T11:10:18Z</time>
      </trkpt>
      <trkpt lat="45.98907" lon="6.43976">
        <ele>1748.29</ele>
        <time>2019-09-14T11:10:19Z</time>
      </trkpt>
      <trkpt lat="45.98908" lon="6.43971">
        <ele>1749.74</ele>
        <time>2019-09-14T11:10:23Z</time>
      </trkpt>
      <trkpt lat="45.98908" lon="6.4397">
        <ele>1744.93</ele>
        <time>2019-09-14T11:10:24Z</time>
      </trkpt>
      <trkpt lat="45.98908" lon="6.43969">
        <ele>1749.26</ele>
        <time>2019-09-14T11:10:25Z</time>
      </trkpt>
      <trkpt lat="45.9891" lon="6.4396">
        <ele>1748.29</ele>
        <time>2019-09-14T11:10:36Z</time>
      </trkpt>
      <trkpt lat="45.98912" lon="6.43958">
        <ele>1750.7</ele>
        <time>2019-09-14T11:10:39Z</time>
      </trkpt>
      <trkpt lat="45.98913" lon="6.43954">
        <ele>1746.37</ele>
        <time>2019-09-14T11:10:43Z</time>
      </trkpt>
      <trkpt lat="45.98914" lon="6.43953">
        <ele>1751.18</ele>
        <time>2019-09-14T11:10:44Z</time>
      </trkpt>
      <trkpt lat="45.98915" lon="6.43951">
        <ele>1747.81</ele>
        <time>2019-09-14T11:10:46Z</time>
      </trkpt>
      <trkpt lat="45.98915" lon="6.4395">
        <ele>1751.66</ele>
        <time>2019-09-14T11:10:47Z</time>
      </trkpt>
      <trkpt lat="45.98917" lon="6.43945">
        <ele>1748.29</ele>
        <time>2019-09-14T11:10:52Z</time>
      </trkpt>
      <trkpt lat="45.98917" lon="6.43944">
        <ele>1753.58</ele>
        <time>2019-09-14T11:10:53Z</time>
      </trkpt>
      <trkpt lat="45.98917" lon="6.43943">
        <ele>1750.22</ele>
        <time>2019-09-14T11:10:54Z</time>
      </trkpt>
      <trkpt lat="45.98917" lon="6.4394">
        <ele>1753.58</ele>
        <time>2019-09-14T11:10:56Z</time>
      </trkpt>
      <trkpt lat="45.98918" lon="6.43938">
        <ele>1749.74</ele>
        <time>2019-09-14T11:10:59Z</time>
      </trkpt>
      <trkpt lat="45.98919" lon="6.43937">
        <ele>1753.58</ele>
        <time>2019-09-14T11:11:01Z</time>
      </trkpt>
      <trkpt lat="45.98919" lon="6.43936">
        <ele>1749.26</ele>
        <time>2019-09-14T11:11:02Z</time>
      </trkpt>
      <trkpt lat="45.98919" lon="6.43935">
        <ele>1753.58</ele>
        <time>2019-09-14T11:11:03Z</time>
      </trkpt>
      <trkpt lat="45.98919" lon="6.43926">
        <ele>1755.5</ele>
        <time>2019-09-14T11:11:12Z</time>
      </trkpt>
      <trkpt lat="45.98918" lon="6.43917">
        <ele>1752.62</ele>
        <time>2019-09-14T11:11:23Z</time>
      </trkpt>
      <trkpt lat="45.98919" lon="6.43916">
        <ele>1755.5</ele>
        <time>2019-09-14T11:11:24Z</time>
      </trkpt>
      <trkpt lat="45.98924" lon="6.43915">
        <ele>1756.47</ele>
        <time>2019-09-14T11:11:32Z</time>
      </trkpt>
      <trkpt lat="45.98926" lon="6.43914">
        <ele>1758.39</ele>
        <time>2019-09-14T11:11:35Z</time>
      </trkpt>
      <trkpt lat="45.98926" lon="6.43914">
        <ele>1755.02</ele>
        <time>2019-09-14T11:11:36Z</time>
      </trkpt>
      <trkpt lat="45.98927" lon="6.43914">
        <ele>1759.35</ele>
        <time>2019-09-14T11:11:37Z</time>
      </trkpt>
      <trkpt lat="45.9893" lon="6.43912">
        <ele>1758.87</ele>
        <time>2019-09-14T11:11:49Z</time>
      </trkpt>
      <trkpt lat="45.98932" lon="6.43913">
        <ele>1760.79</ele>
        <time>2019-09-14T11:11:53Z</time>
      </trkpt>
      <trkpt lat="45.98936" lon="6.43914">
        <ele>1761.27</ele>
        <time>2019-09-14T11:12:05Z</time>
      </trkpt>
      <trkpt lat="45.98939" lon="6.43913">
        <ele>1762.71</ele>
        <time>2019-09-14T11:12:16Z</time>
      </trkpt>
      <trkpt lat="45.98943" lon="6.43915">
        <ele>1762.71</ele>
        <time>2019-09-14T11:12:27Z</time>
      </trkpt>
      <trkpt lat="45.98944" lon="6.43913">
        <ele>1761.75</ele>
        <time>2019-09-14T11:12:39Z</time>
      </trkpt>
      <trkpt lat="45.98943" lon="6.43911">
        <ele>1764.64</ele>
        <time>2019-09-14T11:12:50Z</time>
      </trkpt>
      <trkpt lat="45.98943" lon="6.43911">
        <ele>1762.71</ele>
        <time>2019-09-14T11:12:53Z</time>
      </trkpt>
      <trkpt lat="45.98943" lon="6.43909">
        <ele>1762.71</ele>
        <time>2019-09-14T11:13:07Z</time>
      </trkpt>
      <trkpt lat="45.98943" lon="6.43909">
        <ele>1763.2</ele>
        <time>2019-09-14T11:13:16Z</time>
      </trkpt>
      <trkpt lat="45.98943" lon="6.4391">
        <ele>1763.2</ele>
        <time>2019-09-14T11:13:24Z</time>
      </trkpt>
      <trkpt lat="45.98942" lon="6.43909">
        <ele>1762.71</ele>
        <time>2019-09-14T11:13:40Z</time>
      </trkpt>
      <trkpt lat="45.98943" lon="6.43906">
        <ele>1761.75</ele>
        <time>2019-09-14T11:13:53Z</time>
      </trkpt>
      <trkpt lat="45.98942" lon="6.43905">
        <ele>1761.75</ele>
        <time>2019-09-14T11:14:19Z</time>
      </trkpt>
      <trkpt lat="45.98942" lon="6.43906">
        <ele>1761.75</ele>
        <time>2019-09-14T11:14:45Z</time>
      </trkpt>
      <trkpt lat="45.98942" lon="6.43905">
        <ele>1762.23</ele>
        <time>2019-09-14T11:15:10Z</time>
      </trkpt>
      <trkpt lat="45.98942" lon="6.43905">
        <ele>1761.75</ele>
        <time>2019-09-14T11:15:39Z</time>
      </trkpt>
      <trkpt lat="45.98942" lon="6.43905">
        <ele>1761.75</ele>
        <time>2019-09-14T11:16:08Z</time>
      </trkpt>
      <trkpt lat="45.98943" lon="6.43905">
        <ele>1761.27</ele>
        <time>2019-09-14T11:16:39Z</time>
      </trkpt>
      <trkpt lat="45.98943" lon="6.43904">
        <ele>1761.75</ele>
        <time>2019-09-14T11:17:11Z</time>
      </trkpt>
      <trkpt lat="45.98943" lon="6.43905">
        <ele>1761.27</ele>
        <time>2019-09-14T11:17:46Z</time>
      </trkpt>
      <trkpt lat="45.98943" lon="6.43905">
        <ele>1761.75</ele>
        <time>2019-09-14T11:18:22Z</time>
      </trkpt>
      <trkpt lat="45.98943" lon="6.43905">
        <ele>1761.75</ele>
        <time>2019-09-14T11:18:58Z</time>
      </trkpt>
      <trkpt lat="45.98943" lon="6.43905">
        <ele>1761.75</ele>
        <time>2019-09-14T11:19:37Z</time>
      </trkpt>
      <trkpt lat="45.98943" lon="6.43905">
        <ele>1761.27</ele>
        <time>2019-09-14T11:20:15Z</time>
      </trkpt>
      <trkpt lat="45.98942" lon="6.43905">
        <ele>1761.75</ele>
        <time>2019-09-14T11:20:51Z</time>
      </trkpt>
      <trkpt lat="45.98942" lon="6.43905">
        <ele>1761.27</ele>
        <time>2019-09-14T11:21:25Z</time>
      </trkpt>
      <trkpt lat="45.98943" lon="6.43905">
        <ele>1761.75</ele>
        <time>2019-09-14T11:22:00Z</time>
      </trkpt>
      <trkpt lat="45.98943" lon="6.43905">
        <ele>1762.23</ele>
        <time>2019-09-14T11:22:31Z</time>
      </trkpt>
      <trkpt lat="45.98943" lon="6.43904">
        <ele>1761.75</ele>
        <time>2019-09-14T11:23:10Z</time>
      </trkpt>
      <trkpt lat="45.98943" lon="6.43905">
        <ele>1761.75</ele>
        <time>2019-09-14T11:23:41Z</time>
      </trkpt>
      <trkpt lat="45.98943" lon="6.43905">
        <ele>1761.27</ele>
        <time>2019-09-14T11:24:18Z</time>
      </trkpt>
      <trkpt lat="45.98943" lon="6.43906">
        <ele>1761.75</ele>
        <time>2019-09-14T11:24:51Z</time>
      </trkpt>
      <trkpt lat="45.98943" lon="6.43905">
        <ele>1761.75</ele>
        <time>2019-09-14T11:25:24Z</time>
      </trkpt>
      <trkpt lat="45.98943" lon="6.43905">
        <ele>1761.75</ele>
        <time>2019-09-14T11:25:51Z</time>
      </trkpt>
      <trkpt lat="45.98943" lon="6.43905">
        <ele>1761.75</ele>
        <time>2019-09-14T11:26:20Z</time>
      </trkpt>
      <trkpt lat="45.98943" lon="6.43905">
        <ele>1762.23</ele>
        <time>2019-09-14T11:26:54Z</time>
      </trkpt>
      <trkpt lat="45.98943" lon="6.43905">
        <ele>1762.23</ele>
        <time>2019-09-14T11:27:28Z</time>
      </trkpt>
      <trkpt lat="45.98943" lon="6.43905">
        <ele>1761.75</ele>
        <time>2019-09-14T11:27:57Z</time>
      </trkpt>
      <trkpt lat="45.98943" lon="6.43905">
        <ele>1761.75</ele>
        <time>2019-09-14T11:28:25Z</time>
      </trkpt>
      <trkpt lat="45.98943" lon="6.43905">
        <ele>1761.75</ele>
        <time>2019-09-14T11:28:52Z</time>
      </trkpt>
      <trkpt lat="45.98943" lon="6.43905">
        <ele>1761.75</ele>
        <time>2019-09-14T11:29:23Z</time>
      </trkpt>
      <trkpt lat="45.98943" lon="6.43905">
        <ele>1761.27</ele>
        <time>2019-09-14T11:29:54Z</time>
      </trkpt>
      <trkpt lat="45.98943" lon="6.43905">
        <ele>1762.23</ele>
        <time>2019-09-14T11:30:22Z</time>
      </trkpt>
      <trkpt lat="45.98943" lon="6.43905">
        <ele>1761.27</ele>
        <time>2019-09-14T11:30:53Z</time>
      </trkpt>
      <trkpt lat="45.98943" lon="6.43905">
        <ele>1761.75</ele>
        <time>2019-09-14T11:31:20Z</time>
      </trkpt>
      <trkpt lat="45.98943" lon="6.43905">
        <ele>1762.23</ele>
        <time>2019-09-14T11:31:44Z</time>
      </trkpt>
      <trkpt lat="45.98942" lon="6.43905">
        <ele>1761.75</ele>
        <time>2019-09-14T11:32:12Z</time>
      </trkpt>
      <trkpt lat="45.98943" lon="6.43906">
        <ele>1761.75</ele>
        <time>2019-09-14T11:32:39Z</time>
      </trkpt>
      <trkpt lat="45.98943" lon="6.43905">
        <ele>1761.27</ele>
        <time>2019-09-14T11:33:06Z</time>
      </trkpt>
      <trkpt lat="45.98943" lon="6.43904">
        <ele>1761.27</ele>
        <time>2019-09-14T11:33:28Z</time>
      </trkpt>
      <trkpt lat="45.98943" lon="6.43904">
        <ele>1761.75</ele>
        <time>2019-09-14T11:33:54Z</time>
      </trkpt>
      <trkpt lat="45.98943" lon="6.43904">
        <ele>1761.27</ele>
        <time>2019-09-14T11:34:16Z</time>
      </trkpt>
      <trkpt lat="45.98944" lon="6.43903">
        <ele>1761.27</ele>
        <time>2019-09-14T11:34:43Z</time>
      </trkpt>
      <trkpt lat="45.98944" lon="6.43903">
        <ele>1761.27</ele>
        <time>2019-09-14T11:35:04Z</time>
      </trkpt>
      <trkpt lat="45.98945" lon="6.43903">
        <ele>1761.27</ele>
        <time>2019-09-14T11:35:28Z</time>
      </trkpt>
      <trkpt lat="45.98945" lon="6.43903">
        <ele>1761.75</ele>
        <time>2019-09-14T11:35:53Z</time>
      </trkpt>
      <trkpt lat="45.98944" lon="6.43903">
        <ele>1761.75</ele>
        <time>2019-09-14T11:36:02Z</time>
      </trkpt>
      <trkpt lat="45.98944" lon="6.43903">
        <ele>1761.27</ele>
        <time>2019-09-14T11:36:28Z</time>
      </trkpt>
      <trkpt lat="45.98944" lon="6.43904">
        <ele>1760.79</ele>
        <time>2019-09-14T11:36:53Z</time>
      </trkpt>
      <trkpt lat="45.98944" lon="6.43903">
        <ele>1760.79</ele>
        <time>2019-09-14T11:37:13Z</time>
      </trkpt>
      <trkpt lat="45.98945" lon="6.43903">
        <ele>1761.27</ele>
        <time>2019-09-14T11:37:34Z</time>
      </trkpt>
      <trkpt lat="45.98945" lon="6.43903">
        <ele>1760.79</ele>
        <time>2019-09-14T11:37:36Z</time>
      </trkpt>
      <trkpt lat="45.98945" lon="6.43903">
        <ele>1762.71</ele>
        <time>2019-09-14T11:37:58Z</time>
      </trkpt>
      <trkpt lat="45.98945" lon="6.43903">
        <ele>1761.75</ele>
        <time>2019-09-14T11:38:08Z</time>
      </trkpt>
      <trkpt lat="45.98944" lon="6.43903">
        <ele>1761.75</ele>
        <time>2019-09-14T11:38:32Z</time>
      </trkpt>
      <trkpt lat="45.98945" lon="6.43903">
        <ele>1761.75</ele>
        <time>2019-09-14T11:38:54Z</time>
      </trkpt>
      <trkpt lat="45.98944" lon="6.43904">
        <ele>1762.23</ele>
        <time>2019-09-14T11:39:09Z</time>
      </trkpt>
      <trkpt lat="45.98944" lon="6.43904">
        <ele>1763.2</ele>
        <time>2019-09-14T11:39:19Z</time>
      </trkpt>
      <trkpt lat="45.98944" lon="6.43904">
        <ele>1759.83</ele>
        <time>2019-09-14T11:39:35Z</time>
      </trkpt>
      <trkpt lat="45.98944" lon="6.43904">
        <ele>1763.68</ele>
        <time>2019-09-14T11:39:36Z</time>
      </trkpt>
      <trkpt lat="45.98944" lon="6.43904">
        <ele>1763.68</ele>
        <time>2019-09-14T11:39:40Z</time>
      </trkpt>
      <trkpt lat="45.98944" lon="6.43904">
        <ele>1760.31</ele>
        <time>2019-09-14T11:39:41Z</time>
      </trkpt>
      <trkpt lat="45.98944" lon="6.43904">
        <ele>1764.64</ele>
        <time>2019-09-14T11:39:42Z</time>
      </trkpt>
      <trkpt lat="45.98945" lon="6.43904">
        <ele>1762.71</ele>
        <time>2019-09-14T11:39:56Z</time>
      </trkpt>
      <trkpt lat="45.98945" lon="6.43904">
        <ele>1762.23</ele>
        <time>2019-09-14T11:40:00Z</time>
      </trkpt>
      <trkpt lat="45.98945" lon="6.43904">
        <ele>1762.23</ele>
        <time>2019-09-14T11:40:17Z</time>
      </trkpt>
      <trkpt lat="45.98945" lon="6.43903">
        <ele>1761.27</ele>
        <time>2019-09-14T11:40:27Z</time>
      </trkpt>
      <trkpt lat="45.98944" lon="6.43904">
        <ele>1763.2</ele>
        <time>2019-09-14T11:40:30Z</time>
      </trkpt>
      <trkpt lat="45.98945" lon="6.43904">
        <ele>1759.83</ele>
        <time>2019-09-14T11:40:40Z</time>
      </trkpt>
      <trkpt lat="45.98946" lon="6.43904">
        <ele>1763.68</ele>
        <time>2019-09-14T11:40:41Z</time>
      </trkpt>
      <trkpt lat="45.98946" lon="6.43904">
        <ele>1760.31</ele>
        <time>2019-09-14T11:40:42Z</time>
      </trkpt>
      <trkpt lat="45.98947" lon="6.43904">
        <ele>1763.68</ele>
        <time>2019-09-14T11:40:43Z</time>
      </trkpt>
      <trkpt lat="45.98948" lon="6.43904">
        <ele>1762.71</ele>
        <time>2019-09-14T11:40:56Z</time>
      </trkpt>
      <trkpt lat="45.98948" lon="6.43904">
        <ele>1761.75</ele>
        <time>2019-09-14T11:41:14Z</time>
      </trkpt>
      <trkpt lat="45.98947" lon="6.43908">
        <ele>1764.64</ele>
        <time>2019-09-14T11:41:24Z</time>
      </trkpt>
      <trkpt lat="45.98946" lon="6.43908">
        <ele>1761.27</ele>
        <time>2019-09-14T11:41:25Z</time>
      </trkpt>
      <trkpt lat="45.98945" lon="6.43908">
        <ele>1764.64</ele>
        <time>2019-09-14T11:41:32Z</time>
      </trkpt>
      <trkpt lat="45.98945" lon="6.43908">
        <ele>1759.83</ele>
        <time>2019-09-14T11:41:39Z</time>
      </trkpt>
      <trkpt lat="45.98945" lon="6.43908">
        <ele>1764.16</ele>
        <time>2019-09-14T11:41:40Z</time>
      </trkpt>
      <trkpt lat="45.98945" lon="6.43908">
        <ele>1760.79</ele>
        <time>2019-09-14T11:41:42Z</time>
      </trkpt>
      <trkpt lat="45.98945" lon="6.43909">
        <ele>1764.16</ele>
        <time>2019-09-14T11:41:43Z</time>
      </trkpt>
      <trkpt lat="45.98945" lon="6.43909">
        <ele>1761.27</ele>
        <time>2019-09-14T11:41:46Z</time>
      </trkpt>
      <trkpt lat="45.9894" lon="6.43911">
        <ele>1759.83</ele>
        <time>2019-09-14T11:41:59Z</time>
      </trkpt>
      <trkpt lat="45.98939" lon="6.4391">
        <ele>1759.35</ele>
        <time>2019-09-14T11:42:03Z</time>
      </trkpt>
      <trkpt lat="45.98935" lon="6.43909">
        <ele>1758.39</ele>
        <time>2019-09-14T11:42:09Z</time>
      </trkpt>
      <trkpt lat="45.98933" lon="6.4391">
        <ele>1759.83</ele>
        <time>2019-09-14T11:42:11Z</time>
      </trkpt>
      <trkpt lat="45.98932" lon="6.43911">
        <ele>1755.99</ele>
        <time>2019-09-14T11:42:13Z</time>
      </trkpt>
      <trkpt lat="45.98926" lon="6.4391">
        <ele>1756.47</ele>
        <time>2019-09-14T11:42:19Z</time>
      </trkpt>
      <trkpt lat="45.9892" lon="6.43912">
        <ele>1756.95</ele>
        <time>2019-09-14T11:42:24Z</time>
      </trkpt>
      <trkpt lat="45.98918" lon="6.43913">
        <ele>1755.5</ele>
        <time>2019-09-14T11:42:26Z</time>
      </trkpt>
      <trkpt lat="45.98917" lon="6.43914">
        <ele>1755.02</ele>
        <time>2019-09-14T11:42:27Z</time>
      </trkpt>
      <trkpt lat="45.98918" lon="6.43917">
        <ele>1754.54</ele>
        <time>2019-09-14T11:42:29Z</time>
      </trkpt>
      <trkpt lat="45.98917" lon="6.43923">
        <ele>1753.58</ele>
        <time>2019-09-14T11:42:33Z</time>
      </trkpt>
      <trkpt lat="45.98917" lon="6.43935">
        <ele>1753.1</ele>
        <time>2019-09-14T11:42:43Z</time>
      </trkpt>
      <trkpt lat="45.98917" lon="6.43937">
        <ele>1749.74</ele>
        <time>2019-09-14T11:42:45Z</time>
      </trkpt>
      <trkpt lat="45.98917" lon="6.43941">
        <ele>1752.14</ele>
        <time>2019-09-14T11:42:48Z</time>
      </trkpt>
      <trkpt lat="45.98917" lon="6.43942">
        <ele>1751.18</ele>
        <time>2019-09-14T11:42:49Z</time>
      </trkpt>
      <trkpt lat="45.98916" lon="6.43946">
        <ele>1748.29</ele>
        <time>2019-09-14T11:42:52Z</time>
      </trkpt>
      <trkpt lat="45.98913" lon="6.4395">
        <ele>1752.14</ele>
        <time>2019-09-14T11:42:55Z</time>
      </trkpt>
      <trkpt lat="45.98913" lon="6.43953">
        <ele>1746.37</ele>
        <time>2019-09-14T11:42:57Z</time>
      </trkpt>
      <trkpt lat="45.98912" lon="6.43957">
        <ele>1752.14</ele>
        <time>2019-09-14T11:42:59Z</time>
      </trkpt>
      <trkpt lat="45.98911" lon="6.43958">
        <ele>1750.7</ele>
        <time>2019-09-14T11:43:00Z</time>
      </trkpt>
      <trkpt lat="45.98909" lon="6.4396">
        <ele>1749.26</ele>
        <time>2019-09-14T11:43:02Z</time>
      </trkpt>
      <trkpt lat="45.98908" lon="6.43963">
        <ele>1748.29</ele>
        <time>2019-09-14T11:43:05Z</time>
      </trkpt>
      <trkpt lat="45.98905" lon="6.4397">
        <ele>1748.29</ele>
        <time>2019-09-14T11:43:11Z</time>
      </trkpt>
      <trkpt lat="45.98905" lon="6.43975">
        <ele>1746.85</ele>
        <time>2019-09-14T11:43:14Z</time>
      </trkpt>
      <trkpt lat="45.98907" lon="6.43985">
        <ele>1745.41</ele>
        <time>2019-09-14T11:43:21Z</time>
      </trkpt>
      <trkpt lat="45.98907" lon="6.43989">
        <ele>1746.85</ele>
        <time>2019-09-14T11:43:23Z</time>
      </trkpt>
      <trkpt lat="45.98907" lon="6.4399">
        <ele>1743.97</ele>
        <time>2019-09-14T11:43:24Z</time>
      </trkpt>
      <trkpt lat="45.98909" lon="6.44007">
        <ele>1741.57</ele>
        <time>2019-09-14T11:43:35Z</time>
      </trkpt>
      <trkpt lat="45.98909" lon="6.44008">
        <ele>1744.93</ele>
        <time>2019-09-14T11:43:36Z</time>
      </trkpt>
      <trkpt lat="45.9891" lon="6.44012">
        <ele>1746.37</ele>
        <time>2019-09-14T11:43:38Z</time>
      </trkpt>
      <trkpt lat="45.98911" lon="6.44014">
        <ele>1741.57</ele>
        <time>2019-09-14T11:43:39Z</time>
      </trkpt>
      <trkpt lat="45.98912" lon="6.44015">
        <ele>1743.49</ele>
        <time>2019-09-14T11:43:40Z</time>
      </trkpt>
      <trkpt lat="45.98914" lon="6.44018">
        <ele>1744.45</ele>
        <time>2019-09-14T11:43:43Z</time>
      </trkpt>
      <trkpt lat="45.98915" lon="6.4402">
        <ele>1744.93</ele>
        <time>2019-09-14T11:43:45Z</time>
      </trkpt>
      <trkpt lat="45.98916" lon="6.44021">
        <ele>1744.45</ele>
        <time>2019-09-14T11:43:46Z</time>
      </trkpt>
      <trkpt lat="45.98917" lon="6.44023">
        <ele>1741.08</ele>
        <time>2019-09-14T11:43:48Z</time>
      </trkpt>
      <trkpt lat="45.98921" lon="6.44026">
        <ele>1742.53</ele>
        <time>2019-09-14T11:43:54Z</time>
      </trkpt>
      <trkpt lat="45.98923" lon="6.44028">
        <ele>1740.12</ele>
        <time>2019-09-14T11:43:56Z</time>
      </trkpt>
      <trkpt lat="45.98924" lon="6.44031">
        <ele>1742.05</ele>
        <time>2019-09-14T11:43:59Z</time>
      </trkpt>
      <trkpt lat="45.98925" lon="6.44032">
        <ele>1741.57</ele>
        <time>2019-09-14T11:44:00Z</time>
      </trkpt>
      <trkpt lat="45.98928" lon="6.44042">
        <ele>1741.57</ele>
        <time>2019-09-14T11:44:07Z</time>
      </trkpt>
      <trkpt lat="45.98928" lon="6.44046">
        <ele>1738.2</ele>
        <time>2019-09-14T11:44:10Z</time>
      </trkpt>
      <trkpt lat="45.98927" lon="6.44047">
        <ele>1743.01</ele>
        <time>2019-09-14T11:44:12Z</time>
      </trkpt>
      <trkpt lat="45.98924" lon="6.44051">
        <ele>1743.49</ele>
        <time>2019-09-14T11:44:15Z</time>
      </trkpt>
      <trkpt lat="45.98923" lon="6.44054">
        <ele>1737.24</ele>
        <time>2019-09-14T11:44:17Z</time>
      </trkpt>
      <trkpt lat="45.98922" lon="6.44055">
        <ele>1742.05</ele>
        <time>2019-09-14T11:44:18Z</time>
      </trkpt>
      <trkpt lat="45.98922" lon="6.44056">
        <ele>1742.05</ele>
        <time>2019-09-14T11:44:19Z</time>
      </trkpt>
      <trkpt lat="45.98921" lon="6.44056">
        <ele>1738.2</ele>
        <time>2019-09-14T11:44:20Z</time>
      </trkpt>
      <trkpt lat="45.9892" lon="6.44056">
        <ele>1742.05</ele>
        <time>2019-09-14T11:44:21Z</time>
      </trkpt>
      <trkpt lat="45.98919" lon="6.44057">
        <ele>1739.16</ele>
        <time>2019-09-14T11:44:23Z</time>
      </trkpt>
      <trkpt lat="45.98918" lon="6.44058">
        <ele>1742.53</ele>
        <time>2019-09-14T11:44:24Z</time>
      </trkpt>
      <trkpt lat="45.98915" lon="6.44058">
        <ele>1743.97</ele>
        <time>2019-09-14T11:44:29Z</time>
      </trkpt>
      <trkpt lat="45.98913" lon="6.44058">
        <ele>1743.01</ele>
        <time>2019-09-14T11:44:31Z</time>
      </trkpt>
      <trkpt lat="45.98911" lon="6.44059">
        <ele>1739.64</ele>
        <time>2019-09-14T11:44:33Z</time>
      </trkpt>
      <trkpt lat="45.9891" lon="6.44059">
        <ele>1744.93</ele>
        <time>2019-09-14T11:44:35Z</time>
      </trkpt>
      <trkpt lat="45.98909" lon="6.44059">
        <ele>1741.08</ele>
        <time>2019-09-14T11:44:36Z</time>
      </trkpt>
      <trkpt lat="45.98907" lon="6.44062">
        <ele>1744.93</ele>
        <time>2019-09-14T11:44:39Z</time>
      </trkpt>
      <trkpt lat="45.98906" lon="6.44064">
        <ele>1742.05</ele>
        <time>2019-09-14T11:44:41Z</time>
      </trkpt>
      <trkpt lat="45.98905" lon="6.44067">
        <ele>1742.53</ele>
        <time>2019-09-14T11:44:43Z</time>
      </trkpt>
      <trkpt lat="45.98902" lon="6.44073">
        <ele>1745.89</ele>
        <time>2019-09-14T11:44:48Z</time>
      </trkpt>
      <trkpt lat="45.98902" lon="6.44075">
        <ele>1744.93</ele>
        <time>2019-09-14T11:44:50Z</time>
      </trkpt>
      <trkpt lat="45.98901" lon="6.44078">
        <ele>1742.05</ele>
        <time>2019-09-14T11:44:53Z</time>
      </trkpt>
      <trkpt lat="45.98901" lon="6.44079">
        <ele>1746.37</ele>
        <time>2019-09-14T11:44:54Z</time>
      </trkpt>
      <trkpt lat="45.989" lon="6.44083">
        <ele>1742.05</ele>
        <time>2019-09-14T11:44:58Z</time>
      </trkpt>
      <trkpt lat="45.989" lon="6.44084">
        <ele>1745.89</ele>
        <time>2019-09-14T11:44:59Z</time>
      </trkpt>
      <trkpt lat="45.989" lon="6.44088">
        <ele>1740.6</ele>
        <time>2019-09-14T11:45:01Z</time>
      </trkpt>
      <trkpt lat="45.98899" lon="6.44089">
        <ele>1746.37</ele>
        <time>2019-09-14T11:45:02Z</time>
      </trkpt>
      <trkpt lat="45.98898" lon="6.44092">
        <ele>1745.41</ele>
        <time>2019-09-14T11:45:06Z</time>
      </trkpt>
      <trkpt lat="45.98897" lon="6.44095">
        <ele>1745.89</ele>
        <time>2019-09-14T11:45:08Z</time>
      </trkpt>
      <trkpt lat="45.98897" lon="6.441">
        <ele>1741.57</ele>
        <time>2019-09-14T11:45:12Z</time>
      </trkpt>
      <trkpt lat="45.98897" lon="6.44101">
        <ele>1746.85</ele>
        <time>2019-09-14T11:45:13Z</time>
      </trkpt>
      <trkpt lat="45.98895" lon="6.44111">
        <ele>1748.29</ele>
        <time>2019-09-14T11:45:23Z</time>
      </trkpt>
      <trkpt lat="45.98895" lon="6.44116">
        <ele>1744.93</ele>
        <time>2019-09-14T11:45:28Z</time>
      </trkpt>
      <trkpt lat="45.98895" lon="6.44118">
        <ele>1749.26</ele>
        <time>2019-09-14T11:45:31Z</time>
      </trkpt>
      <trkpt lat="45.98893" lon="6.44119">
        <ele>1747.81</ele>
        <time>2019-09-14T11:45:35Z</time>
      </trkpt>
      <trkpt lat="45.98892" lon="6.44121">
        <ele>1750.7</ele>
        <time>2019-09-14T11:45:37Z</time>
      </trkpt>
      <trkpt lat="45.98892" lon="6.44122">
        <ele>1744.93</ele>
        <time>2019-09-14T11:45:38Z</time>
      </trkpt>
      <trkpt lat="45.98891" lon="6.44123">
        <ele>1748.78</ele>
        <time>2019-09-14T11:45:40Z</time>
      </trkpt>
      <trkpt lat="45.98888" lon="6.44127">
        <ele>1744.45</ele>
        <time>2019-09-14T11:45:46Z</time>
      </trkpt>
      <trkpt lat="45.98888" lon="6.44128">
        <ele>1750.7</ele>
        <time>2019-09-14T11:45:47Z</time>
      </trkpt>
      <trkpt lat="45.98887" lon="6.44128">
        <ele>1746.37</ele>
        <time>2019-09-14T11:45:48Z</time>
      </trkpt>
      <trkpt lat="45.98887" lon="6.44128">
        <ele>1750.7</ele>
        <time>2019-09-14T11:45:49Z</time>
      </trkpt>
      <trkpt lat="45.98886" lon="6.44129">
        <ele>1747.33</ele>
        <time>2019-09-14T11:45:51Z</time>
      </trkpt>
      <trkpt lat="45.98883" lon="6.44129">
        <ele>1752.62</ele>
        <time>2019-09-14T11:45:55Z</time>
      </trkpt>
      <trkpt lat="45.98882" lon="6.4413">
        <ele>1746.37</ele>
        <time>2019-09-14T11:45:56Z</time>
      </trkpt>
      <trkpt lat="45.98881" lon="6.4413">
        <ele>1751.66</ele>
        <time>2019-09-14T11:45:57Z</time>
      </trkpt>
      <trkpt lat="45.98879" lon="6.44132">
        <ele>1746.85</ele>
        <time>2019-09-14T11:46:01Z</time>
      </trkpt>
      <trkpt lat="45.98878" lon="6.44132">
        <ele>1751.18</ele>
        <time>2019-09-14T11:46:02Z</time>
      </trkpt>
      <trkpt lat="45.98877" lon="6.44132">
        <ele>1747.81</ele>
        <time>2019-09-14T11:46:04Z</time>
      </trkpt>
      <trkpt lat="45.98875" lon="6.44132">
        <ele>1751.18</ele>
        <time>2019-09-14T11:46:05Z</time>
      </trkpt>
      <trkpt lat="45.98869" lon="6.44136">
        <ele>1753.58</ele>
        <time>2019-09-14T11:46:17Z</time>
      </trkpt>
      <trkpt lat="45.98868" lon="6.44136">
        <ele>1750.22</ele>
        <time>2019-09-14T11:46:20Z</time>
      </trkpt>
      <trkpt lat="45.98868" lon="6.44136">
        <ele>1753.58</ele>
        <time>2019-09-14T11:46:21Z</time>
      </trkpt>
      <trkpt lat="45.98867" lon="6.44137">
        <ele>1748.29</ele>
        <time>2019-09-14T11:46:22Z</time>
      </trkpt>
      <trkpt lat="45.98867" lon="6.44137">
        <ele>1754.06</ele>
        <time>2019-09-14T11:46:23Z</time>
      </trkpt>
      <trkpt lat="45.98866" lon="6.44139">
        <ele>1749.74</ele>
        <time>2019-09-14T11:46:27Z</time>
      </trkpt>
      <trkpt lat="45.98865" lon="6.44139">
        <ele>1754.54</ele>
        <time>2019-09-14T11:46:28Z</time>
      </trkpt>
      <trkpt lat="45.98865" lon="6.4414">
        <ele>1751.18</ele>
        <time>2019-09-14T11:46:29Z</time>
      </trkpt>
      <trkpt lat="45.98864" lon="6.4414">
        <ele>1755.02</ele>
        <time>2019-09-14T11:46:30Z</time>
      </trkpt>
      <trkpt lat="45.98862" lon="6.44143">
        <ele>1752.14</ele>
        <time>2019-09-14T11:46:36Z</time>
      </trkpt>
      <trkpt lat="45.98862" lon="6.44144">
        <ele>1755.99</ele>
        <time>2019-09-14T11:46:37Z</time>
      </trkpt>
      <trkpt lat="45.98857" lon="6.44149">
        <ele>1759.35</ele>
        <time>2019-09-14T11:46:47Z</time>
      </trkpt>
      <trkpt lat="45.98856" lon="6.44149">
        <ele>1755.99</ele>
        <time>2019-09-14T11:46:48Z</time>
      </trkpt>
      <trkpt lat="45.98854" lon="6.44149">
        <ele>1759.83</ele>
        <time>2019-09-14T11:46:52Z</time>
      </trkpt>
      <trkpt lat="45.98853" lon="6.44149">
        <ele>1753.58</ele>
        <time>2019-09-14T11:46:53Z</time>
      </trkpt>
      <trkpt lat="45.98853" lon="6.44149">
        <ele>1759.35</ele>
        <time>2019-09-14T11:46:54Z</time>
      </trkpt>
      <trkpt lat="45.98852" lon="6.4415">
        <ele>1754.54</ele>
        <time>2019-09-14T11:46:55Z</time>
      </trkpt>
      <trkpt lat="45.98852" lon="6.4415">
        <ele>1759.83</ele>
        <time>2019-09-14T11:46:56Z</time>
      </trkpt>
      <trkpt lat="45.98852" lon="6.44151">
        <ele>1755.99</ele>
        <time>2019-09-14T11:46:57Z</time>
      </trkpt>
      <trkpt lat="45.98852" lon="6.44152">
        <ele>1758.87</ele>
        <time>2019-09-14T11:46:58Z</time>
      </trkpt>
      <trkpt lat="45.98851" lon="6.44152">
        <ele>1754.06</ele>
        <time>2019-09-14T11:46:59Z</time>
      </trkpt>
      <trkpt lat="45.98851" lon="6.44153">
        <ele>1759.35</ele>
        <time>2019-09-14T11:47:00Z</time>
      </trkpt>
      <trkpt lat="45.9885" lon="6.44156">
        <ele>1758.87</ele>
        <time>2019-09-14T11:47:04Z</time>
      </trkpt>
      <trkpt lat="45.98846" lon="6.44163">
        <ele>1759.83</ele>
        <time>2019-09-14T11:47:14Z</time>
      </trkpt>
      <trkpt lat="45.98844" lon="6.44165">
        <ele>1762.71</ele>
        <time>2019-09-14T11:47:23Z</time>
      </trkpt>
      <trkpt lat="45.98841" lon="6.44166">
        <ele>1758.39</ele>
        <time>2019-09-14T11:47:35Z</time>
      </trkpt>
      <trkpt lat="45.9884" lon="6.44166">
        <ele>1764.64</ele>
        <time>2019-09-14T11:47:36Z</time>
      </trkpt>
      <trkpt lat="45.9884" lon="6.44167">
        <ele>1760.79</ele>
        <time>2019-09-14T11:47:37Z</time>
      </trkpt>
      <trkpt lat="45.98838" lon="6.44168">
        <ele>1765.12</ele>
        <time>2019-09-14T11:47:40Z</time>
      </trkpt>
      <trkpt lat="45.98836" lon="6.44169">
        <ele>1761.27</ele>
        <time>2019-09-14T11:47:43Z</time>
      </trkpt>
      <trkpt lat="45.98834" lon="6.44169">
        <ele>1764.64</ele>
        <time>2019-09-14T11:47:46Z</time>
      </trkpt>
      <trkpt lat="45.98831" lon="6.44171">
        <ele>1760.79</ele>
        <time>2019-09-14T11:47:50Z</time>
      </trkpt>
      <trkpt lat="45.98831" lon="6.44172">
        <ele>1765.12</ele>
        <time>2019-09-14T11:47:51Z</time>
      </trkpt>
      <trkpt lat="45.98829" lon="6.44172">
        <ele>1759.83</ele>
        <time>2019-09-14T11:47:53Z</time>
      </trkpt>
      <trkpt lat="45.98828" lon="6.44172">
        <ele>1765.12</ele>
        <time>2019-09-14T11:47:54Z</time>
      </trkpt>
      <trkpt lat="45.98828" lon="6.44173">
        <ele>1761.75</ele>
        <time>2019-09-14T11:47:55Z</time>
      </trkpt>
      <trkpt lat="45.98827" lon="6.44173">
        <ele>1765.6</ele>
        <time>2019-09-14T11:47:56Z</time>
      </trkpt>
      <trkpt lat="45.98827" lon="6.44173">
        <ele>1761.27</ele>
        <time>2019-09-14T11:47:57Z</time>
      </trkpt>
      <trkpt lat="45.98826" lon="6.44173">
        <ele>1765.6</ele>
        <time>2019-09-14T11:47:58Z</time>
      </trkpt>
      <trkpt lat="45.98824" lon="6.44178">
        <ele>1760.79</ele>
        <time>2019-09-14T11:48:02Z</time>
      </trkpt>
      <trkpt lat="45.98824" lon="6.44179">
        <ele>1766.56</ele>
        <time>2019-09-14T11:48:03Z</time>
      </trkpt>
      <trkpt lat="45.98823" lon="6.44179">
        <ele>1763.68</ele>
        <time>2019-09-14T11:48:07Z</time>
      </trkpt>
      <trkpt lat="45.98823" lon="6.44179">
        <ele>1767.04</ele>
        <time>2019-09-14T11:48:08Z</time>
      </trkpt>
      <trkpt lat="45.98822" lon="6.4418">
        <ele>1763.68</ele>
        <time>2019-09-14T11:48:09Z</time>
      </trkpt>
      <trkpt lat="45.98821" lon="6.4418">
        <ele>1768</ele>
        <time>2019-09-14T11:48:10Z</time>
      </trkpt>
      <trkpt lat="45.98821" lon="6.4418">
        <ele>1763.2</ele>
        <time>2019-09-14T11:48:14Z</time>
      </trkpt>
      <trkpt lat="45.98821" lon="6.4418">
        <ele>1768</ele>
        <time>2019-09-14T11:48:15Z</time>
      </trkpt>
      <trkpt lat="45.9882" lon="6.44181">
        <ele>1762.71</ele>
        <time>2019-09-14T11:48:16Z</time>
      </trkpt>
      <trkpt lat="45.98818" lon="6.44182">
        <ele>1768</ele>
        <time>2019-09-14T11:48:18Z</time>
      </trkpt>
      <trkpt lat="45.98818" lon="6.44182">
        <ele>1763.2</ele>
        <time>2019-09-14T11:48:19Z</time>
      </trkpt>
      <trkpt lat="45.98817" lon="6.44182">
        <ele>1767.52</ele>
        <time>2019-09-14T11:48:20Z</time>
      </trkpt>
      <trkpt lat="45.98816" lon="6.44182">
        <ele>1763.68</ele>
        <time>2019-09-14T11:48:21Z</time>
      </trkpt>
      <trkpt lat="45.98816" lon="6.44182">
        <ele>1768</ele>
        <time>2019-09-14T11:48:22Z</time>
      </trkpt>
      <trkpt lat="45.98814" lon="6.44185">
        <ele>1763.68</ele>
        <time>2019-09-14T11:48:25Z</time>
      </trkpt>
      <trkpt lat="45.98813" lon="6.44185">
        <ele>1767.52</ele>
        <time>2019-09-14T11:48:26Z</time>
      </trkpt>
      <trkpt lat="45.98811" lon="6.44187">
        <ele>1763.2</ele>
        <time>2019-09-14T11:48:30Z</time>
      </trkpt>
      <trkpt lat="45.98811" lon="6.44187">
        <ele>1768.96</ele>
        <time>2019-09-14T11:48:31Z</time>
      </trkpt>
      <trkpt lat="45.9881" lon="6.44188">
        <ele>1764.64</ele>
        <time>2019-09-14T11:48:32Z</time>
      </trkpt>
      <trkpt lat="45.98809" lon="6.44189">
        <ele>1768.48</ele>
        <time>2019-09-14T11:48:33Z</time>
      </trkpt>
      <trkpt lat="45.98808" lon="6.44191">
        <ele>1763.68</ele>
        <time>2019-09-14T11:48:34Z</time>
      </trkpt>
      <trkpt lat="45.98808" lon="6.44192">
        <ele>1769.44</ele>
        <time>2019-09-14T11:48:35Z</time>
      </trkpt>
      <trkpt lat="45.98807" lon="6.44192">
        <ele>1763.2</ele>
        <time>2019-09-14T11:48:36Z</time>
      </trkpt>
      <trkpt lat="45.98806" lon="6.44193">
        <ele>1768.96</ele>
        <time>2019-09-14T11:48:37Z</time>
      </trkpt>
      <trkpt lat="45.98803" lon="6.44195">
        <ele>1765.12</ele>
        <time>2019-09-14T11:48:43Z</time>
      </trkpt>
      <trkpt lat="45.98803" lon="6.44196">
        <ele>1770.41</ele>
        <time>2019-09-14T11:48:44Z</time>
      </trkpt>
      <trkpt lat="45.988" lon="6.44197">
        <ele>1766.56</ele>
        <time>2019-09-14T11:48:48Z</time>
      </trkpt>
      <trkpt lat="45.98799" lon="6.44198">
        <ele>1770.41</ele>
        <time>2019-09-14T11:48:49Z</time>
      </trkpt>
      <trkpt lat="45.98793" lon="6.44201">
        <ele>1768.96</ele>
        <time>2019-09-14T11:48:58Z</time>
      </trkpt>
      <trkpt lat="45.98792" lon="6.44201">
        <ele>1772.33</ele>
        <time>2019-09-14T11:49:01Z</time>
      </trkpt>
      <trkpt lat="45.98789" lon="6.44203">
        <ele>1774.73</ele>
        <time>2019-09-14T11:49:07Z</time>
      </trkpt>
      <trkpt lat="45.98788" lon="6.44205">
        <ele>1773.29</ele>
        <time>2019-09-14T11:49:09Z</time>
      </trkpt>
      <trkpt lat="45.98784" lon="6.44207">
        <ele>1769.92</ele>
        <time>2019-09-14T11:49:13Z</time>
      </trkpt>
      <trkpt lat="45.98784" lon="6.44207">
        <ele>1775.69</ele>
        <time>2019-09-14T11:49:14Z</time>
      </trkpt>
      <trkpt lat="45.98783" lon="6.44208">
        <ele>1775.21</ele>
        <time>2019-09-14T11:49:15Z</time>
      </trkpt>
      <trkpt lat="45.98779" lon="6.44214">
        <ele>1773.29</ele>
        <time>2019-09-14T11:49:21Z</time>
      </trkpt>
      <trkpt lat="45.98778" lon="6.44214">
        <ele>1778.1</ele>
        <time>2019-09-14T11:49:22Z</time>
      </trkpt>
      <trkpt lat="45.98777" lon="6.44215">
        <ele>1772.81</ele>
        <time>2019-09-14T11:49:23Z</time>
      </trkpt>
      <trkpt lat="45.98777" lon="6.44215">
        <ele>1777.13</ele>
        <time>2019-09-14T11:49:24Z</time>
      </trkpt>
      <trkpt lat="45.98776" lon="6.44215">
        <ele>1772.81</ele>
        <time>2019-09-14T11:49:27Z</time>
      </trkpt>
      <trkpt lat="45.98775" lon="6.44216">
        <ele>1773.29</ele>
        <time>2019-09-14T11:49:28Z</time>
      </trkpt>
      <trkpt lat="45.98774" lon="6.44216">
        <ele>1777.61</ele>
        <time>2019-09-14T11:49:29Z</time>
      </trkpt>
      <trkpt lat="45.98774" lon="6.44216">
        <ele>1777.13</ele>
        <time>2019-09-14T11:49:30Z</time>
      </trkpt>
      <trkpt lat="45.98769" lon="6.44215">
        <ele>1778.1</ele>
        <time>2019-09-14T11:49:39Z</time>
      </trkpt>
      <trkpt lat="45.98765" lon="6.44211">
        <ele>1780.98</ele>
        <time>2019-09-14T11:49:48Z</time>
      </trkpt>
      <trkpt lat="45.98765" lon="6.4421">
        <ele>1777.61</ele>
        <time>2019-09-14T11:49:52Z</time>
      </trkpt>
      <trkpt lat="45.98765" lon="6.4421">
        <ele>1781.46</ele>
        <time>2019-09-14T11:49:53Z</time>
      </trkpt>
      <trkpt lat="45.98765" lon="6.4421">
        <ele>1776.65</ele>
        <time>2019-09-14T11:49:54Z</time>
      </trkpt>
      <trkpt lat="45.98765" lon="6.4421">
        <ele>1781.94</ele>
        <time>2019-09-14T11:49:55Z</time>
      </trkpt>
      <trkpt lat="45.9876" lon="6.44212">
        <ele>1781.94</ele>
        <time>2019-09-14T11:50:05Z</time>
      </trkpt>
      <trkpt lat="45.98758" lon="6.44213">
        <ele>1785.31</ele>
        <time>2019-09-14T11:50:12Z</time>
      </trkpt>
      <trkpt lat="45.98753" lon="6.44213">
        <ele>1781.46</ele>
        <time>2019-09-14T11:50:18Z</time>
      </trkpt>
      <trkpt lat="45.98752" lon="6.44213">
        <ele>1785.31</ele>
        <time>2019-09-14T11:50:19Z</time>
      </trkpt>
      <trkpt lat="45.98751" lon="6.44213">
        <ele>1781.46</ele>
        <time>2019-09-14T11:50:21Z</time>
      </trkpt>
      <trkpt lat="45.9875" lon="6.44213">
        <ele>1786.27</ele>
        <time>2019-09-14T11:50:22Z</time>
      </trkpt>
      <trkpt lat="45.98749" lon="6.44211">
        <ele>1780.98</ele>
        <time>2019-09-14T11:50:24Z</time>
      </trkpt>
      <trkpt lat="45.98748" lon="6.4421">
        <ele>1785.31</ele>
        <time>2019-09-14T11:50:25Z</time>
      </trkpt>
      <trkpt lat="45.98741" lon="6.44206">
        <ele>1787.23</ele>
        <time>2019-09-14T11:50:35Z</time>
      </trkpt>
      <trkpt lat="45.9874" lon="6.44206">
        <ele>1782.9</ele>
        <time>2019-09-14T11:50:36Z</time>
      </trkpt>
      <trkpt lat="45.9874" lon="6.44206">
        <ele>1786.75</ele>
        <time>2019-09-14T11:50:37Z</time>
      </trkpt>
      <trkpt lat="45.98739" lon="6.44207">
        <ele>1784.82</ele>
        <time>2019-09-14T11:50:40Z</time>
      </trkpt>
      <trkpt lat="45.98738" lon="6.44205">
        <ele>1787.23</ele>
        <time>2019-09-14T11:50:42Z</time>
      </trkpt>
      <trkpt lat="45.98734" lon="6.44199">
        <ele>1784.34</ele>
        <time>2019-09-14T11:50:47Z</time>
      </trkpt>
      <trkpt lat="45.98732" lon="6.44197">
        <ele>1787.71</ele>
        <time>2019-09-14T11:50:50Z</time>
      </trkpt>
      <trkpt lat="45.98731" lon="6.44197">
        <ele>1783.38</ele>
        <time>2019-09-14T11:50:51Z</time>
      </trkpt>
      <trkpt lat="45.9873" lon="6.44196">
        <ele>1787.23</ele>
        <time>2019-09-14T11:50:52Z</time>
      </trkpt>
      <trkpt lat="45.98725" lon="6.44191">
        <ele>1786.75</ele>
        <time>2019-09-14T11:50:59Z</time>
      </trkpt>
      <trkpt lat="45.98724" lon="6.4419">
        <ele>1785.79</ele>
        <time>2019-09-14T11:51:00Z</time>
      </trkpt>
      <trkpt lat="45.98721" lon="6.44188">
        <ele>1781.46</ele>
        <time>2019-09-14T11:51:02Z</time>
      </trkpt>
      <trkpt lat="45.98719" lon="6.44186">
        <ele>1785.31</ele>
        <time>2019-09-14T11:51:03Z</time>
      </trkpt>
      <trkpt lat="45.98717" lon="6.44185">
        <ele>1780.02</ele>
        <time>2019-09-14T11:51:04Z</time>
      </trkpt>
      <trkpt lat="45.98715" lon="6.44184">
        <ele>1785.31</ele>
        <time>2019-09-14T11:51:06Z</time>
      </trkpt>
      <trkpt lat="45.98713" lon="6.44185">
        <ele>1781.94</ele>
        <time>2019-09-14T11:51:08Z</time>
      </trkpt>
      <trkpt lat="45.98712" lon="6.44186">
        <ele>1786.75</ele>
        <time>2019-09-14T11:51:09Z</time>
      </trkpt>
      <trkpt lat="45.98712" lon="6.44186">
        <ele>1782.9</ele>
        <time>2019-09-14T11:51:10Z</time>
      </trkpt>
      <trkpt lat="45.98711" lon="6.44186">
        <ele>1787.23</ele>
        <time>2019-09-14T11:51:13Z</time>
      </trkpt>
      <trkpt lat="45.98711" lon="6.44186">
        <ele>1786.75</ele>
        <time>2019-09-14T11:51:14Z</time>
      </trkpt>
      <trkpt lat="45.98706" lon="6.44185">
        <ele>1782.42</ele>
        <time>2019-09-14T11:51:21Z</time>
      </trkpt>
      <trkpt lat="45.98705" lon="6.44185">
        <ele>1787.23</ele>
        <time>2019-09-14T11:51:22Z</time>
      </trkpt>
      <trkpt lat="45.98704" lon="6.44185">
        <ele>1788.19</ele>
        <time>2019-09-14T11:51:24Z</time>
      </trkpt>
      <trkpt lat="45.98702" lon="6.44183">
        <ele>1782.9</ele>
        <time>2019-09-14T11:51:26Z</time>
      </trkpt>
      <trkpt lat="45.987" lon="6.44183">
        <ele>1786.75</ele>
        <time>2019-09-14T11:51:27Z</time>
      </trkpt>
      <trkpt lat="45.98698" lon="6.44181">
        <ele>1782.9</ele>
        <time>2019-09-14T11:51:29Z</time>
      </trkpt>
      <trkpt lat="45.98697" lon="6.44179">
        <ele>1786.75</ele>
        <time>2019-09-14T11:51:30Z</time>
      </trkpt>
      <trkpt lat="45.98695" lon="6.44178">
        <ele>1788.19</ele>
        <time>2019-09-14T11:51:32Z</time>
      </trkpt>
      <trkpt lat="45.98693" lon="6.44176">
        <ele>1784.82</ele>
        <time>2019-09-14T11:51:34Z</time>
      </trkpt>
      <trkpt lat="45.98692" lon="6.44175">
        <ele>1784.82</ele>
        <time>2019-09-14T11:51:35Z</time>
      </trkpt>
      <trkpt lat="45.98692" lon="6.44174">
        <ele>1789.15</ele>
        <time>2019-09-14T11:51:36Z</time>
      </trkpt>
      <trkpt lat="45.98683" lon="6.44168">
        <ele>1787.71</ele>
        <time>2019-09-14T11:51:46Z</time>
      </trkpt>
      <trkpt lat="45.98682" lon="6.44166">
        <ele>1791.07</ele>
        <time>2019-09-14T11:51:48Z</time>
      </trkpt>
      <trkpt lat="45.9868" lon="6.44165">
        <ele>1787.71</ele>
        <time>2019-09-14T11:51:50Z</time>
      </trkpt>
      <trkpt lat="45.98678" lon="6.44164">
        <ele>1792.03</ele>
        <time>2019-09-14T11:51:52Z</time>
      </trkpt>
      <trkpt lat="45.98677" lon="6.44163">
        <ele>1788.19</ele>
        <time>2019-09-14T11:51:53Z</time>
      </trkpt>
      <trkpt lat="45.98675" lon="6.44162">
        <ele>1793</ele>
        <time>2019-09-14T11:51:55Z</time>
      </trkpt>
      <trkpt lat="45.98674" lon="6.44161">
        <ele>1788.19</ele>
        <time>2019-09-14T11:51:56Z</time>
      </trkpt>
      <trkpt lat="45.9867" lon="6.4416">
        <ele>1792.52</ele>
        <time>2019-09-14T11:52:02Z</time>
      </trkpt>
      <trkpt lat="45.98669" lon="6.44158">
        <ele>1788.19</ele>
        <time>2019-09-14T11:52:04Z</time>
      </trkpt>
      <trkpt lat="45.98668" lon="6.44158">
        <ele>1792.52</ele>
        <time>2019-09-14T11:52:05Z</time>
      </trkpt>
      <trkpt lat="45.98667" lon="6.44157">
        <ele>1789.15</ele>
        <time>2019-09-14T11:52:07Z</time>
      </trkpt>
      <trkpt lat="45.98666" lon="6.44156">
        <ele>1793</ele>
        <time>2019-09-14T11:52:08Z</time>
      </trkpt>
      <trkpt lat="45.98661" lon="6.44152">
        <ele>1796.84</ele>
        <time>2019-09-14T11:52:18Z</time>
      </trkpt>
      <trkpt lat="45.9866" lon="6.44151">
        <ele>1791.07</ele>
        <time>2019-09-14T11:52:19Z</time>
      </trkpt>
      <trkpt lat="45.98659" lon="6.4415">
        <ele>1794.92</ele>
        <time>2019-09-14T11:52:20Z</time>
      </trkpt>
      <trkpt lat="45.98658" lon="6.44149">
        <ele>1791.55</ele>
        <time>2019-09-14T11:52:22Z</time>
      </trkpt>
      <trkpt lat="45.98657" lon="6.44146">
        <ele>1798.28</ele>
        <time>2019-09-14T11:52:24Z</time>
      </trkpt>
      <trkpt lat="45.98656" lon="6.44145">
        <ele>1794.44</ele>
        <time>2019-09-14T11:52:25Z</time>
      </trkpt>
      <trkpt lat="45.98653" lon="6.44144">
        <ele>1797.8</ele>
        <time>2019-09-14T11:52:28Z</time>
      </trkpt>
      <trkpt lat="45.98652" lon="6.44143">
        <ele>1791.55</ele>
        <time>2019-09-14T11:52:29Z</time>
      </trkpt>
      <trkpt lat="45.98651" lon="6.44142">
        <ele>1797.32</ele>
        <time>2019-09-14T11:52:30Z</time>
      </trkpt>
      <trkpt lat="45.9865" lon="6.44139">
        <ele>1793.48</ele>
        <time>2019-09-14T11:52:35Z</time>
      </trkpt>
      <trkpt lat="45.9865" lon="6.44137">
        <ele>1797.8</ele>
        <time>2019-09-14T11:52:36Z</time>
      </trkpt>
      <trkpt lat="45.98649" lon="6.44136">
        <ele>1797.32</ele>
        <time>2019-09-14T11:52:37Z</time>
      </trkpt>
      <trkpt lat="45.98649" lon="6.44135">
        <ele>1795.88</ele>
        <time>2019-09-14T11:52:38Z</time>
      </trkpt>
      <trkpt lat="45.98647" lon="6.4413">
        <ele>1793</ele>
        <time>2019-09-14T11:52:41Z</time>
      </trkpt>
      <trkpt lat="45.98646" lon="6.44129">
        <ele>1796.36</ele>
        <time>2019-09-14T11:52:42Z</time>
      </trkpt>
      <trkpt lat="45.98645" lon="6.44126">
        <ele>1800.21</ele>
        <time>2019-09-14T11:52:45Z</time>
      </trkpt>
      <trkpt lat="45.98644" lon="6.44124">
        <ele>1793</ele>
        <time>2019-09-14T11:52:46Z</time>
      </trkpt>
      <trkpt lat="45.98644" lon="6.44123">
        <ele>1798.76</ele>
        <time>2019-09-14T11:52:47Z</time>
      </trkpt>
      <trkpt lat="45.98644" lon="6.44121">
        <ele>1797.32</ele>
        <time>2019-09-14T11:52:52Z</time>
      </trkpt>
      <trkpt lat="45.98643" lon="6.44121">
        <ele>1796.84</ele>
        <time>2019-09-14T11:53:02Z</time>
      </trkpt>
      <trkpt lat="45.98643" lon="6.4412">
        <ele>1797.8</ele>
        <time>2019-09-14T11:53:15Z</time>
      </trkpt>
      <trkpt lat="45.98642" lon="6.44117">
        <ele>1793.48</ele>
        <time>2019-09-14T11:53:17Z</time>
      </trkpt>
      <trkpt lat="45.9864" lon="6.44101">
        <ele>1796.36</ele>
        <time>2019-09-14T11:53:28Z</time>
      </trkpt>
      <trkpt lat="45.98638" lon="6.44089">
        <ele>1801.17</ele>
        <time>2019-09-14T11:53:39Z</time>
      </trkpt>
      <trkpt lat="45.98637" lon="6.44083">
        <ele>1802.13</ele>
        <time>2019-09-14T11:53:48Z</time>
      </trkpt>
      <trkpt lat="45.98635" lon="6.44077">
        <ele>1805.97</ele>
        <time>2019-09-14T11:53:54Z</time>
      </trkpt>
      <trkpt lat="45.98634" lon="6.44072">
        <ele>1806.45</ele>
        <time>2019-09-14T11:53:58Z</time>
      </trkpt>
      <trkpt lat="45.98633" lon="6.44065">
        <ele>1809.82</ele>
        <time>2019-09-14T11:54:08Z</time>
      </trkpt>
      <trkpt lat="45.98633" lon="6.44064">
        <ele>1806.45</ele>
        <time>2019-09-14T11:54:09Z</time>
      </trkpt>
      <trkpt lat="45.98631" lon="6.44059">
        <ele>1809.82</ele>
        <time>2019-09-14T11:54:18Z</time>
      </trkpt>
      <trkpt lat="45.98626" lon="6.44053">
        <ele>1809.34</ele>
        <time>2019-09-14T11:54:25Z</time>
      </trkpt>
      <trkpt lat="45.98624" lon="6.4405">
        <ele>1809.82</ele>
        <time>2019-09-14T11:54:28Z</time>
      </trkpt>
      <trkpt lat="45.98623" lon="6.44046">
        <ele>1811.74</ele>
        <time>2019-09-14T11:54:31Z</time>
      </trkpt>
      <trkpt lat="45.98623" lon="6.44045">
        <ele>1808.38</ele>
        <time>2019-09-14T11:54:32Z</time>
      </trkpt>
      <trkpt lat="45.98622" lon="6.44044">
        <ele>1811.26</ele>
        <time>2019-09-14T11:54:33Z</time>
      </trkpt>
      <trkpt lat="45.98616" lon="6.44036">
        <ele>1814.15</ele>
        <time>2019-09-14T11:54:44Z</time>
      </trkpt>
      <trkpt lat="45.98616" lon="6.44036">
        <ele>1809.34</ele>
        <time>2019-09-14T11:54:45Z</time>
      </trkpt>
      <trkpt lat="45.98616" lon="6.44035">
        <ele>1813.18</ele>
        <time>2019-09-14T11:54:46Z</time>
      </trkpt>
      <trkpt lat="45.98615" lon="6.44034">
        <ele>1808.86</ele>
        <time>2019-09-14T11:54:48Z</time>
      </trkpt>
      <trkpt lat="45.98615" lon="6.44033">
        <ele>1815.59</ele>
        <time>2019-09-14T11:54:49Z</time>
      </trkpt>
      <trkpt lat="45.98614" lon="6.44032">
        <ele>1812.22</ele>
        <time>2019-09-14T11:54:50Z</time>
      </trkpt>
      <trkpt lat="45.98614" lon="6.44028">
        <ele>1815.59</ele>
        <time>2019-09-14T11:54:54Z</time>
      </trkpt>
      <trkpt lat="45.98613" lon="6.44026">
        <ele>1811.74</ele>
        <time>2019-09-14T11:54:56Z</time>
      </trkpt>
      <trkpt lat="45.98613" lon="6.44025">
        <ele>1814.15</ele>
        <time>2019-09-14T11:54:57Z</time>
      </trkpt>
      <trkpt lat="45.98611" lon="6.44024">
        <ele>1809.34</ele>
        <time>2019-09-14T11:55:00Z</time>
      </trkpt>
      <trkpt lat="45.98611" lon="6.44024">
        <ele>1816.55</ele>
        <time>2019-09-14T11:55:01Z</time>
      </trkpt>
      <trkpt lat="45.98609" lon="6.44019">
        <ele>1813.66</ele>
        <time>2019-09-14T11:55:07Z</time>
      </trkpt>
      <trkpt lat="45.98609" lon="6.44018">
        <ele>1818.47</ele>
        <time>2019-09-14T11:55:09Z</time>
      </trkpt>
      <trkpt lat="45.98609" lon="6.44017">
        <ele>1815.11</ele>
        <time>2019-09-14T11:55:10Z</time>
      </trkpt>
      <trkpt lat="45.98609" lon="6.44016">
        <ele>1818.47</ele>
        <time>2019-09-14T11:55:11Z</time>
      </trkpt>
      <trkpt lat="45.98609" lon="6.44016">
        <ele>1814.15</ele>
        <time>2019-09-14T11:55:12Z</time>
      </trkpt>
      <trkpt lat="45.98609" lon="6.44015">
        <ele>1817.99</ele>
        <time>2019-09-14T11:55:13Z</time>
      </trkpt>
      <trkpt lat="45.98608" lon="6.44013">
        <ele>1818.47</ele>
        <time>2019-09-14T11:55:17Z</time>
      </trkpt>
      <trkpt lat="45.98606" lon="6.44009">
        <ele>1819.91</ele>
        <time>2019-09-14T11:55:23Z</time>
      </trkpt>
      <trkpt lat="45.98603" lon="6.44003">
        <ele>1817.03</ele>
        <time>2019-09-14T11:55:29Z</time>
      </trkpt>
      <trkpt lat="45.98603" lon="6.44">
        <ele>1821.35</ele>
        <time>2019-09-14T11:55:31Z</time>
      </trkpt>
      <trkpt lat="45.98602" lon="6.43997">
        <ele>1817.99</ele>
        <time>2019-09-14T11:55:33Z</time>
      </trkpt>
      <trkpt lat="45.98602" lon="6.43996">
        <ele>1821.35</ele>
        <time>2019-09-14T11:55:34Z</time>
      </trkpt>
      <trkpt lat="45.98602" lon="6.43991">
        <ele>1817.03</ele>
        <time>2019-09-14T11:55:38Z</time>
      </trkpt>
      <trkpt lat="45.98602" lon="6.43991">
        <ele>1817.99</ele>
        <time>2019-09-14T11:55:39Z</time>
      </trkpt>
      <trkpt lat="45.98602" lon="6.4399">
        <ele>1822.8</ele>
        <time>2019-09-14T11:55:40Z</time>
      </trkpt>
      <trkpt lat="45.98602" lon="6.43988">
        <ele>1817.51</ele>
        <time>2019-09-14T11:55:42Z</time>
      </trkpt>
      <trkpt lat="45.98602" lon="6.43985">
        <ele>1819.91</ele>
        <time>2019-09-14T11:55:44Z</time>
      </trkpt>
      <trkpt lat="45.98601" lon="6.43982">
        <ele>1823.76</ele>
        <time>2019-09-14T11:55:46Z</time>
      </trkpt>
      <trkpt lat="45.98601" lon="6.43981">
        <ele>1818.95</ele>
        <time>2019-09-14T11:55:47Z</time>
      </trkpt>
      <trkpt lat="45.986" lon="6.43977">
        <ele>1818.47</ele>
        <time>2019-09-14T11:55:50Z</time>
      </trkpt>
      <trkpt lat="45.98599" lon="6.43977">
        <ele>1819.43</ele>
        <time>2019-09-14T11:55:51Z</time>
      </trkpt>
      <trkpt lat="45.98599" lon="6.43976">
        <ele>1822.8</ele>
        <time>2019-09-14T11:55:52Z</time>
      </trkpt>
      <trkpt lat="45.98593" lon="6.43969">
        <ele>1818.95</ele>
        <time>2019-09-14T11:56:00Z</time>
      </trkpt>
      <trkpt lat="45.98592" lon="6.43968">
        <ele>1824.24</ele>
        <time>2019-09-14T11:56:01Z</time>
      </trkpt>
      <trkpt lat="45.98589" lon="6.43965">
        <ele>1820.87</ele>
        <time>2019-09-14T11:56:05Z</time>
      </trkpt>
      <trkpt lat="45.98589" lon="6.43964">
        <ele>1821.35</ele>
        <time>2019-09-14T11:56:06Z</time>
      </trkpt>
      <trkpt lat="45.98588" lon="6.43962">
        <ele>1826.16</ele>
        <time>2019-09-14T11:56:08Z</time>
      </trkpt>
      <trkpt lat="45.98587" lon="6.43961">
        <ele>1821.35</ele>
        <time>2019-09-14T11:56:09Z</time>
      </trkpt>
      <trkpt lat="45.98586" lon="6.4396">
        <ele>1824.72</ele>
        <time>2019-09-14T11:56:10Z</time>
      </trkpt>
      <trkpt lat="45.98583" lon="6.43959">
        <ele>1819.91</ele>
        <time>2019-09-14T11:56:14Z</time>
      </trkpt>
      <trkpt lat="45.98583" lon="6.43958">
        <ele>1824.72</ele>
        <time>2019-09-14T11:56:15Z</time>
      </trkpt>
      <trkpt lat="45.9858" lon="6.43956">
        <ele>1821.84</ele>
        <time>2019-09-14T11:56:19Z</time>
      </trkpt>
      <trkpt lat="45.98579" lon="6.43956">
        <ele>1826.16</ele>
        <time>2019-09-14T11:56:20Z</time>
      </trkpt>
      <trkpt lat="45.98579" lon="6.43956">
        <ele>1821.35</ele>
        <time>2019-09-14T11:56:21Z</time>
      </trkpt>
      <trkpt lat="45.98578" lon="6.43956">
        <ele>1825.2</ele>
        <time>2019-09-14T11:56:23Z</time>
      </trkpt>
      <trkpt lat="45.98573" lon="6.43951">
        <ele>1827.6</ele>
        <time>2019-09-14T11:56:35Z</time>
      </trkpt>
      <trkpt lat="45.9857" lon="6.43948">
        <ele>1828.56</ele>
        <time>2019-09-14T11:56:41Z</time>
      </trkpt>
      <trkpt lat="45.98568" lon="6.43946">
        <ele>1831.45</ele>
        <time>2019-09-14T11:56:47Z</time>
      </trkpt>
      <trkpt lat="45.98565" lon="6.43941">
        <ele>1827.6</ele>
        <time>2019-09-14T11:56:53Z</time>
      </trkpt>
      <trkpt lat="45.98565" lon="6.4394">
        <ele>1828.08</ele>
        <time>2019-09-14T11:56:54Z</time>
      </trkpt>
      <trkpt lat="45.98565" lon="6.43939">
        <ele>1831.45</ele>
        <time>2019-09-14T11:56:55Z</time>
      </trkpt>
      <trkpt lat="45.98564" lon="6.43938">
        <ele>1830.49</ele>
        <time>2019-09-14T11:56:56Z</time>
      </trkpt>
      <trkpt lat="45.98563" lon="6.43938">
        <ele>1833.37</ele>
        <time>2019-09-14T11:56:58Z</time>
      </trkpt>
      <trkpt lat="45.98561" lon="6.43935">
        <ele>1835.29</ele>
        <time>2019-09-14T11:57:01Z</time>
      </trkpt>
      <trkpt lat="45.9856" lon="6.43934">
        <ele>1830.97</ele>
        <time>2019-09-14T11:57:02Z</time>
      </trkpt>
      <trkpt lat="45.98559" lon="6.43933">
        <ele>1834.33</ele>
        <time>2019-09-14T11:57:03Z</time>
      </trkpt>
      <trkpt lat="45.98559" lon="6.43932">
        <ele>1830.97</ele>
        <time>2019-09-14T11:57:04Z</time>
      </trkpt>
      <trkpt lat="45.98559" lon="6.43931">
        <ele>1834.33</ele>
        <time>2019-09-14T11:57:06Z</time>
      </trkpt>
      <trkpt lat="45.98558" lon="6.4393">
        <ele>1834.81</ele>
        <time>2019-09-14T11:57:07Z</time>
      </trkpt>
      <trkpt lat="45.98557" lon="6.43928">
        <ele>1831.45</ele>
        <time>2019-09-14T11:57:10Z</time>
      </trkpt>
      <trkpt lat="45.98556" lon="6.43926">
        <ele>1835.77</ele>
        <time>2019-09-14T11:57:13Z</time>
      </trkpt>
      <trkpt lat="45.98554" lon="6.43924">
        <ele>1836.74</ele>
        <time>2019-09-14T11:57:19Z</time>
      </trkpt>
      <trkpt lat="45.98552" lon="6.43922">
        <ele>1833.37</ele>
        <time>2019-09-14T11:57:24Z</time>
      </trkpt>
      <trkpt lat="45.98551" lon="6.43921">
        <ele>1837.7</ele>
        <time>2019-09-14T11:57:25Z</time>
      </trkpt>
      <trkpt lat="45.9855" lon="6.43921">
        <ele>1833.85</ele>
        <time>2019-09-14T11:57:26Z</time>
      </trkpt>
      <trkpt lat="45.98549" lon="6.43919">
        <ele>1838.66</ele>
        <time>2019-09-14T11:57:29Z</time>
      </trkpt>
      <trkpt lat="45.98549" lon="6.43919">
        <ele>1835.29</ele>
        <time>2019-09-14T11:57:30Z</time>
      </trkpt>
      <trkpt lat="45.98548" lon="6.43918">
        <ele>1840.1</ele>
        <time>2019-09-14T11:57:32Z</time>
      </trkpt>
      <trkpt lat="45.98548" lon="6.43918">
        <ele>1837.7</ele>
        <time>2019-09-14T11:57:33Z</time>
      </trkpt>
      <trkpt lat="45.98542" lon="6.43915">
        <ele>1842.02</ele>
        <time>2019-09-14T11:57:44Z</time>
      </trkpt>
      <trkpt lat="45.98542" lon="6.43915">
        <ele>1838.66</ele>
        <time>2019-09-14T11:57:45Z</time>
      </trkpt>
      <trkpt lat="45.9854" lon="6.43914">
        <ele>1842.02</ele>
        <time>2019-09-14T11:57:53Z</time>
      </trkpt>
      <trkpt lat="45.98539" lon="6.43913">
        <ele>1842.5</ele>
        <time>2019-09-14T11:58:03Z</time>
      </trkpt>
      <trkpt lat="45.98535" lon="6.43912">
        <ele>1842.5</ele>
        <time>2019-09-14T11:58:16Z</time>
      </trkpt>
      <trkpt lat="45.98535" lon="6.43912">
        <ele>1847.31</ele>
        <time>2019-09-14T11:58:17Z</time>
      </trkpt>
      <trkpt lat="45.98533" lon="6.43911">
        <ele>1846.83</ele>
        <time>2019-09-14T11:58:21Z</time>
      </trkpt>
      <trkpt lat="45.98531" lon="6.43912">
        <ele>1843.47</ele>
        <time>2019-09-14T11:58:25Z</time>
      </trkpt>
      <trkpt lat="45.98531" lon="6.43912">
        <ele>1848.75</ele>
        <time>2019-09-14T11:58:26Z</time>
      </trkpt>
      <trkpt lat="45.9853" lon="6.43912">
        <ele>1843.95</ele>
        <time>2019-09-14T11:58:27Z</time>
      </trkpt>
      <trkpt lat="45.9853" lon="6.43912">
        <ele>1848.27</ele>
        <time>2019-09-14T11:58:30Z</time>
      </trkpt>
      <trkpt lat="45.98529" lon="6.4391">
        <ele>1848.27</ele>
        <time>2019-09-14T11:58:40Z</time>
      </trkpt>
      <trkpt lat="45.98529" lon="6.43909">
        <ele>1851.16</ele>
        <time>2019-09-14T11:58:41Z</time>
      </trkpt>
      <trkpt lat="45.98528" lon="6.43909">
        <ele>1847.31</ele>
        <time>2019-09-14T11:58:42Z</time>
      </trkpt>
      <trkpt lat="45.98528" lon="6.43908">
        <ele>1850.68</ele>
        <time>2019-09-14T11:58:45Z</time>
      </trkpt>
      <trkpt lat="45.98528" lon="6.43907">
        <ele>1847.31</ele>
        <time>2019-09-14T11:58:46Z</time>
      </trkpt>
      <trkpt lat="45.98527" lon="6.43905">
        <ele>1851.16</ele>
        <time>2019-09-14T11:58:49Z</time>
      </trkpt>
      <trkpt lat="45.98523" lon="6.43899">
        <ele>1846.83</ele>
        <time>2019-09-14T11:58:58Z</time>
      </trkpt>
      <trkpt lat="45.98514" lon="6.43888">
        <ele>1851.64</ele>
        <time>2019-09-14T11:59:09Z</time>
      </trkpt>
      <trkpt lat="45.98513" lon="6.43886">
        <ele>1848.27</ele>
        <time>2019-09-14T11:59:11Z</time>
      </trkpt>
      <trkpt lat="45.98512" lon="6.43885">
        <ele>1853.08</ele>
        <time>2019-09-14T11:59:12Z</time>
      </trkpt>
      <trkpt lat="45.98511" lon="6.43882">
        <ele>1854.52</ele>
        <time>2019-09-14T11:59:14Z</time>
      </trkpt>
      <trkpt lat="45.98508" lon="6.43878">
        <ele>1852.12</ele>
        <time>2019-09-14T11:59:19Z</time>
      </trkpt>
      <trkpt lat="45.98505" lon="6.43875">
        <ele>1851.16</ele>
        <time>2019-09-14T11:59:22Z</time>
      </trkpt>
      <trkpt lat="45.98504" lon="6.43874">
        <ele>1855.48</ele>
        <time>2019-09-14T11:59:23Z</time>
      </trkpt>
      <trkpt lat="45.98503" lon="6.43874">
        <ele>1855</ele>
        <time>2019-09-14T11:59:24Z</time>
      </trkpt>
      <trkpt lat="45.98502" lon="6.43873">
        <ele>1853.56</ele>
        <time>2019-09-14T11:59:26Z</time>
      </trkpt>
      <trkpt lat="45.98501" lon="6.43872">
        <ele>1856.44</ele>
        <time>2019-09-14T11:59:27Z</time>
      </trkpt>
      <trkpt lat="45.985" lon="6.43871">
        <ele>1854.52</ele>
        <time>2019-09-14T11:59:28Z</time>
      </trkpt>
      <trkpt lat="45.98499" lon="6.4387">
        <ele>1850.19</ele>
        <time>2019-09-14T11:59:29Z</time>
      </trkpt>
      <trkpt lat="45.98498" lon="6.43869">
        <ele>1856.44</ele>
        <time>2019-09-14T11:59:30Z</time>
      </trkpt>
      <trkpt lat="45.98496" lon="6.43868">
        <ele>1851.16</ele>
        <time>2019-09-14T11:59:32Z</time>
      </trkpt>
      <trkpt lat="45.98495" lon="6.43868">
        <ele>1851.16</ele>
        <time>2019-09-14T11:59:33Z</time>
      </trkpt>
      <trkpt lat="45.98493" lon="6.43866">
        <ele>1857.4</ele>
        <time>2019-09-14T11:59:35Z</time>
      </trkpt>
      <trkpt lat="45.98492" lon="6.43865">
        <ele>1855.48</ele>
        <time>2019-09-14T11:59:36Z</time>
      </trkpt>
      <trkpt lat="45.98491" lon="6.43864">
        <ele>1851.64</ele>
        <time>2019-09-14T11:59:37Z</time>
      </trkpt>
      <trkpt lat="45.9849" lon="6.43863">
        <ele>1854.04</ele>
        <time>2019-09-14T11:59:38Z</time>
      </trkpt>
      <trkpt lat="45.98489" lon="6.43861">
        <ele>1856.44</ele>
        <time>2019-09-14T11:59:40Z</time>
      </trkpt>
      <trkpt lat="45.98488" lon="6.4386">
        <ele>1851.64</ele>
        <time>2019-09-14T11:59:41Z</time>
      </trkpt>
      <trkpt lat="45.98487" lon="6.43859">
        <ele>1856.92</ele>
        <time>2019-09-14T11:59:42Z</time>
      </trkpt>
      <trkpt lat="45.98486" lon="6.43858">
        <ele>1851.64</ele>
        <time>2019-09-14T11:59:44Z</time>
      </trkpt>
      <trkpt lat="45.98485" lon="6.43857">
        <ele>1853.08</ele>
        <time>2019-09-14T11:59:45Z</time>
      </trkpt>
      <trkpt lat="45.98484" lon="6.43857">
        <ele>1854.04</ele>
        <time>2019-09-14T11:59:46Z</time>
      </trkpt>
      <trkpt lat="45.98482" lon="6.43856">
        <ele>1856.44</ele>
        <time>2019-09-14T11:59:48Z</time>
      </trkpt>
      <trkpt lat="45.98479" lon="6.43855">
        <ele>1855.48</ele>
        <time>2019-09-14T11:59:50Z</time>
      </trkpt>
      <trkpt lat="45.98478" lon="6.43854">
        <ele>1853.08</ele>
        <time>2019-09-14T11:59:52Z</time>
      </trkpt>
      <trkpt lat="45.98475" lon="6.43853">
        <ele>1856.92</ele>
        <time>2019-09-14T11:59:55Z</time>
      </trkpt>
      <trkpt lat="45.98469" lon="6.43851">
        <ele>1856.44</ele>
        <time>2019-09-14T12:00:02Z</time>
      </trkpt>
      <trkpt lat="45.98462" lon="6.43852">
        <ele>1857.4</ele>
        <time>2019-09-14T12:00:12Z</time>
      </trkpt>
      <trkpt lat="45.9846" lon="6.43851">
        <ele>1860.77</ele>
        <time>2019-09-14T12:00:15Z</time>
      </trkpt>
      <trkpt lat="45.98455" lon="6.43849">
        <ele>1856.92</ele>
        <time>2019-09-14T12:00:24Z</time>
      </trkpt>
      <trkpt lat="45.98454" lon="6.43849">
        <ele>1861.73</ele>
        <time>2019-09-14T12:00:25Z</time>
      </trkpt>
      <trkpt lat="45.98453" lon="6.43848">
        <ele>1858.37</ele>
        <time>2019-09-14T12:00:27Z</time>
      </trkpt>
      <trkpt lat="45.98453" lon="6.43849">
        <ele>1862.21</ele>
        <time>2019-09-14T12:00:28Z</time>
      </trkpt>
      <trkpt lat="45.98452" lon="6.43849">
        <ele>1857.89</ele>
        <time>2019-09-14T12:00:29Z</time>
      </trkpt>
      <trkpt lat="45.98451" lon="6.43849">
        <ele>1862.21</ele>
        <time>2019-09-14T12:00:30Z</time>
      </trkpt>
      <trkpt lat="45.9845" lon="6.43849">
        <ele>1862.69</ele>
        <time>2019-09-14T12:00:31Z</time>
      </trkpt>
      <trkpt lat="45.98447" lon="6.43848">
        <ele>1860.29</ele>
        <time>2019-09-14T12:00:35Z</time>
      </trkpt>
      <trkpt lat="45.98446" lon="6.43849">
        <ele>1862.69</ele>
        <time>2019-09-14T12:00:37Z</time>
      </trkpt>
      <trkpt lat="45.98439" lon="6.4385">
        <ele>1865.58</ele>
        <time>2019-09-14T12:00:47Z</time>
      </trkpt>
      <trkpt lat="45.98437" lon="6.4385">
        <ele>1862.21</ele>
        <time>2019-09-14T12:00:52Z</time>
      </trkpt>
      <trkpt lat="45.98436" lon="6.4385">
        <ele>1865.58</ele>
        <time>2019-09-14T12:00:54Z</time>
      </trkpt>
      <trkpt lat="45.98431" lon="6.43853">
        <ele>1866.54</ele>
        <time>2019-09-14T12:01:05Z</time>
      </trkpt>
      <trkpt lat="45.98432" lon="6.4386">
        <ele>1865.58</ele>
        <time>2019-09-14T12:01:14Z</time>
      </trkpt>
      <trkpt lat="45.98433" lon="6.43861">
        <ele>1868.94</ele>
        <time>2019-09-14T12:01:16Z</time>
      </trkpt>
      <trkpt lat="45.98434" lon="6.43862">
        <ele>1865.58</ele>
        <time>2019-09-14T12:01:19Z</time>
      </trkpt>
      <trkpt lat="45.98434" lon="6.43863">
        <ele>1869.9</ele>
        <time>2019-09-14T12:01:20Z</time>
      </trkpt>
      <trkpt lat="45.98435" lon="6.43865">
        <ele>1866.06</ele>
        <time>2019-09-14T12:01:22Z</time>
      </trkpt>
      <trkpt lat="45.98435" lon="6.43866">
        <ele>1870.86</ele>
        <time>2019-09-14T12:01:23Z</time>
      </trkpt>
      <trkpt lat="45.98435" lon="6.43868">
        <ele>1872.79</ele>
        <time>2019-09-14T12:01:33Z</time>
      </trkpt>
      <trkpt lat="45.98435" lon="6.43868">
        <ele>1868.94</ele>
        <time>2019-09-14T12:01:35Z</time>
      </trkpt>
      <trkpt lat="45.98434" lon="6.43867">
        <ele>1870.86</ele>
        <time>2019-09-14T12:01:36Z</time>
      </trkpt>
      <trkpt lat="45.98432" lon="6.43866">
        <ele>1871.34</ele>
        <time>2019-09-14T12:01:40Z</time>
      </trkpt>
      <trkpt lat="45.98428" lon="6.43866">
        <ele>1874.71</ele>
        <time>2019-09-14T12:01:47Z</time>
      </trkpt>
      <trkpt lat="45.98428" lon="6.43866">
        <ele>1870.38</ele>
        <time>2019-09-14T12:01:48Z</time>
      </trkpt>
      <trkpt lat="45.98427" lon="6.43866">
        <ele>1875.19</ele>
        <time>2019-09-14T12:01:49Z</time>
      </trkpt>
      <trkpt lat="45.98422" lon="6.43864">
        <ele>1875.67</ele>
        <time>2019-09-14T12:02:01Z</time>
      </trkpt>
      <trkpt lat="45.98415" lon="6.43863">
        <ele>1876.15</ele>
        <time>2019-09-14T12:02:12Z</time>
      </trkpt>
      <trkpt lat="45.98414" lon="6.43863">
        <ele>1879.03</ele>
        <time>2019-09-14T12:02:14Z</time>
      </trkpt>
      <trkpt lat="45.98412" lon="6.43863">
        <ele>1876.15</ele>
        <time>2019-09-14T12:02:19Z</time>
      </trkpt>
      <trkpt lat="45.98412" lon="6.43863">
        <ele>1879.51</ele>
        <time>2019-09-14T12:02:20Z</time>
      </trkpt>
      <trkpt lat="45.98411" lon="6.43863">
        <ele>1880</ele>
        <time>2019-09-14T12:02:21Z</time>
      </trkpt>
      <trkpt lat="45.98408" lon="6.43862">
        <ele>1876.63</ele>
        <time>2019-09-14T12:02:25Z</time>
      </trkpt>
      <trkpt lat="45.98408" lon="6.43862">
        <ele>1881.44</ele>
        <time>2019-09-14T12:02:26Z</time>
      </trkpt>
      <trkpt lat="45.98407" lon="6.43862">
        <ele>1877.59</ele>
        <time>2019-09-14T12:02:27Z</time>
      </trkpt>
      <trkpt lat="45.98405" lon="6.43862">
        <ele>1881.92</ele>
        <time>2019-09-14T12:02:30Z</time>
      </trkpt>
      <trkpt lat="45.98405" lon="6.43862">
        <ele>1878.55</ele>
        <time>2019-09-14T12:02:31Z</time>
      </trkpt>
      <trkpt lat="45.98404" lon="6.43863">
        <ele>1881.92</ele>
        <time>2019-09-14T12:02:33Z</time>
      </trkpt>
      <trkpt lat="45.98403" lon="6.43862">
        <ele>1878.07</ele>
        <time>2019-09-14T12:02:34Z</time>
      </trkpt>
      <trkpt lat="45.98403" lon="6.43862">
        <ele>1881.44</ele>
        <time>2019-09-14T12:02:35Z</time>
      </trkpt>
      <trkpt lat="45.98398" lon="6.43864">
        <ele>1882.88</ele>
        <time>2019-09-14T12:02:44Z</time>
      </trkpt>
      <trkpt lat="45.98392" lon="6.43864">
        <ele>1886.24</ele>
        <time>2019-09-14T12:02:55Z</time>
      </trkpt>
      <trkpt lat="45.98387" lon="6.43864">
        <ele>1886.24</ele>
        <time>2019-09-14T12:03:05Z</time>
      </trkpt>
      <trkpt lat="45.98383" lon="6.43863">
        <ele>1888.17</ele>
        <time>2019-09-14T12:03:16Z</time>
      </trkpt>
      <trkpt lat="45.98383" lon="6.43866">
        <ele>1884.8</ele>
        <time>2019-09-14T12:03:20Z</time>
      </trkpt>
      <trkpt lat="45.98383" lon="6.43867">
        <ele>1889.13</ele>
        <time>2019-09-14T12:03:21Z</time>
      </trkpt>
      <trkpt lat="45.98382" lon="6.43867">
        <ele>1885.28</ele>
        <time>2019-09-14T12:03:22Z</time>
      </trkpt>
      <trkpt lat="45.98382" lon="6.43868">
        <ele>1889.61</ele>
        <time>2019-09-14T12:03:23Z</time>
      </trkpt>
      <trkpt lat="45.98382" lon="6.4387">
        <ele>1885.76</ele>
        <time>2019-09-14T12:03:25Z</time>
      </trkpt>
      <trkpt lat="45.98382" lon="6.43872">
        <ele>1891.53</ele>
        <time>2019-09-14T12:03:26Z</time>
      </trkpt>
      <trkpt lat="45.98385" lon="6.43879">
        <ele>1891.53</ele>
        <time>2019-09-14T12:03:36Z</time>
      </trkpt>
      <trkpt lat="45.98389" lon="6.43885">
        <ele>1893.45</ele>
        <time>2019-09-14T12:03:49Z</time>
      </trkpt>
      <trkpt lat="45.98389" lon="6.43885">
        <ele>1893.45</ele>
        <time>2019-09-14T12:03:50Z</time>
      </trkpt>
      <trkpt lat="45.9839" lon="6.43887">
        <ele>1893.45</ele>
        <time>2019-09-14T12:04:00Z</time>
      </trkpt>
      <trkpt lat="45.98388" lon="6.43886">
        <ele>1897.78</ele>
        <time>2019-09-14T12:04:04Z</time>
      </trkpt>
      <trkpt lat="45.98387" lon="6.43886">
        <ele>1892.97</ele>
        <time>2019-09-14T12:04:05Z</time>
      </trkpt>
      <trkpt lat="45.98387" lon="6.43886">
        <ele>1897.3</ele>
        <time>2019-09-14T12:04:06Z</time>
      </trkpt>
      <trkpt lat="45.98386" lon="6.43886">
        <ele>1892.97</ele>
        <time>2019-09-14T12:04:08Z</time>
      </trkpt>
      <trkpt lat="45.98385" lon="6.43887">
        <ele>1898.26</ele>
        <time>2019-09-14T12:04:09Z</time>
      </trkpt>
      <trkpt lat="45.98384" lon="6.43887">
        <ele>1894.42</ele>
        <time>2019-09-14T12:04:12Z</time>
      </trkpt>
      <trkpt lat="45.98384" lon="6.43887">
        <ele>1897.78</ele>
        <time>2019-09-14T12:04:14Z</time>
      </trkpt>
      <trkpt lat="45.98382" lon="6.43886">
        <ele>1896.34</ele>
        <time>2019-09-14T12:04:24Z</time>
      </trkpt>
      <trkpt lat="45.98381" lon="6.43886">
        <ele>1898.26</ele>
        <time>2019-09-14T12:04:37Z</time>
      </trkpt>
      <trkpt lat="45.9838" lon="6.43887">
        <ele>1894.9</ele>
        <time>2019-09-14T12:04:59Z</time>
      </trkpt>
      <trkpt lat="45.9838" lon="6.43887">
        <ele>1898.74</ele>
        <time>2019-09-14T12:05:02Z</time>
      </trkpt>
      <trkpt lat="45.98379" lon="6.43887">
        <ele>1899.22</ele>
        <time>2019-09-14T12:05:03Z</time>
      </trkpt>
      <trkpt lat="45.98378" lon="6.43887">
        <ele>1897.3</ele>
        <time>2019-09-14T12:05:25Z</time>
      </trkpt>
      <trkpt lat="45.98378" lon="6.43887">
        <ele>1896.82</ele>
        <time>2019-09-14T12:05:44Z</time>
      </trkpt>
      <trkpt lat="45.98378" lon="6.43887">
        <ele>1898.26</ele>
        <time>2019-09-14T12:06:10Z</time>
      </trkpt>
      <trkpt lat="45.98377" lon="6.43888">
        <ele>1899.22</ele>
        <time>2019-09-14T12:06:30Z</time>
      </trkpt>
      <trkpt lat="45.98377" lon="6.43888">
        <ele>1897.78</ele>
        <time>2019-09-14T12:06:41Z</time>
      </trkpt>
      <trkpt lat="45.98377" lon="6.43887">
        <ele>1900.18</ele>
        <time>2019-09-14T12:06:58Z</time>
      </trkpt>
      <trkpt lat="45.98377" lon="6.43887">
        <ele>1896.82</ele>
        <time>2019-09-14T12:07:00Z</time>
      </trkpt>
      <trkpt lat="45.98377" lon="6.43887">
        <ele>1897.78</ele>
        <time>2019-09-14T12:07:06Z</time>
      </trkpt>
      <trkpt lat="45.98377" lon="6.43887">
        <ele>1897.78</ele>
        <time>2019-09-14T12:07:26Z</time>
      </trkpt>
      <trkpt lat="45.98377" lon="6.43887">
        <ele>1898.74</ele>
        <time>2019-09-14T12:07:31Z</time>
      </trkpt>
      <trkpt lat="45.98377" lon="6.43887">
        <ele>1898.26</ele>
        <time>2019-09-14T12:07:47Z</time>
      </trkpt>
      <trkpt lat="45.98376" lon="6.43887">
        <ele>1899.22</ele>
        <time>2019-09-14T12:07:59Z</time>
      </trkpt>
      <trkpt lat="45.98377" lon="6.43887">
        <ele>1896.34</ele>
        <time>2019-09-14T12:08:07Z</time>
      </trkpt>
      <trkpt lat="45.98376" lon="6.43887">
        <ele>1900.66</ele>
        <time>2019-09-14T12:08:08Z</time>
      </trkpt>
      <trkpt lat="45.98377" lon="6.43887">
        <ele>1897.3</ele>
        <time>2019-09-14T12:08:09Z</time>
      </trkpt>
      <trkpt lat="45.98377" lon="6.43887">
        <ele>1898.26</ele>
        <time>2019-09-14T12:08:30Z</time>
      </trkpt>
      <trkpt lat="45.98377" lon="6.43887">
        <ele>1898.74</ele>
        <time>2019-09-14T12:08:47Z</time>
      </trkpt>
      <trkpt lat="45.98376" lon="6.43887">
        <ele>1898.74</ele>
        <time>2019-09-14T12:09:05Z</time>
      </trkpt>
      <trkpt lat="45.98376" lon="6.43887">
        <ele>1896.82</ele>
        <time>2019-09-14T12:09:13Z</time>
      </trkpt>
      <trkpt lat="45.98376" lon="6.43887">
        <ele>1900.18</ele>
        <time>2019-09-14T12:09:17Z</time>
      </trkpt>
      <trkpt lat="45.98376" lon="6.43887">
        <ele>1896.34</ele>
        <time>2019-09-14T12:09:28Z</time>
      </trkpt>
      <trkpt lat="45.98376" lon="6.43887">
        <ele>1898.74</ele>
        <time>2019-09-14T12:09:30Z</time>
      </trkpt>
      <trkpt lat="45.98376" lon="6.43887">
        <ele>1895.38</ele>
        <time>2019-09-14T12:09:33Z</time>
      </trkpt>
      <trkpt lat="45.98376" lon="6.43887">
        <ele>1898.74</ele>
        <time>2019-09-14T12:09:34Z</time>
      </trkpt>
      <trkpt lat="45.98376" lon="6.43887">
        <ele>1899.7</ele>
        <time>2019-09-14T12:09:47Z</time>
      </trkpt>
      <trkpt lat="45.98376" lon="6.43886">
        <ele>1899.7</ele>
        <time>2019-09-14T12:09:59Z</time>
      </trkpt>
      <trkpt lat="45.98375" lon="6.43885">
        <ele>1899.7</ele>
        <time>2019-09-14T12:10:21Z</time>
      </trkpt>
      <trkpt lat="45.98375" lon="6.43885">
        <ele>1899.22</ele>
        <time>2019-09-14T12:10:29Z</time>
      </trkpt>
      <trkpt lat="45.98374" lon="6.43885">
        <ele>1900.66</ele>
        <time>2019-09-14T12:10:32Z</time>
      </trkpt>
      <trkpt lat="45.98373" lon="6.43885">
        <ele>1900.18</ele>
        <time>2019-09-14T12:10:56Z</time>
      </trkpt>
      <trkpt lat="45.98373" lon="6.43885">
        <ele>1897.3</ele>
        <time>2019-09-14T12:11:05Z</time>
      </trkpt>
      <trkpt lat="45.98373" lon="6.43885">
        <ele>1900.66</ele>
        <time>2019-09-14T12:11:06Z</time>
      </trkpt>
      <trkpt lat="45.98373" lon="6.43885">
        <ele>1899.7</ele>
        <time>2019-09-14T12:11:29Z</time>
      </trkpt>
      <trkpt lat="45.98372" lon="6.43884">
        <ele>1899.7</ele>
        <time>2019-09-14T12:11:52Z</time>
      </trkpt>
      <trkpt lat="45.98372" lon="6.43884">
        <ele>1899.22</ele>
        <time>2019-09-14T12:11:58Z</time>
      </trkpt>
      <trkpt lat="45.98372" lon="6.43883">
        <ele>1901.14</ele>
        <time>2019-09-14T12:12:17Z</time>
      </trkpt>
      <trkpt lat="45.98371" lon="6.43883">
        <ele>1902.11</ele>
        <time>2019-09-14T12:12:45Z</time>
      </trkpt>
      <trkpt lat="45.98371" lon="6.43883">
        <ele>1898.74</ele>
        <time>2019-09-14T12:12:48Z</time>
      </trkpt>
      <trkpt lat="45.9837" lon="6.43883">
        <ele>1900.66</ele>
        <time>2019-09-14T12:13:12Z</time>
      </trkpt>
      <trkpt lat="45.98369" lon="6.43882">
        <ele>1900.66</ele>
        <time>2019-09-14T12:13:39Z</time>
      </trkpt>
      <trkpt lat="45.98369" lon="6.43882">
        <ele>1900.18</ele>
        <time>2019-09-14T12:14:04Z</time>
      </trkpt>
      <trkpt lat="45.98369" lon="6.43882">
        <ele>1900.18</ele>
        <time>2019-09-14T12:14:27Z</time>
      </trkpt>
      <trkpt lat="45.98369" lon="6.43881">
        <ele>1900.18</ele>
        <time>2019-09-14T12:14:47Z</time>
      </trkpt>
      <trkpt lat="45.98369" lon="6.43881">
        <ele>1900.66</ele>
        <time>2019-09-14T12:15:08Z</time>
      </trkpt>
      <trkpt lat="45.98366" lon="6.43879">
        <ele>1898.74</ele>
        <time>2019-09-14T12:15:22Z</time>
      </trkpt>
      <trkpt lat="45.98365" lon="6.43878">
        <ele>1903.07</ele>
        <time>2019-09-14T12:15:23Z</time>
      </trkpt>
      <trkpt lat="45.98365" lon="6.43878">
        <ele>1899.7</ele>
        <time>2019-09-14T12:15:24Z</time>
      </trkpt>
      <trkpt lat="45.98364" lon="6.43878">
        <ele>1903.07</ele>
        <time>2019-09-14T12:15:25Z</time>
      </trkpt>
      <trkpt lat="45.98364" lon="6.43877">
        <ele>1899.22</ele>
        <time>2019-09-14T12:15:26Z</time>
      </trkpt>
      <trkpt lat="45.98363" lon="6.43877">
        <ele>1903.07</ele>
        <time>2019-09-14T12:15:27Z</time>
      </trkpt>
      <trkpt lat="45.98362" lon="6.43875">
        <ele>1899.7</ele>
        <time>2019-09-14T12:15:29Z</time>
      </trkpt>
      <trkpt lat="45.98362" lon="6.43875">
        <ele>1903.07</ele>
        <time>2019-09-14T12:15:30Z</time>
      </trkpt>
      <trkpt lat="45.98359" lon="6.43868">
        <ele>1905.47</ele>
        <time>2019-09-14T12:15:41Z</time>
      </trkpt>
      <trkpt lat="45.98358" lon="6.43866">
        <ele>1904.51</ele>
        <time>2019-09-14T12:15:44Z</time>
      </trkpt>
      <trkpt lat="45.98358" lon="6.43861">
        <ele>1905.95</ele>
        <time>2019-09-14T12:15:54Z</time>
      </trkpt>
      <trkpt lat="45.98355" lon="6.43854">
        <ele>1905.47</ele>
        <time>2019-09-14T12:16:04Z</time>
      </trkpt>
      <trkpt lat="45.98354" lon="6.43854">
        <ele>1909.32</ele>
        <time>2019-09-14T12:16:05Z</time>
      </trkpt>
      <trkpt lat="45.98351" lon="6.43849">
        <ele>1908.83</ele>
        <time>2019-09-14T12:16:17Z</time>
      </trkpt>
      <trkpt lat="45.98348" lon="6.43845">
        <ele>1912.68</ele>
        <time>2019-09-14T12:16:27Z</time>
      </trkpt>
      <trkpt lat="45.98345" lon="6.43845">
        <ele>1906.43</ele>
        <time>2019-09-14T12:16:30Z</time>
      </trkpt>
      <trkpt lat="45.98345" lon="6.43845">
        <ele>1913.64</ele>
        <time>2019-09-14T12:16:31Z</time>
      </trkpt>
      <trkpt lat="45.98344" lon="6.43845">
        <ele>1908.35</ele>
        <time>2019-09-14T12:16:32Z</time>
      </trkpt>
      <trkpt lat="45.98343" lon="6.43845">
        <ele>1914.12</ele>
        <time>2019-09-14T12:16:33Z</time>
      </trkpt>
      <trkpt lat="45.98339" lon="6.43842">
        <ele>1910.76</ele>
        <time>2019-09-14T12:16:41Z</time>
      </trkpt>
      <trkpt lat="45.98337" lon="6.4384">
        <ele>1914.12</ele>
        <time>2019-09-14T12:16:44Z</time>
      </trkpt>
      <trkpt lat="45.98334" lon="6.43839">
        <ele>1910.76</ele>
        <time>2019-09-14T12:16:48Z</time>
      </trkpt>
      <trkpt lat="45.98333" lon="6.43838">
        <ele>1916.53</ele>
        <time>2019-09-14T12:16:50Z</time>
      </trkpt>
      <trkpt lat="45.98333" lon="6.43837">
        <ele>1911.72</ele>
        <time>2019-09-14T12:16:51Z</time>
      </trkpt>
      <trkpt lat="45.98332" lon="6.43836">
        <ele>1917.01</ele>
        <time>2019-09-14T12:16:52Z</time>
      </trkpt>
      <trkpt lat="45.98332" lon="6.43835">
        <ele>1911.24</ele>
        <time>2019-09-14T12:16:53Z</time>
      </trkpt>
      <trkpt lat="45.98331" lon="6.43835">
        <ele>1915.08</ele>
        <time>2019-09-14T12:16:54Z</time>
      </trkpt>
      <trkpt lat="45.98327" lon="6.43828">
        <ele>1917.97</ele>
        <time>2019-09-14T12:17:03Z</time>
      </trkpt>
      <trkpt lat="45.98326" lon="6.43827">
        <ele>1913.64</ele>
        <time>2019-09-14T12:17:04Z</time>
      </trkpt>
      <trkpt lat="45.98325" lon="6.43825">
        <ele>1917.49</ele>
        <time>2019-09-14T12:17:06Z</time>
      </trkpt>
      <trkpt lat="45.98324" lon="6.43825">
        <ele>1912.68</ele>
        <time>2019-09-14T12:17:07Z</time>
      </trkpt>
      <trkpt lat="45.98323" lon="6.43824">
        <ele>1916.53</ele>
        <time>2019-09-14T12:17:08Z</time>
      </trkpt>
      <trkpt lat="45.98321" lon="6.43822">
        <ele>1917.97</ele>
        <time>2019-09-14T12:17:10Z</time>
      </trkpt>
      <trkpt lat="45.98319" lon="6.43819">
        <ele>1917.97</ele>
        <time>2019-09-14T12:17:13Z</time>
      </trkpt>
      <trkpt lat="45.98318" lon="6.43818">
        <ele>1916.53</ele>
        <time>2019-09-14T12:17:14Z</time>
      </trkpt>
      <trkpt lat="45.98316" lon="6.43817">
        <ele>1917.49</ele>
        <time>2019-09-14T12:17:16Z</time>
      </trkpt>
      <trkpt lat="45.98315" lon="6.43815">
        <ele>1914.6</ele>
        <time>2019-09-14T12:17:18Z</time>
      </trkpt>
      <trkpt lat="45.98314" lon="6.43814">
        <ele>1916.04</ele>
        <time>2019-09-14T12:17:19Z</time>
      </trkpt>
      <trkpt lat="45.98313" lon="6.43812">
        <ele>1916.53</ele>
        <time>2019-09-14T12:17:21Z</time>
      </trkpt>
      <trkpt lat="45.98308" lon="6.43808">
        <ele>1915.08</ele>
        <time>2019-09-14T12:17:27Z</time>
      </trkpt>
      <trkpt lat="45.98307" lon="6.43806">
        <ele>1917.01</ele>
        <time>2019-09-14T12:17:29Z</time>
      </trkpt>
      <trkpt lat="45.98306" lon="6.43805">
        <ele>1913.16</ele>
        <time>2019-09-14T12:17:30Z</time>
      </trkpt>
      <trkpt lat="45.98305" lon="6.43804">
        <ele>1916.53</ele>
        <time>2019-09-14T12:17:31Z</time>
      </trkpt>
      <trkpt lat="45.98305" lon="6.43802">
        <ele>1913.16</ele>
        <time>2019-09-14T12:17:33Z</time>
      </trkpt>
      <trkpt lat="45.98303" lon="6.43798">
        <ele>1917.97</ele>
        <time>2019-09-14T12:17:36Z</time>
      </trkpt>
      <trkpt lat="45.98301" lon="6.43796">
        <ele>1913.64</ele>
        <time>2019-09-14T12:17:38Z</time>
      </trkpt>
      <trkpt lat="45.98301" lon="6.43794">
        <ele>1916.53</ele>
        <time>2019-09-14T12:17:39Z</time>
      </trkpt>
      <trkpt lat="45.98299" lon="6.43791">
        <ele>1915.56</ele>
        <time>2019-09-14T12:17:43Z</time>
      </trkpt>
      <trkpt lat="45.98297" lon="6.43789">
        <ele>1917.01</ele>
        <time>2019-09-14T12:17:45Z</time>
      </trkpt>
      <trkpt lat="45.98293" lon="6.43784">
        <ele>1911.72</ele>
        <time>2019-09-14T12:17:51Z</time>
      </trkpt>
      <trkpt lat="45.98292" lon="6.43784">
        <ele>1915.08</ele>
        <time>2019-09-14T12:17:52Z</time>
      </trkpt>
      <trkpt lat="45.98288" lon="6.43776">
        <ele>1912.2</ele>
        <time>2019-09-14T12:17:59Z</time>
      </trkpt>
      <trkpt lat="45.98287" lon="6.43775">
        <ele>1916.04</ele>
        <time>2019-09-14T12:18:00Z</time>
      </trkpt>
      <trkpt lat="45.98287" lon="6.43774">
        <ele>1916.04</ele>
        <time>2019-09-14T12:18:01Z</time>
      </trkpt>
      <trkpt lat="45.98285" lon="6.43768">
        <ele>1912.68</ele>
        <time>2019-09-14T12:18:06Z</time>
      </trkpt>
      <trkpt lat="45.98284" lon="6.43767">
        <ele>1917.01</ele>
        <time>2019-09-14T12:18:07Z</time>
      </trkpt>
      <trkpt lat="45.98283" lon="6.43765">
        <ele>1912.68</ele>
        <time>2019-09-14T12:18:09Z</time>
      </trkpt>
      <trkpt lat="45.98282" lon="6.43764">
        <ele>1915.08</ele>
        <time>2019-09-14T12:18:10Z</time>
      </trkpt>
      <trkpt lat="45.98279" lon="6.43756">
        <ele>1914.6</ele>
        <time>2019-09-14T12:18:17Z</time>
      </trkpt>
      <trkpt lat="45.98275" lon="6.43753">
        <ele>1913.64</ele>
        <time>2019-09-14T12:18:21Z</time>
      </trkpt>
      <trkpt lat="45.98274" lon="6.43748">
        <ele>1917.49</ele>
        <time>2019-09-14T12:18:25Z</time>
      </trkpt>
      <trkpt lat="45.98273" lon="6.43746">
        <ele>1915.56</ele>
        <time>2019-09-14T12:18:27Z</time>
      </trkpt>
      <trkpt lat="45.98273" lon="6.43744">
        <ele>1912.2</ele>
        <time>2019-09-14T12:18:28Z</time>
      </trkpt>
      <trkpt lat="45.98272" lon="6.43741">
        <ele>1916.53</ele>
        <time>2019-09-14T12:18:31Z</time>
      </trkpt>
      <trkpt lat="45.98272" lon="6.43736">
        <ele>1917.01</ele>
        <time>2019-09-14T12:18:35Z</time>
      </trkpt>
      <trkpt lat="45.98271" lon="6.43735">
        <ele>1912.68</ele>
        <time>2019-09-14T12:18:36Z</time>
      </trkpt>
      <trkpt lat="45.98271" lon="6.43734">
        <ele>1917.01</ele>
        <time>2019-09-14T12:18:37Z</time>
      </trkpt>
      <trkpt lat="45.9827" lon="6.4373">
        <ele>1917.97</ele>
        <time>2019-09-14T12:18:42Z</time>
      </trkpt>
      <trkpt lat="45.98269" lon="6.43727">
        <ele>1913.64</ele>
        <time>2019-09-14T12:18:45Z</time>
      </trkpt>
      <trkpt lat="45.98269" lon="6.43725">
        <ele>1917.97</ele>
        <time>2019-09-14T12:18:46Z</time>
      </trkpt>
      <trkpt lat="45.98267" lon="6.43719">
        <ele>1918.93</ele>
        <time>2019-09-14T12:18:57Z</time>
      </trkpt>
      <trkpt lat="45.98267" lon="6.43712">
        <ele>1918.45</ele>
        <time>2019-09-14T12:19:08Z</time>
      </trkpt>
      <trkpt lat="45.98267" lon="6.43708">
        <ele>1920.85</ele>
        <time>2019-09-14T12:19:11Z</time>
      </trkpt>
      <trkpt lat="45.98267" lon="6.43701">
        <ele>1922.29</ele>
        <time>2019-09-14T12:19:21Z</time>
      </trkpt>
      <trkpt lat="45.98268" lon="6.43698">
        <ele>1922.77</ele>
        <time>2019-09-14T12:19:32Z</time>
      </trkpt>
      <trkpt lat="45.98268" lon="6.43695">
        <ele>1926.62</ele>
        <time>2019-09-14T12:19:38Z</time>
      </trkpt>
      <trkpt lat="45.98268" lon="6.43691">
        <ele>1923.25</ele>
        <time>2019-09-14T12:19:43Z</time>
      </trkpt>
      <trkpt lat="45.98267" lon="6.43689">
        <ele>1927.58</ele>
        <time>2019-09-14T12:19:45Z</time>
      </trkpt>
      <trkpt lat="45.98264" lon="6.43674">
        <ele>1924.22</ele>
        <time>2019-09-14T12:19:57Z</time>
      </trkpt>
      <trkpt lat="45.98264" lon="6.43673">
        <ele>1928.54</ele>
        <time>2019-09-14T12:19:58Z</time>
      </trkpt>
      <trkpt lat="45.9826" lon="6.43666">
        <ele>1927.58</ele>
        <time>2019-09-14T12:20:06Z</time>
      </trkpt>
      <trkpt lat="45.98258" lon="6.4366">
        <ele>1922.29</ele>
        <time>2019-09-14T12:20:10Z</time>
      </trkpt>
      <trkpt lat="45.98258" lon="6.43659">
        <ele>1927.1</ele>
        <time>2019-09-14T12:20:11Z</time>
      </trkpt>
      <trkpt lat="45.98258" lon="6.43655">
        <ele>1926.14</ele>
        <time>2019-09-14T12:20:21Z</time>
      </trkpt>
      <trkpt lat="45.98256" lon="6.43651">
        <ele>1925.66</ele>
        <time>2019-09-14T12:20:32Z</time>
      </trkpt>
      <trkpt lat="45.98254" lon="6.43648">
        <ele>1922.29</ele>
        <time>2019-09-14T12:20:36Z</time>
      </trkpt>
      <trkpt lat="45.98254" lon="6.43647">
        <ele>1922.29</ele>
        <time>2019-09-14T12:20:37Z</time>
      </trkpt>
      <trkpt lat="45.98252" lon="6.43642">
        <ele>1925.66</ele>
        <time>2019-09-14T12:20:42Z</time>
      </trkpt>
      <trkpt lat="45.98251" lon="6.43641">
        <ele>1922.29</ele>
        <time>2019-09-14T12:20:43Z</time>
      </trkpt>
      <trkpt lat="45.9825" lon="6.43638">
        <ele>1923.74</ele>
        <time>2019-09-14T12:20:46Z</time>
      </trkpt>
      <trkpt lat="45.98246" lon="6.43632">
        <ele>1920.37</ele>
        <time>2019-09-14T12:20:54Z</time>
      </trkpt>
      <trkpt lat="45.98246" lon="6.43632">
        <ele>1923.74</ele>
        <time>2019-09-14T12:20:55Z</time>
      </trkpt>
      <trkpt lat="45.98245" lon="6.43631">
        <ele>1920.37</ele>
        <time>2019-09-14T12:20:56Z</time>
      </trkpt>
      <trkpt lat="45.98245" lon="6.4363">
        <ele>1924.22</ele>
        <time>2019-09-14T12:21:02Z</time>
      </trkpt>
      <trkpt lat="45.98245" lon="6.43629">
        <ele>1920.37</ele>
        <time>2019-09-14T12:21:05Z</time>
      </trkpt>
      <trkpt lat="45.98244" lon="6.43626">
        <ele>1920.85</ele>
        <time>2019-09-14T12:21:10Z</time>
      </trkpt>
      <trkpt lat="45.98239" lon="6.43615">
        <ele>1919.89</ele>
        <time>2019-09-14T12:21:23Z</time>
      </trkpt>
      <trkpt lat="45.98238" lon="6.4361">
        <ele>1923.25</ele>
        <time>2019-09-14T12:21:27Z</time>
      </trkpt>
      <trkpt lat="45.98237" lon="6.43609">
        <ele>1919.89</ele>
        <time>2019-09-14T12:21:29Z</time>
      </trkpt>
      <trkpt lat="45.98234" lon="6.43607">
        <ele>1919.41</ele>
        <time>2019-09-14T12:21:41Z</time>
      </trkpt>
      <trkpt lat="45.98232" lon="6.43602">
        <ele>1918.45</ele>
        <time>2019-09-14T12:21:50Z</time>
      </trkpt>
      <trkpt lat="45.9823" lon="6.43602">
        <ele>1919.41</ele>
        <time>2019-09-14T12:21:52Z</time>
      </trkpt>
      <trkpt lat="45.98228" lon="6.43597">
        <ele>1914.12</ele>
        <time>2019-09-14T12:21:56Z</time>
      </trkpt>
      <trkpt lat="45.98228" lon="6.43596">
        <ele>1918.45</ele>
        <time>2019-09-14T12:21:57Z</time>
      </trkpt>
      <trkpt lat="45.98226" lon="6.43588">
        <ele>1915.56</ele>
        <time>2019-09-14T12:22:07Z</time>
      </trkpt>
      <trkpt lat="45.98222" lon="6.43583">
        <ele>1913.64</ele>
        <time>2019-09-14T12:22:12Z</time>
      </trkpt>
      <trkpt lat="45.9822" lon="6.43581">
        <ele>1915.08</ele>
        <time>2019-09-14T12:22:14Z</time>
      </trkpt>
      <trkpt lat="45.98219" lon="6.43575">
        <ele>1911.24</ele>
        <time>2019-09-14T12:22:21Z</time>
      </trkpt>
      <trkpt lat="45.98218" lon="6.43574">
        <ele>1910.76</ele>
        <time>2019-09-14T12:22:22Z</time>
      </trkpt>
      <trkpt lat="45.98215" lon="6.43565">
        <ele>1910.76</ele>
        <time>2019-09-14T12:22:30Z</time>
      </trkpt>
      <trkpt lat="45.98213" lon="6.43558">
        <ele>1909.8</ele>
        <time>2019-09-14T12:22:35Z</time>
      </trkpt>
      <trkpt lat="45.98212" lon="6.43558">
        <ele>1907.39</ele>
        <time>2019-09-14T12:22:36Z</time>
      </trkpt>
      <trkpt lat="45.9821" lon="6.43555">
        <ele>1907.39</ele>
        <time>2019-09-14T12:22:40Z</time>
      </trkpt>
      <trkpt lat="45.98203" lon="6.43546">
        <ele>1907.39</ele>
        <time>2019-09-14T12:22:52Z</time>
      </trkpt>
      <trkpt lat="45.98201" lon="6.4354">
        <ele>1903.55</ele>
        <time>2019-09-14T12:23:00Z</time>
      </trkpt>
      <trkpt lat="45.98195" lon="6.43531">
        <ele>1902.59</ele>
        <time>2019-09-14T12:23:11Z</time>
      </trkpt>
      <trkpt lat="45.98192" lon="6.43528">
        <ele>1903.55</ele>
        <time>2019-09-14T12:23:15Z</time>
      </trkpt>
      <trkpt lat="45.9819" lon="6.43525">
        <ele>1900.18</ele>
        <time>2019-09-14T12:23:18Z</time>
      </trkpt>
      <trkpt lat="45.98187" lon="6.43521">
        <ele>1898.26</ele>
        <time>2019-09-14T12:23:22Z</time>
      </trkpt>
      <trkpt lat="45.98185" lon="6.43517">
        <ele>1898.26</ele>
        <time>2019-09-14T12:23:26Z</time>
      </trkpt>
      <trkpt lat="45.98184" lon="6.43516">
        <ele>1898.74</ele>
        <time>2019-09-14T12:23:27Z</time>
      </trkpt>
      <trkpt lat="45.98182" lon="6.43514">
        <ele>1901.14</ele>
        <time>2019-09-14T12:23:29Z</time>
      </trkpt>
      <trkpt lat="45.98179" lon="6.43507">
        <ele>1899.7</ele>
        <time>2019-09-14T12:23:34Z</time>
      </trkpt>
      <trkpt lat="45.98174" lon="6.43501">
        <ele>1901.14</ele>
        <time>2019-09-14T12:23:43Z</time>
      </trkpt>
      <trkpt lat="45.98174" lon="6.43499">
        <ele>1897.78</ele>
        <time>2019-09-14T12:23:45Z</time>
      </trkpt>
      <trkpt lat="45.98173" lon="6.43498">
        <ele>1902.59</ele>
        <time>2019-09-14T12:23:46Z</time>
      </trkpt>
      <trkpt lat="45.98169" lon="6.43491">
        <ele>1901.14</ele>
        <time>2019-09-14T12:23:56Z</time>
      </trkpt>
      <trkpt lat="45.98168" lon="6.4349">
        <ele>1904.51</ele>
        <time>2019-09-14T12:23:58Z</time>
      </trkpt>
      <trkpt lat="45.98168" lon="6.43489">
        <ele>1901.63</ele>
        <time>2019-09-14T12:23:59Z</time>
      </trkpt>
      <trkpt lat="45.98167" lon="6.43488">
        <ele>1905.47</ele>
        <time>2019-09-14T12:24:00Z</time>
      </trkpt>
      <trkpt lat="45.98165" lon="6.43484">
        <ele>1902.11</ele>
        <time>2019-09-14T12:24:05Z</time>
      </trkpt>
      <trkpt lat="45.98164" lon="6.43483">
        <ele>1906.43</ele>
        <time>2019-09-14T12:24:06Z</time>
      </trkpt>
      <trkpt lat="45.98162" lon="6.43481">
        <ele>1901.63</ele>
        <time>2019-09-14T12:24:10Z</time>
      </trkpt>
      <trkpt lat="45.98162" lon="6.4348">
        <ele>1906.91</ele>
        <time>2019-09-14T12:24:11Z</time>
      </trkpt>
      <trkpt lat="45.98159" lon="6.43478">
        <ele>1906.91</ele>
        <time>2019-09-14T12:24:15Z</time>
      </trkpt>
      <trkpt lat="45.98158" lon="6.43475">
        <ele>1907.39</ele>
        <time>2019-09-14T12:24:17Z</time>
      </trkpt>
      <trkpt lat="45.98155" lon="6.43473">
        <ele>1906.91</ele>
        <time>2019-09-14T12:24:28Z</time>
      </trkpt>
      <trkpt lat="45.98155" lon="6.43473">
        <ele>1905.95</ele>
        <time>2019-09-14T12:24:42Z</time>
      </trkpt>
      <trkpt lat="45.98154" lon="6.43472">
        <ele>1905.95</ele>
        <time>2019-09-14T12:25:04Z</time>
      </trkpt>
      <trkpt lat="45.98154" lon="6.43473">
        <ele>1906.43</ele>
        <time>2019-09-14T12:25:26Z</time>
      </trkpt>
      <trkpt lat="45.98153" lon="6.43472">
        <ele>1907.39</ele>
        <time>2019-09-14T12:25:40Z</time>
      </trkpt>
      <trkpt lat="45.98153" lon="6.43472">
        <ele>1906.91</ele>
        <time>2019-09-14T12:26:00Z</time>
      </trkpt>
      <trkpt lat="45.98153" lon="6.43472">
        <ele>1907.87</ele>
        <time>2019-09-14T12:26:21Z</time>
      </trkpt>
      <trkpt lat="45.98153" lon="6.43471">
        <ele>1906.91</ele>
        <time>2019-09-14T12:26:43Z</time>
      </trkpt>
      <trkpt lat="45.98153" lon="6.43471">
        <ele>1906.43</ele>
        <time>2019-09-14T12:27:06Z</time>
      </trkpt>
      <trkpt lat="45.98153" lon="6.43471">
        <ele>1905.95</ele>
        <time>2019-09-14T12:27:25Z</time>
      </trkpt>
      <trkpt lat="45.98153" lon="6.43471">
        <ele>1906.91</ele>
        <time>2019-09-14T12:27:41Z</time>
      </trkpt>
      <trkpt lat="45.98153" lon="6.43471">
        <ele>1907.39</ele>
        <time>2019-09-14T12:27:59Z</time>
      </trkpt>
      <trkpt lat="45.98153" lon="6.43471">
        <ele>1906.43</ele>
        <time>2019-09-14T12:28:18Z</time>
      </trkpt>
      <trkpt lat="45.98152" lon="6.43471">
        <ele>1907.39</ele>
        <time>2019-09-14T12:28:27Z</time>
      </trkpt>
      <trkpt lat="45.98152" lon="6.43471">
        <ele>1907.39</ele>
        <time>2019-09-14T12:28:46Z</time>
      </trkpt>
      <trkpt lat="45.98152" lon="6.43471">
        <ele>1906.43</ele>
        <time>2019-09-14T12:29:07Z</time>
      </trkpt>
      <trkpt lat="45.98152" lon="6.43471">
        <ele>1907.39</ele>
        <time>2019-09-14T12:29:25Z</time>
      </trkpt>
      <trkpt lat="45.98149" lon="6.4347">
        <ele>1903.55</ele>
        <time>2019-09-14T12:29:35Z</time>
      </trkpt>
      <trkpt lat="45.98145" lon="6.43467">
        <ele>1904.03</ele>
        <time>2019-09-14T12:29:39Z</time>
      </trkpt>
      <trkpt lat="45.98144" lon="6.43467">
        <ele>1907.39</ele>
        <time>2019-09-14T12:29:40Z</time>
      </trkpt>
      <trkpt lat="45.9814" lon="6.43463">
        <ele>1904.03</ele>
        <time>2019-09-14T12:29:45Z</time>
      </trkpt>
      <trkpt lat="45.98139" lon="6.43462">
        <ele>1902.59</ele>
        <time>2019-09-14T12:29:46Z</time>
      </trkpt>
      <trkpt lat="45.98135" lon="6.43459">
        <ele>1907.39</ele>
        <time>2019-09-14T12:29:49Z</time>
      </trkpt>
      <trkpt lat="45.98134" lon="6.43457">
        <ele>1902.11</ele>
        <time>2019-09-14T12:29:51Z</time>
      </trkpt>
      <trkpt lat="45.98133" lon="6.43456">
        <ele>1903.07</ele>
        <time>2019-09-14T12:29:52Z</time>
      </trkpt>
      <trkpt lat="45.98132" lon="6.43455">
        <ele>1907.39</ele>
        <time>2019-09-14T12:29:53Z</time>
      </trkpt>
      <trkpt lat="45.98132" lon="6.43454">
        <ele>1905.95</ele>
        <time>2019-09-14T12:29:54Z</time>
      </trkpt>
      <trkpt lat="45.98128" lon="6.43448">
        <ele>1906.43</ele>
        <time>2019-09-14T12:29:59Z</time>
      </trkpt>
      <trkpt lat="45.98125" lon="6.43447">
        <ele>1902.59</ele>
        <time>2019-09-14T12:30:08Z</time>
      </trkpt>
      <trkpt lat="45.98124" lon="6.43447">
        <ele>1907.39</ele>
        <time>2019-09-14T12:30:09Z</time>
      </trkpt>
      <trkpt lat="45.98122" lon="6.43446">
        <ele>1903.55</ele>
        <time>2019-09-14T12:30:11Z</time>
      </trkpt>
      <trkpt lat="45.98121" lon="6.43445">
        <ele>1907.87</ele>
        <time>2019-09-14T12:30:12Z</time>
      </trkpt>
      <trkpt lat="45.98119" lon="6.43442">
        <ele>1903.55</ele>
        <time>2019-09-14T12:30:15Z</time>
      </trkpt>
      <trkpt lat="45.98118" lon="6.43441">
        <ele>1908.35</ele>
        <time>2019-09-14T12:30:17Z</time>
      </trkpt>
      <trkpt lat="45.98116" lon="6.4344">
        <ele>1903.55</ele>
        <time>2019-09-14T12:30:19Z</time>
      </trkpt>
      <trkpt lat="45.98116" lon="6.43439">
        <ele>1907.87</ele>
        <time>2019-09-14T12:30:20Z</time>
      </trkpt>
      <trkpt lat="45.98115" lon="6.43438">
        <ele>1904.51</ele>
        <time>2019-09-14T12:30:21Z</time>
      </trkpt>
      <trkpt lat="45.98113" lon="6.43432">
        <ele>1902.59</ele>
        <time>2019-09-14T12:30:28Z</time>
      </trkpt>
      <trkpt lat="45.98108" lon="6.43429">
        <ele>1902.59</ele>
        <time>2019-09-14T12:30:33Z</time>
      </trkpt>
      <trkpt lat="45.98107" lon="6.43429">
        <ele>1907.39</ele>
        <time>2019-09-14T12:30:34Z</time>
      </trkpt>
      <trkpt lat="45.98103" lon="6.43426">
        <ele>1903.55</ele>
        <time>2019-09-14T12:30:39Z</time>
      </trkpt>
      <trkpt lat="45.98101" lon="6.43425">
        <ele>1907.39</ele>
        <time>2019-09-14T12:30:41Z</time>
      </trkpt>
      <trkpt lat="45.98099" lon="6.43424">
        <ele>1905.95</ele>
        <time>2019-09-14T12:30:45Z</time>
      </trkpt>
      <trkpt lat="45.98097" lon="6.43423">
        <ele>1906.43</ele>
        <time>2019-09-14T12:30:47Z</time>
      </trkpt>
      <trkpt lat="45.98095" lon="6.43422">
        <ele>1905.47</ele>
        <time>2019-09-14T12:30:49Z</time>
      </trkpt>
      <trkpt lat="45.98092" lon="6.4342">
        <ele>1907.39</ele>
        <time>2019-09-14T12:30:52Z</time>
      </trkpt>
      <trkpt lat="45.98091" lon="6.4342">
        <ele>1902.11</ele>
        <time>2019-09-14T12:30:53Z</time>
      </trkpt>
      <trkpt lat="45.9809" lon="6.43419">
        <ele>1906.43</ele>
        <time>2019-09-14T12:30:54Z</time>
      </trkpt>
      <trkpt lat="45.98087" lon="6.43418">
        <ele>1907.39</ele>
        <time>2019-09-14T12:30:57Z</time>
      </trkpt>
      <trkpt lat="45.98085" lon="6.43416">
        <ele>1904.99</ele>
        <time>2019-09-14T12:30:59Z</time>
      </trkpt>
      <trkpt lat="45.98083" lon="6.43412">
        <ele>1908.83</ele>
        <time>2019-09-14T12:31:02Z</time>
      </trkpt>
      <trkpt lat="45.98083" lon="6.4341">
        <ele>1904.99</ele>
        <time>2019-09-14T12:31:03Z</time>
      </trkpt>
      <trkpt lat="45.98082" lon="6.43409">
        <ele>1904.99</ele>
        <time>2019-09-14T12:31:04Z</time>
      </trkpt>
      <trkpt lat="45.98081" lon="6.43408">
        <ele>1908.83</ele>
        <time>2019-09-14T12:31:05Z</time>
      </trkpt>
      <trkpt lat="45.9808" lon="6.43407">
        <ele>1908.83</ele>
        <time>2019-09-14T12:31:06Z</time>
      </trkpt>
      <trkpt lat="45.98073" lon="6.43404">
        <ele>1904.99</ele>
        <time>2019-09-14T12:31:14Z</time>
      </trkpt>
      <trkpt lat="45.98073" lon="6.43404">
        <ele>1909.32</ele>
        <time>2019-09-14T12:31:15Z</time>
      </trkpt>
      <trkpt lat="45.98072" lon="6.43403">
        <ele>1908.83</ele>
        <time>2019-09-14T12:31:16Z</time>
      </trkpt>
      <trkpt lat="45.9807" lon="6.43401">
        <ele>1904.99</ele>
        <time>2019-09-14T12:31:18Z</time>
      </trkpt>
      <trkpt lat="45.98069" lon="6.43401">
        <ele>1909.8</ele>
        <time>2019-09-14T12:31:19Z</time>
      </trkpt>
      <trkpt lat="45.98068" lon="6.434">
        <ele>1904.03</ele>
        <time>2019-09-14T12:31:20Z</time>
      </trkpt>
      <trkpt lat="45.98065" lon="6.43399">
        <ele>1909.32</ele>
        <time>2019-09-14T12:31:22Z</time>
      </trkpt>
      <trkpt lat="45.98062" lon="6.43396">
        <ele>1903.07</ele>
        <time>2019-09-14T12:31:25Z</time>
      </trkpt>
      <trkpt lat="45.98061" lon="6.43396">
        <ele>1907.87</ele>
        <time>2019-09-14T12:31:26Z</time>
      </trkpt>
      <trkpt lat="45.98059" lon="6.43394">
        <ele>1905.95</ele>
        <time>2019-09-14T12:31:29Z</time>
      </trkpt>
      <trkpt lat="45.98056" lon="6.43392">
        <ele>1909.8</ele>
        <time>2019-09-14T12:31:32Z</time>
      </trkpt>
      <trkpt lat="45.98054" lon="6.43391">
        <ele>1906.91</ele>
        <time>2019-09-14T12:31:34Z</time>
      </trkpt>
      <trkpt lat="45.98053" lon="6.43391">
        <ele>1907.39</ele>
        <time>2019-09-14T12:31:35Z</time>
      </trkpt>
      <trkpt lat="45.98051" lon="6.4339">
        <ele>1910.28</ele>
        <time>2019-09-14T12:31:36Z</time>
      </trkpt>
      <trkpt lat="45.98049" lon="6.4339">
        <ele>1904.99</ele>
        <time>2019-09-14T12:31:38Z</time>
      </trkpt>
      <trkpt lat="45.98047" lon="6.43389">
        <ele>1911.24</ele>
        <time>2019-09-14T12:31:40Z</time>
      </trkpt>
      <trkpt lat="45.98046" lon="6.43387">
        <ele>1904.51</ele>
        <time>2019-09-14T12:31:42Z</time>
      </trkpt>
      <trkpt lat="45.98045" lon="6.43386">
        <ele>1905.95</ele>
        <time>2019-09-14T12:31:43Z</time>
      </trkpt>
      <trkpt lat="45.98043" lon="6.43385">
        <ele>1910.76</ele>
        <time>2019-09-14T12:31:45Z</time>
      </trkpt>
      <trkpt lat="45.98042" lon="6.43383">
        <ele>1909.8</ele>
        <time>2019-09-14T12:31:46Z</time>
      </trkpt>
      <trkpt lat="45.98042" lon="6.43382">
        <ele>1904.51</ele>
        <time>2019-09-14T12:31:47Z</time>
      </trkpt>
      <trkpt lat="45.98041" lon="6.43381">
        <ele>1907.87</ele>
        <time>2019-09-14T12:31:48Z</time>
      </trkpt>
      <trkpt lat="45.98039" lon="6.43379">
        <ele>1911.72</ele>
        <time>2019-09-14T12:31:50Z</time>
      </trkpt>
      <trkpt lat="45.98039" lon="6.43378">
        <ele>1906.43</ele>
        <time>2019-09-14T12:31:51Z</time>
      </trkpt>
      <trkpt lat="45.98038" lon="6.43377">
        <ele>1906.43</ele>
        <time>2019-09-14T12:31:52Z</time>
      </trkpt>
      <trkpt lat="45.98037" lon="6.43374">
        <ele>1910.76</ele>
        <time>2019-09-14T12:31:54Z</time>
      </trkpt>
      <trkpt lat="45.98034" lon="6.4337">
        <ele>1906.43</ele>
        <time>2019-09-14T12:31:58Z</time>
      </trkpt>
      <trkpt lat="45.98033" lon="6.43369">
        <ele>1906.43</ele>
        <time>2019-09-14T12:31:59Z</time>
      </trkpt>
      <trkpt lat="45.98032" lon="6.43369">
        <ele>1908.35</ele>
        <time>2019-09-14T12:32:00Z</time>
      </trkpt>
      <trkpt lat="45.98029" lon="6.43366">
        <ele>1905.95</ele>
        <time>2019-09-14T12:32:03Z</time>
      </trkpt>
      <trkpt lat="45.98027" lon="6.43362">
        <ele>1909.32</ele>
        <time>2019-09-14T12:32:06Z</time>
      </trkpt>
      <trkpt lat="45.98025" lon="6.43358">
        <ele>1906.43</ele>
        <time>2019-09-14T12:32:10Z</time>
      </trkpt>
      <trkpt lat="45.98023" lon="6.43355">
        <ele>1907.39</ele>
        <time>2019-09-14T12:32:12Z</time>
      </trkpt>
      <trkpt lat="45.98021" lon="6.43351">
        <ele>1903.55</ele>
        <time>2019-09-14T12:32:15Z</time>
      </trkpt>
      <trkpt lat="45.9802" lon="6.43349">
        <ele>1906.43</ele>
        <time>2019-09-14T12:32:16Z</time>
      </trkpt>
      <trkpt lat="45.98018" lon="6.43345">
        <ele>1907.87</ele>
        <time>2019-09-14T12:32:19Z</time>
      </trkpt>
      <trkpt lat="45.98014" lon="6.4334">
        <ele>1901.63</ele>
        <time>2019-09-14T12:32:23Z</time>
      </trkpt>
      <trkpt lat="45.98013" lon="6.43339">
        <ele>1907.87</ele>
        <time>2019-09-14T12:32:24Z</time>
      </trkpt>
      <trkpt lat="45.98012" lon="6.43336">
        <ele>1904.03</ele>
        <time>2019-09-14T12:32:27Z</time>
      </trkpt>
      <trkpt lat="45.98008" lon="6.43326">
        <ele>1908.83</ele>
        <time>2019-09-14T12:32:35Z</time>
      </trkpt>
      <trkpt lat="45.98007" lon="6.43324">
        <ele>1909.8</ele>
        <time>2019-09-14T12:32:37Z</time>
      </trkpt>
      <trkpt lat="45.98006" lon="6.43323">
        <ele>1909.8</ele>
        <time>2019-09-14T12:32:38Z</time>
      </trkpt>
      <trkpt lat="45.98004" lon="6.43317">
        <ele>1911.24</ele>
        <time>2019-09-14T12:32:42Z</time>
      </trkpt>
      <trkpt lat="45.98004" lon="6.43316">
        <ele>1904.99</ele>
        <time>2019-09-14T12:32:43Z</time>
      </trkpt>
      <trkpt lat="45.98003" lon="6.43316">
        <ele>1908.35</ele>
        <time>2019-09-14T12:32:44Z</time>
      </trkpt>
      <trkpt lat="45.98" lon="6.4331">
        <ele>1907.87</ele>
        <time>2019-09-14T12:32:49Z</time>
      </trkpt>
      <trkpt lat="45.97999" lon="6.43308">
        <ele>1910.28</ele>
        <time>2019-09-14T12:32:51Z</time>
      </trkpt>
      <trkpt lat="45.97998" lon="6.43307">
        <ele>1904.99</ele>
        <time>2019-09-14T12:32:52Z</time>
      </trkpt>
      <trkpt lat="45.97998" lon="6.43306">
        <ele>1909.8</ele>
        <time>2019-09-14T12:32:53Z</time>
      </trkpt>
      <trkpt lat="45.97993" lon="6.43299">
        <ele>1905.47</ele>
        <time>2019-09-14T12:32:59Z</time>
      </trkpt>
      <trkpt lat="45.97992" lon="6.43298">
        <ele>1909.32</ele>
        <time>2019-09-14T12:33:00Z</time>
      </trkpt>
      <trkpt lat="45.9799" lon="6.43294">
        <ele>1904.51</ele>
        <time>2019-09-14T12:33:03Z</time>
      </trkpt>
      <trkpt lat="45.97989" lon="6.43293">
        <ele>1907.87</ele>
        <time>2019-09-14T12:33:04Z</time>
      </trkpt>
      <trkpt lat="45.97988" lon="6.43291">
        <ele>1908.83</ele>
        <time>2019-09-14T12:33:06Z</time>
      </trkpt>
      <trkpt lat="45.97987" lon="6.4329">
        <ele>1904.51</ele>
        <time>2019-09-14T12:33:07Z</time>
      </trkpt>
      <trkpt lat="45.97986" lon="6.43289">
        <ele>1908.35</ele>
        <time>2019-09-14T12:33:08Z</time>
      </trkpt>
      <trkpt lat="45.97984" lon="6.43284">
        <ele>1906.43</ele>
        <time>2019-09-14T12:33:13Z</time>
      </trkpt>
      <trkpt lat="45.97982" lon="6.43282">
        <ele>1908.35</ele>
        <time>2019-09-14T12:33:16Z</time>
      </trkpt>
      <trkpt lat="45.97981" lon="6.43282">
        <ele>1904.51</ele>
        <time>2019-09-14T12:33:17Z</time>
      </trkpt>
      <trkpt lat="45.97978" lon="6.43279">
        <ele>1909.32</ele>
        <time>2019-09-14T12:33:20Z</time>
      </trkpt>
      <trkpt lat="45.97977" lon="6.43278">
        <ele>1905.95</ele>
        <time>2019-09-14T12:33:22Z</time>
      </trkpt>
      <trkpt lat="45.97975" lon="6.43273">
        <ele>1909.32</ele>
        <time>2019-09-14T12:33:32Z</time>
      </trkpt>
      <trkpt lat="45.97974" lon="6.43272">
        <ele>1904.99</ele>
        <time>2019-09-14T12:33:33Z</time>
      </trkpt>
      <trkpt lat="45.97972" lon="6.43268">
        <ele>1908.35</ele>
        <time>2019-09-14T12:33:36Z</time>
      </trkpt>
      <trkpt lat="45.97972" lon="6.43267">
        <ele>1907.39</ele>
        <time>2019-09-14T12:33:37Z</time>
      </trkpt>
      <trkpt lat="45.97971" lon="6.43265">
        <ele>1908.83</ele>
        <time>2019-09-14T12:33:39Z</time>
      </trkpt>
      <trkpt lat="45.97969" lon="6.43261">
        <ele>1904.03</ele>
        <time>2019-09-14T12:33:44Z</time>
      </trkpt>
      <trkpt lat="45.97969" lon="6.43261">
        <ele>1907.39</ele>
        <time>2019-09-14T12:33:45Z</time>
      </trkpt>
      <trkpt lat="45.97966" lon="6.43257">
        <ele>1904.51</ele>
        <time>2019-09-14T12:33:51Z</time>
      </trkpt>
      <trkpt lat="45.97965" lon="6.43257">
        <ele>1904.51</ele>
        <time>2019-09-14T12:33:52Z</time>
      </trkpt>
      <trkpt lat="45.97964" lon="6.43255">
        <ele>1908.35</ele>
        <time>2019-09-14T12:33:54Z</time>
      </trkpt>
      <trkpt lat="45.97964" lon="6.43253">
        <ele>1902.59</ele>
        <time>2019-09-14T12:33:55Z</time>
      </trkpt>
      <trkpt lat="45.97963" lon="6.43252">
        <ele>1906.43</ele>
        <time>2019-09-14T12:33:56Z</time>
      </trkpt>
      <trkpt lat="45.9796" lon="6.43244">
        <ele>1901.63</ele>
        <time>2019-09-14T12:34:03Z</time>
      </trkpt>
      <trkpt lat="45.97959" lon="6.43243">
        <ele>1906.91</ele>
        <time>2019-09-14T12:34:04Z</time>
      </trkpt>
      <trkpt lat="45.97955" lon="6.43231">
        <ele>1906.91</ele>
        <time>2019-09-14T12:34:14Z</time>
      </trkpt>
      <trkpt lat="45.97955" lon="6.4323">
        <ele>1904.51</ele>
        <time>2019-09-14T12:34:16Z</time>
      </trkpt>
      <trkpt lat="45.97953" lon="6.43227">
        <ele>1905.95</ele>
        <time>2019-09-14T12:34:19Z</time>
      </trkpt>
      <trkpt lat="45.97951" lon="6.4322">
        <ele>1903.55</ele>
        <time>2019-09-14T12:34:31Z</time>
      </trkpt>
      <trkpt lat="45.9795" lon="6.43219">
        <ele>1904.03</ele>
        <time>2019-09-14T12:34:32Z</time>
      </trkpt>
      <trkpt lat="45.97945" lon="6.4321">
        <ele>1901.63</ele>
        <time>2019-09-14T12:34:42Z</time>
      </trkpt>
      <trkpt lat="45.97945" lon="6.4321">
        <ele>1906.91</ele>
        <time>2019-09-14T12:34:43Z</time>
      </trkpt>
      <trkpt lat="45.97942" lon="6.43206">
        <ele>1903.07</ele>
        <time>2019-09-14T12:34:47Z</time>
      </trkpt>
      <trkpt lat="45.97937" lon="6.43199">
        <ele>1901.14</ele>
        <time>2019-09-14T12:34:56Z</time>
      </trkpt>
      <trkpt lat="45.97935" lon="6.43195">
        <ele>1900.66</ele>
        <time>2019-09-14T12:35:00Z</time>
      </trkpt>
      <trkpt lat="45.97934" lon="6.4319">
        <ele>1904.99</ele>
        <time>2019-09-14T12:35:04Z</time>
      </trkpt>
      <trkpt lat="45.97934" lon="6.43189">
        <ele>1904.51</ele>
        <time>2019-09-14T12:35:05Z</time>
      </trkpt>
      <trkpt lat="45.97934" lon="6.43188">
        <ele>1903.55</ele>
        <time>2019-09-14T12:35:07Z</time>
      </trkpt>
      <trkpt lat="45.9793" lon="6.43181">
        <ele>1902.59</ele>
        <time>2019-09-14T12:35:18Z</time>
      </trkpt>
      <trkpt lat="45.97925" lon="6.43177">
        <ele>1905.47</ele>
        <time>2019-09-14T12:35:26Z</time>
      </trkpt>
      <trkpt lat="45.97924" lon="6.43176">
        <ele>1901.14</ele>
        <time>2019-09-14T12:35:27Z</time>
      </trkpt>
      <trkpt lat="45.97924" lon="6.43176">
        <ele>1905.47</ele>
        <time>2019-09-14T12:35:28Z</time>
      </trkpt>
      <trkpt lat="45.97919" lon="6.43173">
        <ele>1901.14</ele>
        <time>2019-09-14T12:35:38Z</time>
      </trkpt>
      <trkpt lat="45.97919" lon="6.43172">
        <ele>1904.99</ele>
        <time>2019-09-14T12:35:39Z</time>
      </trkpt>
      <trkpt lat="45.97917" lon="6.43171">
        <ele>1900.66</ele>
        <time>2019-09-14T12:35:41Z</time>
      </trkpt>
      <trkpt lat="45.97916" lon="6.4317">
        <ele>1902.11</ele>
        <time>2019-09-14T12:35:42Z</time>
      </trkpt>
      <trkpt lat="45.97916" lon="6.43169">
        <ele>1905.95</ele>
        <time>2019-09-14T12:35:43Z</time>
      </trkpt>
      <trkpt lat="45.97915" lon="6.43168">
        <ele>1902.59</ele>
        <time>2019-09-14T12:35:44Z</time>
      </trkpt>
      <trkpt lat="45.97913" lon="6.43165">
        <ele>1904.99</ele>
        <time>2019-09-14T12:35:47Z</time>
      </trkpt>
      <trkpt lat="45.9791" lon="6.43161">
        <ele>1901.63</ele>
        <time>2019-09-14T12:35:52Z</time>
      </trkpt>
      <trkpt lat="45.9791" lon="6.4316">
        <ele>1906.43</ele>
        <time>2019-09-14T12:35:53Z</time>
      </trkpt>
      <trkpt lat="45.97909" lon="6.4316">
        <ele>1902.59</ele>
        <time>2019-09-14T12:35:54Z</time>
      </trkpt>
      <trkpt lat="45.97905" lon="6.43154">
        <ele>1905.47</ele>
        <time>2019-09-14T12:36:00Z</time>
      </trkpt>
      <trkpt lat="45.97898" lon="6.43148">
        <ele>1906.43</ele>
        <time>2019-09-14T12:36:08Z</time>
      </trkpt>
      <trkpt lat="45.97897" lon="6.43147">
        <ele>1903.07</ele>
        <time>2019-09-14T12:36:09Z</time>
      </trkpt>
      <trkpt lat="45.97896" lon="6.43146">
        <ele>1902.59</ele>
        <time>2019-09-14T12:36:10Z</time>
      </trkpt>
      <trkpt lat="45.97894" lon="6.43144">
        <ele>1906.43</ele>
        <time>2019-09-14T12:36:13Z</time>
      </trkpt>
      <trkpt lat="45.97892" lon="6.43142">
        <ele>1903.07</ele>
        <time>2019-09-14T12:36:15Z</time>
      </trkpt>
      <trkpt lat="45.97889" lon="6.43139">
        <ele>1906.43</ele>
        <time>2019-09-14T12:36:18Z</time>
      </trkpt>
      <trkpt lat="45.97887" lon="6.43138">
        <ele>1902.59</ele>
        <time>2019-09-14T12:36:20Z</time>
      </trkpt>
      <trkpt lat="45.97886" lon="6.43137">
        <ele>1903.55</ele>
        <time>2019-09-14T12:36:21Z</time>
      </trkpt>
      <trkpt lat="45.97885" lon="6.43136">
        <ele>1904.51</ele>
        <time>2019-09-14T12:36:23Z</time>
      </trkpt>
      <trkpt lat="45.97881" lon="6.43134">
        <ele>1900.66</ele>
        <time>2019-09-14T12:36:28Z</time>
      </trkpt>
      <trkpt lat="45.97878" lon="6.43135">
        <ele>1903.07</ele>
        <time>2019-09-14T12:36:31Z</time>
      </trkpt>
      <trkpt lat="45.97876" lon="6.43135">
        <ele>1900.66</ele>
        <time>2019-09-14T12:36:43Z</time>
      </trkpt>
      <trkpt lat="45.97873" lon="6.43134">
        <ele>1902.59</ele>
        <time>2019-09-14T12:36:57Z</time>
      </trkpt>
      <trkpt lat="45.97869" lon="6.43134">
        <ele>1899.7</ele>
        <time>2019-09-14T12:37:08Z</time>
      </trkpt>
      <trkpt lat="45.97864" lon="6.43135">
        <ele>1899.7</ele>
        <time>2019-09-14T12:37:18Z</time>
      </trkpt>
      <trkpt lat="45.97861" lon="6.43136">
        <ele>1896.34</ele>
        <time>2019-09-14T12:37:23Z</time>
      </trkpt>
      <trkpt lat="45.9786" lon="6.43136">
        <ele>1896.82</ele>
        <time>2019-09-14T12:37:24Z</time>
      </trkpt>
      <trkpt lat="45.97856" lon="6.43137">
        <ele>1895.38</ele>
        <time>2019-09-14T12:37:34Z</time>
      </trkpt>
      <trkpt lat="45.97854" lon="6.43135">
        <ele>1893.45</ele>
        <time>2019-09-14T12:37:38Z</time>
      </trkpt>
      <trkpt lat="45.97849" lon="6.43136">
        <ele>1892.49</ele>
        <time>2019-09-14T12:37:48Z</time>
      </trkpt>
      <trkpt lat="45.97844" lon="6.43136">
        <ele>1889.13</ele>
        <time>2019-09-14T12:37:57Z</time>
      </trkpt>
      <trkpt lat="45.97841" lon="6.43134">
        <ele>1888.17</ele>
        <time>2019-09-14T12:38:04Z</time>
      </trkpt>
      <trkpt lat="45.97835" lon="6.43132">
        <ele>1887.21</ele>
        <time>2019-09-14T12:38:15Z</time>
      </trkpt>
      <trkpt lat="45.97834" lon="6.43136">
        <ele>1883.84</ele>
        <time>2019-09-14T12:38:20Z</time>
      </trkpt>
      <trkpt lat="45.97833" lon="6.43136">
        <ele>1884.8</ele>
        <time>2019-09-14T12:38:21Z</time>
      </trkpt>
      <trkpt lat="45.97833" lon="6.43138">
        <ele>1883.84</ele>
        <time>2019-09-14T12:38:26Z</time>
      </trkpt>
      <trkpt lat="45.9783" lon="6.43143">
        <ele>1881.92</ele>
        <time>2019-09-14T12:38:36Z</time>
      </trkpt>
      <trkpt lat="45.97826" lon="6.43147">
        <ele>1883.36</ele>
        <time>2019-09-14T12:38:47Z</time>
      </trkpt>
      <trkpt lat="45.97825" lon="6.43148">
        <ele>1883.84</ele>
        <time>2019-09-14T12:39:05Z</time>
      </trkpt>
      <trkpt lat="45.97825" lon="6.43148">
        <ele>1880.48</ele>
        <time>2019-09-14T12:39:06Z</time>
      </trkpt>
      <trkpt lat="45.97825" lon="6.43149">
        <ele>1881.44</ele>
        <time>2019-09-14T12:39:25Z</time>
      </trkpt>
      <trkpt lat="45.97824" lon="6.43148">
        <ele>1881.92</ele>
        <time>2019-09-14T12:39:40Z</time>
      </trkpt>
      <trkpt lat="45.97824" lon="6.43149">
        <ele>1881.44</ele>
        <time>2019-09-14T12:39:55Z</time>
      </trkpt>
      <trkpt lat="45.97824" lon="6.43149">
        <ele>1882.88</ele>
        <time>2019-09-14T12:40:09Z</time>
      </trkpt>
      <trkpt lat="45.97822" lon="6.43151">
        <ele>1882.4</ele>
        <time>2019-09-14T12:40:13Z</time>
      </trkpt>
      <trkpt lat="45.97821" lon="6.43151">
        <ele>1882.4</ele>
        <time>2019-09-14T12:40:22Z</time>
      </trkpt>
      <trkpt lat="45.97821" lon="6.43152">
        <ele>1879.03</ele>
        <time>2019-09-14T12:40:41Z</time>
      </trkpt>
      <trkpt lat="45.97821" lon="6.43152">
        <ele>1882.88</ele>
        <time>2019-09-14T12:40:43Z</time>
      </trkpt>
      <trkpt lat="45.9782" lon="6.4315">
        <ele>1880.96</ele>
        <time>2019-09-14T12:41:02Z</time>
      </trkpt>
      <trkpt lat="45.97819" lon="6.43146">
        <ele>1878.55</ele>
        <time>2019-09-14T12:41:05Z</time>
      </trkpt>
      <trkpt lat="45.97819" lon="6.43144">
        <ele>1880</ele>
        <time>2019-09-14T12:41:06Z</time>
      </trkpt>
      <trkpt lat="45.97817" lon="6.43142">
        <ele>1881.44</ele>
        <time>2019-09-14T12:41:08Z</time>
      </trkpt>
      <trkpt lat="45.97815" lon="6.43138">
        <ele>1877.59</ele>
        <time>2019-09-14T12:41:12Z</time>
      </trkpt>
      <trkpt lat="45.97815" lon="6.43138">
        <ele>1880.48</ele>
        <time>2019-09-14T12:41:13Z</time>
      </trkpt>
      <trkpt lat="45.97813" lon="6.43135">
        <ele>1880.48</ele>
        <time>2019-09-14T12:41:22Z</time>
      </trkpt>
      <trkpt lat="45.97813" lon="6.43135">
        <ele>1880.96</ele>
        <time>2019-09-14T12:41:37Z</time>
      </trkpt>
      <trkpt lat="45.97814" lon="6.43135">
        <ele>1880</ele>
        <time>2019-09-14T12:41:39Z</time>
      </trkpt>
      <trkpt lat="45.97813" lon="6.43135">
        <ele>1880</ele>
        <time>2019-09-14T12:41:57Z</time>
      </trkpt>
      <trkpt lat="45.97814" lon="6.43135">
        <ele>1881.44</ele>
        <time>2019-09-14T12:42:08Z</time>
      </trkpt>
      <trkpt lat="45.97814" lon="6.43135">
        <ele>1878.07</ele>
        <time>2019-09-14T12:42:09Z</time>
      </trkpt>
      <trkpt lat="45.97814" lon="6.43135">
        <ele>1881.92</ele>
        <time>2019-09-14T12:42:10Z</time>
      </trkpt>
      <trkpt lat="45.97813" lon="6.43135">
        <ele>1877.59</ele>
        <time>2019-09-14T12:42:16Z</time>
      </trkpt>
      <trkpt lat="45.97814" lon="6.43135">
        <ele>1880.96</ele>
        <time>2019-09-14T12:42:17Z</time>
      </trkpt>
      <trkpt lat="45.97814" lon="6.43136">
        <ele>1876.15</ele>
        <time>2019-09-14T12:42:18Z</time>
      </trkpt>
      <trkpt lat="45.97814" lon="6.43136">
        <ele>1880</ele>
        <time>2019-09-14T12:42:19Z</time>
      </trkpt>
      <trkpt lat="45.97815" lon="6.43138">
        <ele>1881.44</ele>
        <time>2019-09-14T12:42:21Z</time>
      </trkpt>
      <trkpt lat="45.97817" lon="6.43141">
        <ele>1878.07</ele>
        <time>2019-09-14T12:42:28Z</time>
      </trkpt>
      <trkpt lat="45.97817" lon="6.43142">
        <ele>1881.92</ele>
        <time>2019-09-14T12:42:29Z</time>
      </trkpt>
      <trkpt lat="45.97817" lon="6.43142">
        <ele>1878.07</ele>
        <time>2019-09-14T12:42:30Z</time>
      </trkpt>
      <trkpt lat="45.97818" lon="6.43143">
        <ele>1882.4</ele>
        <time>2019-09-14T12:42:31Z</time>
      </trkpt>
      <trkpt lat="45.97819" lon="6.43147">
        <ele>1881.44</ele>
        <time>2019-09-14T12:42:45Z</time>
      </trkpt>
      <trkpt lat="45.97819" lon="6.43147">
        <ele>1880.96</ele>
        <time>2019-09-14T12:43:02Z</time>
      </trkpt>
      <trkpt lat="45.97819" lon="6.43147">
        <ele>1881.92</ele>
        <time>2019-09-14T12:43:20Z</time>
      </trkpt>
      <trkpt lat="45.97819" lon="6.43147">
        <ele>1880.96</ele>
        <time>2019-09-14T12:43:42Z</time>
      </trkpt>
      <trkpt lat="45.97819" lon="6.43148">
        <ele>1881.44</ele>
        <time>2019-09-14T12:44:06Z</time>
      </trkpt>
      <trkpt lat="45.97819" lon="6.43148">
        <ele>1882.4</ele>
        <time>2019-09-14T12:44:24Z</time>
      </trkpt>
      <trkpt lat="45.97819" lon="6.43148">
        <ele>1881.92</ele>
        <time>2019-09-14T12:44:25Z</time>
      </trkpt>
      <trkpt lat="45.97816" lon="6.43147">
        <ele>1878.55</ele>
        <time>2019-09-14T12:44:28Z</time>
      </trkpt>
      <trkpt lat="45.97813" lon="6.43147">
        <ele>1881.92</ele>
        <time>2019-09-14T12:44:30Z</time>
      </trkpt>
      <trkpt lat="45.97806" lon="6.43145">
        <ele>1877.59</ele>
        <time>2019-09-14T12:44:35Z</time>
      </trkpt>
      <trkpt lat="45.97801" lon="6.43144">
        <ele>1880.96</ele>
        <time>2019-09-14T12:44:38Z</time>
      </trkpt>
      <trkpt lat="45.978" lon="6.43144">
        <ele>1880.96</ele>
        <time>2019-09-14T12:44:39Z</time>
      </trkpt>
      <trkpt lat="45.97795" lon="6.43144">
        <ele>1878.07</ele>
        <time>2019-09-14T12:44:43Z</time>
      </trkpt>
      <trkpt lat="45.97792" lon="6.43143">
        <ele>1876.63</ele>
        <time>2019-09-14T12:44:45Z</time>
      </trkpt>
      <trkpt lat="45.97787" lon="6.43142">
        <ele>1880</ele>
        <time>2019-09-14T12:44:49Z</time>
      </trkpt>
      <trkpt lat="45.97779" lon="6.43142">
        <ele>1878.07</ele>
        <time>2019-09-14T12:44:55Z</time>
      </trkpt>
      <trkpt lat="45.97774" lon="6.43142">
        <ele>1881.92</ele>
        <time>2019-09-14T12:45:00Z</time>
      </trkpt>
      <trkpt lat="45.97772" lon="6.43141">
        <ele>1878.07</ele>
        <time>2019-09-14T12:45:02Z</time>
      </trkpt>
      <trkpt lat="45.97771" lon="6.43141">
        <ele>1879.51</ele>
        <time>2019-09-14T12:45:03Z</time>
      </trkpt>
      <trkpt lat="45.97765" lon="6.43139">
        <ele>1882.88</ele>
        <time>2019-09-14T12:45:10Z</time>
      </trkpt>
      <trkpt lat="45.97764" lon="6.43138">
        <ele>1880</ele>
        <time>2019-09-14T12:45:11Z</time>
      </trkpt>
      <trkpt lat="45.97764" lon="6.43138">
        <ele>1884.32</ele>
        <time>2019-09-14T12:45:14Z</time>
      </trkpt>
      <trkpt lat="45.97762" lon="6.43137">
        <ele>1880.48</ele>
        <time>2019-09-14T12:45:17Z</time>
      </trkpt>
      <trkpt lat="45.97762" lon="6.43137">
        <ele>1884.8</ele>
        <time>2019-09-14T12:45:18Z</time>
      </trkpt>
      <trkpt lat="45.97762" lon="6.43137">
        <ele>1880.96</ele>
        <time>2019-09-14T12:45:20Z</time>
      </trkpt>
      <trkpt lat="45.9776" lon="6.43136">
        <ele>1880.48</ele>
        <time>2019-09-14T12:45:27Z</time>
      </trkpt>
      <trkpt lat="45.97756" lon="6.43135">
        <ele>1880.96</ele>
        <time>2019-09-14T12:45:33Z</time>
      </trkpt>
      <trkpt lat="45.97755" lon="6.43135">
        <ele>1880.48</ele>
        <time>2019-09-14T12:45:34Z</time>
      </trkpt>
      <trkpt lat="45.97752" lon="6.43134">
        <ele>1880</ele>
        <time>2019-09-14T12:45:37Z</time>
      </trkpt>
      <trkpt lat="45.9775" lon="6.43134">
        <ele>1880.48</ele>
        <time>2019-09-14T12:45:40Z</time>
      </trkpt>
      <trkpt lat="45.97746" lon="6.43134">
        <ele>1877.59</ele>
        <time>2019-09-14T12:45:43Z</time>
      </trkpt>
      <trkpt lat="45.97741" lon="6.43132">
        <ele>1881.92</ele>
        <time>2019-09-14T12:45:49Z</time>
      </trkpt>
      <trkpt lat="45.97739" lon="6.4313">
        <ele>1881.92</ele>
        <time>2019-09-14T12:45:54Z</time>
      </trkpt>
      <trkpt lat="45.9773" lon="6.43129">
        <ele>1880</ele>
        <time>2019-09-14T12:46:05Z</time>
      </trkpt>
      <trkpt lat="45.9773" lon="6.43129">
        <ele>1883.36</ele>
        <time>2019-09-14T12:46:06Z</time>
      </trkpt>
      <trkpt lat="45.9773" lon="6.43129">
        <ele>1879.03</ele>
        <time>2019-09-14T12:46:07Z</time>
      </trkpt>
      <trkpt lat="45.9773" lon="6.43129">
        <ele>1882.88</ele>
        <time>2019-09-14T12:46:08Z</time>
      </trkpt>
      <trkpt lat="45.9773" lon="6.43129">
        <ele>1881.92</ele>
        <time>2019-09-14T12:46:11Z</time>
      </trkpt>
      <trkpt lat="45.9773" lon="6.4313">
        <ele>1881.44</ele>
        <time>2019-09-14T12:46:30Z</time>
      </trkpt>
      <trkpt lat="45.9773" lon="6.4313">
        <ele>1880</ele>
        <time>2019-09-14T12:46:44Z</time>
      </trkpt>
      <trkpt lat="45.97729" lon="6.43129">
        <ele>1881.92</ele>
        <time>2019-09-14T12:47:01Z</time>
      </trkpt>
      <trkpt lat="45.97728" lon="6.4313">
        <ele>1881.92</ele>
        <time>2019-09-14T12:47:13Z</time>
      </trkpt>
      <trkpt lat="45.97729" lon="6.43131">
        <ele>1882.88</ele>
        <time>2019-09-14T12:47:29Z</time>
      </trkpt>
      <trkpt lat="45.97729" lon="6.43131">
        <ele>1878.55</ele>
        <time>2019-09-14T12:47:30Z</time>
      </trkpt>
      <trkpt lat="45.9773" lon="6.43132">
        <ele>1882.88</ele>
        <time>2019-09-14T12:47:31Z</time>
      </trkpt>
      <trkpt lat="45.9773" lon="6.43132">
        <ele>1878.55</ele>
        <time>2019-09-14T12:47:32Z</time>
      </trkpt>
      <trkpt lat="45.97731" lon="6.43133">
        <ele>1883.36</ele>
        <time>2019-09-14T12:47:33Z</time>
      </trkpt>
      <trkpt lat="45.97732" lon="6.43133">
        <ele>1880.48</ele>
        <time>2019-09-14T12:47:35Z</time>
      </trkpt>
      <trkpt lat="45.97733" lon="6.43133">
        <ele>1881.92</ele>
        <time>2019-09-14T12:47:36Z</time>
      </trkpt>
      <trkpt lat="45.97736" lon="6.43134">
        <ele>1877.59</ele>
        <time>2019-09-14T12:47:41Z</time>
      </trkpt>
      <trkpt lat="45.97736" lon="6.43133">
        <ele>1882.88</ele>
        <time>2019-09-14T12:47:42Z</time>
      </trkpt>
      <trkpt lat="45.97739" lon="6.43134">
        <ele>1879.51</ele>
        <time>2019-09-14T12:47:48Z</time>
      </trkpt>
      <trkpt lat="45.97742" lon="6.43137">
        <ele>1878.07</ele>
        <time>2019-09-14T12:47:58Z</time>
      </trkpt>
      <trkpt lat="45.97744" lon="6.43138">
        <ele>1880.96</ele>
        <time>2019-09-14T12:48:00Z</time>
      </trkpt>
      <trkpt lat="45.97744" lon="6.43139">
        <ele>1877.11</ele>
        <time>2019-09-14T12:48:01Z</time>
      </trkpt>
      <trkpt lat="45.97745" lon="6.43139">
        <ele>1877.11</ele>
        <time>2019-09-14T12:48:02Z</time>
      </trkpt>
      <trkpt lat="45.97746" lon="6.43139">
        <ele>1880.48</ele>
        <time>2019-09-14T12:48:03Z</time>
      </trkpt>
      <trkpt lat="45.97747" lon="6.43139">
        <ele>1879.51</ele>
        <time>2019-09-14T12:48:04Z</time>
      </trkpt>
      <trkpt lat="45.97754" lon="6.43142">
        <ele>1883.36</ele>
        <time>2019-09-14T12:48:14Z</time>
      </trkpt>
      <trkpt lat="45.97755" lon="6.43143">
        <ele>1879.51</ele>
        <time>2019-09-14T12:48:15Z</time>
      </trkpt>
      <trkpt lat="45.97757" lon="6.43144">
        <ele>1882.88</ele>
        <time>2019-09-14T12:48:21Z</time>
      </trkpt>
      <trkpt lat="45.97761" lon="6.43148">
        <ele>1881.44</ele>
        <time>2019-09-14T12:48:31Z</time>
      </trkpt>
      <trkpt lat="45.97765" lon="6.43152">
        <ele>1880.48</ele>
        <time>2019-09-14T12:48:38Z</time>
      </trkpt>
      <trkpt lat="45.97768" lon="6.43148">
        <ele>1877.59</ele>
        <time>2019-09-14T12:48:47Z</time>
      </trkpt>
      <trkpt lat="45.97768" lon="6.43148">
        <ele>1882.4</ele>
        <time>2019-09-14T12:48:48Z</time>
      </trkpt>
      <trkpt lat="45.97768" lon="6.43147">
        <ele>1876.15</ele>
        <time>2019-09-14T12:48:49Z</time>
      </trkpt>
      <trkpt lat="45.97768" lon="6.43146">
        <ele>1881.92</ele>
        <time>2019-09-14T12:48:50Z</time>
      </trkpt>
      <trkpt lat="45.97767" lon="6.43144">
        <ele>1882.4</ele>
        <time>2019-09-14T12:48:55Z</time>
      </trkpt>
      <trkpt lat="45.97766" lon="6.43146">
        <ele>1879.03</ele>
        <time>2019-09-14T12:48:57Z</time>
      </trkpt>
      <trkpt lat="45.97766" lon="6.43147">
        <ele>1883.36</ele>
        <time>2019-09-14T12:48:58Z</time>
      </trkpt>
      <trkpt lat="45.97765" lon="6.4315">
        <ele>1880</ele>
        <time>2019-09-14T12:49:05Z</time>
      </trkpt>
      <trkpt lat="45.97765" lon="6.4315">
        <ele>1885.28</ele>
        <time>2019-09-14T12:49:06Z</time>
      </trkpt>
      <trkpt lat="45.97765" lon="6.43151">
        <ele>1884.32</ele>
        <time>2019-09-14T12:49:07Z</time>
      </trkpt>
      <trkpt lat="45.97764" lon="6.43152">
        <ele>1879.51</ele>
        <time>2019-09-14T12:49:08Z</time>
      </trkpt>
      <trkpt lat="45.97764" lon="6.43152">
        <ele>1882.4</ele>
        <time>2019-09-14T12:49:09Z</time>
      </trkpt>
      <trkpt lat="45.97762" lon="6.43156">
        <ele>1885.76</ele>
        <time>2019-09-14T12:49:15Z</time>
      </trkpt>
      <trkpt lat="45.97762" lon="6.43156">
        <ele>1877.59</ele>
        <time>2019-09-14T12:49:16Z</time>
      </trkpt>
      <trkpt lat="45.97762" lon="6.43156">
        <ele>1883.36</ele>
        <time>2019-09-14T12:49:17Z</time>
      </trkpt>
      <trkpt lat="45.97762" lon="6.43156">
        <ele>1880.48</ele>
        <time>2019-09-14T12:49:20Z</time>
      </trkpt>
      <trkpt lat="45.97762" lon="6.43156">
        <ele>1882.4</ele>
        <time>2019-09-14T12:49:46Z</time>
      </trkpt>
      <trkpt lat="45.97763" lon="6.43157">
        <ele>1880.96</ele>
        <time>2019-09-14T12:50:16Z</time>
      </trkpt>
      <trkpt lat="45.97763" lon="6.43157">
        <ele>1886.24</ele>
        <time>2019-09-14T12:50:17Z</time>
      </trkpt>
      <trkpt lat="45.97763" lon="6.43158">
        <ele>1884.32</ele>
        <time>2019-09-14T12:50:18Z</time>
      </trkpt>
      <trkpt lat="45.97763" lon="6.43158">
        <ele>1882.88</ele>
        <time>2019-09-14T12:50:20Z</time>
      </trkpt>
      <trkpt lat="45.97767" lon="6.43153">
        <ele>1881.92</ele>
        <time>2019-09-14T12:50:31Z</time>
      </trkpt>
      <trkpt lat="45.97769" lon="6.43149">
        <ele>1880.48</ele>
        <time>2019-09-14T12:50:39Z</time>
      </trkpt>
      <trkpt lat="45.97769" lon="6.43148">
        <ele>1881.92</ele>
        <time>2019-09-14T12:50:42Z</time>
      </trkpt>
      <trkpt lat="45.97773" lon="6.43146">
        <ele>1882.4</ele>
        <time>2019-09-14T12:50:46Z</time>
      </trkpt>
      <trkpt lat="45.97779" lon="6.43147">
        <ele>1880</ele>
        <time>2019-09-14T12:50:55Z</time>
      </trkpt>
      <trkpt lat="45.97781" lon="6.43145">
        <ele>1878.55</ele>
        <time>2019-09-14T12:51:01Z</time>
      </trkpt>
      <trkpt lat="45.97783" lon="6.43146">
        <ele>1879.03</ele>
        <time>2019-09-14T12:51:03Z</time>
      </trkpt>
      <trkpt lat="45.97787" lon="6.43147">
        <ele>1881.92</ele>
        <time>2019-09-14T12:51:06Z</time>
      </trkpt>
      <trkpt lat="45.97788" lon="6.43148">
        <ele>1880.96</ele>
        <time>2019-09-14T12:51:07Z</time>
      </trkpt>
      <trkpt lat="45.97789" lon="6.43148">
        <ele>1876.63</ele>
        <time>2019-09-14T12:51:08Z</time>
      </trkpt>
      <trkpt lat="45.97791" lon="6.43148">
        <ele>1878.07</ele>
        <time>2019-09-14T12:51:09Z</time>
      </trkpt>
      <trkpt lat="45.97793" lon="6.43147">
        <ele>1883.36</ele>
        <time>2019-09-14T12:51:11Z</time>
      </trkpt>
      <trkpt lat="45.97795" lon="6.43148">
        <ele>1878.55</ele>
        <time>2019-09-14T12:51:12Z</time>
      </trkpt>
      <trkpt lat="45.97796" lon="6.43148">
        <ele>1879.03</ele>
        <time>2019-09-14T12:51:13Z</time>
      </trkpt>
      <trkpt lat="45.978" lon="6.43148">
        <ele>1882.4</ele>
        <time>2019-09-14T12:51:17Z</time>
      </trkpt>
      <trkpt lat="45.97801" lon="6.43149">
        <ele>1881.44</ele>
        <time>2019-09-14T12:51:18Z</time>
      </trkpt>
      <trkpt lat="45.97802" lon="6.43149">
        <ele>1877.59</ele>
        <time>2019-09-14T12:51:19Z</time>
      </trkpt>
      <trkpt lat="45.97803" lon="6.43149">
        <ele>1880.96</ele>
        <time>2019-09-14T12:51:20Z</time>
      </trkpt>
      <trkpt lat="45.97805" lon="6.4315">
        <ele>1877.59</ele>
        <time>2019-09-14T12:51:22Z</time>
      </trkpt>
      <trkpt lat="45.97806" lon="6.4315">
        <ele>1879.51</ele>
        <time>2019-09-14T12:51:23Z</time>
      </trkpt>
      <trkpt lat="45.97807" lon="6.4315">
        <ele>1882.88</ele>
        <time>2019-09-14T12:51:24Z</time>
      </trkpt>
      <trkpt lat="45.97808" lon="6.4315">
        <ele>1880.48</ele>
        <time>2019-09-14T12:51:25Z</time>
      </trkpt>
      <trkpt lat="45.97811" lon="6.43151">
        <ele>1877.59</ele>
        <time>2019-09-14T12:51:27Z</time>
      </trkpt>
      <trkpt lat="45.97812" lon="6.43151">
        <ele>1880.96</ele>
        <time>2019-09-14T12:51:28Z</time>
      </trkpt>
      <trkpt lat="45.9782" lon="6.43153">
        <ele>1883.84</ele>
        <time>2019-09-14T12:51:38Z</time>
      </trkpt>
      <trkpt lat="45.97821" lon="6.43155">
        <ele>1883.84</ele>
        <time>2019-09-14T12:51:40Z</time>
      </trkpt>
      <trkpt lat="45.97822" lon="6.43158">
        <ele>1884.8</ele>
        <time>2019-09-14T12:51:42Z</time>
      </trkpt>
      <trkpt lat="45.97823" lon="6.43158">
        <ele>1882.4</ele>
        <time>2019-09-14T12:51:44Z</time>
      </trkpt>
      <trkpt lat="45.97831" lon="6.43164">
        <ele>1879.51</ele>
        <time>2019-09-14T12:51:51Z</time>
      </trkpt>
      <trkpt lat="45.97833" lon="6.43167">
        <ele>1883.36</ele>
        <time>2019-09-14T12:51:54Z</time>
      </trkpt>
      <trkpt lat="45.97834" lon="6.43167">
        <ele>1881.92</ele>
        <time>2019-09-14T12:51:55Z</time>
      </trkpt>
      <trkpt lat="45.9784" lon="6.43169">
        <ele>1878.55</ele>
        <time>2019-09-14T12:52:05Z</time>
      </trkpt>
      <trkpt lat="45.9784" lon="6.4317">
        <ele>1877.59</ele>
        <time>2019-09-14T12:52:07Z</time>
      </trkpt>
      <trkpt lat="45.97843" lon="6.43176">
        <ele>1874.71</ele>
        <time>2019-09-14T12:52:13Z</time>
      </trkpt>
      <trkpt lat="45.97843" lon="6.43176">
        <ele>1876.15</ele>
        <time>2019-09-14T12:52:14Z</time>
      </trkpt>
      <trkpt lat="45.97845" lon="6.43178">
        <ele>1876.15</ele>
        <time>2019-09-14T12:52:18Z</time>
      </trkpt>
      <trkpt lat="45.97847" lon="6.43179">
        <ele>1873.75</ele>
        <time>2019-09-14T12:52:20Z</time>
      </trkpt>
      <trkpt lat="45.97845" lon="6.43184">
        <ele>1873.75</ele>
        <time>2019-09-14T12:52:28Z</time>
      </trkpt>
      <trkpt lat="45.97842" lon="6.43185">
        <ele>1871.34</ele>
        <time>2019-09-14T12:52:31Z</time>
      </trkpt>
      <trkpt lat="45.9784" lon="6.43186">
        <ele>1868.46</ele>
        <time>2019-09-14T12:52:33Z</time>
      </trkpt>
      <trkpt lat="45.97838" lon="6.43188">
        <ele>1871.34</ele>
        <time>2019-09-14T12:52:35Z</time>
      </trkpt>
      <trkpt lat="45.97835" lon="6.43193">
        <ele>1867.5</ele>
        <time>2019-09-14T12:52:40Z</time>
      </trkpt>
      <trkpt lat="45.97836" lon="6.43202">
        <ele>1867.98</ele>
        <time>2019-09-14T12:52:49Z</time>
      </trkpt>
      <trkpt lat="45.97837" lon="6.43203">
        <ele>1867.98</ele>
        <time>2019-09-14T12:52:51Z</time>
      </trkpt>
      <trkpt lat="45.97839" lon="6.43204">
        <ele>1867.02</ele>
        <time>2019-09-14T12:52:53Z</time>
      </trkpt>
      <trkpt lat="45.97842" lon="6.43207">
        <ele>1863.17</ele>
        <time>2019-09-14T12:52:58Z</time>
      </trkpt>
      <trkpt lat="45.97843" lon="6.43207">
        <ele>1863.17</ele>
        <time>2019-09-14T12:52:59Z</time>
      </trkpt>
      <trkpt lat="45.97843" lon="6.43208">
        <ele>1864.61</ele>
        <time>2019-09-14T12:53:00Z</time>
      </trkpt>
      <trkpt lat="45.97846" lon="6.43211">
        <ele>1865.58</ele>
        <time>2019-09-14T12:53:03Z</time>
      </trkpt>
      <trkpt lat="45.97846" lon="6.43212">
        <ele>1861.73</ele>
        <time>2019-09-14T12:53:04Z</time>
      </trkpt>
      <trkpt lat="45.97848" lon="6.43214">
        <ele>1863.17</ele>
        <time>2019-09-14T12:53:07Z</time>
      </trkpt>
      <trkpt lat="45.97851" lon="6.43219">
        <ele>1856.92</ele>
        <time>2019-09-14T12:53:12Z</time>
      </trkpt>
      <trkpt lat="45.97852" lon="6.4322">
        <ele>1858.85</ele>
        <time>2019-09-14T12:53:13Z</time>
      </trkpt>
      <trkpt lat="45.97854" lon="6.43222">
        <ele>1861.25</ele>
        <time>2019-09-14T12:53:15Z</time>
      </trkpt>
      <trkpt lat="45.97859" lon="6.43224">
        <ele>1856.92</ele>
        <time>2019-09-14T12:53:19Z</time>
      </trkpt>
      <trkpt lat="45.9786" lon="6.43226">
        <ele>1856.92</ele>
        <time>2019-09-14T12:53:20Z</time>
      </trkpt>
      <trkpt lat="45.97861" lon="6.43228">
        <ele>1859.81</ele>
        <time>2019-09-14T12:53:21Z</time>
      </trkpt>
      <trkpt lat="45.97864" lon="6.43231">
        <ele>1861.25</ele>
        <time>2019-09-14T12:53:24Z</time>
      </trkpt>
      <trkpt lat="45.97865" lon="6.43235">
        <ele>1857.4</ele>
        <time>2019-09-14T12:53:26Z</time>
      </trkpt>
      <trkpt lat="45.97865" lon="6.43237">
        <ele>1858.85</ele>
        <time>2019-09-14T12:53:27Z</time>
      </trkpt>
      <trkpt lat="45.97867" lon="6.4325">
        <ele>1856.44</ele>
        <time>2019-09-14T12:53:33Z</time>
      </trkpt>
      <trkpt lat="45.97868" lon="6.43255">
        <ele>1855</ele>
        <time>2019-09-14T12:53:36Z</time>
      </trkpt>
      <trkpt lat="45.97874" lon="6.4327">
        <ele>1851.16</ele>
        <time>2019-09-14T12:53:45Z</time>
      </trkpt>
      <trkpt lat="45.97875" lon="6.43273">
        <ele>1849.71</ele>
        <time>2019-09-14T12:53:47Z</time>
      </trkpt>
      <trkpt lat="45.97876" lon="6.43275">
        <ele>1853.08</ele>
        <time>2019-09-14T12:53:49Z</time>
      </trkpt>
      <trkpt lat="45.97878" lon="6.43287">
        <ele>1852.12</ele>
        <time>2019-09-14T12:53:57Z</time>
      </trkpt>
      <trkpt lat="45.97878" lon="6.43294">
        <ele>1848.27</ele>
        <time>2019-09-14T12:54:01Z</time>
      </trkpt>
      <trkpt lat="45.97878" lon="6.433">
        <ele>1849.71</ele>
        <time>2019-09-14T12:54:04Z</time>
      </trkpt>
      <trkpt lat="45.97879" lon="6.43304">
        <ele>1845.39</ele>
        <time>2019-09-14T12:54:06Z</time>
      </trkpt>
      <trkpt lat="45.97881" lon="6.43313">
        <ele>1848.27</ele>
        <time>2019-09-14T12:54:11Z</time>
      </trkpt>
      <trkpt lat="45.97883" lon="6.4332">
        <ele>1847.79</ele>
        <time>2019-09-14T12:54:15Z</time>
      </trkpt>
      <trkpt lat="45.97885" lon="6.43326">
        <ele>1843.95</ele>
        <time>2019-09-14T12:54:18Z</time>
      </trkpt>
      <trkpt lat="45.97885" lon="6.43327">
        <ele>1845.39</ele>
        <time>2019-09-14T12:54:19Z</time>
      </trkpt>
      <trkpt lat="45.97886" lon="6.43335">
        <ele>1848.27</ele>
        <time>2019-09-14T12:54:24Z</time>
      </trkpt>
      <trkpt lat="45.97887" lon="6.43339">
        <ele>1846.35</ele>
        <time>2019-09-14T12:54:26Z</time>
      </trkpt>
      <trkpt lat="45.9789" lon="6.43348">
        <ele>1842.02</ele>
        <time>2019-09-14T12:54:31Z</time>
      </trkpt>
      <trkpt lat="45.9789" lon="6.43349">
        <ele>1842.02</ele>
        <time>2019-09-14T12:54:32Z</time>
      </trkpt>
      <trkpt lat="45.97891" lon="6.43353">
        <ele>1844.91</ele>
        <time>2019-09-14T12:54:34Z</time>
      </trkpt>
      <trkpt lat="45.97893" lon="6.43358">
        <ele>1844.91</ele>
        <time>2019-09-14T12:54:37Z</time>
      </trkpt>
      <trkpt lat="45.97894" lon="6.43362">
        <ele>1840.58</ele>
        <time>2019-09-14T12:54:40Z</time>
      </trkpt>
      <trkpt lat="45.97894" lon="6.43363">
        <ele>1843.47</ele>
        <time>2019-09-14T12:54:41Z</time>
      </trkpt>
      <trkpt lat="45.97898" lon="6.43373">
        <ele>1839.62</ele>
        <time>2019-09-14T12:54:48Z</time>
      </trkpt>
      <trkpt lat="45.97899" lon="6.43379">
        <ele>1838.18</ele>
        <time>2019-09-14T12:54:54Z</time>
      </trkpt>
      <trkpt lat="45.979" lon="6.43384">
        <ele>1838.66</ele>
        <time>2019-09-14T12:54:58Z</time>
      </trkpt>
      <trkpt lat="45.979" lon="6.43387">
        <ele>1836.74</ele>
        <time>2019-09-14T12:55:01Z</time>
      </trkpt>
      <trkpt lat="45.979" lon="6.43392">
        <ele>1835.77</ele>
        <time>2019-09-14T12:55:04Z</time>
      </trkpt>
      <trkpt lat="45.97901" lon="6.43395">
        <ele>1833.85</ele>
        <time>2019-09-14T12:55:07Z</time>
      </trkpt>
      <trkpt lat="45.97902" lon="6.43398">
        <ele>1833.37</ele>
        <time>2019-09-14T12:55:09Z</time>
      </trkpt>
      <trkpt lat="45.97903" lon="6.434">
        <ele>1835.77</ele>
        <time>2019-09-14T12:55:10Z</time>
      </trkpt>
      <trkpt lat="45.97903" lon="6.43413">
        <ele>1831.93</ele>
        <time>2019-09-14T12:55:17Z</time>
      </trkpt>
      <trkpt lat="45.97903" lon="6.43415">
        <ele>1831.93</ele>
        <time>2019-09-14T12:55:18Z</time>
      </trkpt>
      <trkpt lat="45.97906" lon="6.43428">
        <ele>1827.6</ele>
        <time>2019-09-14T12:55:26Z</time>
      </trkpt>
      <trkpt lat="45.97907" lon="6.43431">
        <ele>1833.85</ele>
        <time>2019-09-14T12:55:28Z</time>
      </trkpt>
      <trkpt lat="45.97907" lon="6.43432">
        <ele>1830.01</ele>
        <time>2019-09-14T12:55:29Z</time>
      </trkpt>
      <trkpt lat="45.97909" lon="6.43439">
        <ele>1828.56</ele>
        <time>2019-09-14T12:55:34Z</time>
      </trkpt>
      <trkpt lat="45.97911" lon="6.43444">
        <ele>1831.93</ele>
        <time>2019-09-14T12:55:38Z</time>
      </trkpt>
      <trkpt lat="45.97912" lon="6.43445">
        <ele>1827.6</ele>
        <time>2019-09-14T12:55:39Z</time>
      </trkpt>
      <trkpt lat="45.97918" lon="6.43459">
        <ele>1824.24</ele>
        <time>2019-09-14T12:55:51Z</time>
      </trkpt>
      <trkpt lat="45.97922" lon="6.43471">
        <ele>1823.76</ele>
        <time>2019-09-14T12:56:02Z</time>
      </trkpt>
      <trkpt lat="45.97925" lon="6.43479">
        <ele>1820.39</ele>
        <time>2019-09-14T12:56:08Z</time>
      </trkpt>
      <trkpt lat="45.97926" lon="6.4348">
        <ele>1821.35</ele>
        <time>2019-09-14T12:56:09Z</time>
      </trkpt>
      <trkpt lat="45.97928" lon="6.43487">
        <ele>1820.39</ele>
        <time>2019-09-14T12:56:14Z</time>
      </trkpt>
      <trkpt lat="45.97933" lon="6.43499">
        <ele>1817.99</ele>
        <time>2019-09-14T12:56:26Z</time>
      </trkpt>
      <trkpt lat="45.97934" lon="6.43501">
        <ele>1817.99</ele>
        <time>2019-09-14T12:56:28Z</time>
      </trkpt>
      <trkpt lat="45.97935" lon="6.43503">
        <ele>1817.99</ele>
        <time>2019-09-14T12:56:30Z</time>
      </trkpt>
      <trkpt lat="45.97938" lon="6.43507">
        <ele>1814.63</ele>
        <time>2019-09-14T12:56:34Z</time>
      </trkpt>
      <trkpt lat="45.97939" lon="6.43509">
        <ele>1816.55</ele>
        <time>2019-09-14T12:56:37Z</time>
      </trkpt>
      <trkpt lat="45.97942" lon="6.43514">
        <ele>1813.66</ele>
        <time>2019-09-14T12:56:43Z</time>
      </trkpt>
      <trkpt lat="45.97944" lon="6.4352">
        <ele>1813.18</ele>
        <time>2019-09-14T12:56:49Z</time>
      </trkpt>
      <trkpt lat="45.97948" lon="6.4353">
        <ele>1811.26</ele>
        <time>2019-09-14T12:56:59Z</time>
      </trkpt>
      <trkpt lat="45.97951" lon="6.43533">
        <ele>1808.86</ele>
        <time>2019-09-14T12:57:03Z</time>
      </trkpt>
      <trkpt lat="45.97952" lon="6.43535">
        <ele>1809.82</ele>
        <time>2019-09-14T12:57:05Z</time>
      </trkpt>
      <trkpt lat="45.97951" lon="6.43537">
        <ele>1807.9</ele>
        <time>2019-09-14T12:57:07Z</time>
      </trkpt>
      <trkpt lat="45.97948" lon="6.43538">
        <ele>1806.45</ele>
        <time>2019-09-14T12:57:11Z</time>
      </trkpt>
      <trkpt lat="45.9794" lon="6.43538">
        <ele>1806.45</ele>
        <time>2019-09-14T12:57:18Z</time>
      </trkpt>
      <trkpt lat="45.97936" lon="6.43537">
        <ele>1803.09</ele>
        <time>2019-09-14T12:57:23Z</time>
      </trkpt>
      <trkpt lat="45.97935" lon="6.43537">
        <ele>1804.53</ele>
        <time>2019-09-14T12:57:24Z</time>
      </trkpt>
      <trkpt lat="45.97933" lon="6.43538">
        <ele>1805.97</ele>
        <time>2019-09-14T12:57:26Z</time>
      </trkpt>
      <trkpt lat="45.97931" lon="6.43543">
        <ele>1802.13</ele>
        <time>2019-09-14T12:57:32Z</time>
      </trkpt>
      <trkpt lat="45.9793" lon="6.43544">
        <ele>1802.13</ele>
        <time>2019-09-14T12:57:33Z</time>
      </trkpt>
      <trkpt lat="45.9793" lon="6.43546">
        <ele>1804.53</ele>
        <time>2019-09-14T12:57:35Z</time>
      </trkpt>
      <trkpt lat="45.9793" lon="6.4355">
        <ele>1800.69</ele>
        <time>2019-09-14T12:57:39Z</time>
      </trkpt>
      <trkpt lat="45.9793" lon="6.43553">
        <ele>1799.73</ele>
        <time>2019-09-14T12:57:41Z</time>
      </trkpt>
      <trkpt lat="45.97932" lon="6.43555">
        <ele>1801.65</ele>
        <time>2019-09-14T12:57:44Z</time>
      </trkpt>
      <trkpt lat="45.97933" lon="6.43558">
        <ele>1800.69</ele>
        <time>2019-09-14T12:57:55Z</time>
      </trkpt>
      <trkpt lat="45.97935" lon="6.43559">
        <ele>1799.24</ele>
        <time>2019-09-14T12:57:57Z</time>
      </trkpt>
      <trkpt lat="45.97937" lon="6.4356">
        <ele>1799.73</ele>
        <time>2019-09-14T12:58:01Z</time>
      </trkpt>
      <trkpt lat="45.97945" lon="6.4357">
        <ele>1797.8</ele>
        <time>2019-09-14T12:58:11Z</time>
      </trkpt>
      <trkpt lat="45.97948" lon="6.43574">
        <ele>1794.92</ele>
        <time>2019-09-14T12:58:14Z</time>
      </trkpt>
      <trkpt lat="45.97951" lon="6.43576">
        <ele>1797.8</ele>
        <time>2019-09-14T12:58:17Z</time>
      </trkpt>
      <trkpt lat="45.97953" lon="6.43578">
        <ele>1794.44</ele>
        <time>2019-09-14T12:58:20Z</time>
      </trkpt>
      <trkpt lat="45.97955" lon="6.43579">
        <ele>1796.36</ele>
        <time>2019-09-14T12:58:23Z</time>
      </trkpt>
      <trkpt lat="45.97955" lon="6.4358">
        <ele>1792.52</ele>
        <time>2019-09-14T12:58:24Z</time>
      </trkpt>
      <trkpt lat="45.97956" lon="6.4358">
        <ele>1794.44</ele>
        <time>2019-09-14T12:58:25Z</time>
      </trkpt>
      <trkpt lat="45.9796" lon="6.43585">
        <ele>1790.59</ele>
        <time>2019-09-14T12:58:34Z</time>
      </trkpt>
      <trkpt lat="45.9796" lon="6.43586">
        <ele>1794.44</ele>
        <time>2019-09-14T12:58:35Z</time>
      </trkpt>
      <trkpt lat="45.9796" lon="6.43586">
        <ele>1791.55</ele>
        <time>2019-09-14T12:58:36Z</time>
      </trkpt>
      <trkpt lat="45.9796" lon="6.43586">
        <ele>1793</ele>
        <time>2019-09-14T12:58:39Z</time>
      </trkpt>
      <trkpt lat="45.97959" lon="6.43587">
        <ele>1788.67</ele>
        <time>2019-09-14T12:58:43Z</time>
      </trkpt>
      <trkpt lat="45.97958" lon="6.43593">
        <ele>1786.75</ele>
        <time>2019-09-14T12:58:53Z</time>
      </trkpt>
      <trkpt lat="45.97958" lon="6.43595">
        <ele>1789.63</ele>
        <time>2019-09-14T12:58:56Z</time>
      </trkpt>
      <trkpt lat="45.97958" lon="6.436">
        <ele>1785.79</ele>
        <time>2019-09-14T12:59:02Z</time>
      </trkpt>
      <trkpt lat="45.97958" lon="6.43603">
        <ele>1783.86</ele>
        <time>2019-09-14T12:59:04Z</time>
      </trkpt>
      <trkpt lat="45.97959" lon="6.4361">
        <ele>1784.34</ele>
        <time>2019-09-14T12:59:13Z</time>
      </trkpt>
      <trkpt lat="45.97959" lon="6.43611">
        <ele>1783.86</ele>
        <time>2019-09-14T12:59:14Z</time>
      </trkpt>
      <trkpt lat="45.97959" lon="6.43614">
        <ele>1782.42</ele>
        <time>2019-09-14T12:59:16Z</time>
      </trkpt>
      <trkpt lat="45.9796" lon="6.43618">
        <ele>1779.06</ele>
        <time>2019-09-14T12:59:19Z</time>
      </trkpt>
      <trkpt lat="45.9796" lon="6.4362">
        <ele>1782.42</ele>
        <time>2019-09-14T12:59:21Z</time>
      </trkpt>
      <trkpt lat="45.9796" lon="6.43621">
        <ele>1781.94</ele>
        <time>2019-09-14T12:59:22Z</time>
      </trkpt>
      <trkpt lat="45.97959" lon="6.43625">
        <ele>1780.98</ele>
        <time>2019-09-14T12:59:26Z</time>
      </trkpt>
      <trkpt lat="45.97957" lon="6.43638">
        <ele>1776.17</ele>
        <time>2019-09-14T12:59:34Z</time>
      </trkpt>
      <trkpt lat="45.97956" lon="6.43639">
        <ele>1776.65</ele>
        <time>2019-09-14T12:59:35Z</time>
      </trkpt>
      <trkpt lat="45.97955" lon="6.43647">
        <ele>1773.29</ele>
        <time>2019-09-14T12:59:41Z</time>
      </trkpt>
      <trkpt lat="45.97955" lon="6.43649">
        <ele>1773.29</ele>
        <time>2019-09-14T12:59:42Z</time>
      </trkpt>
      <trkpt lat="45.97955" lon="6.43651">
        <ele>1773.77</ele>
        <time>2019-09-14T12:59:44Z</time>
      </trkpt>
      <trkpt lat="45.97955" lon="6.43659">
        <ele>1775.69</ele>
        <time>2019-09-14T12:59:49Z</time>
      </trkpt>
      <trkpt lat="45.97956" lon="6.43664">
        <ele>1769.44</ele>
        <time>2019-09-14T12:59:52Z</time>
      </trkpt>
      <trkpt lat="45.97956" lon="6.43665">
        <ele>1769.92</ele>
        <time>2019-09-14T12:59:53Z</time>
      </trkpt>
      <trkpt lat="45.97956" lon="6.43667">
        <ele>1772.81</ele>
        <time>2019-09-14T12:59:54Z</time>
      </trkpt>
      <trkpt lat="45.97957" lon="6.4367">
        <ele>1775.21</ele>
        <time>2019-09-14T12:59:56Z</time>
      </trkpt>
      <trkpt lat="45.97957" lon="6.43673">
        <ele>1771.85</ele>
        <time>2019-09-14T12:59:59Z</time>
      </trkpt>
      <trkpt lat="45.97957" lon="6.43675">
        <ele>1773.29</ele>
        <time>2019-09-14T13:00:02Z</time>
      </trkpt>
      <trkpt lat="45.97957" lon="6.43685">
        <ele>1775.21</ele>
        <time>2019-09-14T13:00:08Z</time>
      </trkpt>
      <trkpt lat="45.97955" lon="6.4369">
        <ele>1768.48</ele>
        <time>2019-09-14T13:00:12Z</time>
      </trkpt>
      <trkpt lat="45.97954" lon="6.43691">
        <ele>1773.29</ele>
        <time>2019-09-14T13:00:13Z</time>
      </trkpt>
      <trkpt lat="45.97954" lon="6.43692">
        <ele>1775.21</ele>
        <time>2019-09-14T13:00:14Z</time>
      </trkpt>
      <trkpt lat="45.97953" lon="6.43698">
        <ele>1771.37</ele>
        <time>2019-09-14T13:00:19Z</time>
      </trkpt>
      <trkpt lat="45.97954" lon="6.43703">
        <ele>1772.81</ele>
        <time>2019-09-14T13:00:22Z</time>
      </trkpt>
      <trkpt lat="45.97955" lon="6.43707">
        <ele>1770.41</ele>
        <time>2019-09-14T13:00:24Z</time>
      </trkpt>
      <trkpt lat="45.97955" lon="6.43708">
        <ele>1769.44</ele>
        <time>2019-09-14T13:00:25Z</time>
      </trkpt>
      <trkpt lat="45.97956" lon="6.43711">
        <ele>1772.33</ele>
        <time>2019-09-14T13:00:27Z</time>
      </trkpt>
      <trkpt lat="45.97957" lon="6.43714">
        <ele>1768.96</ele>
        <time>2019-09-14T13:00:29Z</time>
      </trkpt>
      <trkpt lat="45.97957" lon="6.43715">
        <ele>1769.44</ele>
        <time>2019-09-14T13:00:30Z</time>
      </trkpt>
      <trkpt lat="45.97958" lon="6.43721">
        <ele>1768.96</ele>
        <time>2019-09-14T13:00:36Z</time>
      </trkpt>
      <trkpt lat="45.97959" lon="6.43728">
        <ele>1768</ele>
        <time>2019-09-14T13:00:40Z</time>
      </trkpt>
      <trkpt lat="45.9796" lon="6.43732">
        <ele>1771.37</ele>
        <time>2019-09-14T13:00:42Z</time>
      </trkpt>
      <trkpt lat="45.9796" lon="6.43734">
        <ele>1772.33</ele>
        <time>2019-09-14T13:00:43Z</time>
      </trkpt>
      <trkpt lat="45.97962" lon="6.43738">
        <ele>1768.96</ele>
        <time>2019-09-14T13:00:46Z</time>
      </trkpt>
      <trkpt lat="45.97963" lon="6.43741">
        <ele>1769.92</ele>
        <time>2019-09-14T13:00:48Z</time>
      </trkpt>
      <trkpt lat="45.97965" lon="6.43746">
        <ele>1766.08</ele>
        <time>2019-09-14T13:00:52Z</time>
      </trkpt>
      <trkpt lat="45.97965" lon="6.43748">
        <ele>1770.89</ele>
        <time>2019-09-14T13:00:53Z</time>
      </trkpt>
      <trkpt lat="45.97966" lon="6.43749">
        <ele>1770.41</ele>
        <time>2019-09-14T13:00:54Z</time>
      </trkpt>
      <trkpt lat="45.97966" lon="6.4375">
        <ele>1764.64</ele>
        <time>2019-09-14T13:00:55Z</time>
      </trkpt>
      <trkpt lat="45.97966" lon="6.43751">
        <ele>1766.08</ele>
        <time>2019-09-14T13:00:56Z</time>
      </trkpt>
      <trkpt lat="45.97966" lon="6.43752">
        <ele>1771.85</ele>
        <time>2019-09-14T13:00:58Z</time>
      </trkpt>
      <trkpt lat="45.97966" lon="6.43753">
        <ele>1764.16</ele>
        <time>2019-09-14T13:00:59Z</time>
      </trkpt>
      <trkpt lat="45.97966" lon="6.43754">
        <ele>1768.96</ele>
        <time>2019-09-14T13:01:00Z</time>
      </trkpt>
      <trkpt lat="45.97965" lon="6.43757">
        <ele>1765.12</ele>
        <time>2019-09-14T13:01:02Z</time>
      </trkpt>
      <trkpt lat="45.97965" lon="6.43758">
        <ele>1769.44</ele>
        <time>2019-09-14T13:01:04Z</time>
      </trkpt>
      <trkpt lat="45.97966" lon="6.43758">
        <ele>1766.08</ele>
        <time>2019-09-14T13:01:07Z</time>
      </trkpt>
      <trkpt lat="45.97966" lon="6.43758">
        <ele>1769.92</ele>
        <time>2019-09-14T13:01:08Z</time>
      </trkpt>
      <trkpt lat="45.97966" lon="6.43759">
        <ele>1766.56</ele>
        <time>2019-09-14T13:01:09Z</time>
      </trkpt>
      <trkpt lat="45.97966" lon="6.43761">
        <ele>1769.92</ele>
        <time>2019-09-14T13:01:14Z</time>
      </trkpt>
      <trkpt lat="45.97966" lon="6.43761">
        <ele>1766.56</ele>
        <time>2019-09-14T13:01:15Z</time>
      </trkpt>
      <trkpt lat="45.97966" lon="6.43761">
        <ele>1769.44</ele>
        <time>2019-09-14T13:01:16Z</time>
      </trkpt>
      <trkpt lat="45.97966" lon="6.43763">
        <ele>1766.56</ele>
        <time>2019-09-14T13:01:19Z</time>
      </trkpt>
      <trkpt lat="45.97966" lon="6.43763">
        <ele>1767.52</ele>
        <time>2019-09-14T13:01:41Z</time>
      </trkpt>
      <trkpt lat="45.97966" lon="6.43766">
        <ele>1767.52</ele>
        <time>2019-09-14T13:01:52Z</time>
      </trkpt>
      <trkpt lat="45.97966" lon="6.43766">
        <ele>1770.41</ele>
        <time>2019-09-14T13:02:04Z</time>
      </trkpt>
      <trkpt lat="45.97966" lon="6.43766">
        <ele>1766.56</ele>
        <time>2019-09-14T13:02:05Z</time>
      </trkpt>
      <trkpt lat="45.97965" lon="6.43766">
        <ele>1767.52</ele>
        <time>2019-09-14T13:02:21Z</time>
      </trkpt>
      <trkpt lat="45.97966" lon="6.43766">
        <ele>1766.08</ele>
        <time>2019-09-14T13:02:47Z</time>
      </trkpt>
      <trkpt lat="45.97966" lon="6.43766">
        <ele>1769.44</ele>
        <time>2019-09-14T13:03:01Z</time>
      </trkpt>
      <trkpt lat="45.97966" lon="6.43766">
        <ele>1766.56</ele>
        <time>2019-09-14T13:03:17Z</time>
      </trkpt>
      <trkpt lat="45.97966" lon="6.43766">
        <ele>1767.04</ele>
        <time>2019-09-14T13:03:35Z</time>
      </trkpt>
      <trkpt lat="45.97966" lon="6.43767">
        <ele>1767.52</ele>
        <time>2019-09-14T13:03:54Z</time>
      </trkpt>
      <trkpt lat="45.97966" lon="6.43766">
        <ele>1766.56</ele>
        <time>2019-09-14T13:04:16Z</time>
      </trkpt>
      <trkpt lat="45.97966" lon="6.43766">
        <ele>1767.04</ele>
        <time>2019-09-14T13:04:34Z</time>
      </trkpt>
      <trkpt lat="45.97966" lon="6.43767">
        <ele>1766.08</ele>
        <time>2019-09-14T13:04:47Z</time>
      </trkpt>
      <trkpt lat="45.97966" lon="6.43768">
        <ele>1767.04</ele>
        <time>2019-09-14T13:05:09Z</time>
      </trkpt>
      <trkpt lat="45.97966" lon="6.43768">
        <ele>1763.68</ele>
        <time>2019-09-14T13:05:20Z</time>
      </trkpt>
      <trkpt lat="45.97966" lon="6.43768">
        <ele>1767.04</ele>
        <time>2019-09-14T13:05:26Z</time>
      </trkpt>
      <trkpt lat="45.97966" lon="6.43769">
        <ele>1763.68</ele>
        <time>2019-09-14T13:05:28Z</time>
      </trkpt>
      <trkpt lat="45.97966" lon="6.43769">
        <ele>1767.52</ele>
        <time>2019-09-14T13:05:29Z</time>
      </trkpt>
      <trkpt lat="45.97966" lon="6.43771">
        <ele>1762.71</ele>
        <time>2019-09-14T13:05:32Z</time>
      </trkpt>
      <trkpt lat="45.97967" lon="6.43774">
        <ele>1766.56</ele>
        <time>2019-09-14T13:05:34Z</time>
      </trkpt>
      <trkpt lat="45.97968" lon="6.43776">
        <ele>1762.71</ele>
        <time>2019-09-14T13:05:36Z</time>
      </trkpt>
      <trkpt lat="45.9797" lon="6.43783">
        <ele>1766.08</ele>
        <time>2019-09-14T13:05:41Z</time>
      </trkpt>
      <trkpt lat="45.9797" lon="6.43784">
        <ele>1760.31</ele>
        <time>2019-09-14T13:05:42Z</time>
      </trkpt>
      <trkpt lat="45.97971" lon="6.43785">
        <ele>1765.12</ele>
        <time>2019-09-14T13:05:43Z</time>
      </trkpt>
      <trkpt lat="45.97971" lon="6.43787">
        <ele>1761.75</ele>
        <time>2019-09-14T13:05:45Z</time>
      </trkpt>
      <trkpt lat="45.97975" lon="6.43799">
        <ele>1760.31</ele>
        <time>2019-09-14T13:05:55Z</time>
      </trkpt>
      <trkpt lat="45.97975" lon="6.438">
        <ele>1761.75</ele>
        <time>2019-09-14T13:05:56Z</time>
      </trkpt>
      <trkpt lat="45.97979" lon="6.43808">
        <ele>1761.27</ele>
        <time>2019-09-14T13:06:03Z</time>
      </trkpt>
      <trkpt lat="45.97979" lon="6.43809">
        <ele>1761.27</ele>
        <time>2019-09-14T13:06:04Z</time>
      </trkpt>
      <trkpt lat="45.9798" lon="6.43811">
        <ele>1758.39</ele>
        <time>2019-09-14T13:06:06Z</time>
      </trkpt>
      <trkpt lat="45.97988" lon="6.43818">
        <ele>1758.87</ele>
        <time>2019-09-14T13:06:16Z</time>
      </trkpt>
      <trkpt lat="45.97989" lon="6.43818">
        <ele>1755.02</ele>
        <time>2019-09-14T13:06:17Z</time>
      </trkpt>
      <trkpt lat="45.97989" lon="6.43819">
        <ele>1755.02</ele>
        <time>2019-09-14T13:06:18Z</time>
      </trkpt>
      <trkpt lat="45.9799" lon="6.43821">
        <ele>1757.43</ele>
        <time>2019-09-14T13:06:20Z</time>
      </trkpt>
      <trkpt lat="45.9799" lon="6.43823">
        <ele>1755.02</ele>
        <time>2019-09-14T13:06:22Z</time>
      </trkpt>
      <trkpt lat="45.97989" lon="6.4383">
        <ele>1755.5</ele>
        <time>2019-09-14T13:06:29Z</time>
      </trkpt>
      <trkpt lat="45.97988" lon="6.43833">
        <ele>1751.66</ele>
        <time>2019-09-14T13:06:32Z</time>
      </trkpt>
      <trkpt lat="45.97986" lon="6.43836">
        <ele>1753.58</ele>
        <time>2019-09-14T13:06:35Z</time>
      </trkpt>
      <trkpt lat="45.97978" lon="6.43843">
        <ele>1750.22</ele>
        <time>2019-09-14T13:06:47Z</time>
      </trkpt>
      <trkpt lat="45.97977" lon="6.43844">
        <ele>1746.85</ele>
        <time>2019-09-14T13:06:48Z</time>
      </trkpt>
      <trkpt lat="45.97976" lon="6.43845">
        <ele>1748.78</ele>
        <time>2019-09-14T13:06:49Z</time>
      </trkpt>
      <trkpt lat="45.97974" lon="6.43847">
        <ele>1750.7</ele>
        <time>2019-09-14T13:06:52Z</time>
      </trkpt>
      <trkpt lat="45.97973" lon="6.43848">
        <ele>1746.85</ele>
        <time>2019-09-14T13:06:54Z</time>
      </trkpt>
      <trkpt lat="45.97971" lon="6.4385">
        <ele>1750.22</ele>
        <time>2019-09-14T13:06:56Z</time>
      </trkpt>
      <trkpt lat="45.9797" lon="6.43851">
        <ele>1749.26</ele>
        <time>2019-09-14T13:06:57Z</time>
      </trkpt>
      <trkpt lat="45.97968" lon="6.43852">
        <ele>1745.41</ele>
        <time>2019-09-14T13:06:59Z</time>
      </trkpt>
      <trkpt lat="45.97967" lon="6.43853">
        <ele>1744.93</ele>
        <time>2019-09-14T13:07:00Z</time>
      </trkpt>
      <trkpt lat="45.97966" lon="6.43861">
        <ele>1746.37</ele>
        <time>2019-09-14T13:07:05Z</time>
      </trkpt>
      <trkpt lat="45.97968" lon="6.43863">
        <ele>1744.45</ele>
        <time>2019-09-14T13:07:07Z</time>
      </trkpt>
      <trkpt lat="45.97969" lon="6.43865">
        <ele>1745.89</ele>
        <time>2019-09-14T13:07:09Z</time>
      </trkpt>
      <trkpt lat="45.97971" lon="6.43865">
        <ele>1742.53</ele>
        <time>2019-09-14T13:07:11Z</time>
      </trkpt>
      <trkpt lat="45.97972" lon="6.43866">
        <ele>1743.97</ele>
        <time>2019-09-14T13:07:12Z</time>
      </trkpt>
      <trkpt lat="45.97975" lon="6.43867">
        <ele>1741.08</ele>
        <time>2019-09-14T13:07:16Z</time>
      </trkpt>
      <trkpt lat="45.97977" lon="6.43868">
        <ele>1745.41</ele>
        <time>2019-09-14T13:07:18Z</time>
      </trkpt>
      <trkpt lat="45.97978" lon="6.43869">
        <ele>1744.45</ele>
        <time>2019-09-14T13:07:19Z</time>
      </trkpt>
      <trkpt lat="45.97979" lon="6.4387">
        <ele>1741.57</ele>
        <time>2019-09-14T13:07:21Z</time>
      </trkpt>
      <trkpt lat="45.97981" lon="6.43872">
        <ele>1743.49</ele>
        <time>2019-09-14T13:07:23Z</time>
      </trkpt>
      <trkpt lat="45.97983" lon="6.43877">
        <ele>1739.64</ele>
        <time>2019-09-14T13:07:28Z</time>
      </trkpt>
      <trkpt lat="45.97983" lon="6.43882">
        <ele>1739.16</ele>
        <time>2019-09-14T13:07:32Z</time>
      </trkpt>
      <trkpt lat="45.97982" lon="6.43884">
        <ele>1739.64</ele>
        <time>2019-09-14T13:07:36Z</time>
      </trkpt>
      <trkpt lat="45.9798" lon="6.43886">
        <ele>1738.2</ele>
        <time>2019-09-14T13:07:39Z</time>
      </trkpt>
      <trkpt lat="45.97974" lon="6.43891">
        <ele>1734.84</ele>
        <time>2019-09-14T13:07:46Z</time>
      </trkpt>
      <trkpt lat="45.97973" lon="6.43891">
        <ele>1734.84</ele>
        <time>2019-09-14T13:07:47Z</time>
      </trkpt>
      <trkpt lat="45.97969" lon="6.43892">
        <ele>1737.24</ele>
        <time>2019-09-14T13:07:51Z</time>
      </trkpt>
      <trkpt lat="45.97966" lon="6.43892">
        <ele>1732.91</ele>
        <time>2019-09-14T13:07:54Z</time>
      </trkpt>
      <trkpt lat="45.97965" lon="6.43892">
        <ele>1733.39</ele>
        <time>2019-09-14T13:07:55Z</time>
      </trkpt>
      <trkpt lat="45.97958" lon="6.43893">
        <ele>1731.95</ele>
        <time>2019-09-14T13:08:01Z</time>
      </trkpt>
      <trkpt lat="45.97955" lon="6.43893">
        <ele>1730.51</ele>
        <time>2019-09-14T13:08:04Z</time>
      </trkpt>
      <trkpt lat="45.97953" lon="6.43894">
        <ele>1732.43</ele>
        <time>2019-09-14T13:08:05Z</time>
      </trkpt>
      <trkpt lat="45.97945" lon="6.43892">
        <ele>1728.59</ele>
        <time>2019-09-14T13:08:12Z</time>
      </trkpt>
      <trkpt lat="45.9794" lon="6.43892">
        <ele>1731.95</ele>
        <time>2019-09-14T13:08:17Z</time>
      </trkpt>
      <trkpt lat="45.97939" lon="6.43892">
        <ele>1727.63</ele>
        <time>2019-09-14T13:08:18Z</time>
      </trkpt>
      <trkpt lat="45.97937" lon="6.43892">
        <ele>1732.43</ele>
        <time>2019-09-14T13:08:19Z</time>
      </trkpt>
      <trkpt lat="45.97935" lon="6.43894">
        <ele>1727.63</ele>
        <time>2019-09-14T13:08:21Z</time>
      </trkpt>
      <trkpt lat="45.97934" lon="6.43895">
        <ele>1731.47</ele>
        <time>2019-09-14T13:08:22Z</time>
      </trkpt>
      <trkpt lat="45.9793" lon="6.43899">
        <ele>1729.55</ele>
        <time>2019-09-14T13:08:26Z</time>
      </trkpt>
      <trkpt lat="45.97928" lon="6.439">
        <ele>1724.26</ele>
        <time>2019-09-14T13:08:28Z</time>
      </trkpt>
      <trkpt lat="45.97927" lon="6.43901">
        <ele>1731.47</ele>
        <time>2019-09-14T13:08:29Z</time>
      </trkpt>
      <trkpt lat="45.97925" lon="6.43905">
        <ele>1729.07</ele>
        <time>2019-09-14T13:08:33Z</time>
      </trkpt>
      <trkpt lat="45.97921" lon="6.4391">
        <ele>1725.7</ele>
        <time>2019-09-14T13:08:38Z</time>
      </trkpt>
      <trkpt lat="45.9792" lon="6.43911">
        <ele>1727.63</ele>
        <time>2019-09-14T13:08:39Z</time>
      </trkpt>
      <trkpt lat="45.97919" lon="6.43914">
        <ele>1726.67</ele>
        <time>2019-09-14T13:08:41Z</time>
      </trkpt>
      <trkpt lat="45.9792" lon="6.43917">
        <ele>1725.22</ele>
        <time>2019-09-14T13:08:43Z</time>
      </trkpt>
      <trkpt lat="45.97921" lon="6.43919">
        <ele>1726.67</ele>
        <time>2019-09-14T13:08:45Z</time>
      </trkpt>
      <trkpt lat="45.97922" lon="6.43922">
        <ele>1724.74</ele>
        <time>2019-09-14T13:08:47Z</time>
      </trkpt>
      <trkpt lat="45.97923" lon="6.43927">
        <ele>1727.15</ele>
        <time>2019-09-14T13:08:50Z</time>
      </trkpt>
      <trkpt lat="45.97924" lon="6.4393">
        <ele>1722.82</ele>
        <time>2019-09-14T13:08:53Z</time>
      </trkpt>
      <trkpt lat="45.97924" lon="6.43931">
        <ele>1727.15</ele>
        <time>2019-09-14T13:08:54Z</time>
      </trkpt>
      <trkpt lat="45.97924" lon="6.43932">
        <ele>1725.7</ele>
        <time>2019-09-14T13:08:55Z</time>
      </trkpt>
      <trkpt lat="45.97925" lon="6.43932">
        <ele>1722.34</ele>
        <time>2019-09-14T13:08:57Z</time>
      </trkpt>
      <trkpt lat="45.97925" lon="6.43934">
        <ele>1722.82</ele>
        <time>2019-09-14T13:09:00Z</time>
      </trkpt>
      <trkpt lat="45.97924" lon="6.43939">
        <ele>1723.3</ele>
        <time>2019-09-14T13:09:05Z</time>
      </trkpt>
      <trkpt lat="45.97922" lon="6.43942">
        <ele>1719.46</ele>
        <time>2019-09-14T13:09:09Z</time>
      </trkpt>
      <trkpt lat="45.97924" lon="6.43953">
        <ele>1717.05</ele>
        <time>2019-09-14T13:09:20Z</time>
      </trkpt>
      <trkpt lat="45.97924" lon="6.43955">
        <ele>1721.38</ele>
        <time>2019-09-14T13:09:22Z</time>
      </trkpt>
      <trkpt lat="45.97924" lon="6.43956">
        <ele>1713.21</ele>
        <time>2019-09-14T13:09:23Z</time>
      </trkpt>
      <trkpt lat="45.97925" lon="6.43956">
        <ele>1718.01</ele>
        <time>2019-09-14T13:09:24Z</time>
      </trkpt>
      <trkpt lat="45.97928" lon="6.4396">
        <ele>1716.09</ele>
        <time>2019-09-14T13:09:31Z</time>
      </trkpt>
      <trkpt lat="45.97932" lon="6.43966">
        <ele>1711.76</ele>
        <time>2019-09-14T13:09:40Z</time>
      </trkpt>
      <trkpt lat="45.97933" lon="6.43969">
        <ele>1715.13</ele>
        <time>2019-09-14T13:09:43Z</time>
      </trkpt>
      <trkpt lat="45.97934" lon="6.43969">
        <ele>1712.25</ele>
        <time>2019-09-14T13:09:44Z</time>
      </trkpt>
      <trkpt lat="45.97935" lon="6.43971">
        <ele>1712.25</ele>
        <time>2019-09-14T13:09:46Z</time>
      </trkpt>
      <trkpt lat="45.97938" lon="6.43979">
        <ele>1708.88</ele>
        <time>2019-09-14T13:09:53Z</time>
      </trkpt>
      <trkpt lat="45.97936" lon="6.43986">
        <ele>1706.48</ele>
        <time>2019-09-14T13:10:03Z</time>
      </trkpt>
      <trkpt lat="45.97932" lon="6.43988">
        <ele>1704.07</ele>
        <time>2019-09-14T13:10:08Z</time>
      </trkpt>
      <trkpt lat="45.97932" lon="6.43992">
        <ele>1704.07</ele>
        <time>2019-09-14T13:10:11Z</time>
      </trkpt>
      <trkpt lat="45.97933" lon="6.43994">
        <ele>1706.48</ele>
        <time>2019-09-14T13:10:13Z</time>
      </trkpt>
      <trkpt lat="45.97934" lon="6.43995">
        <ele>1705.52</ele>
        <time>2019-09-14T13:10:14Z</time>
      </trkpt>
      <trkpt lat="45.97933" lon="6.43998">
        <ele>1701.67</ele>
        <time>2019-09-14T13:10:17Z</time>
      </trkpt>
      <trkpt lat="45.97933" lon="6.43999">
        <ele>1703.59</ele>
        <time>2019-09-14T13:10:18Z</time>
      </trkpt>
      <trkpt lat="45.97934" lon="6.44">
        <ele>1703.59</ele>
        <time>2019-09-14T13:10:22Z</time>
      </trkpt>
      <trkpt lat="45.97931" lon="6.44003">
        <ele>1701.19</ele>
        <time>2019-09-14T13:10:26Z</time>
      </trkpt>
      <trkpt lat="45.97928" lon="6.44004">
        <ele>1702.63</ele>
        <time>2019-09-14T13:10:29Z</time>
      </trkpt>
      <trkpt lat="45.97925" lon="6.44006">
        <ele>1700.23</ele>
        <time>2019-09-14T13:10:32Z</time>
      </trkpt>
      <trkpt lat="45.97926" lon="6.44011">
        <ele>1699.75</ele>
        <time>2019-09-14T13:10:35Z</time>
      </trkpt>
      <trkpt lat="45.97927" lon="6.44013">
        <ele>1700.71</ele>
        <time>2019-09-14T13:10:37Z</time>
      </trkpt>
      <trkpt lat="45.97928" lon="6.44016">
        <ele>1696.38</ele>
        <time>2019-09-14T13:10:39Z</time>
      </trkpt>
      <trkpt lat="45.97929" lon="6.44018">
        <ele>1697.34</ele>
        <time>2019-09-14T13:10:40Z</time>
      </trkpt>
      <trkpt lat="45.9793" lon="6.44024">
        <ele>1697.34</ele>
        <time>2019-09-14T13:10:45Z</time>
      </trkpt>
      <trkpt lat="45.97932" lon="6.44026">
        <ele>1696.86</ele>
        <time>2019-09-14T13:10:47Z</time>
      </trkpt>
      <trkpt lat="45.97934" lon="6.44028">
        <ele>1699.27</ele>
        <time>2019-09-14T13:10:49Z</time>
      </trkpt>
      <trkpt lat="45.97935" lon="6.4403">
        <ele>1695.42</ele>
        <time>2019-09-14T13:10:50Z</time>
      </trkpt>
      <trkpt lat="45.97937" lon="6.44031">
        <ele>1697.83</ele>
        <time>2019-09-14T13:10:52Z</time>
      </trkpt>
      <trkpt lat="45.97939" lon="6.44034">
        <ele>1695.42</ele>
        <time>2019-09-14T13:10:55Z</time>
      </trkpt>
      <trkpt lat="45.9794" lon="6.44034">
        <ele>1695.9</ele>
        <time>2019-09-14T13:10:56Z</time>
      </trkpt>
      <trkpt lat="45.97948" lon="6.44041">
        <ele>1693.5</ele>
        <time>2019-09-14T13:11:05Z</time>
      </trkpt>
      <trkpt lat="45.97949" lon="6.44041">
        <ele>1696.86</ele>
        <time>2019-09-14T13:11:06Z</time>
      </trkpt>
      <trkpt lat="45.9795" lon="6.44041">
        <ele>1695.42</ele>
        <time>2019-09-14T13:11:07Z</time>
      </trkpt>
      <trkpt lat="45.97952" lon="6.44043">
        <ele>1694.46</ele>
        <time>2019-09-14T13:11:09Z</time>
      </trkpt>
      <trkpt lat="45.97953" lon="6.44045">
        <ele>1692.06</ele>
        <time>2019-09-14T13:11:12Z</time>
      </trkpt>
      <trkpt lat="45.97955" lon="6.44047">
        <ele>1693.98</ele>
        <time>2019-09-14T13:11:14Z</time>
      </trkpt>
      <trkpt lat="45.97956" lon="6.44049">
        <ele>1689.17</ele>
        <time>2019-09-14T13:11:16Z</time>
      </trkpt>
      <trkpt lat="45.97956" lon="6.4405">
        <ele>1693.02</ele>
        <time>2019-09-14T13:11:17Z</time>
      </trkpt>
      <trkpt lat="45.97956" lon="6.44051">
        <ele>1690.14</ele>
        <time>2019-09-14T13:11:19Z</time>
      </trkpt>
      <trkpt lat="45.97958" lon="6.44059">
        <ele>1689.65</ele>
        <time>2019-09-14T13:11:26Z</time>
      </trkpt>
      <trkpt lat="45.97959" lon="6.44064">
        <ele>1686.77</ele>
        <time>2019-09-14T13:11:30Z</time>
      </trkpt>
      <trkpt lat="45.9796" lon="6.44069">
        <ele>1690.62</ele>
        <time>2019-09-14T13:11:33Z</time>
      </trkpt>
      <trkpt lat="45.9796" lon="6.4407">
        <ele>1689.65</ele>
        <time>2019-09-14T13:11:34Z</time>
      </trkpt>
      <trkpt lat="45.9796" lon="6.44075">
        <ele>1686.77</ele>
        <time>2019-09-14T13:11:37Z</time>
      </trkpt>
      <trkpt lat="45.97961" lon="6.44079">
        <ele>1688.69</ele>
        <time>2019-09-14T13:11:39Z</time>
      </trkpt>
      <trkpt lat="45.97962" lon="6.44082">
        <ele>1689.17</ele>
        <time>2019-09-14T13:11:41Z</time>
      </trkpt>
      <trkpt lat="45.97962" lon="6.44083">
        <ele>1684.85</ele>
        <time>2019-09-14T13:11:42Z</time>
      </trkpt>
      <trkpt lat="45.97963" lon="6.44085">
        <ele>1687.73</ele>
        <time>2019-09-14T13:11:43Z</time>
      </trkpt>
      <trkpt lat="45.97966" lon="6.44093">
        <ele>1685.33</ele>
        <time>2019-09-14T13:11:54Z</time>
      </trkpt>
      <trkpt lat="45.97967" lon="6.44096">
        <ele>1684.37</ele>
        <time>2019-09-14T13:11:59Z</time>
      </trkpt>
      <trkpt lat="45.97965" lon="6.44097">
        <ele>1682.93</ele>
        <time>2019-09-14T13:12:01Z</time>
      </trkpt>
      <trkpt lat="45.97963" lon="6.44098">
        <ele>1684.37</ele>
        <time>2019-09-14T13:12:05Z</time>
      </trkpt>
      <trkpt lat="45.97961" lon="6.441">
        <ele>1683.89</ele>
        <time>2019-09-14T13:12:09Z</time>
      </trkpt>
      <trkpt lat="45.97958" lon="6.44102">
        <ele>1679.56</ele>
        <time>2019-09-14T13:12:12Z</time>
      </trkpt>
      <trkpt lat="45.97958" lon="6.44102">
        <ele>1682.44</ele>
        <time>2019-09-14T13:12:13Z</time>
      </trkpt>
      <trkpt lat="45.97957" lon="6.44102">
        <ele>1682.44</ele>
        <time>2019-09-14T13:12:14Z</time>
      </trkpt>
      <trkpt lat="45.97954" lon="6.44103">
        <ele>1679.08</ele>
        <time>2019-09-14T13:12:17Z</time>
      </trkpt>
      <trkpt lat="45.97951" lon="6.44103">
        <ele>1681.48</ele>
        <time>2019-09-14T13:12:21Z</time>
      </trkpt>
      <trkpt lat="45.97947" lon="6.44099">
        <ele>1680.04</ele>
        <time>2019-09-14T13:12:26Z</time>
      </trkpt>
      <trkpt lat="45.97944" lon="6.44096">
        <ele>1676.2</ele>
        <time>2019-09-14T13:12:29Z</time>
      </trkpt>
      <trkpt lat="45.97943" lon="6.44093">
        <ele>1680.52</ele>
        <time>2019-09-14T13:12:31Z</time>
      </trkpt>
      <trkpt lat="45.97942" lon="6.44092">
        <ele>1678.6</ele>
        <time>2019-09-14T13:12:32Z</time>
      </trkpt>
      <trkpt lat="45.97941" lon="6.44092">
        <ele>1677.64</ele>
        <time>2019-09-14T13:12:33Z</time>
      </trkpt>
      <trkpt lat="45.97936" lon="6.44093">
        <ele>1679.08</ele>
        <time>2019-09-14T13:12:39Z</time>
      </trkpt>
      <trkpt lat="45.97934" lon="6.44094">
        <ele>1675.23</ele>
        <time>2019-09-14T13:12:42Z</time>
      </trkpt>
      <trkpt lat="45.97934" lon="6.44094">
        <ele>1675.23</ele>
        <time>2019-09-14T13:12:43Z</time>
      </trkpt>
      <trkpt lat="45.97933" lon="6.44096">
        <ele>1676.68</ele>
        <time>2019-09-14T13:12:46Z</time>
      </trkpt>
      <trkpt lat="45.97932" lon="6.44096">
        <ele>1675.72</ele>
        <time>2019-09-14T13:12:47Z</time>
      </trkpt>
      <trkpt lat="45.9793" lon="6.44099">
        <ele>1671.39</ele>
        <time>2019-09-14T13:12:50Z</time>
      </trkpt>
      <trkpt lat="45.97929" lon="6.44099">
        <ele>1673.31</ele>
        <time>2019-09-14T13:12:51Z</time>
      </trkpt>
      <trkpt lat="45.97927" lon="6.44104">
        <ele>1672.35</ele>
        <time>2019-09-14T13:12:57Z</time>
      </trkpt>
      <trkpt lat="45.97923" lon="6.4411">
        <ele>1670.43</ele>
        <time>2019-09-14T13:13:07Z</time>
      </trkpt>
      <trkpt lat="45.97923" lon="6.44112">
        <ele>1669.47</ele>
        <time>2019-09-14T13:13:09Z</time>
      </trkpt>
      <trkpt lat="45.97921" lon="6.44119">
        <ele>1668.99</ele>
        <time>2019-09-14T13:13:16Z</time>
      </trkpt>
      <trkpt lat="45.97918" lon="6.44129">
        <ele>1666.1</ele>
        <time>2019-09-14T13:13:26Z</time>
      </trkpt>
      <trkpt lat="45.97915" lon="6.44139">
        <ele>1662.26</ele>
        <time>2019-09-14T13:13:33Z</time>
      </trkpt>
      <trkpt lat="45.97915" lon="6.44142">
        <ele>1661.78</ele>
        <time>2019-09-14T13:13:35Z</time>
      </trkpt>
      <trkpt lat="45.97916" lon="6.44148">
        <ele>1665.14</ele>
        <time>2019-09-14T13:13:39Z</time>
      </trkpt>
      <trkpt lat="45.97916" lon="6.44149">
        <ele>1661.3</ele>
        <time>2019-09-14T13:13:40Z</time>
      </trkpt>
      <trkpt lat="45.97917" lon="6.44153">
        <ele>1663.7</ele>
        <time>2019-09-14T13:13:43Z</time>
      </trkpt>
      <trkpt lat="45.97917" lon="6.44153">
        <ele>1660.81</ele>
        <time>2019-09-14T13:13:46Z</time>
      </trkpt>
      <trkpt lat="45.97917" lon="6.44153">
        <ele>1663.22</ele>
        <time>2019-09-14T13:14:03Z</time>
      </trkpt>
      <trkpt lat="45.97917" lon="6.44153">
        <ele>1662.26</ele>
        <time>2019-09-14T13:14:17Z</time>
      </trkpt>
      <trkpt lat="45.97918" lon="6.44154">
        <ele>1658.89</ele>
        <time>2019-09-14T13:14:34Z</time>
      </trkpt>
      <trkpt lat="45.97918" lon="6.44156">
        <ele>1663.22</ele>
        <time>2019-09-14T13:14:37Z</time>
      </trkpt>
      <trkpt lat="45.97919" lon="6.44157">
        <ele>1660.33</ele>
        <time>2019-09-14T13:14:38Z</time>
      </trkpt>
      <trkpt lat="45.97919" lon="6.44158">
        <ele>1660.33</ele>
        <time>2019-09-14T13:14:43Z</time>
      </trkpt>
      <trkpt lat="45.97919" lon="6.44158">
        <ele>1661.78</ele>
        <time>2019-09-14T13:14:45Z</time>
      </trkpt>
      <trkpt lat="45.97919" lon="6.44157">
        <ele>1661.3</ele>
        <time>2019-09-14T13:15:00Z</time>
      </trkpt>
      <trkpt lat="45.97922" lon="6.44164">
        <ele>1656.97</ele>
        <time>2019-09-14T13:15:11Z</time>
      </trkpt>
      <trkpt lat="45.97923" lon="6.44166">
        <ele>1661.78</ele>
        <time>2019-09-14T13:15:12Z</time>
      </trkpt>
      <trkpt lat="45.97924" lon="6.44166">
        <ele>1658.41</ele>
        <time>2019-09-14T13:15:13Z</time>
      </trkpt>
      <trkpt lat="45.97926" lon="6.44168">
        <ele>1657.45</ele>
        <time>2019-09-14T13:15:15Z</time>
      </trkpt>
      <trkpt lat="45.97928" lon="6.44168">
        <ele>1661.3</ele>
        <time>2019-09-14T13:15:17Z</time>
      </trkpt>
      <trkpt lat="45.97929" lon="6.44168">
        <ele>1657.93</ele>
        <time>2019-09-14T13:15:18Z</time>
      </trkpt>
      <trkpt lat="45.97933" lon="6.4417">
        <ele>1661.78</ele>
        <time>2019-09-14T13:15:22Z</time>
      </trkpt>
      <trkpt lat="45.97938" lon="6.44168">
        <ele>1658.41</ele>
        <time>2019-09-14T13:15:26Z</time>
      </trkpt>
      <trkpt lat="45.9794" lon="6.44167">
        <ele>1653.6</ele>
        <time>2019-09-14T13:15:28Z</time>
      </trkpt>
      <trkpt lat="45.97941" lon="6.44167">
        <ele>1658.41</ele>
        <time>2019-09-14T13:15:29Z</time>
      </trkpt>
      <trkpt lat="45.97943" lon="6.44167">
        <ele>1659.37</ele>
        <time>2019-09-14T13:15:31Z</time>
      </trkpt>
      <trkpt lat="45.97946" lon="6.44167">
        <ele>1653.6</ele>
        <time>2019-09-14T13:15:33Z</time>
      </trkpt>
      <trkpt lat="45.97947" lon="6.44166">
        <ele>1655.53</ele>
        <time>2019-09-14T13:15:34Z</time>
      </trkpt>
      <trkpt lat="45.97951" lon="6.44165">
        <ele>1658.89</ele>
        <time>2019-09-14T13:15:38Z</time>
      </trkpt>
      <trkpt lat="45.97952" lon="6.44165">
        <ele>1657.93</ele>
        <time>2019-09-14T13:15:39Z</time>
      </trkpt>
      <trkpt lat="45.97955" lon="6.44165">
        <ele>1653.12</ele>
        <time>2019-09-14T13:15:41Z</time>
      </trkpt>
      <trkpt lat="45.97955" lon="6.44165">
        <ele>1657.93</ele>
        <time>2019-09-14T13:15:42Z</time>
      </trkpt>
      <trkpt lat="45.97959" lon="6.44165">
        <ele>1651.68</ele>
        <time>2019-09-14T13:15:45Z</time>
      </trkpt>
      <trkpt lat="45.9796" lon="6.44165">
        <ele>1656.01</ele>
        <time>2019-09-14T13:15:46Z</time>
      </trkpt>
      <trkpt lat="45.97964" lon="6.44166">
        <ele>1653.6</ele>
        <time>2019-09-14T13:15:49Z</time>
      </trkpt>
      <trkpt lat="45.97966" lon="6.44167">
        <ele>1656.01</ele>
        <time>2019-09-14T13:15:51Z</time>
      </trkpt>
      <trkpt lat="45.97969" lon="6.4417">
        <ele>1653.12</ele>
        <time>2019-09-14T13:15:54Z</time>
      </trkpt>
      <trkpt lat="45.97972" lon="6.44171">
        <ele>1651.68</ele>
        <time>2019-09-14T13:15:56Z</time>
      </trkpt>
      <trkpt lat="45.97974" lon="6.44173">
        <ele>1655.05</ele>
        <time>2019-09-14T13:15:58Z</time>
      </trkpt>
      <trkpt lat="45.97976" lon="6.44176">
        <ele>1652.16</ele>
        <time>2019-09-14T13:16:02Z</time>
      </trkpt>
      <trkpt lat="45.97979" lon="6.44179">
        <ele>1653.6</ele>
        <time>2019-09-14T13:16:12Z</time>
      </trkpt>
      <trkpt lat="45.9798" lon="6.44179">
        <ele>1653.12</ele>
        <time>2019-09-14T13:16:13Z</time>
      </trkpt>
      <trkpt lat="45.97982" lon="6.44181">
        <ele>1650.24</ele>
        <time>2019-09-14T13:16:15Z</time>
      </trkpt>
      <trkpt lat="45.97984" lon="6.44182">
        <ele>1653.6</ele>
        <time>2019-09-14T13:16:17Z</time>
      </trkpt>
      <trkpt lat="45.97986" lon="6.44184">
        <ele>1649.28</ele>
        <time>2019-09-14T13:16:20Z</time>
      </trkpt>
      <trkpt lat="45.97987" lon="6.44185">
        <ele>1653.6</ele>
        <time>2019-09-14T13:16:21Z</time>
      </trkpt>
      <trkpt lat="45.97988" lon="6.44186">
        <ele>1651.68</ele>
        <time>2019-09-14T13:16:23Z</time>
      </trkpt>
      <trkpt lat="45.97993" lon="6.44186">
        <ele>1653.6</ele>
        <time>2019-09-14T13:16:27Z</time>
      </trkpt>
      <trkpt lat="45.97994" lon="6.44185">
        <ele>1653.6</ele>
        <time>2019-09-14T13:16:28Z</time>
      </trkpt>
      <trkpt lat="45.97994" lon="6.44184">
        <ele>1649.28</ele>
        <time>2019-09-14T13:16:29Z</time>
      </trkpt>
      <trkpt lat="45.97995" lon="6.44182">
        <ele>1652.64</ele>
        <time>2019-09-14T13:16:30Z</time>
      </trkpt>
      <trkpt lat="45.97995" lon="6.44181">
        <ele>1648.8</ele>
        <time>2019-09-14T13:16:32Z</time>
      </trkpt>
      <trkpt lat="45.97996" lon="6.44179">
        <ele>1653.12</ele>
        <time>2019-09-14T13:16:34Z</time>
      </trkpt>
      <trkpt lat="45.97997" lon="6.44178">
        <ele>1653.6</ele>
        <time>2019-09-14T13:16:35Z</time>
      </trkpt>
      <trkpt lat="45.97998" lon="6.44178">
        <ele>1653.6</ele>
        <time>2019-09-14T13:16:36Z</time>
      </trkpt>
      <trkpt lat="45.98" lon="6.44177">
        <ele>1650.72</ele>
        <time>2019-09-14T13:16:38Z</time>
      </trkpt>
      <trkpt lat="45.98002" lon="6.44175">
        <ele>1651.68</ele>
        <time>2019-09-14T13:16:40Z</time>
      </trkpt>
      <trkpt lat="45.98006" lon="6.44174">
        <ele>1648.8</ele>
        <time>2019-09-14T13:16:43Z</time>
      </trkpt>
      <trkpt lat="45.98008" lon="6.44173">
        <ele>1651.68</ele>
        <time>2019-09-14T13:16:45Z</time>
      </trkpt>
      <trkpt lat="45.98009" lon="6.44173">
        <ele>1652.64</ele>
        <time>2019-09-14T13:16:46Z</time>
      </trkpt>
      <trkpt lat="45.98011" lon="6.44173">
        <ele>1651.68</ele>
        <time>2019-09-14T13:16:48Z</time>
      </trkpt>
      <trkpt lat="45.98012" lon="6.44175">
        <ele>1650.72</ele>
        <time>2019-09-14T13:16:50Z</time>
      </trkpt>
      <trkpt lat="45.98014" lon="6.44179">
        <ele>1647.84</ele>
        <time>2019-09-14T13:16:53Z</time>
      </trkpt>
      <trkpt lat="45.98017" lon="6.44183">
        <ele>1647.84</ele>
        <time>2019-09-14T13:16:58Z</time>
      </trkpt>
      <trkpt lat="45.98018" lon="6.44185">
        <ele>1649.28</ele>
        <time>2019-09-14T13:17:00Z</time>
      </trkpt>
      <trkpt lat="45.9802" lon="6.44187">
        <ele>1649.28</ele>
        <time>2019-09-14T13:17:02Z</time>
      </trkpt>
      <trkpt lat="45.98021" lon="6.4419">
        <ele>1647.84</ele>
        <time>2019-09-14T13:17:05Z</time>
      </trkpt>
      <trkpt lat="45.98024" lon="6.44191">
        <ele>1643.03</ele>
        <time>2019-09-14T13:17:08Z</time>
      </trkpt>
      <trkpt lat="45.98026" lon="6.44193">
        <ele>1647.36</ele>
        <time>2019-09-14T13:17:10Z</time>
      </trkpt>
      <trkpt lat="45.98029" lon="6.44195">
        <ele>1644.95</ele>
        <time>2019-09-14T13:17:13Z</time>
      </trkpt>
      <trkpt lat="45.9803" lon="6.44197">
        <ele>1644.95</ele>
        <time>2019-09-14T13:17:15Z</time>
      </trkpt>
      <trkpt lat="45.98033" lon="6.44199">
        <ele>1640.63</ele>
        <time>2019-09-14T13:17:18Z</time>
      </trkpt>
      <trkpt lat="45.98038" lon="6.44198">
        <ele>1642.55</ele>
        <time>2019-09-14T13:17:23Z</time>
      </trkpt>
      <trkpt lat="45.9804" lon="6.44197">
        <ele>1644.47</ele>
        <time>2019-09-14T13:17:25Z</time>
      </trkpt>
      <trkpt lat="45.98041" lon="6.44198">
        <ele>1641.11</ele>
        <time>2019-09-14T13:17:27Z</time>
      </trkpt>
      <trkpt lat="45.98042" lon="6.44198">
        <ele>1644.47</ele>
        <time>2019-09-14T13:17:28Z</time>
      </trkpt>
      <trkpt lat="45.98043" lon="6.442">
        <ele>1641.11</ele>
        <time>2019-09-14T13:17:29Z</time>
      </trkpt>
      <trkpt lat="45.98044" lon="6.44201">
        <ele>1643.99</ele>
        <time>2019-09-14T13:17:30Z</time>
      </trkpt>
      <trkpt lat="45.98046" lon="6.44206">
        <ele>1638.22</ele>
        <time>2019-09-14T13:17:34Z</time>
      </trkpt>
      <trkpt lat="45.98046" lon="6.44208">
        <ele>1641.11</ele>
        <time>2019-09-14T13:17:35Z</time>
      </trkpt>
      <trkpt lat="45.98052" lon="6.44214">
        <ele>1637.26</ele>
        <time>2019-09-14T13:17:41Z</time>
      </trkpt>
      <trkpt lat="45.98053" lon="6.44215">
        <ele>1638.22</ele>
        <time>2019-09-14T13:17:42Z</time>
      </trkpt>
      <trkpt lat="45.98058" lon="6.44222">
        <ele>1638.22</ele>
        <time>2019-09-14T13:17:48Z</time>
      </trkpt>
      <trkpt lat="45.9806" lon="6.44223">
        <ele>1636.3</ele>
        <time>2019-09-14T13:17:51Z</time>
      </trkpt>
      <trkpt lat="45.98061" lon="6.44223">
        <ele>1636.78</ele>
        <time>2019-09-14T13:17:52Z</time>
      </trkpt>
      <trkpt lat="45.98068" lon="6.44227">
        <ele>1636.3</ele>
        <time>2019-09-14T13:18:01Z</time>
      </trkpt>
      <trkpt lat="45.98069" lon="6.44229">
        <ele>1635.82</ele>
        <time>2019-09-14T13:18:03Z</time>
      </trkpt>
      <trkpt lat="45.9807" lon="6.4423">
        <ele>1635.34</ele>
        <time>2019-09-14T13:18:05Z</time>
      </trkpt>
      <trkpt lat="45.98072" lon="6.44235">
        <ele>1631.98</ele>
        <time>2019-09-14T13:18:09Z</time>
      </trkpt>
      <trkpt lat="45.98072" lon="6.44236">
        <ele>1631.98</ele>
        <time>2019-09-14T13:18:10Z</time>
      </trkpt>
      <trkpt lat="45.98073" lon="6.44238">
        <ele>1633.9</ele>
        <time>2019-09-14T13:18:12Z</time>
      </trkpt>
      <trkpt lat="45.98076" lon="6.44243">
        <ele>1631.49</ele>
        <time>2019-09-14T13:18:16Z</time>
      </trkpt>
      <trkpt lat="45.98077" lon="6.44244">
        <ele>1630.05</ele>
        <time>2019-09-14T13:18:17Z</time>
      </trkpt>
      <trkpt lat="45.98077" lon="6.44247">
        <ele>1631.98</ele>
        <time>2019-09-14T13:18:20Z</time>
      </trkpt>
      <trkpt lat="45.98077" lon="6.44248">
        <ele>1628.61</ele>
        <time>2019-09-14T13:18:21Z</time>
      </trkpt>
      <trkpt lat="45.98077" lon="6.4425">
        <ele>1629.57</ele>
        <time>2019-09-14T13:18:22Z</time>
      </trkpt>
      <trkpt lat="45.98077" lon="6.44251">
        <ele>1632.94</ele>
        <time>2019-09-14T13:18:23Z</time>
      </trkpt>
      <trkpt lat="45.98078" lon="6.44252">
        <ele>1631.98</ele>
        <time>2019-09-14T13:18:24Z</time>
      </trkpt>
      <trkpt lat="45.98078" lon="6.44256">
        <ele>1630.05</ele>
        <time>2019-09-14T13:18:27Z</time>
      </trkpt>
      <trkpt lat="45.98079" lon="6.4426">
        <ele>1630.53</ele>
        <time>2019-09-14T13:18:31Z</time>
      </trkpt>
      <trkpt lat="45.9808" lon="6.44262">
        <ele>1626.69</ele>
        <time>2019-09-14T13:18:32Z</time>
      </trkpt>
      <trkpt lat="45.9808" lon="6.44263">
        <ele>1630.53</ele>
        <time>2019-09-14T13:18:33Z</time>
      </trkpt>
      <trkpt lat="45.9808" lon="6.44267">
        <ele>1628.61</ele>
        <time>2019-09-14T13:18:36Z</time>
      </trkpt>
      <trkpt lat="45.98077" lon="6.44277">
        <ele>1623.32</ele>
        <time>2019-09-14T13:18:45Z</time>
      </trkpt>
      <trkpt lat="45.98077" lon="6.44279">
        <ele>1626.69</ele>
        <time>2019-09-14T13:18:46Z</time>
      </trkpt>
      <trkpt lat="45.98077" lon="6.44283">
        <ele>1624.77</ele>
        <time>2019-09-14T13:18:50Z</time>
      </trkpt>
      <trkpt lat="45.98077" lon="6.44287">
        <ele>1623.32</ele>
        <time>2019-09-14T13:18:53Z</time>
      </trkpt>
      <trkpt lat="45.98076" lon="6.4429">
        <ele>1624.28</ele>
        <time>2019-09-14T13:18:55Z</time>
      </trkpt>
      <trkpt lat="45.98076" lon="6.44297">
        <ele>1620.92</ele>
        <time>2019-09-14T13:18:59Z</time>
      </trkpt>
      <trkpt lat="45.98076" lon="6.44298">
        <ele>1620.92</ele>
        <time>2019-09-14T13:19:00Z</time>
      </trkpt>
      <trkpt lat="45.98074" lon="6.4431">
        <ele>1617.07</ele>
        <time>2019-09-14T13:19:07Z</time>
      </trkpt>
      <trkpt lat="45.98073" lon="6.44319">
        <ele>1617.07</ele>
        <time>2019-09-14T13:19:13Z</time>
      </trkpt>
      <trkpt lat="45.98073" lon="6.44327">
        <ele>1618.52</ele>
        <time>2019-09-14T13:19:19Z</time>
      </trkpt>
      <trkpt lat="45.98073" lon="6.4433">
        <ele>1615.15</ele>
        <time>2019-09-14T13:19:21Z</time>
      </trkpt>
      <trkpt lat="45.98072" lon="6.44331">
        <ele>1616.11</ele>
        <time>2019-09-14T13:19:22Z</time>
      </trkpt>
      <trkpt lat="45.98072" lon="6.44333">
        <ele>1617.56</ele>
        <time>2019-09-14T13:19:24Z</time>
      </trkpt>
      <trkpt lat="45.98072" lon="6.44334">
        <ele>1617.07</ele>
        <time>2019-09-14T13:19:25Z</time>
      </trkpt>
      <trkpt lat="45.98071" lon="6.44346">
        <ele>1611.31</ele>
        <time>2019-09-14T13:19:32Z</time>
      </trkpt>
      <trkpt lat="45.98071" lon="6.44348">
        <ele>1611.31</ele>
        <time>2019-09-14T13:19:33Z</time>
      </trkpt>
      <trkpt lat="45.98071" lon="6.44349">
        <ele>1615.15</ele>
        <time>2019-09-14T13:19:34Z</time>
      </trkpt>
      <trkpt lat="45.98071" lon="6.4435">
        <ele>1614.67</ele>
        <time>2019-09-14T13:19:35Z</time>
      </trkpt>
      <trkpt lat="45.98069" lon="6.44361">
        <ele>1612.27</ele>
        <time>2019-09-14T13:19:43Z</time>
      </trkpt>
      <trkpt lat="45.98069" lon="6.44369">
        <ele>1607.46</ele>
        <time>2019-09-14T13:19:49Z</time>
      </trkpt>
      <trkpt lat="45.98068" lon="6.4437">
        <ele>1609.38</ele>
        <time>2019-09-14T13:19:50Z</time>
      </trkpt>
      <trkpt lat="45.98069" lon="6.44385">
        <ele>1603.62</ele>
        <time>2019-09-14T13:20:02Z</time>
      </trkpt>
      <trkpt lat="45.98069" lon="6.44389">
        <ele>1602.66</ele>
        <time>2019-09-14T13:20:05Z</time>
      </trkpt>
      <trkpt lat="45.9807" lon="6.44394">
        <ele>1603.14</ele>
        <time>2019-09-14T13:20:09Z</time>
      </trkpt>
      <trkpt lat="45.98069" lon="6.44398">
        <ele>1604.58</ele>
        <time>2019-09-14T13:20:13Z</time>
      </trkpt>
      <trkpt lat="45.9807" lon="6.44401">
        <ele>1600.25</ele>
        <time>2019-09-14T13:20:16Z</time>
      </trkpt>
      <trkpt lat="45.98071" lon="6.44402">
        <ele>1601.69</ele>
        <time>2019-09-14T13:20:17Z</time>
      </trkpt>
      <trkpt lat="45.98071" lon="6.44408">
        <ele>1602.17</ele>
        <time>2019-09-14T13:20:23Z</time>
      </trkpt>
      <trkpt lat="45.98069" lon="6.44419">
        <ele>1597.37</ele>
        <time>2019-09-14T13:20:33Z</time>
      </trkpt>
      <trkpt lat="45.98069" lon="6.44421">
        <ele>1596.89</ele>
        <time>2019-09-14T13:20:35Z</time>
      </trkpt>
      <trkpt lat="45.98071" lon="6.44423">
        <ele>1595.45</ele>
        <time>2019-09-14T13:20:37Z</time>
      </trkpt>
      <trkpt lat="45.98071" lon="6.44425">
        <ele>1594.96</ele>
        <time>2019-09-14T13:20:38Z</time>
      </trkpt>
      <trkpt lat="45.98074" lon="6.44431">
        <ele>1597.37</ele>
        <time>2019-09-14T13:20:43Z</time>
      </trkpt>
      <trkpt lat="45.98074" lon="6.44436">
        <ele>1593.04</ele>
        <time>2019-09-14T13:20:46Z</time>
      </trkpt>
      <trkpt lat="45.98074" lon="6.44439">
        <ele>1596.41</ele>
        <time>2019-09-14T13:20:48Z</time>
      </trkpt>
      <trkpt lat="45.98074" lon="6.44441">
        <ele>1596.41</ele>
        <time>2019-09-14T13:20:49Z</time>
      </trkpt>
      <trkpt lat="45.98075" lon="6.44451">
        <ele>1592.56</ele>
        <time>2019-09-14T13:20:56Z</time>
      </trkpt>
      <trkpt lat="45.98075" lon="6.44453">
        <ele>1592.08</ele>
        <time>2019-09-14T13:20:58Z</time>
      </trkpt>
      <trkpt lat="45.9807" lon="6.44464">
        <ele>1592.56</ele>
        <time>2019-09-14T13:21:06Z</time>
      </trkpt>
      <trkpt lat="45.98069" lon="6.44466">
        <ele>1590.16</ele>
        <time>2019-09-14T13:21:08Z</time>
      </trkpt>
      <trkpt lat="45.98068" lon="6.44469">
        <ele>1592.56</ele>
        <time>2019-09-14T13:21:10Z</time>
      </trkpt>
      <trkpt lat="45.98066" lon="6.44474">
        <ele>1587.75</ele>
        <time>2019-09-14T13:21:14Z</time>
      </trkpt>
      <trkpt lat="45.98066" lon="6.44478">
        <ele>1587.27</ele>
        <time>2019-09-14T13:21:17Z</time>
      </trkpt>
      <trkpt lat="45.98065" lon="6.44482">
        <ele>1589.2</ele>
        <time>2019-09-14T13:21:20Z</time>
      </trkpt>
      <trkpt lat="45.98063" lon="6.44487">
        <ele>1585.35</ele>
        <time>2019-09-14T13:21:23Z</time>
      </trkpt>
      <trkpt lat="45.98062" lon="6.44488">
        <ele>1586.79</ele>
        <time>2019-09-14T13:21:24Z</time>
      </trkpt>
      <trkpt lat="45.98062" lon="6.4449">
        <ele>1587.75</ele>
        <time>2019-09-14T13:21:26Z</time>
      </trkpt>
      <trkpt lat="45.98061" lon="6.44493">
        <ele>1586.31</ele>
        <time>2019-09-14T13:21:29Z</time>
      </trkpt>
      <trkpt lat="45.98059" lon="6.44497">
        <ele>1583.91</ele>
        <time>2019-09-14T13:21:34Z</time>
      </trkpt>
      <trkpt lat="45.98058" lon="6.44499">
        <ele>1586.31</ele>
        <time>2019-09-14T13:21:36Z</time>
      </trkpt>
      <trkpt lat="45.98058" lon="6.44504">
        <ele>1584.39</ele>
        <time>2019-09-14T13:21:47Z</time>
      </trkpt>
      <trkpt lat="45.9806" lon="6.44508">
        <ele>1583.43</ele>
        <time>2019-09-14T13:21:58Z</time>
      </trkpt>
      <trkpt lat="45.9806" lon="6.44507">
        <ele>1583.43</ele>
        <time>2019-09-14T13:22:03Z</time>
      </trkpt>
      <trkpt lat="45.98059" lon="6.44508">
        <ele>1585.35</ele>
        <time>2019-09-14T13:22:08Z</time>
      </trkpt>
      <trkpt lat="45.98059" lon="6.44508">
        <ele>1581.99</ele>
        <time>2019-09-14T13:22:13Z</time>
      </trkpt>
      <trkpt lat="45.98059" lon="6.44508">
        <ele>1585.35</ele>
        <time>2019-09-14T13:22:14Z</time>
      </trkpt>
      <trkpt lat="45.98059" lon="6.44507">
        <ele>1581.99</ele>
        <time>2019-09-14T13:22:16Z</time>
      </trkpt>
      <trkpt lat="45.98059" lon="6.44508">
        <ele>1583.43</ele>
        <time>2019-09-14T13:22:17Z</time>
      </trkpt>
      <trkpt lat="45.98059" lon="6.44508">
        <ele>1582.95</ele>
        <time>2019-09-14T13:22:43Z</time>
      </trkpt>
      <trkpt lat="45.98058" lon="6.44507">
        <ele>1581.51</ele>
        <time>2019-09-14T13:22:54Z</time>
      </trkpt>
      <trkpt lat="45.98058" lon="6.44508">
        <ele>1585.83</ele>
        <time>2019-09-14T13:22:55Z</time>
      </trkpt>
      <trkpt lat="45.98058" lon="6.44508">
        <ele>1584.39</ele>
        <time>2019-09-14T13:22:56Z</time>
      </trkpt>
      <trkpt lat="45.98058" lon="6.44507">
        <ele>1582.47</ele>
        <time>2019-09-14T13:22:59Z</time>
      </trkpt>
      <trkpt lat="45.98057" lon="6.44507">
        <ele>1583.91</ele>
        <time>2019-09-14T13:23:02Z</time>
      </trkpt>
      <trkpt lat="45.98057" lon="6.44508">
        <ele>1582.95</ele>
        <time>2019-09-14T13:23:04Z</time>
      </trkpt>
      <trkpt lat="45.98057" lon="6.44508">
        <ele>1581.99</ele>
        <time>2019-09-14T13:23:16Z</time>
      </trkpt>
      <trkpt lat="45.98056" lon="6.44508">
        <ele>1581.51</ele>
        <time>2019-09-14T13:23:30Z</time>
      </trkpt>
      <trkpt lat="45.98056" lon="6.44508">
        <ele>1581.99</ele>
        <time>2019-09-14T13:23:46Z</time>
      </trkpt>
      <trkpt lat="45.98056" lon="6.44508">
        <ele>1581.03</ele>
        <time>2019-09-14T13:23:56Z</time>
      </trkpt>
      <trkpt lat="45.98056" lon="6.44508">
        <ele>1582.47</ele>
        <time>2019-09-14T13:23:58Z</time>
      </trkpt>
      <trkpt lat="45.98056" lon="6.44508">
        <ele>1582.47</ele>
        <time>2019-09-14T13:24:10Z</time>
      </trkpt>
      <trkpt lat="45.98056" lon="6.44507">
        <ele>1581.51</ele>
        <time>2019-09-14T13:24:30Z</time>
      </trkpt>
      <trkpt lat="45.98056" lon="6.44508">
        <ele>1582.47</ele>
        <time>2019-09-14T13:24:55Z</time>
      </trkpt>
      <trkpt lat="45.98055" lon="6.44509">
        <ele>1581.99</ele>
        <time>2019-09-14T13:25:06Z</time>
      </trkpt>
      <trkpt lat="45.98055" lon="6.44509">
        <ele>1582.47</ele>
        <time>2019-09-14T13:25:27Z</time>
      </trkpt>
      <trkpt lat="45.98055" lon="6.44509">
        <ele>1581.99</ele>
        <time>2019-09-14T13:25:47Z</time>
      </trkpt>
      <trkpt lat="45.98055" lon="6.44509">
        <ele>1581.03</ele>
        <time>2019-09-14T13:26:07Z</time>
      </trkpt>
      <trkpt lat="45.98056" lon="6.44509">
        <ele>1581.51</ele>
        <time>2019-09-14T13:26:26Z</time>
      </trkpt>
      <trkpt lat="45.98056" lon="6.4451">
        <ele>1581.51</ele>
        <time>2019-09-14T13:26:45Z</time>
      </trkpt>
      <trkpt lat="45.98056" lon="6.4451">
        <ele>1581.99</ele>
        <time>2019-09-14T13:26:56Z</time>
      </trkpt>
      <trkpt lat="45.98056" lon="6.4451">
        <ele>1581.51</ele>
        <time>2019-09-14T13:27:15Z</time>
      </trkpt>
      <trkpt lat="45.98056" lon="6.4451">
        <ele>1585.35</ele>
        <time>2019-09-14T13:27:29Z</time>
      </trkpt>
      <trkpt lat="45.98056" lon="6.4451">
        <ele>1581.51</ele>
        <time>2019-09-14T13:27:30Z</time>
      </trkpt>
      <trkpt lat="45.98056" lon="6.4451">
        <ele>1580.54</ele>
        <time>2019-09-14T13:27:32Z</time>
      </trkpt>
      <trkpt lat="45.98055" lon="6.44511">
        <ele>1582.47</ele>
        <time>2019-09-14T13:27:46Z</time>
      </trkpt>
      <trkpt lat="45.98055" lon="6.44511">
        <ele>1581.03</ele>
        <time>2019-09-14T13:27:48Z</time>
      </trkpt>
      <trkpt lat="45.98056" lon="6.44511">
        <ele>1581.03</ele>
        <time>2019-09-14T13:28:20Z</time>
      </trkpt>
      <trkpt lat="45.98056" lon="6.4451">
        <ele>1581.51</ele>
        <time>2019-09-14T13:28:43Z</time>
      </trkpt>
      <trkpt lat="45.98055" lon="6.44513">
        <ele>1581.51</ele>
        <time>2019-09-14T13:29:02Z</time>
      </trkpt>
      <trkpt lat="45.98055" lon="6.44515">
        <ele>1578.14</ele>
        <time>2019-09-14T13:29:04Z</time>
      </trkpt>
      <trkpt lat="45.98055" lon="6.44522">
        <ele>1578.62</ele>
        <time>2019-09-14T13:29:10Z</time>
      </trkpt>
      <trkpt lat="45.98055" lon="6.44525">
        <ele>1578.14</ele>
        <time>2019-09-14T13:29:12Z</time>
      </trkpt>
      <trkpt lat="45.98055" lon="6.44526">
        <ele>1580.54</ele>
        <time>2019-09-14T13:29:13Z</time>
      </trkpt>
      <trkpt lat="45.98056" lon="6.4453">
        <ele>1575.74</ele>
        <time>2019-09-14T13:29:16Z</time>
      </trkpt>
      <trkpt lat="45.98057" lon="6.44531">
        <ele>1577.18</ele>
        <time>2019-09-14T13:29:17Z</time>
      </trkpt>
      <trkpt lat="45.98057" lon="6.44536">
        <ele>1580.06</ele>
        <time>2019-09-14T13:29:20Z</time>
      </trkpt>
      <trkpt lat="45.98058" lon="6.4454">
        <ele>1575.26</ele>
        <time>2019-09-14T13:29:22Z</time>
      </trkpt>
      <trkpt lat="45.98062" lon="6.44551">
        <ele>1578.62</ele>
        <time>2019-09-14T13:29:32Z</time>
      </trkpt>
      <trkpt lat="45.98063" lon="6.44554">
        <ele>1574.78</ele>
        <time>2019-09-14T13:29:34Z</time>
      </trkpt>
      <trkpt lat="45.98064" lon="6.44558">
        <ele>1575.74</ele>
        <time>2019-09-14T13:29:37Z</time>
      </trkpt>
      <trkpt lat="45.98067" lon="6.44568">
        <ele>1572.37</ele>
        <time>2019-09-14T13:29:46Z</time>
      </trkpt>
      <trkpt lat="45.98068" lon="6.44574">
        <ele>1575.26</ele>
        <time>2019-09-14T13:29:50Z</time>
      </trkpt>
      <trkpt lat="45.9807" lon="6.44577">
        <ele>1573.82</ele>
        <time>2019-09-14T13:29:52Z</time>
      </trkpt>
      <trkpt lat="45.98071" lon="6.4458">
        <ele>1576.7</ele>
        <time>2019-09-14T13:29:57Z</time>
      </trkpt>
      <trkpt lat="45.98075" lon="6.44587">
        <ele>1575.26</ele>
        <time>2019-09-14T13:30:02Z</time>
      </trkpt>
      <trkpt lat="45.98075" lon="6.44588">
        <ele>1570.93</ele>
        <time>2019-09-14T13:30:03Z</time>
      </trkpt>
      <trkpt lat="45.98076" lon="6.44591">
        <ele>1575.26</ele>
        <time>2019-09-14T13:30:06Z</time>
      </trkpt>
      <trkpt lat="45.98077" lon="6.44592">
        <ele>1569.49</ele>
        <time>2019-09-14T13:30:07Z</time>
      </trkpt>
      <trkpt lat="45.98078" lon="6.44596">
        <ele>1573.33</ele>
        <time>2019-09-14T13:30:10Z</time>
      </trkpt>
      <trkpt lat="45.98078" lon="6.446">
        <ele>1568.53</ele>
        <time>2019-09-14T13:30:13Z</time>
      </trkpt>
      <trkpt lat="45.98078" lon="6.44602">
        <ele>1570.93</ele>
        <time>2019-09-14T13:30:14Z</time>
      </trkpt>
      <trkpt lat="45.98079" lon="6.44605">
        <ele>1575.26</ele>
        <time>2019-09-14T13:30:16Z</time>
      </trkpt>
      <trkpt lat="45.98079" lon="6.44606">
        <ele>1570.45</ele>
        <time>2019-09-14T13:30:17Z</time>
      </trkpt>
      <trkpt lat="45.98079" lon="6.44608">
        <ele>1572.37</ele>
        <time>2019-09-14T13:30:19Z</time>
      </trkpt>
      <trkpt lat="45.98077" lon="6.44611">
        <ele>1570.45</ele>
        <time>2019-09-14T13:30:21Z</time>
      </trkpt>
      <trkpt lat="45.98076" lon="6.44616">
        <ele>1573.33</ele>
        <time>2019-09-14T13:30:24Z</time>
      </trkpt>
      <trkpt lat="45.98075" lon="6.4462">
        <ele>1567.57</ele>
        <time>2019-09-14T13:30:26Z</time>
      </trkpt>
      <trkpt lat="45.98075" lon="6.44621">
        <ele>1568.05</ele>
        <time>2019-09-14T13:30:27Z</time>
      </trkpt>
      <trkpt lat="45.98074" lon="6.44623">
        <ele>1571.89</ele>
        <time>2019-09-14T13:30:28Z</time>
      </trkpt>
      <trkpt lat="45.98074" lon="6.44627">
        <ele>1566.12</ele>
        <time>2019-09-14T13:30:31Z</time>
      </trkpt>
      <trkpt lat="45.98073" lon="6.44629">
        <ele>1568.53</ele>
        <time>2019-09-14T13:30:32Z</time>
      </trkpt>
      <trkpt lat="45.98073" lon="6.44635">
        <ele>1572.85</ele>
        <time>2019-09-14T13:30:35Z</time>
      </trkpt>
      <trkpt lat="45.98074" lon="6.4464">
        <ele>1567.57</ele>
        <time>2019-09-14T13:30:38Z</time>
      </trkpt>
      <trkpt lat="45.98074" lon="6.44642">
        <ele>1568.05</ele>
        <time>2019-09-14T13:30:39Z</time>
      </trkpt>
      <trkpt lat="45.98075" lon="6.44643">
        <ele>1571.41</ele>
        <time>2019-09-14T13:30:40Z</time>
      </trkpt>
      <trkpt lat="45.98075" lon="6.44645">
        <ele>1573.33</ele>
        <time>2019-09-14T13:30:41Z</time>
      </trkpt>
      <trkpt lat="45.98075" lon="6.44653">
        <ele>1573.82</ele>
        <time>2019-09-14T13:30:45Z</time>
      </trkpt>
      <trkpt lat="45.98076" lon="6.44658">
        <ele>1570.45</ele>
        <time>2019-09-14T13:30:48Z</time>
      </trkpt>
      <trkpt lat="45.98076" lon="6.44665">
        <ele>1567.09</ele>
        <time>2019-09-14T13:30:52Z</time>
      </trkpt>
      <trkpt lat="45.98077" lon="6.44667">
        <ele>1567.09</ele>
        <time>2019-09-14T13:30:53Z</time>
      </trkpt>
      <trkpt lat="45.98077" lon="6.44669">
        <ele>1571.41</ele>
        <time>2019-09-14T13:30:54Z</time>
      </trkpt>
      <trkpt lat="45.98077" lon="6.44677">
        <ele>1567.57</ele>
        <time>2019-09-14T13:30:59Z</time>
      </trkpt>
      <trkpt lat="45.98077" lon="6.44679">
        <ele>1568.53</ele>
        <time>2019-09-14T13:31:00Z</time>
      </trkpt>
      <trkpt lat="45.98077" lon="6.4468">
        <ele>1572.37</ele>
        <time>2019-09-14T13:31:01Z</time>
      </trkpt>
      <trkpt lat="45.98078" lon="6.44682">
        <ele>1572.37</ele>
        <time>2019-09-14T13:31:02Z</time>
      </trkpt>
      <trkpt lat="45.98077" lon="6.44684">
        <ele>1569.01</ele>
        <time>2019-09-14T13:31:04Z</time>
      </trkpt>
      <trkpt lat="45.98078" lon="6.44686">
        <ele>1573.33</ele>
        <time>2019-09-14T13:31:06Z</time>
      </trkpt>
      <trkpt lat="45.98078" lon="6.44688">
        <ele>1573.33</ele>
        <time>2019-09-14T13:31:07Z</time>
      </trkpt>
      <trkpt lat="45.98078" lon="6.44689">
        <ele>1569.97</ele>
        <time>2019-09-14T13:31:08Z</time>
      </trkpt>
      <trkpt lat="45.98079" lon="6.44692">
        <ele>1569.49</ele>
        <time>2019-09-14T13:31:10Z</time>
      </trkpt>
      <trkpt lat="45.9808" lon="6.44695">
        <ele>1573.33</ele>
        <time>2019-09-14T13:31:12Z</time>
      </trkpt>
      <trkpt lat="45.9808" lon="6.44697">
        <ele>1567.09</ele>
        <time>2019-09-14T13:31:14Z</time>
      </trkpt>
      <trkpt lat="45.98081" lon="6.44698">
        <ele>1572.37</ele>
        <time>2019-09-14T13:31:15Z</time>
      </trkpt>
      <trkpt lat="45.98081" lon="6.447">
        <ele>1571.89</ele>
        <time>2019-09-14T13:31:16Z</time>
      </trkpt>
      <trkpt lat="45.98079" lon="6.44704">
        <ele>1566.12</ele>
        <time>2019-09-14T13:31:19Z</time>
      </trkpt>
      <trkpt lat="45.98079" lon="6.44705">
        <ele>1570.93</ele>
        <time>2019-09-14T13:31:20Z</time>
      </trkpt>
      <trkpt lat="45.98077" lon="6.44708">
        <ele>1570.45</ele>
        <time>2019-09-14T13:31:22Z</time>
      </trkpt>
      <trkpt lat="45.98076" lon="6.44715">
        <ele>1570.93</ele>
        <time>2019-09-14T13:31:27Z</time>
      </trkpt>
      <trkpt lat="45.98073" lon="6.44721">
        <ele>1568.05</ele>
        <time>2019-09-14T13:31:31Z</time>
      </trkpt>
      <trkpt lat="45.98073" lon="6.44725">
        <ele>1567.09</ele>
        <time>2019-09-14T13:31:33Z</time>
      </trkpt>
      <trkpt lat="45.98073" lon="6.44727">
        <ele>1570.45</ele>
        <time>2019-09-14T13:31:34Z</time>
      </trkpt>
      <trkpt lat="45.98073" lon="6.44728">
        <ele>1569.97</ele>
        <time>2019-09-14T13:31:35Z</time>
      </trkpt>
      <trkpt lat="45.98075" lon="6.44737">
        <ele>1565.64</ele>
        <time>2019-09-14T13:31:40Z</time>
      </trkpt>
      <trkpt lat="45.98075" lon="6.44738">
        <ele>1569.49</ele>
        <time>2019-09-14T13:31:41Z</time>
      </trkpt>
      <trkpt lat="45.98075" lon="6.44742">
        <ele>1570.93</ele>
        <time>2019-09-14T13:31:43Z</time>
      </trkpt>
      <trkpt lat="45.98075" lon="6.44745">
        <ele>1568.53</ele>
        <time>2019-09-14T13:31:45Z</time>
      </trkpt>
      <trkpt lat="45.98076" lon="6.44746">
        <ele>1565.16</ele>
        <time>2019-09-14T13:31:46Z</time>
      </trkpt>
      <trkpt lat="45.98077" lon="6.44749">
        <ele>1569.49</ele>
        <time>2019-09-14T13:31:48Z</time>
      </trkpt>
      <trkpt lat="45.98078" lon="6.44753">
        <ele>1565.64</ele>
        <time>2019-09-14T13:31:51Z</time>
      </trkpt>
      <trkpt lat="45.98079" lon="6.44754">
        <ele>1565.64</ele>
        <time>2019-09-14T13:31:52Z</time>
      </trkpt>
      <trkpt lat="45.98079" lon="6.44756">
        <ele>1569.49</ele>
        <time>2019-09-14T13:31:53Z</time>
      </trkpt>
      <trkpt lat="45.9808" lon="6.44762">
        <ele>1564.68</ele>
        <time>2019-09-14T13:31:57Z</time>
      </trkpt>
      <trkpt lat="45.98081" lon="6.44764">
        <ele>1565.64</ele>
        <time>2019-09-14T13:31:58Z</time>
      </trkpt>
      <trkpt lat="45.98081" lon="6.44767">
        <ele>1569.49</ele>
        <time>2019-09-14T13:32:00Z</time>
      </trkpt>
      <trkpt lat="45.98082" lon="6.44768">
        <ele>1566.12</ele>
        <time>2019-09-14T13:32:01Z</time>
      </trkpt>
      <trkpt lat="45.98087" lon="6.44782">
        <ele>1563.72</ele>
        <time>2019-09-14T13:32:10Z</time>
      </trkpt>
      <trkpt lat="45.98089" lon="6.44786">
        <ele>1569.01</ele>
        <time>2019-09-14T13:32:12Z</time>
      </trkpt>
      <trkpt lat="45.9809" lon="6.44787">
        <ele>1565.16</ele>
        <time>2019-09-14T13:32:13Z</time>
      </trkpt>
      <trkpt lat="45.98092" lon="6.44793">
        <ele>1567.57</ele>
        <time>2019-09-14T13:32:17Z</time>
      </trkpt>
      <trkpt lat="45.98093" lon="6.44794">
        <ele>1566.12</ele>
        <time>2019-09-14T13:32:18Z</time>
      </trkpt>
      <trkpt lat="45.98095" lon="6.44797">
        <ele>1561.8</ele>
        <time>2019-09-14T13:32:20Z</time>
      </trkpt>
      <trkpt lat="45.98097" lon="6.44799">
        <ele>1564.2</ele>
        <time>2019-09-14T13:32:22Z</time>
      </trkpt>
      <trkpt lat="45.98098" lon="6.44801">
        <ele>1559.88</ele>
        <time>2019-09-14T13:32:23Z</time>
      </trkpt>
      <trkpt lat="45.98099" lon="6.44802">
        <ele>1564.68</ele>
        <time>2019-09-14T13:32:24Z</time>
      </trkpt>
      <trkpt lat="45.98099" lon="6.44805">
        <ele>1564.68</ele>
        <time>2019-09-14T13:32:28Z</time>
      </trkpt>
      <trkpt lat="45.981" lon="6.44808">
        <ele>1565.64</ele>
        <time>2019-09-14T13:32:30Z</time>
      </trkpt>
      <trkpt lat="45.98102" lon="6.44814">
        <ele>1561.8</ele>
        <time>2019-09-14T13:32:34Z</time>
      </trkpt>
      <trkpt lat="45.98106" lon="6.44821">
        <ele>1565.16</ele>
        <time>2019-09-14T13:32:39Z</time>
      </trkpt>
      <trkpt lat="45.98108" lon="6.44824">
        <ele>1564.2</ele>
        <time>2019-09-14T13:32:41Z</time>
      </trkpt>
      <trkpt lat="45.98111" lon="6.4483">
        <ele>1565.64</ele>
        <time>2019-09-14T13:32:45Z</time>
      </trkpt>
      <trkpt lat="45.98112" lon="6.44831">
        <ele>1565.16</ele>
        <time>2019-09-14T13:32:46Z</time>
      </trkpt>
      <trkpt lat="45.98113" lon="6.44834">
        <ele>1560.84</ele>
        <time>2019-09-14T13:32:48Z</time>
      </trkpt>
      <trkpt lat="45.98114" lon="6.44836">
        <ele>1564.68</ele>
        <time>2019-09-14T13:32:49Z</time>
      </trkpt>
      <trkpt lat="45.98115" lon="6.44838">
        <ele>1559.88</ele>
        <time>2019-09-14T13:32:51Z</time>
      </trkpt>
      <trkpt lat="45.98116" lon="6.4484">
        <ele>1561.32</ele>
        <time>2019-09-14T13:32:52Z</time>
      </trkpt>
      <trkpt lat="45.98122" lon="6.44852">
        <ele>1558.43</ele>
        <time>2019-09-14T13:33:01Z</time>
      </trkpt>
      <trkpt lat="45.98122" lon="6.44855">
        <ele>1561.32</ele>
        <time>2019-09-14T13:33:03Z</time>
      </trkpt>
      <trkpt lat="45.98123" lon="6.44869">
        <ele>1556.99</ele>
        <time>2019-09-14T13:33:11Z</time>
      </trkpt>
      <trkpt lat="45.98123" lon="6.4487">
        <ele>1559.88</ele>
        <time>2019-09-14T13:33:12Z</time>
      </trkpt>
      <trkpt lat="45.98124" lon="6.44882">
        <ele>1555.07</ele>
        <time>2019-09-14T13:33:19Z</time>
      </trkpt>
      <trkpt lat="45.98127" lon="6.4489">
        <ele>1554.59</ele>
        <time>2019-09-14T13:33:24Z</time>
      </trkpt>
      <trkpt lat="45.98128" lon="6.44891">
        <ele>1559.88</ele>
        <time>2019-09-14T13:33:25Z</time>
      </trkpt>
      <trkpt lat="45.98128" lon="6.44892">
        <ele>1556.51</ele>
        <time>2019-09-14T13:33:26Z</time>
      </trkpt>
      <trkpt lat="45.98129" lon="6.44893">
        <ele>1556.51</ele>
        <time>2019-09-14T13:33:27Z</time>
      </trkpt>
      <trkpt lat="45.98133" lon="6.44898">
        <ele>1556.03</ele>
        <time>2019-09-14T13:33:31Z</time>
      </trkpt>
      <trkpt lat="45.98133" lon="6.44899">
        <ele>1557.47</ele>
        <time>2019-09-14T13:33:32Z</time>
      </trkpt>
      <trkpt lat="45.98134" lon="6.44902">
        <ele>1561.8</ele>
        <time>2019-09-14T13:33:34Z</time>
      </trkpt>
      <trkpt lat="45.98136" lon="6.44905">
        <ele>1555.07</ele>
        <time>2019-09-14T13:33:36Z</time>
      </trkpt>
      <trkpt lat="45.98136" lon="6.44906">
        <ele>1558.43</ele>
        <time>2019-09-14T13:33:37Z</time>
      </trkpt>
      <trkpt lat="45.98139" lon="6.44911">
        <ele>1559.4</ele>
        <time>2019-09-14T13:33:41Z</time>
      </trkpt>
      <trkpt lat="45.98142" lon="6.44917">
        <ele>1554.11</ele>
        <time>2019-09-14T13:33:45Z</time>
      </trkpt>
      <trkpt lat="45.98143" lon="6.44919">
        <ele>1552.67</ele>
        <time>2019-09-14T13:33:46Z</time>
      </trkpt>
      <trkpt lat="45.98146" lon="6.44923">
        <ele>1559.88</ele>
        <time>2019-09-14T13:33:49Z</time>
      </trkpt>
      <trkpt lat="45.98147" lon="6.44924">
        <ele>1555.55</ele>
        <time>2019-09-14T13:33:50Z</time>
      </trkpt>
      <trkpt lat="45.98149" lon="6.44927">
        <ele>1557.95</ele>
        <time>2019-09-14T13:33:52Z</time>
      </trkpt>
      <trkpt lat="45.9815" lon="6.44934">
        <ele>1551.22</ele>
        <time>2019-09-14T13:33:56Z</time>
      </trkpt>
      <trkpt lat="45.9815" lon="6.44936">
        <ele>1557.95</ele>
        <time>2019-09-14T13:33:57Z</time>
      </trkpt>
      <trkpt lat="45.9815" lon="6.44938">
        <ele>1553.15</ele>
        <time>2019-09-14T13:33:58Z</time>
      </trkpt>
      <trkpt lat="45.9815" lon="6.4494">
        <ele>1556.51</ele>
        <time>2019-09-14T13:33:59Z</time>
      </trkpt>
      <trkpt lat="45.9815" lon="6.44944">
        <ele>1557.95</ele>
        <time>2019-09-14T13:34:01Z</time>
      </trkpt>
      <trkpt lat="45.98151" lon="6.44947">
        <ele>1551.71</ele>
        <time>2019-09-14T13:34:03Z</time>
      </trkpt>
      <trkpt lat="45.98152" lon="6.44949">
        <ele>1555.07</ele>
        <time>2019-09-14T13:34:04Z</time>
      </trkpt>
      <trkpt lat="45.98154" lon="6.44953">
        <ele>1557.95</ele>
        <time>2019-09-14T13:34:07Z</time>
      </trkpt>
      <trkpt lat="45.98154" lon="6.44957">
        <ele>1553.15</ele>
        <time>2019-09-14T13:34:10Z</time>
      </trkpt>
      <trkpt lat="45.98154" lon="6.44959">
        <ele>1555.07</ele>
        <time>2019-09-14T13:34:11Z</time>
      </trkpt>
      <trkpt lat="45.98156" lon="6.44964">
        <ele>1550.26</ele>
        <time>2019-09-14T13:34:15Z</time>
      </trkpt>
      <trkpt lat="45.98156" lon="6.44965">
        <ele>1554.11</ele>
        <time>2019-09-14T13:34:16Z</time>
      </trkpt>
      <trkpt lat="45.98156" lon="6.44967">
        <ele>1557.47</ele>
        <time>2019-09-14T13:34:18Z</time>
      </trkpt>
      <trkpt lat="45.98157" lon="6.44969">
        <ele>1553.15</ele>
        <time>2019-09-14T13:34:21Z</time>
      </trkpt>
      <trkpt lat="45.98157" lon="6.44971">
        <ele>1556.51</ele>
        <time>2019-09-14T13:34:25Z</time>
      </trkpt>
      <trkpt lat="45.98157" lon="6.44972">
        <ele>1552.67</ele>
        <time>2019-09-14T13:34:26Z</time>
      </trkpt>
      <trkpt lat="45.98157" lon="6.44974">
        <ele>1554.59</ele>
        <time>2019-09-14T13:34:27Z</time>
      </trkpt>
      <trkpt lat="45.98157" lon="6.44986">
        <ele>1554.11</ele>
        <time>2019-09-14T13:34:34Z</time>
      </trkpt>
      <trkpt lat="45.98157" lon="6.44991">
        <ele>1548.82</ele>
        <time>2019-09-14T13:34:37Z</time>
      </trkpt>
      <trkpt lat="45.98159" lon="6.44995">
        <ele>1550.26</ele>
        <time>2019-09-14T13:34:40Z</time>
      </trkpt>
      <trkpt lat="45.98162" lon="6.45008">
        <ele>1550.26</ele>
        <time>2019-09-14T13:34:49Z</time>
      </trkpt>
      <trkpt lat="45.98162" lon="6.4501">
        <ele>1551.71</ele>
        <time>2019-09-14T13:34:50Z</time>
      </trkpt>
      <trkpt lat="45.98164" lon="6.45013">
        <ele>1545.46</ele>
        <time>2019-09-14T13:34:52Z</time>
      </trkpt>
      <trkpt lat="45.98166" lon="6.4502">
        <ele>1545.46</ele>
        <time>2019-09-14T13:34:57Z</time>
      </trkpt>
      <trkpt lat="45.98168" lon="6.45027">
        <ele>1544.98</ele>
        <time>2019-09-14T13:35:02Z</time>
      </trkpt>
      <trkpt lat="45.9817" lon="6.4503">
        <ele>1548.82</ele>
        <time>2019-09-14T13:35:04Z</time>
      </trkpt>
      <trkpt lat="45.9817" lon="6.45031">
        <ele>1547.86</ele>
        <time>2019-09-14T13:35:05Z</time>
      </trkpt>
      <trkpt lat="45.98171" lon="6.45036">
        <ele>1544.01</ele>
        <time>2019-09-14T13:35:08Z</time>
      </trkpt>
      <trkpt lat="45.98171" lon="6.45038">
        <ele>1544.01</ele>
        <time>2019-09-14T13:35:09Z</time>
      </trkpt>
      <trkpt lat="45.98173" lon="6.45043">
        <ele>1547.86</ele>
        <time>2019-09-14T13:35:12Z</time>
      </trkpt>
      <trkpt lat="45.98174" lon="6.45046">
        <ele>1543.53</ele>
        <time>2019-09-14T13:35:14Z</time>
      </trkpt>
      <trkpt lat="45.98175" lon="6.45047">
        <ele>1544.01</ele>
        <time>2019-09-14T13:35:15Z</time>
      </trkpt>
      <trkpt lat="45.98175" lon="6.45048">
        <ele>1547.38</ele>
        <time>2019-09-14T13:35:16Z</time>
      </trkpt>
      <trkpt lat="45.98177" lon="6.45055">
        <ele>1544.5</ele>
        <time>2019-09-14T13:35:21Z</time>
      </trkpt>
      <trkpt lat="45.98178" lon="6.45061">
        <ele>1546.9</ele>
        <time>2019-09-14T13:35:25Z</time>
      </trkpt>
      <trkpt lat="45.98179" lon="6.45064">
        <ele>1543.53</ele>
        <time>2019-09-14T13:35:27Z</time>
      </trkpt>
      <trkpt lat="45.9818" lon="6.45066">
        <ele>1548.34</ele>
        <time>2019-09-14T13:35:29Z</time>
      </trkpt>
      <trkpt lat="45.98181" lon="6.45068">
        <ele>1545.46</ele>
        <time>2019-09-14T13:35:30Z</time>
      </trkpt>
      <trkpt lat="45.98182" lon="6.45069">
        <ele>1541.61</ele>
        <time>2019-09-14T13:35:31Z</time>
      </trkpt>
      <trkpt lat="45.98182" lon="6.4507">
        <ele>1545.94</ele>
        <time>2019-09-14T13:35:32Z</time>
      </trkpt>
      <trkpt lat="45.98184" lon="6.45075">
        <ele>1545.46</ele>
        <time>2019-09-14T13:35:35Z</time>
      </trkpt>
      <trkpt lat="45.98185" lon="6.4508">
        <ele>1542.09</ele>
        <time>2019-09-14T13:35:38Z</time>
      </trkpt>
      <trkpt lat="45.98186" lon="6.45082">
        <ele>1542.09</ele>
        <time>2019-09-14T13:35:39Z</time>
      </trkpt>
      <trkpt lat="45.98186" lon="6.45083">
        <ele>1547.38</ele>
        <time>2019-09-14T13:35:40Z</time>
      </trkpt>
      <trkpt lat="45.98187" lon="6.45084">
        <ele>1545.94</ele>
        <time>2019-09-14T13:35:41Z</time>
      </trkpt>
      <trkpt lat="45.98191" lon="6.45089">
        <ele>1541.61</ele>
        <time>2019-09-14T13:35:45Z</time>
      </trkpt>
      <trkpt lat="45.98191" lon="6.4509">
        <ele>1541.61</ele>
        <time>2019-09-14T13:35:46Z</time>
      </trkpt>
      <trkpt lat="45.98192" lon="6.45092">
        <ele>1544.5</ele>
        <time>2019-09-14T13:35:48Z</time>
      </trkpt>
      <trkpt lat="45.98192" lon="6.45095">
        <ele>1541.61</ele>
        <time>2019-09-14T13:35:50Z</time>
      </trkpt>
      <trkpt lat="45.98193" lon="6.45096">
        <ele>1541.61</ele>
        <time>2019-09-14T13:35:51Z</time>
      </trkpt>
      <trkpt lat="45.98193" lon="6.45099">
        <ele>1544.01</ele>
        <time>2019-09-14T13:35:53Z</time>
      </trkpt>
      <trkpt lat="45.98193" lon="6.45104">
        <ele>1544.98</ele>
        <time>2019-09-14T13:35:58Z</time>
      </trkpt>
      <trkpt lat="45.98193" lon="6.45107">
        <ele>1541.13</ele>
        <time>2019-09-14T13:36:00Z</time>
      </trkpt>
      <trkpt lat="45.98194" lon="6.45108">
        <ele>1538.73</ele>
        <time>2019-09-14T13:36:01Z</time>
      </trkpt>
      <trkpt lat="45.98196" lon="6.45111">
        <ele>1542.57</ele>
        <time>2019-09-14T13:36:04Z</time>
      </trkpt>
      <trkpt lat="45.98197" lon="6.45112">
        <ele>1536.32</ele>
        <time>2019-09-14T13:36:05Z</time>
      </trkpt>
      <trkpt lat="45.98198" lon="6.45112">
        <ele>1540.65</ele>
        <time>2019-09-14T13:36:06Z</time>
      </trkpt>
      <trkpt lat="45.98198" lon="6.45113">
        <ele>1542.09</ele>
        <time>2019-09-14T13:36:07Z</time>
      </trkpt>
      <trkpt lat="45.98199" lon="6.45119">
        <ele>1535.84</ele>
        <time>2019-09-14T13:36:10Z</time>
      </trkpt>
      <trkpt lat="45.98199" lon="6.4512">
        <ele>1537.77</ele>
        <time>2019-09-14T13:36:11Z</time>
      </trkpt>
      <trkpt lat="45.982" lon="6.45135">
        <ele>1538.25</ele>
        <time>2019-09-14T13:36:21Z</time>
      </trkpt>
      <trkpt lat="45.982" lon="6.45137">
        <ele>1538.73</ele>
        <time>2019-09-14T13:36:22Z</time>
      </trkpt>
      <trkpt lat="45.98203" lon="6.45145">
        <ele>1539.69</ele>
        <time>2019-09-14T13:36:28Z</time>
      </trkpt>
      <trkpt lat="45.98205" lon="6.45151">
        <ele>1537.29</ele>
        <time>2019-09-14T13:36:33Z</time>
      </trkpt>
      <trkpt lat="45.98206" lon="6.45153">
        <ele>1538.73</ele>
        <time>2019-09-14T13:36:35Z</time>
      </trkpt>
      <trkpt lat="45.98206" lon="6.45154">
        <ele>1536.32</ele>
        <time>2019-09-14T13:36:36Z</time>
      </trkpt>
      <trkpt lat="45.98208" lon="6.45156">
        <ele>1538.25</ele>
        <time>2019-09-14T13:36:38Z</time>
      </trkpt>
      <trkpt lat="45.9821" lon="6.45159">
        <ele>1541.61</ele>
        <time>2019-09-14T13:36:40Z</time>
      </trkpt>
      <trkpt lat="45.9821" lon="6.4516">
        <ele>1537.77</ele>
        <time>2019-09-14T13:36:41Z</time>
      </trkpt>
      <trkpt lat="45.98214" lon="6.45165">
        <ele>1535.84</ele>
        <time>2019-09-14T13:36:45Z</time>
      </trkpt>
      <trkpt lat="45.98215" lon="6.45167">
        <ele>1541.13</ele>
        <time>2019-09-14T13:36:47Z</time>
      </trkpt>
      <trkpt lat="45.98216" lon="6.45169">
        <ele>1539.69</ele>
        <time>2019-09-14T13:36:48Z</time>
      </trkpt>
      <trkpt lat="45.98217" lon="6.4517">
        <ele>1534.88</ele>
        <time>2019-09-14T13:36:49Z</time>
      </trkpt>
      <trkpt lat="45.98218" lon="6.45172">
        <ele>1538.25</ele>
        <time>2019-09-14T13:36:50Z</time>
      </trkpt>
      <trkpt lat="45.98219" lon="6.45174">
        <ele>1539.69</ele>
        <time>2019-09-14T13:36:52Z</time>
      </trkpt>
      <trkpt lat="45.9822" lon="6.45175">
        <ele>1534.88</ele>
        <time>2019-09-14T13:36:53Z</time>
      </trkpt>
      <trkpt lat="45.98221" lon="6.45175">
        <ele>1537.29</ele>
        <time>2019-09-14T13:36:54Z</time>
      </trkpt>
      <trkpt lat="45.98222" lon="6.45177">
        <ele>1538.25</ele>
        <time>2019-09-14T13:36:56Z</time>
      </trkpt>
      <trkpt lat="45.98225" lon="6.45182">
        <ele>1540.17</ele>
        <time>2019-09-14T13:37:00Z</time>
      </trkpt>
      <trkpt lat="45.98226" lon="6.45185">
        <ele>1538.73</ele>
        <time>2019-09-14T13:37:02Z</time>
      </trkpt>
      <trkpt lat="45.98227" lon="6.45189">
        <ele>1535.84</ele>
        <time>2019-09-14T13:37:05Z</time>
      </trkpt>
      <trkpt lat="45.98229" lon="6.45191">
        <ele>1539.21</ele>
        <time>2019-09-14T13:37:07Z</time>
      </trkpt>
      <trkpt lat="45.98231" lon="6.45194">
        <ele>1534.4</ele>
        <time>2019-09-14T13:37:10Z</time>
      </trkpt>
      <trkpt lat="45.98231" lon="6.45195">
        <ele>1541.13</ele>
        <time>2019-09-14T13:37:11Z</time>
      </trkpt>
      <trkpt lat="45.98232" lon="6.45196">
        <ele>1540.17</ele>
        <time>2019-09-14T13:37:12Z</time>
      </trkpt>
      <trkpt lat="45.98233" lon="6.45197">
        <ele>1535.84</ele>
        <time>2019-09-14T13:37:13Z</time>
      </trkpt>
      <trkpt lat="45.98233" lon="6.45197">
        <ele>1537.77</ele>
        <time>2019-09-14T13:37:14Z</time>
      </trkpt>
      <trkpt lat="45.98234" lon="6.45199">
        <ele>1540.17</ele>
        <time>2019-09-14T13:37:16Z</time>
      </trkpt>
      <trkpt lat="45.98234" lon="6.45201">
        <ele>1540.65</ele>
        <time>2019-09-14T13:37:18Z</time>
      </trkpt>
      <trkpt lat="45.98235" lon="6.45202">
        <ele>1536.8</ele>
        <time>2019-09-14T13:37:19Z</time>
      </trkpt>
      <trkpt lat="45.98236" lon="6.45205">
        <ele>1538.25</ele>
        <time>2019-09-14T13:37:22Z</time>
      </trkpt>
      <trkpt lat="45.98237" lon="6.45207">
        <ele>1539.69</ele>
        <time>2019-09-14T13:37:24Z</time>
      </trkpt>
      <trkpt lat="45.98239" lon="6.4521">
        <ele>1534.4</ele>
        <time>2019-09-14T13:37:26Z</time>
      </trkpt>
      <trkpt lat="45.9824" lon="6.45212">
        <ele>1539.69</ele>
        <time>2019-09-14T13:37:29Z</time>
      </trkpt>
      <trkpt lat="45.98241" lon="6.45215">
        <ele>1536.32</ele>
        <time>2019-09-14T13:37:31Z</time>
      </trkpt>
      <trkpt lat="45.98241" lon="6.45216">
        <ele>1538.73</ele>
        <time>2019-09-14T13:37:32Z</time>
      </trkpt>
      <trkpt lat="45.98243" lon="6.45218">
        <ele>1537.29</ele>
        <time>2019-09-14T13:37:34Z</time>
      </trkpt>
      <trkpt lat="45.98244" lon="6.4522">
        <ele>1539.21</ele>
        <time>2019-09-14T13:37:35Z</time>
      </trkpt>
      <trkpt lat="45.98244" lon="6.45224">
        <ele>1535.84</ele>
        <time>2019-09-14T13:37:38Z</time>
      </trkpt>
      <trkpt lat="45.98245" lon="6.45226">
        <ele>1537.29</ele>
        <time>2019-09-14T13:37:39Z</time>
      </trkpt>
      <trkpt lat="45.98245" lon="6.45229">
        <ele>1539.21</ele>
        <time>2019-09-14T13:37:41Z</time>
      </trkpt>
      <trkpt lat="45.98246" lon="6.4523">
        <ele>1535.36</ele>
        <time>2019-09-14T13:37:42Z</time>
      </trkpt>
      <trkpt lat="45.98246" lon="6.45232">
        <ele>1539.21</ele>
        <time>2019-09-14T13:37:43Z</time>
      </trkpt>
      <trkpt lat="45.98246" lon="6.45235">
        <ele>1540.17</ele>
        <time>2019-09-14T13:37:45Z</time>
      </trkpt>
      <trkpt lat="45.98247" lon="6.45237">
        <ele>1539.69</ele>
        <time>2019-09-14T13:37:47Z</time>
      </trkpt>
      <trkpt lat="45.98248" lon="6.45241">
        <ele>1537.29</ele>
        <time>2019-09-14T13:37:50Z</time>
      </trkpt>
      <trkpt lat="45.98251" lon="6.45248">
        <ele>1536.8</ele>
        <time>2019-09-14T13:37:58Z</time>
      </trkpt>
      <trkpt lat="45.98258" lon="6.45262">
        <ele>1532.48</ele>
        <time>2019-09-14T13:38:09Z</time>
      </trkpt>
      <trkpt lat="45.98259" lon="6.45263">
        <ele>1536.32</ele>
        <time>2019-09-14T13:38:10Z</time>
      </trkpt>
      <trkpt lat="45.9826" lon="6.45268">
        <ele>1532</ele>
        <time>2019-09-14T13:38:13Z</time>
      </trkpt>
      <trkpt lat="45.98261" lon="6.45269">
        <ele>1536.8</ele>
        <time>2019-09-14T13:38:14Z</time>
      </trkpt>
      <trkpt lat="45.98262" lon="6.45271">
        <ele>1533.92</ele>
        <time>2019-09-14T13:38:16Z</time>
      </trkpt>
      <trkpt lat="45.98263" lon="6.45272">
        <ele>1537.29</ele>
        <time>2019-09-14T13:38:18Z</time>
      </trkpt>
      <trkpt lat="45.98264" lon="6.45273">
        <ele>1536.8</ele>
        <time>2019-09-14T13:38:19Z</time>
      </trkpt>
      <trkpt lat="45.98267" lon="6.45277">
        <ele>1536.8</ele>
        <time>2019-09-14T13:38:25Z</time>
      </trkpt>
      <trkpt lat="45.98269" lon="6.45281">
        <ele>1534.4</ele>
        <time>2019-09-14T13:38:28Z</time>
      </trkpt>
      <trkpt lat="45.98269" lon="6.45282">
        <ele>1531.04</ele>
        <time>2019-09-14T13:38:30Z</time>
      </trkpt>
      <trkpt lat="45.9827" lon="6.45283">
        <ele>1534.4</ele>
        <time>2019-09-14T13:38:31Z</time>
      </trkpt>
      <trkpt lat="45.98272" lon="6.45291">
        <ele>1532.48</ele>
        <time>2019-09-14T13:38:37Z</time>
      </trkpt>
      <trkpt lat="45.98279" lon="6.45302">
        <ele>1530.56</ele>
        <time>2019-09-14T13:38:47Z</time>
      </trkpt>
      <trkpt lat="45.9828" lon="6.45305">
        <ele>1526.71</ele>
        <time>2019-09-14T13:38:49Z</time>
      </trkpt>
      <trkpt lat="45.98281" lon="6.45306">
        <ele>1528.63</ele>
        <time>2019-09-14T13:38:50Z</time>
      </trkpt>
      <trkpt lat="45.98284" lon="6.45311">
        <ele>1531.04</ele>
        <time>2019-09-14T13:38:54Z</time>
      </trkpt>
      <trkpt lat="45.98285" lon="6.45313">
        <ele>1530.56</ele>
        <time>2019-09-14T13:38:56Z</time>
      </trkpt>
      <trkpt lat="45.98286" lon="6.45315">
        <ele>1527.19</ele>
        <time>2019-09-14T13:38:58Z</time>
      </trkpt>
      <trkpt lat="45.98292" lon="6.45319">
        <ele>1526.23</ele>
        <time>2019-09-14T13:39:04Z</time>
      </trkpt>
      <trkpt lat="45.98293" lon="6.4532">
        <ele>1527.67</ele>
        <time>2019-09-14T13:39:06Z</time>
      </trkpt>
      <trkpt lat="45.98294" lon="6.45321">
        <ele>1522.87</ele>
        <time>2019-09-14T13:39:07Z</time>
      </trkpt>
      <trkpt lat="45.98297" lon="6.45323">
        <ele>1527.67</ele>
        <time>2019-09-14T13:39:09Z</time>
      </trkpt>
      <trkpt lat="45.98298" lon="6.45323">
        <ele>1527.19</ele>
        <time>2019-09-14T13:39:10Z</time>
      </trkpt>
      <trkpt lat="45.98299" lon="6.45325">
        <ele>1522.87</ele>
        <time>2019-09-14T13:39:12Z</time>
      </trkpt>
      <trkpt lat="45.98303" lon="6.45336">
        <ele>1522.39</ele>
        <time>2019-09-14T13:39:19Z</time>
      </trkpt>
      <trkpt lat="45.98304" lon="6.45339">
        <ele>1526.71</ele>
        <time>2019-09-14T13:39:22Z</time>
      </trkpt>
      <trkpt lat="45.98304" lon="6.45341">
        <ele>1526.23</ele>
        <time>2019-09-14T13:39:23Z</time>
      </trkpt>
      <trkpt lat="45.98305" lon="6.45344">
        <ele>1522.87</ele>
        <time>2019-09-14T13:39:25Z</time>
      </trkpt>
      <trkpt lat="45.98307" lon="6.45353">
        <ele>1519.98</ele>
        <time>2019-09-14T13:39:32Z</time>
      </trkpt>
      <trkpt lat="45.98307" lon="6.45359">
        <ele>1523.83</ele>
        <time>2019-09-14T13:39:35Z</time>
      </trkpt>
      <trkpt lat="45.98307" lon="6.45364">
        <ele>1518.54</ele>
        <time>2019-09-14T13:39:38Z</time>
      </trkpt>
      <trkpt lat="45.98307" lon="6.45365">
        <ele>1521.42</ele>
        <time>2019-09-14T13:39:39Z</time>
      </trkpt>
      <trkpt lat="45.98308" lon="6.45369">
        <ele>1525.27</ele>
        <time>2019-09-14T13:39:41Z</time>
      </trkpt>
      <trkpt lat="45.98308" lon="6.45372">
        <ele>1518.54</ele>
        <time>2019-09-14T13:39:43Z</time>
      </trkpt>
      <trkpt lat="45.98308" lon="6.45373">
        <ele>1521.9</ele>
        <time>2019-09-14T13:39:44Z</time>
      </trkpt>
      <trkpt lat="45.98308" lon="6.45375">
        <ele>1518.06</ele>
        <time>2019-09-14T13:39:45Z</time>
      </trkpt>
      <trkpt lat="45.98309" lon="6.45377">
        <ele>1523.83</ele>
        <time>2019-09-14T13:39:46Z</time>
      </trkpt>
      <trkpt lat="45.98309" lon="6.45378">
        <ele>1523.83</ele>
        <time>2019-09-14T13:39:47Z</time>
      </trkpt>
      <trkpt lat="45.98311" lon="6.45385">
        <ele>1520.46</ele>
        <time>2019-09-14T13:39:51Z</time>
      </trkpt>
      <trkpt lat="45.98311" lon="6.45386">
        <ele>1516.62</ele>
        <time>2019-09-14T13:39:52Z</time>
      </trkpt>
      <trkpt lat="45.98312" lon="6.45388">
        <ele>1519.98</ele>
        <time>2019-09-14T13:39:53Z</time>
      </trkpt>
      <trkpt lat="45.98313" lon="6.45392">
        <ele>1524.31</ele>
        <time>2019-09-14T13:39:55Z</time>
      </trkpt>
      <trkpt lat="45.98313" lon="6.45394">
        <ele>1520.46</ele>
        <time>2019-09-14T13:39:56Z</time>
      </trkpt>
      <trkpt lat="45.98314" lon="6.45397">
        <ele>1523.83</ele>
        <time>2019-09-14T13:39:58Z</time>
      </trkpt>
      <trkpt lat="45.98316" lon="6.45402">
        <ele>1517.58</ele>
        <time>2019-09-14T13:40:01Z</time>
      </trkpt>
      <trkpt lat="45.98316" lon="6.45403">
        <ele>1521.42</ele>
        <time>2019-09-14T13:40:02Z</time>
      </trkpt>
      <trkpt lat="45.98317" lon="6.45407">
        <ele>1523.35</ele>
        <time>2019-09-14T13:40:04Z</time>
      </trkpt>
      <trkpt lat="45.98318" lon="6.45409">
        <ele>1519.98</ele>
        <time>2019-09-14T13:40:05Z</time>
      </trkpt>
      <trkpt lat="45.9832" lon="6.45416">
        <ele>1522.87</ele>
        <time>2019-09-14T13:40:11Z</time>
      </trkpt>
      <trkpt lat="45.98321" lon="6.45416">
        <ele>1520.46</ele>
        <time>2019-09-14T13:40:12Z</time>
      </trkpt>
      <trkpt lat="45.98321" lon="6.4542">
        <ele>1523.83</ele>
        <time>2019-09-14T13:40:14Z</time>
      </trkpt>
      <trkpt lat="45.98321" lon="6.45421">
        <ele>1523.83</ele>
        <time>2019-09-14T13:40:15Z</time>
      </trkpt>
      <trkpt lat="45.98323" lon="6.45428">
        <ele>1519.02</ele>
        <time>2019-09-14T13:40:19Z</time>
      </trkpt>
      <trkpt lat="45.98324" lon="6.4543">
        <ele>1522.87</ele>
        <time>2019-09-14T13:40:20Z</time>
      </trkpt>
      <trkpt lat="45.98325" lon="6.45437">
        <ele>1517.58</ele>
        <time>2019-09-14T13:40:24Z</time>
      </trkpt>
      <trkpt lat="45.98325" lon="6.45438">
        <ele>1522.87</ele>
        <time>2019-09-14T13:40:25Z</time>
      </trkpt>
      <trkpt lat="45.98325" lon="6.4544">
        <ele>1523.35</ele>
        <time>2019-09-14T13:40:26Z</time>
      </trkpt>
      <trkpt lat="45.98326" lon="6.45441">
        <ele>1519.5</ele>
        <time>2019-09-14T13:40:27Z</time>
      </trkpt>
      <trkpt lat="45.98327" lon="6.45444">
        <ele>1522.39</ele>
        <time>2019-09-14T13:40:30Z</time>
      </trkpt>
      <trkpt lat="45.98328" lon="6.45445">
        <ele>1522.87</ele>
        <time>2019-09-14T13:40:31Z</time>
      </trkpt>
      <trkpt lat="45.98328" lon="6.45448">
        <ele>1523.35</ele>
        <time>2019-09-14T13:40:33Z</time>
      </trkpt>
      <trkpt lat="45.98329" lon="6.45451">
        <ele>1520.94</ele>
        <time>2019-09-14T13:40:35Z</time>
      </trkpt>
      <trkpt lat="45.98329" lon="6.45454">
        <ele>1522.87</ele>
        <time>2019-09-14T13:40:37Z</time>
      </trkpt>
      <trkpt lat="45.98329" lon="6.45455">
        <ele>1518.06</ele>
        <time>2019-09-14T13:40:38Z</time>
      </trkpt>
      <trkpt lat="45.98329" lon="6.45457">
        <ele>1520.94</ele>
        <time>2019-09-14T13:40:39Z</time>
      </trkpt>
      <trkpt lat="45.9833" lon="6.4546">
        <ele>1521.9</ele>
        <time>2019-09-14T13:40:42Z</time>
      </trkpt>
      <trkpt lat="45.98332" lon="6.45464">
        <ele>1521.42</ele>
        <time>2019-09-14T13:40:45Z</time>
      </trkpt>
      <trkpt lat="45.98333" lon="6.45469">
        <ele>1519.02</ele>
        <time>2019-09-14T13:40:48Z</time>
      </trkpt>
      <trkpt lat="45.98335" lon="6.45472">
        <ele>1521.9</ele>
        <time>2019-09-14T13:40:51Z</time>
      </trkpt>
      <trkpt lat="45.98336" lon="6.45475">
        <ele>1517.58</ele>
        <time>2019-09-14T13:40:53Z</time>
      </trkpt>
      <trkpt lat="45.98338" lon="6.45476">
        <ele>1519.02</ele>
        <time>2019-09-14T13:40:55Z</time>
      </trkpt>
      <trkpt lat="45.98342" lon="6.4548">
        <ele>1515.18</ele>
        <time>2019-09-14T13:40:59Z</time>
      </trkpt>
      <trkpt lat="45.98342" lon="6.45481">
        <ele>1518.54</ele>
        <time>2019-09-14T13:41:00Z</time>
      </trkpt>
      <trkpt lat="45.98343" lon="6.45483">
        <ele>1521.9</ele>
        <time>2019-09-14T13:41:01Z</time>
      </trkpt>
      <trkpt lat="45.98344" lon="6.45484">
        <ele>1521.9</ele>
        <time>2019-09-14T13:41:02Z</time>
      </trkpt>
      <trkpt lat="45.98345" lon="6.45486">
        <ele>1516.62</ele>
        <time>2019-09-14T13:41:03Z</time>
      </trkpt>
      <trkpt lat="45.98346" lon="6.45486">
        <ele>1519.5</ele>
        <time>2019-09-14T13:41:04Z</time>
      </trkpt>
      <trkpt lat="45.98348" lon="6.45488">
        <ele>1521.42</ele>
        <time>2019-09-14T13:41:06Z</time>
      </trkpt>
      <trkpt lat="45.98349" lon="6.45489">
        <ele>1516.62</ele>
        <time>2019-09-14T13:41:07Z</time>
      </trkpt>
      <trkpt lat="45.9835" lon="6.45489">
        <ele>1521.42</ele>
        <time>2019-09-14T13:41:08Z</time>
      </trkpt>
      <trkpt lat="45.98351" lon="6.4549">
        <ele>1516.14</ele>
        <time>2019-09-14T13:41:09Z</time>
      </trkpt>
      <trkpt lat="45.98352" lon="6.45491">
        <ele>1520.46</ele>
        <time>2019-09-14T13:41:10Z</time>
      </trkpt>
      <trkpt lat="45.98356" lon="6.45492">
        <ele>1516.62</ele>
        <time>2019-09-14T13:41:13Z</time>
      </trkpt>
      <trkpt lat="45.98356" lon="6.45493">
        <ele>1519.02</ele>
        <time>2019-09-14T13:41:14Z</time>
      </trkpt>
      <trkpt lat="45.98357" lon="6.45494">
        <ele>1522.39</ele>
        <time>2019-09-14T13:41:15Z</time>
      </trkpt>
      <trkpt lat="45.98358" lon="6.45495">
        <ele>1519.02</ele>
        <time>2019-09-14T13:41:16Z</time>
      </trkpt>
      <trkpt lat="45.98362" lon="6.45501">
        <ele>1522.39</ele>
        <time>2019-09-14T13:41:22Z</time>
      </trkpt>
      <trkpt lat="45.98364" lon="6.45503">
        <ele>1519.5</ele>
        <time>2019-09-14T13:41:24Z</time>
      </trkpt>
      <trkpt lat="45.98365" lon="6.45504">
        <ele>1522.39</ele>
        <time>2019-09-14T13:41:25Z</time>
      </trkpt>
      <trkpt lat="45.98366" lon="6.45505">
        <ele>1519.5</ele>
        <time>2019-09-14T13:41:27Z</time>
      </trkpt>
      <trkpt lat="45.98367" lon="6.45507">
        <ele>1520.46</ele>
        <time>2019-09-14T13:41:28Z</time>
      </trkpt>
      <trkpt lat="45.98368" lon="6.45509">
        <ele>1524.31</ele>
        <time>2019-09-14T13:41:30Z</time>
      </trkpt>
      <trkpt lat="45.98369" lon="6.4551">
        <ele>1524.31</ele>
        <time>2019-09-14T13:41:31Z</time>
      </trkpt>
      <trkpt lat="45.98371" lon="6.45512">
        <ele>1518.54</ele>
        <time>2019-09-14T13:41:33Z</time>
      </trkpt>
      <trkpt lat="45.98372" lon="6.45514">
        <ele>1519.5</ele>
        <time>2019-09-14T13:41:34Z</time>
      </trkpt>
      <trkpt lat="45.98372" lon="6.45515">
        <ele>1522.87</ele>
        <time>2019-09-14T13:41:35Z</time>
      </trkpt>
      <trkpt lat="45.98374" lon="6.45519">
        <ele>1517.58</ele>
        <time>2019-09-14T13:41:38Z</time>
      </trkpt>
      <trkpt lat="45.98374" lon="6.4552">
        <ele>1520.46</ele>
        <time>2019-09-14T13:41:39Z</time>
      </trkpt>
      <trkpt lat="45.98375" lon="6.45523">
        <ele>1521.42</ele>
        <time>2019-09-14T13:41:41Z</time>
      </trkpt>
      <trkpt lat="45.98377" lon="6.45526">
        <ele>1518.06</ele>
        <time>2019-09-14T13:41:44Z</time>
      </trkpt>
      <trkpt lat="45.98378" lon="6.45528">
        <ele>1519.02</ele>
        <time>2019-09-14T13:41:45Z</time>
      </trkpt>
      <trkpt lat="45.9838" lon="6.4553">
        <ele>1524.31</ele>
        <time>2019-09-14T13:41:47Z</time>
      </trkpt>
      <trkpt lat="45.9838" lon="6.45532">
        <ele>1522.87</ele>
        <time>2019-09-14T13:41:48Z</time>
      </trkpt>
      <trkpt lat="45.98381" lon="6.45533">
        <ele>1518.06</ele>
        <time>2019-09-14T13:41:49Z</time>
      </trkpt>
      <trkpt lat="45.98383" lon="6.45534">
        <ele>1522.87</ele>
        <time>2019-09-14T13:41:51Z</time>
      </trkpt>
      <trkpt lat="45.98384" lon="6.45537">
        <ele>1518.06</ele>
        <time>2019-09-14T13:41:54Z</time>
      </trkpt>
      <trkpt lat="45.98385" lon="6.45539">
        <ele>1522.39</ele>
        <time>2019-09-14T13:41:55Z</time>
      </trkpt>
      <trkpt lat="45.98387" lon="6.45545">
        <ele>1522.87</ele>
        <time>2019-09-14T13:41:59Z</time>
      </trkpt>
      <trkpt lat="45.98388" lon="6.45547">
        <ele>1518.54</ele>
        <time>2019-09-14T13:42:00Z</time>
      </trkpt>
      <trkpt lat="45.98388" lon="6.45549">
        <ele>1518.54</ele>
        <time>2019-09-14T13:42:01Z</time>
      </trkpt>
      <trkpt lat="45.98388" lon="6.45551">
        <ele>1522.87</ele>
        <time>2019-09-14T13:42:02Z</time>
      </trkpt>
      <trkpt lat="45.98388" lon="6.45552">
        <ele>1519.98</ele>
        <time>2019-09-14T13:42:03Z</time>
      </trkpt>
      <trkpt lat="45.9839" lon="6.45555">
        <ele>1519.02</ele>
        <time>2019-09-14T13:42:05Z</time>
      </trkpt>
      <trkpt lat="45.98392" lon="6.45561">
        <ele>1522.39</ele>
        <time>2019-09-14T13:42:09Z</time>
      </trkpt>
      <trkpt lat="45.98393" lon="6.45563">
        <ele>1522.39</ele>
        <time>2019-09-14T13:42:10Z</time>
      </trkpt>
      <trkpt lat="45.98393" lon="6.45566">
        <ele>1518.54</ele>
        <time>2019-09-14T13:42:12Z</time>
      </trkpt>
      <trkpt lat="45.98393" lon="6.45567">
        <ele>1521.42</ele>
        <time>2019-09-14T13:42:13Z</time>
      </trkpt>
      <trkpt lat="45.98393" lon="6.45573">
        <ele>1521.9</ele>
        <time>2019-09-14T13:42:17Z</time>
      </trkpt>
      <trkpt lat="45.98393" lon="6.45574">
        <ele>1520.94</ele>
        <time>2019-09-14T13:42:18Z</time>
      </trkpt>
      <trkpt lat="45.98393" lon="6.45577">
        <ele>1519.02</ele>
        <time>2019-09-14T13:42:23Z</time>
      </trkpt>
      <trkpt lat="45.98391" lon="6.45579">
        <ele>1517.1</ele>
        <time>2019-09-14T13:42:26Z</time>
      </trkpt>
      <trkpt lat="45.9839" lon="6.45585">
        <ele>1516.14</ele>
        <time>2019-09-14T13:42:31Z</time>
      </trkpt>
      <trkpt lat="45.98393" lon="6.4559">
        <ele>1514.69</ele>
        <time>2019-09-14T13:42:37Z</time>
      </trkpt>
      <trkpt lat="45.98395" lon="6.45594">
        <ele>1517.58</ele>
        <time>2019-09-14T13:42:40Z</time>
      </trkpt>
      <trkpt lat="45.98398" lon="6.45602">
        <ele>1511.33</ele>
        <time>2019-09-14T13:42:45Z</time>
      </trkpt>
      <trkpt lat="45.98399" lon="6.45603">
        <ele>1513.25</ele>
        <time>2019-09-14T13:42:46Z</time>
      </trkpt>
      <trkpt lat="45.984" lon="6.45606">
        <ele>1517.1</ele>
        <time>2019-09-14T13:42:48Z</time>
      </trkpt>
      <trkpt lat="45.984" lon="6.45607">
        <ele>1512.77</ele>
        <time>2019-09-14T13:42:49Z</time>
      </trkpt>
      <trkpt lat="45.98402" lon="6.45613">
        <ele>1515.66</ele>
        <time>2019-09-14T13:42:53Z</time>
      </trkpt>
      <trkpt lat="45.98405" lon="6.45619">
        <ele>1511.81</ele>
        <time>2019-09-14T13:42:57Z</time>
      </trkpt>
      <trkpt lat="45.98407" lon="6.45621">
        <ele>1514.69</ele>
        <time>2019-09-14T13:42:59Z</time>
      </trkpt>
      <trkpt lat="45.98409" lon="6.45624">
        <ele>1507.97</ele>
        <time>2019-09-14T13:43:03Z</time>
      </trkpt>
      <trkpt lat="45.98409" lon="6.45626">
        <ele>1513.73</ele>
        <time>2019-09-14T13:43:04Z</time>
      </trkpt>
      <trkpt lat="45.9841" lon="6.45629">
        <ele>1508.93</ele>
        <time>2019-09-14T13:43:07Z</time>
      </trkpt>
      <trkpt lat="45.9841" lon="6.4563">
        <ele>1514.69</ele>
        <time>2019-09-14T13:43:08Z</time>
      </trkpt>
      <trkpt lat="45.9841" lon="6.45631">
        <ele>1511.33</ele>
        <time>2019-09-14T13:43:09Z</time>
      </trkpt>
      <trkpt lat="45.98411" lon="6.45632">
        <ele>1515.66</ele>
        <time>2019-09-14T13:43:12Z</time>
      </trkpt>
      <trkpt lat="45.98411" lon="6.45633">
        <ele>1511.81</ele>
        <time>2019-09-14T13:43:13Z</time>
      </trkpt>
      <trkpt lat="45.98411" lon="6.45635">
        <ele>1511.81</ele>
        <time>2019-09-14T13:43:19Z</time>
      </trkpt>
      <trkpt lat="45.98412" lon="6.45635">
        <ele>1512.29</ele>
        <time>2019-09-14T13:43:41Z</time>
      </trkpt>
      <trkpt lat="45.98413" lon="6.45637">
        <ele>1510.37</ele>
        <time>2019-09-14T13:44:00Z</time>
      </trkpt>
      <trkpt lat="45.98413" lon="6.45636">
        <ele>1513.73</ele>
        <time>2019-09-14T13:44:18Z</time>
      </trkpt>
      <trkpt lat="45.98413" lon="6.45636">
        <ele>1513.73</ele>
        <time>2019-09-14T13:44:19Z</time>
      </trkpt>
      <trkpt lat="45.98413" lon="6.45637">
        <ele>1508.93</ele>
        <time>2019-09-14T13:44:21Z</time>
      </trkpt>
      <trkpt lat="45.98412" lon="6.45638">
        <ele>1510.85</ele>
        <time>2019-09-14T13:44:22Z</time>
      </trkpt>
      <trkpt lat="45.98412" lon="6.45638">
        <ele>1511.33</ele>
        <time>2019-09-14T13:44:41Z</time>
      </trkpt>
      <trkpt lat="45.98412" lon="6.45639">
        <ele>1512.29</ele>
        <time>2019-09-14T13:44:55Z</time>
      </trkpt>
      <trkpt lat="45.98412" lon="6.45639">
        <ele>1511.33</ele>
        <time>2019-09-14T13:45:14Z</time>
      </trkpt>
      <trkpt lat="45.98412" lon="6.45639">
        <ele>1510.85</ele>
        <time>2019-09-14T13:45:36Z</time>
      </trkpt>
      <trkpt lat="45.98412" lon="6.45639">
        <ele>1511.33</ele>
        <time>2019-09-14T13:45:54Z</time>
      </trkpt>
      <trkpt lat="45.98412" lon="6.45639">
        <ele>1511.33</ele>
        <time>2019-09-14T13:46:09Z</time>
      </trkpt>
      <trkpt lat="45.98412" lon="6.45639">
        <ele>1510.85</ele>
        <time>2019-09-14T13:46:23Z</time>
      </trkpt>
      <trkpt lat="45.98411" lon="6.45644">
        <ele>1511.33</ele>
        <time>2019-09-14T13:46:35Z</time>
      </trkpt>
      <trkpt lat="45.9841" lon="6.45646">
        <ele>1507.48</ele>
        <time>2019-09-14T13:46:37Z</time>
      </trkpt>
      <trkpt lat="45.98409" lon="6.45646">
        <ele>1510.85</ele>
        <time>2019-09-14T13:46:38Z</time>
      </trkpt>
      <trkpt lat="45.98408" lon="6.45647">
        <ele>1511.33</ele>
        <time>2019-09-14T13:46:39Z</time>
      </trkpt>
      <trkpt lat="45.98406" lon="6.45651">
        <ele>1507.97</ele>
        <time>2019-09-14T13:46:42Z</time>
      </trkpt>
      <trkpt lat="45.98402" lon="6.45661">
        <ele>1507.48</ele>
        <time>2019-09-14T13:46:53Z</time>
      </trkpt>
      <trkpt lat="45.98402" lon="6.45664">
        <ele>1506.04</ele>
        <time>2019-09-14T13:46:55Z</time>
      </trkpt>
      <trkpt lat="45.98401" lon="6.45669">
        <ele>1502.2</ele>
        <time>2019-09-14T13:46:59Z</time>
      </trkpt>
      <trkpt lat="45.984" lon="6.45672">
        <ele>1506.52</ele>
        <time>2019-09-14T13:47:01Z</time>
      </trkpt>
      <trkpt lat="45.984" lon="6.45675">
        <ele>1502.68</ele>
        <time>2019-09-14T13:47:03Z</time>
      </trkpt>
      <trkpt lat="45.98399" lon="6.45676">
        <ele>1503.16</ele>
        <time>2019-09-14T13:47:04Z</time>
      </trkpt>
      <trkpt lat="45.98395" lon="6.45691">
        <ele>1502.2</ele>
        <time>2019-09-14T13:47:13Z</time>
      </trkpt>
      <trkpt lat="45.98393" lon="6.45703">
        <ele>1500.76</ele>
        <time>2019-09-14T13:47:21Z</time>
      </trkpt>
      <trkpt lat="45.98394" lon="6.45708">
        <ele>1498.35</ele>
        <time>2019-09-14T13:47:24Z</time>
      </trkpt>
      <trkpt lat="45.98395" lon="6.45716">
        <ele>1499.31</ele>
        <time>2019-09-14T13:47:29Z</time>
      </trkpt>
      <trkpt lat="45.98395" lon="6.4572">
        <ele>1496.91</ele>
        <time>2019-09-14T13:47:31Z</time>
      </trkpt>
      <trkpt lat="45.98395" lon="6.45721">
        <ele>1497.87</ele>
        <time>2019-09-14T13:47:32Z</time>
      </trkpt>
      <trkpt lat="45.98396" lon="6.45726">
        <ele>1497.87</ele>
        <time>2019-09-14T13:47:35Z</time>
      </trkpt>
      <trkpt lat="45.98396" lon="6.45732">
        <ele>1494.03</ele>
        <time>2019-09-14T13:47:40Z</time>
      </trkpt>
      <trkpt lat="45.98396" lon="6.45734">
        <ele>1494.51</ele>
        <time>2019-09-14T13:47:41Z</time>
      </trkpt>
      <trkpt lat="45.98396" lon="6.45742">
        <ele>1493.55</ele>
        <time>2019-09-14T13:47:47Z</time>
      </trkpt>
      <trkpt lat="45.98396" lon="6.45747">
        <ele>1494.03</ele>
        <time>2019-09-14T13:47:51Z</time>
      </trkpt>
      <trkpt lat="45.98396" lon="6.45751">
        <ele>1490.66</ele>
        <time>2019-09-14T13:47:54Z</time>
      </trkpt>
      <trkpt lat="45.98396" lon="6.45752">
        <ele>1494.51</ele>
        <time>2019-09-14T13:47:55Z</time>
      </trkpt>
      <trkpt lat="45.98395" lon="6.45755">
        <ele>1490.18</ele>
        <time>2019-09-14T13:47:57Z</time>
      </trkpt>
      <trkpt lat="45.98395" lon="6.45761">
        <ele>1489.22</ele>
        <time>2019-09-14T13:48:02Z</time>
      </trkpt>
      <trkpt lat="45.98395" lon="6.45763">
        <ele>1490.66</ele>
        <time>2019-09-14T13:48:04Z</time>
      </trkpt>
      <trkpt lat="45.98398" lon="6.45771">
        <ele>1484.89</ele>
        <time>2019-09-14T13:48:09Z</time>
      </trkpt>
      <trkpt lat="45.98399" lon="6.45772">
        <ele>1491.14</ele>
        <time>2019-09-14T13:48:10Z</time>
      </trkpt>
      <trkpt lat="45.984" lon="6.45772">
        <ele>1487.3</ele>
        <time>2019-09-14T13:48:11Z</time>
      </trkpt>
      <trkpt lat="45.98401" lon="6.45773">
        <ele>1486.82</ele>
        <time>2019-09-14T13:48:12Z</time>
      </trkpt>
      <trkpt lat="45.98402" lon="6.45774">
        <ele>1490.18</ele>
        <time>2019-09-14T13:48:14Z</time>
      </trkpt>
      <trkpt lat="45.98404" lon="6.45776">
        <ele>1486.82</ele>
        <time>2019-09-14T13:48:16Z</time>
      </trkpt>
      <trkpt lat="45.98405" lon="6.45776">
        <ele>1483.45</ele>
        <time>2019-09-14T13:48:17Z</time>
      </trkpt>
      <trkpt lat="45.9841" lon="6.45779">
        <ele>1489.7</ele>
        <time>2019-09-14T13:48:21Z</time>
      </trkpt>
      <trkpt lat="45.98411" lon="6.4578">
        <ele>1484.41</ele>
        <time>2019-09-14T13:48:23Z</time>
      </trkpt>
      <trkpt lat="45.98413" lon="6.45781">
        <ele>1487.78</ele>
        <time>2019-09-14T13:48:24Z</time>
      </trkpt>
      <trkpt lat="45.98415" lon="6.45781">
        <ele>1484.41</ele>
        <time>2019-09-14T13:48:26Z</time>
      </trkpt>
      <trkpt lat="45.98417" lon="6.45783">
        <ele>1483.93</ele>
        <time>2019-09-14T13:48:28Z</time>
      </trkpt>
      <trkpt lat="45.98418" lon="6.45783">
        <ele>1487.78</ele>
        <time>2019-09-14T13:48:30Z</time>
      </trkpt>
      <trkpt lat="45.98419" lon="6.45785">
        <ele>1484.41</ele>
        <time>2019-09-14T13:48:32Z</time>
      </trkpt>
      <trkpt lat="45.98423" lon="6.45787">
        <ele>1488.74</ele>
        <time>2019-09-14T13:48:39Z</time>
      </trkpt>
      <trkpt lat="45.98424" lon="6.45787">
        <ele>1482.01</ele>
        <time>2019-09-14T13:48:40Z</time>
      </trkpt>
      <trkpt lat="45.98425" lon="6.45787">
        <ele>1486.82</ele>
        <time>2019-09-14T13:48:41Z</time>
      </trkpt>
      <trkpt lat="45.98426" lon="6.45788">
        <ele>1482.97</ele>
        <time>2019-09-14T13:48:43Z</time>
      </trkpt>
      <trkpt lat="45.98427" lon="6.45789">
        <ele>1484.41</ele>
        <time>2019-09-14T13:48:44Z</time>
      </trkpt>
      <trkpt lat="45.98431" lon="6.45791">
        <ele>1481.05</ele>
        <time>2019-09-14T13:48:48Z</time>
      </trkpt>
      <trkpt lat="45.98433" lon="6.45792">
        <ele>1484.89</ele>
        <time>2019-09-14T13:48:49Z</time>
      </trkpt>
      <trkpt lat="45.98435" lon="6.45795">
        <ele>1481.53</ele>
        <time>2019-09-14T13:48:52Z</time>
      </trkpt>
      <trkpt lat="45.98436" lon="6.45795">
        <ele>1485.37</ele>
        <time>2019-09-14T13:48:53Z</time>
      </trkpt>
      <trkpt lat="45.98437" lon="6.45796">
        <ele>1485.37</ele>
        <time>2019-09-14T13:48:54Z</time>
      </trkpt>
      <trkpt lat="45.98438" lon="6.45796">
        <ele>1482.01</ele>
        <time>2019-09-14T13:48:55Z</time>
      </trkpt>
      <trkpt lat="45.98439" lon="6.45797">
        <ele>1485.37</ele>
        <time>2019-09-14T13:48:57Z</time>
      </trkpt>
      <trkpt lat="45.9844" lon="6.45798">
        <ele>1482.01</ele>
        <time>2019-09-14T13:48:58Z</time>
      </trkpt>
      <trkpt lat="45.9844" lon="6.45798">
        <ele>1482.49</ele>
        <time>2019-09-14T13:48:59Z</time>
      </trkpt>
      <trkpt lat="45.98443" lon="6.45802">
        <ele>1480.57</ele>
        <time>2019-09-14T13:49:06Z</time>
      </trkpt>
      <trkpt lat="45.98443" lon="6.45803">
        <ele>1482.97</ele>
        <time>2019-09-14T13:49:07Z</time>
      </trkpt>
      <trkpt lat="45.98442" lon="6.45806">
        <ele>1482.49</ele>
        <time>2019-09-14T13:49:09Z</time>
      </trkpt>
      <trkpt lat="45.98438" lon="6.45811">
        <ele>1482.01</ele>
        <time>2019-09-14T13:49:15Z</time>
      </trkpt>
      <trkpt lat="45.98435" lon="6.45815">
        <ele>1478.65</ele>
        <time>2019-09-14T13:49:19Z</time>
      </trkpt>
      <trkpt lat="45.98434" lon="6.45821">
        <ele>1476.72</ele>
        <time>2019-09-14T13:49:23Z</time>
      </trkpt>
      <trkpt lat="45.98434" lon="6.45823">
        <ele>1479.13</ele>
        <time>2019-09-14T13:49:24Z</time>
      </trkpt>
      <trkpt lat="45.98432" lon="6.45829">
        <ele>1475.76</ele>
        <time>2019-09-14T13:49:32Z</time>
      </trkpt>
      <trkpt lat="45.9843" lon="6.45832">
        <ele>1480.57</ele>
        <time>2019-09-14T13:49:35Z</time>
      </trkpt>
      <trkpt lat="45.9843" lon="6.45832">
        <ele>1476.24</ele>
        <time>2019-09-14T13:49:36Z</time>
      </trkpt>
      <trkpt lat="45.98427" lon="6.45838">
        <ele>1473.36</ele>
        <time>2019-09-14T13:49:40Z</time>
      </trkpt>
      <trkpt lat="45.98429" lon="6.45846">
        <ele>1471.92</ele>
        <time>2019-09-14T13:49:45Z</time>
      </trkpt>
      <trkpt lat="45.98429" lon="6.45847">
        <ele>1477.68</ele>
        <time>2019-09-14T13:49:46Z</time>
      </trkpt>
      <trkpt lat="45.9843" lon="6.45848">
        <ele>1477.2</ele>
        <time>2019-09-14T13:49:47Z</time>
      </trkpt>
      <trkpt lat="45.98434" lon="6.45852">
        <ele>1472.88</ele>
        <time>2019-09-14T13:49:51Z</time>
      </trkpt>
      <trkpt lat="45.98437" lon="6.45854">
        <ele>1476.72</ele>
        <time>2019-09-14T13:49:54Z</time>
      </trkpt>
      <trkpt lat="45.9844" lon="6.45855">
        <ele>1470.95</ele>
        <time>2019-09-14T13:49:57Z</time>
      </trkpt>
      <trkpt lat="45.98441" lon="6.45855">
        <ele>1473.84</ele>
        <time>2019-09-14T13:49:58Z</time>
      </trkpt>
      <trkpt lat="45.98442" lon="6.45858">
        <ele>1475.28</ele>
        <time>2019-09-14T13:50:00Z</time>
      </trkpt>
      <trkpt lat="45.98444" lon="6.45868">
        <ele>1471.92</ele>
        <time>2019-09-14T13:50:06Z</time>
      </trkpt>
      <trkpt lat="45.98445" lon="6.45873">
        <ele>1474.32</ele>
        <time>2019-09-14T13:50:09Z</time>
      </trkpt>
      <trkpt lat="45.98445" lon="6.45875">
        <ele>1474.8</ele>
        <time>2019-09-14T13:50:10Z</time>
      </trkpt>
      <trkpt lat="45.98446" lon="6.4588">
        <ele>1469.03</ele>
        <time>2019-09-14T13:50:13Z</time>
      </trkpt>
      <trkpt lat="45.98446" lon="6.45882">
        <ele>1470.95</ele>
        <time>2019-09-14T13:50:14Z</time>
      </trkpt>
      <trkpt lat="45.98446" lon="6.45883">
        <ele>1469.51</ele>
        <time>2019-09-14T13:50:15Z</time>
      </trkpt>
      <trkpt lat="45.98445" lon="6.45888">
        <ele>1472.88</ele>
        <time>2019-09-14T13:50:18Z</time>
      </trkpt>
      <trkpt lat="45.98443" lon="6.45892">
        <ele>1467.59</ele>
        <time>2019-09-14T13:50:21Z</time>
      </trkpt>
      <trkpt lat="45.98443" lon="6.45893">
        <ele>1470.47</ele>
        <time>2019-09-14T13:50:22Z</time>
      </trkpt>
      <trkpt lat="45.98438" lon="6.45902">
        <ele>1467.11</ele>
        <time>2019-09-14T13:50:29Z</time>
      </trkpt>
      <trkpt lat="45.98436" lon="6.45907">
        <ele>1472.4</ele>
        <time>2019-09-14T13:50:32Z</time>
      </trkpt>
      <trkpt lat="45.98436" lon="6.45909">
        <ele>1467.59</ele>
        <time>2019-09-14T13:50:33Z</time>
      </trkpt>
      <trkpt lat="45.98434" lon="6.45915">
        <ele>1471.44</ele>
        <time>2019-09-14T13:50:37Z</time>
      </trkpt>
      <trkpt lat="45.98434" lon="6.4592">
        <ele>1468.55</ele>
        <time>2019-09-14T13:50:40Z</time>
      </trkpt>
      <trkpt lat="45.98435" lon="6.45922">
        <ele>1468.55</ele>
        <time>2019-09-14T13:50:53Z</time>
      </trkpt>
      <trkpt lat="45.98436" lon="6.45924">
        <ele>1465.19</ele>
        <time>2019-09-14T13:50:56Z</time>
      </trkpt>
      <trkpt lat="45.98437" lon="6.45926">
        <ele>1469.03</ele>
        <time>2019-09-14T13:50:58Z</time>
      </trkpt>
      <trkpt lat="45.98438" lon="6.45929">
        <ele>1466.15</ele>
        <time>2019-09-14T13:51:00Z</time>
      </trkpt>
      <trkpt lat="45.98439" lon="6.45931">
        <ele>1469.51</ele>
        <time>2019-09-14T13:51:02Z</time>
      </trkpt>
      <trkpt lat="45.98439" lon="6.45932">
        <ele>1469.99</ele>
        <time>2019-09-14T13:51:03Z</time>
      </trkpt>
      <trkpt lat="45.98439" lon="6.45935">
        <ele>1465.67</ele>
        <time>2019-09-14T13:51:05Z</time>
      </trkpt>
      <trkpt lat="45.9844" lon="6.45936">
        <ele>1466.15</ele>
        <time>2019-09-14T13:51:06Z</time>
      </trkpt>
      <trkpt lat="45.98441" lon="6.45939">
        <ele>1468.55</ele>
        <time>2019-09-14T13:51:08Z</time>
      </trkpt>
      <trkpt lat="45.98441" lon="6.4594">
        <ele>1463.74</ele>
        <time>2019-09-14T13:51:09Z</time>
      </trkpt>
      <trkpt lat="45.98442" lon="6.45941">
        <ele>1467.59</ele>
        <time>2019-09-14T13:51:10Z</time>
      </trkpt>
      <trkpt lat="45.98443" lon="6.45946">
        <ele>1464.23</ele>
        <time>2019-09-14T13:51:13Z</time>
      </trkpt>
      <trkpt lat="45.98443" lon="6.45947">
        <ele>1468.07</ele>
        <time>2019-09-14T13:51:14Z</time>
      </trkpt>
      <trkpt lat="45.98446" lon="6.45957">
        <ele>1464.71</ele>
        <time>2019-09-14T13:51:22Z</time>
      </trkpt>
      <trkpt lat="45.98447" lon="6.45958">
        <ele>1464.71</ele>
        <time>2019-09-14T13:51:23Z</time>
      </trkpt>
      <trkpt lat="45.9845" lon="6.45971">
        <ele>1462.78</ele>
        <time>2019-09-14T13:51:33Z</time>
      </trkpt>
      <trkpt lat="45.9845" lon="6.45976">
        <ele>1464.23</ele>
        <time>2019-09-14T13:51:36Z</time>
      </trkpt>
      <trkpt lat="45.98451" lon="6.45979">
        <ele>1460.38</ele>
        <time>2019-09-14T13:51:39Z</time>
      </trkpt>
      <trkpt lat="45.98452" lon="6.45981">
        <ele>1461.82</ele>
        <time>2019-09-14T13:51:40Z</time>
      </trkpt>
      <trkpt lat="45.98453" lon="6.45986">
        <ele>1464.23</ele>
        <time>2019-09-14T13:51:43Z</time>
      </trkpt>
      <trkpt lat="45.98454" lon="6.4599">
        <ele>1458.94</ele>
        <time>2019-09-14T13:51:46Z</time>
      </trkpt>
      <trkpt lat="45.98455" lon="6.45991">
        <ele>1464.71</ele>
        <time>2019-09-14T13:51:47Z</time>
      </trkpt>
      <trkpt lat="45.98457" lon="6.45994">
        <ele>1460.38</ele>
        <time>2019-09-14T13:51:50Z</time>
      </trkpt>
      <trkpt lat="45.98457" lon="6.45996">
        <ele>1463.26</ele>
        <time>2019-09-14T13:51:51Z</time>
      </trkpt>
      <trkpt lat="45.98458" lon="6.46003">
        <ele>1459.42</ele>
        <time>2019-09-14T13:51:56Z</time>
      </trkpt>
      <trkpt lat="45.98458" lon="6.46009">
        <ele>1463.74</ele>
        <time>2019-09-14T13:51:59Z</time>
      </trkpt>
      <trkpt lat="45.98458" lon="6.46014">
        <ele>1457.98</ele>
        <time>2019-09-14T13:52:02Z</time>
      </trkpt>
      <trkpt lat="45.98458" lon="6.46016">
        <ele>1462.3</ele>
        <time>2019-09-14T13:52:03Z</time>
      </trkpt>
      <trkpt lat="45.98458" lon="6.46017">
        <ele>1458.94</ele>
        <time>2019-09-14T13:52:04Z</time>
      </trkpt>
      <trkpt lat="45.98459" lon="6.46021">
        <ele>1462.3</ele>
        <time>2019-09-14T13:52:07Z</time>
      </trkpt>
      <trkpt lat="45.9846" lon="6.46022">
        <ele>1458.46</ele>
        <time>2019-09-14T13:52:08Z</time>
      </trkpt>
      <trkpt lat="45.9846" lon="6.46024">
        <ele>1459.9</ele>
        <time>2019-09-14T13:52:09Z</time>
      </trkpt>
      <trkpt lat="45.9846" lon="6.46025">
        <ele>1462.78</ele>
        <time>2019-09-14T13:52:10Z</time>
      </trkpt>
      <trkpt lat="45.98461" lon="6.4603">
        <ele>1458.94</ele>
        <time>2019-09-14T13:52:13Z</time>
      </trkpt>
      <trkpt lat="45.98461" lon="6.46035">
        <ele>1460.86</ele>
        <time>2019-09-14T13:52:16Z</time>
      </trkpt>
      <trkpt lat="45.98462" lon="6.46039">
        <ele>1458.46</ele>
        <time>2019-09-14T13:52:19Z</time>
      </trkpt>
      <trkpt lat="45.98464" lon="6.46042">
        <ele>1460.86</ele>
        <time>2019-09-14T13:52:21Z</time>
      </trkpt>
      <trkpt lat="45.98465" lon="6.46045">
        <ele>1456.53</ele>
        <time>2019-09-14T13:52:23Z</time>
      </trkpt>
      <trkpt lat="45.98465" lon="6.46046">
        <ele>1458.94</ele>
        <time>2019-09-14T13:52:24Z</time>
      </trkpt>
      <trkpt lat="45.98466" lon="6.46048">
        <ele>1454.61</ele>
        <time>2019-09-14T13:52:26Z</time>
      </trkpt>
      <trkpt lat="45.98468" lon="6.46049">
        <ele>1458.94</ele>
        <time>2019-09-14T13:52:28Z</time>
      </trkpt>
      <trkpt lat="45.9847" lon="6.4605">
        <ele>1457.02</ele>
        <time>2019-09-14T13:52:29Z</time>
      </trkpt>
      <trkpt lat="45.98473" lon="6.46057">
        <ele>1453.65</ele>
        <time>2019-09-14T13:52:35Z</time>
      </trkpt>
      <trkpt lat="45.98474" lon="6.46058">
        <ele>1455.09</ele>
        <time>2019-09-14T13:52:36Z</time>
      </trkpt>
      <trkpt lat="45.98474" lon="6.4606">
        <ele>1458.46</ele>
        <time>2019-09-14T13:52:37Z</time>
      </trkpt>
      <trkpt lat="45.98475" lon="6.4606">
        <ele>1458.46</ele>
        <time>2019-09-14T13:52:38Z</time>
      </trkpt>
      <trkpt lat="45.98476" lon="6.46061">
        <ele>1455.09</ele>
        <time>2019-09-14T13:52:39Z</time>
      </trkpt>
      <trkpt lat="45.98478" lon="6.46064">
        <ele>1456.53</ele>
        <time>2019-09-14T13:52:41Z</time>
      </trkpt>
      <trkpt lat="45.9848" lon="6.46071">
        <ele>1453.17</ele>
        <time>2019-09-14T13:52:46Z</time>
      </trkpt>
      <trkpt lat="45.9848" lon="6.46071">
        <ele>1453.65</ele>
        <time>2019-09-14T13:52:47Z</time>
      </trkpt>
      <trkpt lat="45.98481" lon="6.46073">
        <ele>1456.53</ele>
        <time>2019-09-14T13:52:49Z</time>
      </trkpt>
      <trkpt lat="45.98484" lon="6.46078">
        <ele>1456.05</ele>
        <time>2019-09-14T13:52:53Z</time>
      </trkpt>
      <trkpt lat="45.98487" lon="6.46086">
        <ele>1451.73</ele>
        <time>2019-09-14T13:52:58Z</time>
      </trkpt>
      <trkpt lat="45.98488" lon="6.46088">
        <ele>1450.77</ele>
        <time>2019-09-14T13:53:00Z</time>
      </trkpt>
      <trkpt lat="45.98489" lon="6.46091">
        <ele>1453.17</ele>
        <time>2019-09-14T13:53:02Z</time>
      </trkpt>
      <trkpt lat="45.98492" lon="6.46095">
        <ele>1447.88</ele>
        <time>2019-09-14T13:53:05Z</time>
      </trkpt>
      <trkpt lat="45.98492" lon="6.46097">
        <ele>1452.21</ele>
        <time>2019-09-14T13:53:06Z</time>
      </trkpt>
      <trkpt lat="45.98493" lon="6.46098">
        <ele>1448.36</ele>
        <time>2019-09-14T13:53:07Z</time>
      </trkpt>
      <trkpt lat="45.98494" lon="6.461">
        <ele>1451.25</ele>
        <time>2019-09-14T13:53:08Z</time>
      </trkpt>
      <trkpt lat="45.98498" lon="6.46105">
        <ele>1447.88</ele>
        <time>2019-09-14T13:53:13Z</time>
      </trkpt>
      <trkpt lat="45.98502" lon="6.46109">
        <ele>1452.69</ele>
        <time>2019-09-14T13:53:17Z</time>
      </trkpt>
      <trkpt lat="45.98503" lon="6.46111">
        <ele>1448.84</ele>
        <time>2019-09-14T13:53:19Z</time>
      </trkpt>
      <trkpt lat="45.98505" lon="6.46117">
        <ele>1447.88</ele>
        <time>2019-09-14T13:53:23Z</time>
      </trkpt>
      <trkpt lat="45.98505" lon="6.46119">
        <ele>1444.04</ele>
        <time>2019-09-14T13:53:24Z</time>
      </trkpt>
      <trkpt lat="45.98505" lon="6.46121">
        <ele>1445.48</ele>
        <time>2019-09-14T13:53:25Z</time>
      </trkpt>
      <trkpt lat="45.98504" lon="6.46123">
        <ele>1449.32</ele>
        <time>2019-09-14T13:53:26Z</time>
      </trkpt>
      <trkpt lat="45.98503" lon="6.46127">
        <ele>1445</ele>
        <time>2019-09-14T13:53:29Z</time>
      </trkpt>
      <trkpt lat="45.98503" lon="6.46128">
        <ele>1446.44</ele>
        <time>2019-09-14T13:53:30Z</time>
      </trkpt>
      <trkpt lat="45.98501" lon="6.46129">
        <ele>1449.32</ele>
        <time>2019-09-14T13:53:32Z</time>
      </trkpt>
      <trkpt lat="45.98501" lon="6.46131">
        <ele>1445.48</ele>
        <time>2019-09-14T13:53:34Z</time>
      </trkpt>
      <trkpt lat="45.985" lon="6.46131">
        <ele>1448.84</ele>
        <time>2019-09-14T13:53:35Z</time>
      </trkpt>
      <trkpt lat="45.98499" lon="6.46133">
        <ele>1445.48</ele>
        <time>2019-09-14T13:53:39Z</time>
      </trkpt>
      <trkpt lat="45.985" lon="6.46134">
        <ele>1449.32</ele>
        <time>2019-09-14T13:53:40Z</time>
      </trkpt>
      <trkpt lat="45.985" lon="6.46135">
        <ele>1446.92</ele>
        <time>2019-09-14T13:53:41Z</time>
      </trkpt>
      <trkpt lat="45.98501" lon="6.46144">
        <ele>1443.08</ele>
        <time>2019-09-14T13:53:49Z</time>
      </trkpt>
      <trkpt lat="45.98501" lon="6.46145">
        <ele>1446.92</ele>
        <time>2019-09-14T13:53:50Z</time>
      </trkpt>
      <trkpt lat="45.98501" lon="6.46148">
        <ele>1447.4</ele>
        <time>2019-09-14T13:53:52Z</time>
      </trkpt>
      <trkpt lat="45.98502" lon="6.46151">
        <ele>1443.56</ele>
        <time>2019-09-14T13:53:54Z</time>
      </trkpt>
      <trkpt lat="45.98502" lon="6.46152">
        <ele>1446.92</ele>
        <time>2019-09-14T13:53:55Z</time>
      </trkpt>
      <trkpt lat="45.98502" lon="6.46154">
        <ele>1443.08</ele>
        <time>2019-09-14T13:53:56Z</time>
      </trkpt>
      <trkpt lat="45.98503" lon="6.46162">
        <ele>1444.04</ele>
        <time>2019-09-14T13:54:02Z</time>
      </trkpt>
      <trkpt lat="45.98504" lon="6.46165">
        <ele>1444.52</ele>
        <time>2019-09-14T13:54:04Z</time>
      </trkpt>
      <trkpt lat="45.98504" lon="6.46169">
        <ele>1439.23</ele>
        <time>2019-09-14T13:54:06Z</time>
      </trkpt>
      <trkpt lat="45.98505" lon="6.4617">
        <ele>1445.96</ele>
        <time>2019-09-14T13:54:07Z</time>
      </trkpt>
      <trkpt lat="45.98505" lon="6.46172">
        <ele>1445</ele>
        <time>2019-09-14T13:54:08Z</time>
      </trkpt>
      <trkpt lat="45.98506" lon="6.46179">
        <ele>1441.63</ele>
        <time>2019-09-14T13:54:13Z</time>
      </trkpt>
      <trkpt lat="45.98506" lon="6.46182">
        <ele>1445.48</ele>
        <time>2019-09-14T13:54:15Z</time>
      </trkpt>
      <trkpt lat="45.98507" lon="6.46185">
        <ele>1442.11</ele>
        <time>2019-09-14T13:54:17Z</time>
      </trkpt>
      <trkpt lat="45.98509" lon="6.4619">
        <ele>1439.23</ele>
        <time>2019-09-14T13:54:21Z</time>
      </trkpt>
      <trkpt lat="45.98509" lon="6.46192">
        <ele>1444.04</ele>
        <time>2019-09-14T13:54:23Z</time>
      </trkpt>
      <trkpt lat="45.98511" lon="6.46197">
        <ele>1438.27</ele>
        <time>2019-09-14T13:54:27Z</time>
      </trkpt>
      <trkpt lat="45.98512" lon="6.46201">
        <ele>1442.6</ele>
        <time>2019-09-14T13:54:29Z</time>
      </trkpt>
      <trkpt lat="45.98513" lon="6.46207">
        <ele>1438.75</ele>
        <time>2019-09-14T13:54:33Z</time>
      </trkpt>
      <trkpt lat="45.98513" lon="6.46208">
        <ele>1442.6</ele>
        <time>2019-09-14T13:54:34Z</time>
      </trkpt>
      <trkpt lat="45.98515" lon="6.46216">
        <ele>1438.27</ele>
        <time>2019-09-14T13:54:39Z</time>
      </trkpt>
      <trkpt lat="45.98519" lon="6.46222">
        <ele>1443.56</ele>
        <time>2019-09-14T13:54:44Z</time>
      </trkpt>
      <trkpt lat="45.9852" lon="6.46224">
        <ele>1438.27</ele>
        <time>2019-09-14T13:54:46Z</time>
      </trkpt>
      <trkpt lat="45.9852" lon="6.46224">
        <ele>1439.23</ele>
        <time>2019-09-14T13:54:47Z</time>
      </trkpt>
      <trkpt lat="45.98521" lon="6.46225">
        <ele>1435.87</ele>
        <time>2019-09-14T13:54:50Z</time>
      </trkpt>
      <trkpt lat="45.98521" lon="6.46225">
        <ele>1439.71</ele>
        <time>2019-09-14T13:54:51Z</time>
      </trkpt>
      <trkpt lat="45.98521" lon="6.46225">
        <ele>1435.87</ele>
        <time>2019-09-14T13:54:59Z</time>
      </trkpt>
      <trkpt lat="45.98521" lon="6.46225">
        <ele>1439.71</ele>
        <time>2019-09-14T13:55:00Z</time>
      </trkpt>
      <trkpt lat="45.98522" lon="6.46227">
        <ele>1436.35</ele>
        <time>2019-09-14T13:55:03Z</time>
      </trkpt>
      <trkpt lat="45.98523" lon="6.46228">
        <ele>1440.67</ele>
        <time>2019-09-14T13:55:05Z</time>
      </trkpt>
      <trkpt lat="45.98524" lon="6.46228">
        <ele>1439.23</ele>
        <time>2019-09-14T13:55:06Z</time>
      </trkpt>
      <trkpt lat="45.98524" lon="6.46228">
        <ele>1437.79</ele>
        <time>2019-09-14T13:55:08Z</time>
      </trkpt>
      <trkpt lat="45.98524" lon="6.46228">
        <ele>1437.79</ele>
        <time>2019-09-14T13:55:09Z</time>
      </trkpt>
      <trkpt lat="45.98527" lon="6.4623">
        <ele>1440.19</ele>
        <time>2019-09-14T13:55:12Z</time>
      </trkpt>
      <trkpt lat="45.98529" lon="6.46231">
        <ele>1435.39</ele>
        <time>2019-09-14T13:55:14Z</time>
      </trkpt>
      <trkpt lat="45.9853" lon="6.46232">
        <ele>1437.79</ele>
        <time>2019-09-14T13:55:15Z</time>
      </trkpt>
      <trkpt lat="45.98531" lon="6.46233">
        <ele>1441.15</ele>
        <time>2019-09-14T13:55:16Z</time>
      </trkpt>
      <trkpt lat="45.98532" lon="6.46233">
        <ele>1438.27</ele>
        <time>2019-09-14T13:55:17Z</time>
      </trkpt>
      <trkpt lat="45.98534" lon="6.46233">
        <ele>1441.15</ele>
        <time>2019-09-14T13:55:19Z</time>
      </trkpt>
      <trkpt lat="45.98536" lon="6.46233">
        <ele>1436.35</ele>
        <time>2019-09-14T13:55:21Z</time>
      </trkpt>
      <trkpt lat="45.98539" lon="6.46234">
        <ele>1443.08</ele>
        <time>2019-09-14T13:55:25Z</time>
      </trkpt>
      <trkpt lat="45.9854" lon="6.46235">
        <ele>1438.75</ele>
        <time>2019-09-14T13:55:26Z</time>
      </trkpt>
      <trkpt lat="45.9854" lon="6.46236">
        <ele>1439.71</ele>
        <time>2019-09-14T13:55:27Z</time>
      </trkpt>
      <trkpt lat="45.98541" lon="6.46236">
        <ele>1443.08</ele>
        <time>2019-09-14T13:55:28Z</time>
      </trkpt>
      <trkpt lat="45.98542" lon="6.46236">
        <ele>1440.67</ele>
        <time>2019-09-14T13:55:29Z</time>
      </trkpt>
      <trkpt lat="45.98544" lon="6.46237">
        <ele>1442.6</ele>
        <time>2019-09-14T13:55:31Z</time>
      </trkpt>
      <trkpt lat="45.98546" lon="6.46238">
        <ele>1436.35</ele>
        <time>2019-09-14T13:55:33Z</time>
      </trkpt>
      <trkpt lat="45.98547" lon="6.46238">
        <ele>1443.08</ele>
        <time>2019-09-14T13:55:34Z</time>
      </trkpt>
      <trkpt lat="45.98549" lon="6.46239">
        <ele>1438.75</ele>
        <time>2019-09-14T13:55:37Z</time>
      </trkpt>
      <trkpt lat="45.9855" lon="6.46239">
        <ele>1443.08</ele>
        <time>2019-09-14T13:55:38Z</time>
      </trkpt>
      <trkpt lat="45.98552" lon="6.4624">
        <ele>1438.75</ele>
        <time>2019-09-14T13:55:40Z</time>
      </trkpt>
      <trkpt lat="45.98552" lon="6.4624">
        <ele>1443.08</ele>
        <time>2019-09-14T13:55:41Z</time>
      </trkpt>
      <trkpt lat="45.98554" lon="6.46242">
        <ele>1439.71</ele>
        <time>2019-09-14T13:55:43Z</time>
      </trkpt>
      <trkpt lat="45.98555" lon="6.46242">
        <ele>1441.15</ele>
        <time>2019-09-14T13:55:44Z</time>
      </trkpt>
      <trkpt lat="45.98556" lon="6.46242">
        <ele>1444.52</ele>
        <time>2019-09-14T13:55:45Z</time>
      </trkpt>
      <trkpt lat="45.98557" lon="6.46243">
        <ele>1441.15</ele>
        <time>2019-09-14T13:55:46Z</time>
      </trkpt>
      <trkpt lat="45.98559" lon="6.46244">
        <ele>1441.63</ele>
        <time>2019-09-14T13:55:48Z</time>
      </trkpt>
      <trkpt lat="45.9856" lon="6.46245">
        <ele>1443.56</ele>
        <time>2019-09-14T13:55:50Z</time>
      </trkpt>
      <trkpt lat="45.98561" lon="6.46246">
        <ele>1440.67</ele>
        <time>2019-09-14T13:55:51Z</time>
      </trkpt>
      <trkpt lat="45.98562" lon="6.46247">
        <ele>1444.04</ele>
        <time>2019-09-14T13:55:52Z</time>
      </trkpt>
      <trkpt lat="45.98567" lon="6.46254">
        <ele>1444.52</ele>
        <time>2019-09-14T13:56:00Z</time>
      </trkpt>
      <trkpt lat="45.98574" lon="6.46263">
        <ele>1447.88</ele>
        <time>2019-09-14T13:56:09Z</time>
      </trkpt>
      <trkpt lat="45.98574" lon="6.46263">
        <ele>1441.15</ele>
        <time>2019-09-14T13:56:10Z</time>
      </trkpt>
      <trkpt lat="45.98575" lon="6.46264">
        <ele>1447.4</ele>
        <time>2019-09-14T13:56:11Z</time>
      </trkpt>
      <trkpt lat="45.9858" lon="6.46268">
        <ele>1444.04</ele>
        <time>2019-09-14T13:56:18Z</time>
      </trkpt>
      <trkpt lat="45.98581" lon="6.46269">
        <ele>1448.36</ele>
        <time>2019-09-14T13:56:19Z</time>
      </trkpt>
      <trkpt lat="45.98582" lon="6.46271">
        <ele>1443.56</ele>
        <time>2019-09-14T13:56:21Z</time>
      </trkpt>
      <trkpt lat="45.98585" lon="6.46275">
        <ele>1447.4</ele>
        <time>2019-09-14T13:56:25Z</time>
      </trkpt>
      <trkpt lat="45.98586" lon="6.46277">
        <ele>1448.84</ele>
        <time>2019-09-14T13:56:27Z</time>
      </trkpt>
      <trkpt lat="45.98588" lon="6.4628">
        <ele>1447.4</ele>
        <time>2019-09-14T13:56:30Z</time>
      </trkpt>
      <trkpt lat="45.98589" lon="6.46281">
        <ele>1451.25</ele>
        <time>2019-09-14T13:56:31Z</time>
      </trkpt>
      <trkpt lat="45.98589" lon="6.46282">
        <ele>1449.32</ele>
        <time>2019-09-14T13:56:32Z</time>
      </trkpt>
      <trkpt lat="45.98591" lon="6.46287">
        <ele>1445.48</ele>
        <time>2019-09-14T13:56:36Z</time>
      </trkpt>
      <trkpt lat="45.98591" lon="6.46287">
        <ele>1449.81</ele>
        <time>2019-09-14T13:56:37Z</time>
      </trkpt>
      <trkpt lat="45.98592" lon="6.46288">
        <ele>1447.88</ele>
        <time>2019-09-14T13:56:38Z</time>
      </trkpt>
      <trkpt lat="45.98594" lon="6.4629">
        <ele>1452.21</ele>
        <time>2019-09-14T13:56:40Z</time>
      </trkpt>
      <trkpt lat="45.98595" lon="6.46292">
        <ele>1451.73</ele>
        <time>2019-09-14T13:56:42Z</time>
      </trkpt>
      <trkpt lat="45.98596" lon="6.46294">
        <ele>1445.48</ele>
        <time>2019-09-14T13:56:44Z</time>
      </trkpt>
      <trkpt lat="45.98596" lon="6.46295">
        <ele>1452.21</ele>
        <time>2019-09-14T13:56:45Z</time>
      </trkpt>
      <trkpt lat="45.98598" lon="6.46297">
        <ele>1446.92</ele>
        <time>2019-09-14T13:56:47Z</time>
      </trkpt>
      <trkpt lat="45.98598" lon="6.46299">
        <ele>1449.81</ele>
        <time>2019-09-14T13:56:48Z</time>
      </trkpt>
      <trkpt lat="45.98599" lon="6.463">
        <ele>1453.65</ele>
        <time>2019-09-14T13:56:49Z</time>
      </trkpt>
      <trkpt lat="45.98599" lon="6.46301">
        <ele>1449.81</ele>
        <time>2019-09-14T13:56:50Z</time>
      </trkpt>
      <trkpt lat="45.986" lon="6.46302">
        <ele>1453.65</ele>
        <time>2019-09-14T13:56:51Z</time>
      </trkpt>
      <trkpt lat="45.98601" lon="6.46303">
        <ele>1448.84</ele>
        <time>2019-09-14T13:56:52Z</time>
      </trkpt>
      <trkpt lat="45.98602" lon="6.46304">
        <ele>1453.65</ele>
        <time>2019-09-14T13:56:53Z</time>
      </trkpt>
      <trkpt lat="45.98602" lon="6.46306">
        <ele>1449.32</ele>
        <time>2019-09-14T13:56:55Z</time>
      </trkpt>
      <trkpt lat="45.98603" lon="6.46307">
        <ele>1453.17</ele>
        <time>2019-09-14T13:56:56Z</time>
      </trkpt>
      <trkpt lat="45.98605" lon="6.46309">
        <ele>1448.84</ele>
        <time>2019-09-14T13:56:58Z</time>
      </trkpt>
      <trkpt lat="45.98606" lon="6.4631">
        <ele>1452.21</ele>
        <time>2019-09-14T13:56:59Z</time>
      </trkpt>
      <trkpt lat="45.98609" lon="6.46316">
        <ele>1455.09</ele>
        <time>2019-09-14T13:57:05Z</time>
      </trkpt>
      <trkpt lat="45.9861" lon="6.46316">
        <ele>1450.29</ele>
        <time>2019-09-14T13:57:06Z</time>
      </trkpt>
      <trkpt lat="45.98611" lon="6.46318">
        <ele>1452.69</ele>
        <time>2019-09-14T13:57:07Z</time>
      </trkpt>
      <trkpt lat="45.98612" lon="6.46321">
        <ele>1449.32</ele>
        <time>2019-09-14T13:57:10Z</time>
      </trkpt>
      <trkpt lat="45.98613" lon="6.46322">
        <ele>1455.57</ele>
        <time>2019-09-14T13:57:11Z</time>
      </trkpt>
      <trkpt lat="45.98615" lon="6.46324">
        <ele>1452.21</ele>
        <time>2019-09-14T13:57:13Z</time>
      </trkpt>
      <trkpt lat="45.98616" lon="6.46326">
        <ele>1453.17</ele>
        <time>2019-09-14T13:57:14Z</time>
      </trkpt>
      <trkpt lat="45.98617" lon="6.46328">
        <ele>1456.05</ele>
        <time>2019-09-14T13:57:16Z</time>
      </trkpt>
      <trkpt lat="45.98617" lon="6.46329">
        <ele>1456.05</ele>
        <time>2019-09-14T13:57:17Z</time>
      </trkpt>
      <trkpt lat="45.98617" lon="6.4633">
        <ele>1451.73</ele>
        <time>2019-09-14T13:57:18Z</time>
      </trkpt>
      <trkpt lat="45.98618" lon="6.46331">
        <ele>1455.09</ele>
        <time>2019-09-14T13:57:19Z</time>
      </trkpt>
      <trkpt lat="45.9862" lon="6.46333">
        <ele>1456.05</ele>
        <time>2019-09-14T13:57:21Z</time>
      </trkpt>
      <trkpt lat="45.9862" lon="6.46334">
        <ele>1452.69</ele>
        <time>2019-09-14T13:57:22Z</time>
      </trkpt>
      <trkpt lat="45.98621" lon="6.46335">
        <ele>1456.05</ele>
        <time>2019-09-14T13:57:23Z</time>
      </trkpt>
      <trkpt lat="45.98624" lon="6.46338">
        <ele>1453.17</ele>
        <time>2019-09-14T13:57:26Z</time>
      </trkpt>
      <trkpt lat="45.98626" lon="6.46339">
        <ele>1457.02</ele>
        <time>2019-09-14T13:57:28Z</time>
      </trkpt>
      <trkpt lat="45.98629" lon="6.46342">
        <ele>1453.17</ele>
        <time>2019-09-14T13:57:31Z</time>
      </trkpt>
      <trkpt lat="45.9863" lon="6.46343">
        <ele>1457.98</ele>
        <time>2019-09-14T13:57:32Z</time>
      </trkpt>
      <trkpt lat="45.98637" lon="6.4635">
        <ele>1454.61</ele>
        <time>2019-09-14T13:57:40Z</time>
      </trkpt>
      <trkpt lat="45.98639" lon="6.46351">
        <ele>1458.94</ele>
        <time>2019-09-14T13:57:41Z</time>
      </trkpt>
      <trkpt lat="45.98641" lon="6.46353">
        <ele>1455.09</ele>
        <time>2019-09-14T13:57:44Z</time>
      </trkpt>
      <trkpt lat="45.98642" lon="6.46354">
        <ele>1460.38</ele>
        <time>2019-09-14T13:57:45Z</time>
      </trkpt>
      <trkpt lat="45.98643" lon="6.46355">
        <ele>1460.38</ele>
        <time>2019-09-14T13:57:46Z</time>
      </trkpt>
      <trkpt lat="45.98644" lon="6.46356">
        <ele>1456.53</ele>
        <time>2019-09-14T13:57:48Z</time>
      </trkpt>
      <trkpt lat="45.98645" lon="6.46358">
        <ele>1459.9</ele>
        <time>2019-09-14T13:57:49Z</time>
      </trkpt>
      <trkpt lat="45.98647" lon="6.4636">
        <ele>1461.34</ele>
        <time>2019-09-14T13:57:51Z</time>
      </trkpt>
      <trkpt lat="45.98649" lon="6.46361">
        <ele>1456.05</ele>
        <time>2019-09-14T13:57:53Z</time>
      </trkpt>
      <trkpt lat="45.9865" lon="6.46363">
        <ele>1458.46</ele>
        <time>2019-09-14T13:57:54Z</time>
      </trkpt>
      <trkpt lat="45.98651" lon="6.46364">
        <ele>1461.82</ele>
        <time>2019-09-14T13:57:55Z</time>
      </trkpt>
      <trkpt lat="45.98653" lon="6.46366">
        <ele>1458.46</ele>
        <time>2019-09-14T13:57:57Z</time>
      </trkpt>
      <trkpt lat="45.98655" lon="6.4637">
        <ele>1464.23</ele>
        <time>2019-09-14T13:58:00Z</time>
      </trkpt>
      <trkpt lat="45.98656" lon="6.46371">
        <ele>1458.46</ele>
        <time>2019-09-14T13:58:01Z</time>
      </trkpt>
      <trkpt lat="45.9866" lon="6.46376">
        <ele>1463.26</ele>
        <time>2019-09-14T13:58:05Z</time>
      </trkpt>
      <trkpt lat="45.98661" lon="6.46378">
        <ele>1459.42</ele>
        <time>2019-09-14T13:58:07Z</time>
      </trkpt>
      <trkpt lat="45.98662" lon="6.4638">
        <ele>1461.82</ele>
        <time>2019-09-14T13:58:08Z</time>
      </trkpt>
      <trkpt lat="45.98667" lon="6.46388">
        <ele>1465.19</ele>
        <time>2019-09-14T13:58:15Z</time>
      </trkpt>
      <trkpt lat="45.98668" lon="6.46389">
        <ele>1461.34</ele>
        <time>2019-09-14T13:58:16Z</time>
      </trkpt>
      <trkpt lat="45.98669" lon="6.46392">
        <ele>1464.23</ele>
        <time>2019-09-14T13:58:19Z</time>
      </trkpt>
      <trkpt lat="45.98671" lon="6.46396">
        <ele>1460.86</ele>
        <time>2019-09-14T13:58:22Z</time>
      </trkpt>
      <trkpt lat="45.98672" lon="6.46397">
        <ele>1465.19</ele>
        <time>2019-09-14T13:58:23Z</time>
      </trkpt>
      <trkpt lat="45.98672" lon="6.46398">
        <ele>1467.11</ele>
        <time>2019-09-14T13:58:24Z</time>
      </trkpt>
      <trkpt lat="45.98674" lon="6.464">
        <ele>1463.26</ele>
        <time>2019-09-14T13:58:26Z</time>
      </trkpt>
      <trkpt lat="45.98676" lon="6.46401">
        <ele>1467.11</ele>
        <time>2019-09-14T13:58:28Z</time>
      </trkpt>
      <trkpt lat="45.98678" lon="6.46405">
        <ele>1461.82</ele>
        <time>2019-09-14T13:58:31Z</time>
      </trkpt>
      <trkpt lat="45.98679" lon="6.46406">
        <ele>1466.15</ele>
        <time>2019-09-14T13:58:32Z</time>
      </trkpt>
      <trkpt lat="45.98681" lon="6.46411">
        <ele>1465.67</ele>
        <time>2019-09-14T13:58:36Z</time>
      </trkpt>
      <trkpt lat="45.98683" lon="6.46414">
        <ele>1469.03</ele>
        <time>2019-09-14T13:58:38Z</time>
      </trkpt>
      <trkpt lat="45.98684" lon="6.46415">
        <ele>1464.71</ele>
        <time>2019-09-14T13:58:39Z</time>
      </trkpt>
      <trkpt lat="45.98684" lon="6.46417">
        <ele>1464.23</ele>
        <time>2019-09-14T13:58:40Z</time>
      </trkpt>
      <trkpt lat="45.98686" lon="6.46419">
        <ele>1465.19</ele>
        <time>2019-09-14T13:58:42Z</time>
      </trkpt>
      <trkpt lat="45.98687" lon="6.46421">
        <ele>1469.03</ele>
        <time>2019-09-14T13:58:43Z</time>
      </trkpt>
      <trkpt lat="45.98688" lon="6.46426">
        <ele>1465.67</ele>
        <time>2019-09-14T13:58:46Z</time>
      </trkpt>
      <trkpt lat="45.98688" lon="6.46427">
        <ele>1469.51</ele>
        <time>2019-09-14T13:58:47Z</time>
      </trkpt>
      <trkpt lat="45.9869" lon="6.46432">
        <ele>1463.74</ele>
        <time>2019-09-14T13:58:50Z</time>
      </trkpt>
      <trkpt lat="45.98691" lon="6.46434">
        <ele>1469.99</ele>
        <time>2019-09-14T13:58:51Z</time>
      </trkpt>
      <trkpt lat="45.98691" lon="6.46435">
        <ele>1469.99</ele>
        <time>2019-09-14T13:58:52Z</time>
      </trkpt>
      <trkpt lat="45.98692" lon="6.46442">
        <ele>1468.07</ele>
        <time>2019-09-14T13:58:56Z</time>
      </trkpt>
      <trkpt lat="45.98693" lon="6.46445">
        <ele>1471.44</ele>
        <time>2019-09-14T13:58:58Z</time>
      </trkpt>
      <trkpt lat="45.98694" lon="6.46447">
        <ele>1467.59</ele>
        <time>2019-09-14T13:58:59Z</time>
      </trkpt>
      <trkpt lat="45.98695" lon="6.46448">
        <ele>1468.07</ele>
        <time>2019-09-14T13:59:00Z</time>
      </trkpt>
      <trkpt lat="45.98695" lon="6.46451">
        <ele>1471.92</ele>
        <time>2019-09-14T13:59:01Z</time>
      </trkpt>
      <trkpt lat="45.98696" lon="6.46452">
        <ele>1471.92</ele>
        <time>2019-09-14T13:59:02Z</time>
      </trkpt>
      <trkpt lat="45.98696" lon="6.46454">
        <ele>1468.07</ele>
        <time>2019-09-14T13:59:03Z</time>
      </trkpt>
      <trkpt lat="45.98696" lon="6.46455">
        <ele>1469.99</ele>
        <time>2019-09-14T13:59:04Z</time>
      </trkpt>
      <trkpt lat="45.98697" lon="6.46457">
        <ele>1470.95</ele>
        <time>2019-09-14T13:59:06Z</time>
      </trkpt>
      <trkpt lat="45.98698" lon="6.46461">
        <ele>1472.4</ele>
        <time>2019-09-14T13:59:09Z</time>
      </trkpt>
      <trkpt lat="45.98698" lon="6.46463">
        <ele>1468.55</ele>
        <time>2019-09-14T13:59:10Z</time>
      </trkpt>
      <trkpt lat="45.98699" lon="6.46464">
        <ele>1470.47</ele>
        <time>2019-09-14T13:59:11Z</time>
      </trkpt>
      <trkpt lat="45.98701" lon="6.46467">
        <ele>1474.8</ele>
        <time>2019-09-14T13:59:13Z</time>
      </trkpt>
      <trkpt lat="45.98701" lon="6.46468">
        <ele>1469.03</ele>
        <time>2019-09-14T13:59:14Z</time>
      </trkpt>
      <trkpt lat="45.98702" lon="6.46469">
        <ele>1471.44</ele>
        <time>2019-09-14T13:59:15Z</time>
      </trkpt>
      <trkpt lat="45.98703" lon="6.46472">
        <ele>1471.44</ele>
        <time>2019-09-14T13:59:17Z</time>
      </trkpt>
      <trkpt lat="45.98705" lon="6.46473">
        <ele>1473.36</ele>
        <time>2019-09-14T13:59:19Z</time>
      </trkpt>
      <trkpt lat="45.98706" lon="6.46476">
        <ele>1471.92</ele>
        <time>2019-09-14T13:59:21Z</time>
      </trkpt>
      <trkpt lat="45.98707" lon="6.4648">
        <ele>1477.2</ele>
        <time>2019-09-14T13:59:23Z</time>
      </trkpt>
      <trkpt lat="45.98708" lon="6.46481">
        <ele>1471.44</ele>
        <time>2019-09-14T13:59:24Z</time>
      </trkpt>
      <trkpt lat="45.98709" lon="6.46484">
        <ele>1474.8</ele>
        <time>2019-09-14T13:59:26Z</time>
      </trkpt>
      <trkpt lat="45.9871" lon="6.46486">
        <ele>1471.44</ele>
        <time>2019-09-14T13:59:28Z</time>
      </trkpt>
      <trkpt lat="45.98711" lon="6.46487">
        <ele>1472.4</ele>
        <time>2019-09-14T13:59:29Z</time>
      </trkpt>
      <trkpt lat="45.98712" lon="6.46488">
        <ele>1471.44</ele>
        <time>2019-09-14T13:59:30Z</time>
      </trkpt>
      <trkpt lat="45.98714" lon="6.46492">
        <ele>1478.16</ele>
        <time>2019-09-14T13:59:33Z</time>
      </trkpt>
      <trkpt lat="45.98715" lon="6.46493">
        <ele>1471.92</ele>
        <time>2019-09-14T13:59:34Z</time>
      </trkpt>
      <trkpt lat="45.98715" lon="6.46495">
        <ele>1473.84</ele>
        <time>2019-09-14T13:59:35Z</time>
      </trkpt>
      <trkpt lat="45.98717" lon="6.46497">
        <ele>1477.68</ele>
        <time>2019-09-14T13:59:37Z</time>
      </trkpt>
      <trkpt lat="45.98718" lon="6.46498">
        <ele>1478.16</ele>
        <time>2019-09-14T13:59:38Z</time>
      </trkpt>
      <trkpt lat="45.98718" lon="6.465">
        <ele>1472.4</ele>
        <time>2019-09-14T13:59:39Z</time>
      </trkpt>
      <trkpt lat="45.98719" lon="6.46501">
        <ele>1475.76</ele>
        <time>2019-09-14T13:59:40Z</time>
      </trkpt>
      <trkpt lat="45.9872" lon="6.46503">
        <ele>1477.68</ele>
        <time>2019-09-14T13:59:42Z</time>
      </trkpt>
      <trkpt lat="45.98722" lon="6.46507">
        <ele>1473.36</ele>
        <time>2019-09-14T13:59:45Z</time>
      </trkpt>
      <trkpt lat="45.98723" lon="6.46509">
        <ele>1477.68</ele>
        <time>2019-09-14T13:59:46Z</time>
      </trkpt>
      <trkpt lat="45.98725" lon="6.46511">
        <ele>1480.57</ele>
        <time>2019-09-14T13:59:48Z</time>
      </trkpt>
      <trkpt lat="45.98726" lon="6.46513">
        <ele>1475.76</ele>
        <time>2019-09-14T13:59:50Z</time>
      </trkpt>
      <trkpt lat="45.98727" lon="6.46514">
        <ele>1479.61</ele>
        <time>2019-09-14T13:59:51Z</time>
      </trkpt>
      <trkpt lat="45.98728" lon="6.46517">
        <ele>1478.16</ele>
        <time>2019-09-14T13:59:53Z</time>
      </trkpt>
      <trkpt lat="45.98733" lon="6.46521">
        <ele>1480.09</ele>
        <time>2019-09-14T13:59:57Z</time>
      </trkpt>
      <trkpt lat="45.98735" lon="6.46523">
        <ele>1477.68</ele>
        <time>2019-09-14T13:59:59Z</time>
      </trkpt>
      <trkpt lat="45.98737" lon="6.46526">
        <ele>1479.61</ele>
        <time>2019-09-14T14:00:01Z</time>
      </trkpt>
      <trkpt lat="45.98739" lon="6.46531">
        <ele>1479.13</ele>
        <time>2019-09-14T14:00:05Z</time>
      </trkpt>
      <trkpt lat="45.98741" lon="6.46533">
        <ele>1480.09</ele>
        <time>2019-09-14T14:00:07Z</time>
      </trkpt>
      <trkpt lat="45.98742" lon="6.46535">
        <ele>1483.45</ele>
        <time>2019-09-14T14:00:09Z</time>
      </trkpt>
      <trkpt lat="45.98744" lon="6.46538">
        <ele>1478.16</ele>
        <time>2019-09-14T14:00:11Z</time>
      </trkpt>
      <trkpt lat="45.98744" lon="6.46539">
        <ele>1482.01</ele>
        <time>2019-09-14T14:00:12Z</time>
      </trkpt>
      <trkpt lat="45.98746" lon="6.46542">
        <ele>1479.13</ele>
        <time>2019-09-14T14:00:15Z</time>
      </trkpt>
      <trkpt lat="45.98751" lon="6.46545">
        <ele>1479.61</ele>
        <time>2019-09-14T14:00:21Z</time>
      </trkpt>
      <trkpt lat="45.98751" lon="6.46546">
        <ele>1485.37</ele>
        <time>2019-09-14T14:00:23Z</time>
      </trkpt>
      <trkpt lat="45.98751" lon="6.46546">
        <ele>1481.53</ele>
        <time>2019-09-14T14:00:24Z</time>
      </trkpt>
      <trkpt lat="45.98752" lon="6.46547">
        <ele>1484.89</ele>
        <time>2019-09-14T14:00:25Z</time>
      </trkpt>
      <trkpt lat="45.98752" lon="6.46547">
        <ele>1479.61</ele>
        <time>2019-09-14T14:00:26Z</time>
      </trkpt>
      <trkpt lat="45.98753" lon="6.46548">
        <ele>1485.85</ele>
        <time>2019-09-14T14:00:27Z</time>
      </trkpt>
      <trkpt lat="45.98754" lon="6.46549">
        <ele>1480.57</ele>
        <time>2019-09-14T14:00:28Z</time>
      </trkpt>
      <trkpt lat="45.98754" lon="6.46549">
        <ele>1483.45</ele>
        <time>2019-09-14T14:00:29Z</time>
      </trkpt>
      <trkpt lat="45.98754" lon="6.46549">
        <ele>1482.97</ele>
        <time>2019-09-14T14:00:46Z</time>
      </trkpt>
      <trkpt lat="45.98757" lon="6.46551">
        <ele>1482.97</ele>
        <time>2019-09-14T14:00:56Z</time>
      </trkpt>
      <trkpt lat="45.98757" lon="6.4655">
        <ele>1482.97</ele>
        <time>2019-09-14T14:01:16Z</time>
      </trkpt>
      <trkpt lat="45.98758" lon="6.4655">
        <ele>1483.93</ele>
        <time>2019-09-14T14:01:32Z</time>
      </trkpt>
      <trkpt lat="45.98758" lon="6.4655">
        <ele>1484.41</ele>
        <time>2019-09-14T14:01:43Z</time>
      </trkpt>
      <trkpt lat="45.98759" lon="6.46551">
        <ele>1486.34</ele>
        <time>2019-09-14T14:01:45Z</time>
      </trkpt>
      <trkpt lat="45.98762" lon="6.46555">
        <ele>1482.01</ele>
        <time>2019-09-14T14:01:49Z</time>
      </trkpt>
      <trkpt lat="45.98764" lon="6.46556">
        <ele>1486.34</ele>
        <time>2019-09-14T14:01:51Z</time>
      </trkpt>
      <trkpt lat="45.98765" lon="6.46558">
        <ele>1481.05</ele>
        <time>2019-09-14T14:01:53Z</time>
      </trkpt>
      <trkpt lat="45.98767" lon="6.46561">
        <ele>1486.34</ele>
        <time>2019-09-14T14:01:56Z</time>
      </trkpt>
      <trkpt lat="45.98768" lon="6.46562">
        <ele>1482.01</ele>
        <time>2019-09-14T14:01:57Z</time>
      </trkpt>
      <trkpt lat="45.98769" lon="6.46563">
        <ele>1483.93</ele>
        <time>2019-09-14T14:01:58Z</time>
      </trkpt>
      <trkpt lat="45.98771" lon="6.46567">
        <ele>1488.74</ele>
        <time>2019-09-14T14:02:01Z</time>
      </trkpt>
      <trkpt lat="45.98772" lon="6.46568">
        <ele>1485.85</ele>
        <time>2019-09-14T14:02:02Z</time>
      </trkpt>
      <trkpt lat="45.98774" lon="6.46571">
        <ele>1489.22</ele>
        <time>2019-09-14T14:02:05Z</time>
      </trkpt>
      <trkpt lat="45.98775" lon="6.46572">
        <ele>1487.78</ele>
        <time>2019-09-14T14:02:06Z</time>
      </trkpt>
      <trkpt lat="45.98777" lon="6.46573">
        <ele>1484.41</ele>
        <time>2019-09-14T14:02:08Z</time>
      </trkpt>
      <trkpt lat="45.98777" lon="6.46573">
        <ele>1486.34</ele>
        <time>2019-09-14T14:02:09Z</time>
      </trkpt>
      <trkpt lat="45.98779" lon="6.46577">
        <ele>1487.78</ele>
        <time>2019-09-14T14:02:12Z</time>
      </trkpt>
      <trkpt lat="45.98781" lon="6.46582">
        <ele>1484.89</ele>
        <time>2019-09-14T14:02:15Z</time>
      </trkpt>
      <trkpt lat="45.98782" lon="6.46583">
        <ele>1488.74</ele>
        <time>2019-09-14T14:02:16Z</time>
      </trkpt>
      <trkpt lat="45.98784" lon="6.46585">
        <ele>1490.18</ele>
        <time>2019-09-14T14:02:18Z</time>
      </trkpt>
      <trkpt lat="45.98785" lon="6.46588">
        <ele>1486.34</ele>
        <time>2019-09-14T14:02:21Z</time>
      </trkpt>
      <trkpt lat="45.98786" lon="6.4659">
        <ele>1489.22</ele>
        <time>2019-09-14T14:02:22Z</time>
      </trkpt>
      <trkpt lat="45.98788" lon="6.46591">
        <ele>1491.14</ele>
        <time>2019-09-14T14:02:24Z</time>
      </trkpt>
      <trkpt lat="45.98789" lon="6.46592">
        <ele>1487.78</ele>
        <time>2019-09-14T14:02:25Z</time>
      </trkpt>
      <trkpt lat="45.98789" lon="6.46594">
        <ele>1490.18</ele>
        <time>2019-09-14T14:02:26Z</time>
      </trkpt>
      <trkpt lat="45.98791" lon="6.46595">
        <ele>1491.62</ele>
        <time>2019-09-14T14:02:28Z</time>
      </trkpt>
      <trkpt lat="45.9879" lon="6.46593">
        <ele>1490.66</ele>
        <time>2019-09-14T14:02:37Z</time>
      </trkpt>
      <trkpt lat="45.9879" lon="6.46592">
        <ele>1487.3</ele>
        <time>2019-09-14T14:02:46Z</time>
      </trkpt>
      <trkpt lat="45.9879" lon="6.46592">
        <ele>1490.66</ele>
        <time>2019-09-14T14:02:47Z</time>
      </trkpt>
      <trkpt lat="45.9879" lon="6.4659">
        <ele>1490.66</ele>
        <time>2019-09-14T14:02:55Z</time>
      </trkpt>
      <trkpt lat="45.98789" lon="6.46591">
        <ele>1490.18</ele>
        <time>2019-09-14T14:03:08Z</time>
      </trkpt>
      <trkpt lat="45.9879" lon="6.46592">
        <ele>1489.7</ele>
        <time>2019-09-14T14:03:29Z</time>
      </trkpt>
      <trkpt lat="45.9879" lon="6.46592">
        <ele>1489.7</ele>
        <time>2019-09-14T14:03:34Z</time>
      </trkpt>
      <trkpt lat="45.98791" lon="6.46592">
        <ele>1491.62</ele>
        <time>2019-09-14T14:03:45Z</time>
      </trkpt>
      <trkpt lat="45.98793" lon="6.46592">
        <ele>1491.62</ele>
        <time>2019-09-14T14:03:47Z</time>
      </trkpt>
      <trkpt lat="45.98793" lon="6.46592">
        <ele>1491.14</ele>
        <time>2019-09-14T14:03:48Z</time>
      </trkpt>
      <trkpt lat="45.98794" lon="6.46593">
        <ele>1491.14</ele>
        <time>2019-09-14T14:03:50Z</time>
      </trkpt>
      <trkpt lat="45.98795" lon="6.46595">
        <ele>1485.85</ele>
        <time>2019-09-14T14:03:52Z</time>
      </trkpt>
      <trkpt lat="45.98795" lon="6.46596">
        <ele>1489.7</ele>
        <time>2019-09-14T14:03:53Z</time>
      </trkpt>
      <trkpt lat="45.98796" lon="6.46598">
        <ele>1492.1</ele>
        <time>2019-09-14T14:03:55Z</time>
      </trkpt>
      <trkpt lat="45.98797" lon="6.466">
        <ele>1490.66</ele>
        <time>2019-09-14T14:03:57Z</time>
      </trkpt>
      <trkpt lat="45.98798" lon="6.46602">
        <ele>1492.1</ele>
        <time>2019-09-14T14:03:59Z</time>
      </trkpt>
      <trkpt lat="45.98799" lon="6.46604">
        <ele>1488.74</ele>
        <time>2019-09-14T14:04:02Z</time>
      </trkpt>
      <trkpt lat="45.98799" lon="6.46605">
        <ele>1492.1</ele>
        <time>2019-09-14T14:04:03Z</time>
      </trkpt>
      <trkpt lat="45.98802" lon="6.46609">
        <ele>1495.47</ele>
        <time>2019-09-14T14:04:08Z</time>
      </trkpt>
      <trkpt lat="45.98802" lon="6.46609">
        <ele>1488.74</ele>
        <time>2019-09-14T14:04:09Z</time>
      </trkpt>
      <trkpt lat="45.98803" lon="6.4661">
        <ele>1494.03</ele>
        <time>2019-09-14T14:04:10Z</time>
      </trkpt>
      <trkpt lat="45.98803" lon="6.46613">
        <ele>1492.1</ele>
        <time>2019-09-14T14:04:13Z</time>
      </trkpt>
      <trkpt lat="45.98803" lon="6.46616">
        <ele>1495.95</ele>
        <time>2019-09-14T14:04:17Z</time>
      </trkpt>
      <trkpt lat="45.98803" lon="6.46617">
        <ele>1492.1</ele>
        <time>2019-09-14T14:04:18Z</time>
      </trkpt>
      <trkpt lat="45.98803" lon="6.46619">
        <ele>1496.43</ele>
        <time>2019-09-14T14:04:20Z</time>
      </trkpt>
      <trkpt lat="45.98803" lon="6.4662">
        <ele>1491.62</ele>
        <time>2019-09-14T14:04:21Z</time>
      </trkpt>
      <trkpt lat="45.98804" lon="6.46621">
        <ele>1496.91</ele>
        <time>2019-09-14T14:04:23Z</time>
      </trkpt>
      <trkpt lat="45.98804" lon="6.46622">
        <ele>1491.14</ele>
        <time>2019-09-14T14:04:24Z</time>
      </trkpt>
      <trkpt lat="45.98804" lon="6.46623">
        <ele>1495.47</ele>
        <time>2019-09-14T14:04:25Z</time>
      </trkpt>
      <trkpt lat="45.98804" lon="6.46625">
        <ele>1490.18</ele>
        <time>2019-09-14T14:04:27Z</time>
      </trkpt>
      <trkpt lat="45.98803" lon="6.46628">
        <ele>1495.95</ele>
        <time>2019-09-14T14:04:29Z</time>
      </trkpt>
      <trkpt lat="45.98803" lon="6.4663">
        <ele>1491.14</ele>
        <time>2019-09-14T14:04:31Z</time>
      </trkpt>
      <trkpt lat="45.98803" lon="6.46631">
        <ele>1496.43</ele>
        <time>2019-09-14T14:04:32Z</time>
      </trkpt>
      <trkpt lat="45.98803" lon="6.46634">
        <ele>1492.1</ele>
        <time>2019-09-14T14:04:34Z</time>
      </trkpt>
      <trkpt lat="45.98803" lon="6.46635">
        <ele>1496.91</ele>
        <time>2019-09-14T14:04:35Z</time>
      </trkpt>
      <trkpt lat="45.98803" lon="6.46638">
        <ele>1491.62</ele>
        <time>2019-09-14T14:04:37Z</time>
      </trkpt>
      <trkpt lat="45.98803" lon="6.4664">
        <ele>1497.87</ele>
        <time>2019-09-14T14:04:38Z</time>
      </trkpt>
      <trkpt lat="45.98804" lon="6.46642">
        <ele>1494.03</ele>
        <time>2019-09-14T14:04:40Z</time>
      </trkpt>
      <trkpt lat="45.98804" lon="6.46644">
        <ele>1497.39</ele>
        <time>2019-09-14T14:04:42Z</time>
      </trkpt>
      <trkpt lat="45.98804" lon="6.46646">
        <ele>1496.91</ele>
        <time>2019-09-14T14:04:43Z</time>
      </trkpt>
      <trkpt lat="45.98804" lon="6.46647">
        <ele>1492.58</ele>
        <time>2019-09-14T14:04:44Z</time>
      </trkpt>
      <trkpt lat="45.98804" lon="6.46649">
        <ele>1497.87</ele>
        <time>2019-09-14T14:04:45Z</time>
      </trkpt>
      <trkpt lat="45.98804" lon="6.46652">
        <ele>1492.1</ele>
        <time>2019-09-14T14:04:47Z</time>
      </trkpt>
      <trkpt lat="45.98804" lon="6.46653">
        <ele>1497.87</ele>
        <time>2019-09-14T14:04:48Z</time>
      </trkpt>
      <trkpt lat="45.98805" lon="6.46656">
        <ele>1492.58</ele>
        <time>2019-09-14T14:04:50Z</time>
      </trkpt>
      <trkpt lat="45.98806" lon="6.46657">
        <ele>1498.83</ele>
        <time>2019-09-14T14:04:51Z</time>
      </trkpt>
      <trkpt lat="45.98806" lon="6.4666">
        <ele>1493.06</ele>
        <time>2019-09-14T14:04:53Z</time>
      </trkpt>
      <trkpt lat="45.98806" lon="6.4666">
        <ele>1493.55</ele>
        <time>2019-09-14T14:04:54Z</time>
      </trkpt>
      <trkpt lat="45.98807" lon="6.46662">
        <ele>1498.35</ele>
        <time>2019-09-14T14:04:55Z</time>
      </trkpt>
      <trkpt lat="45.98807" lon="6.46663">
        <ele>1497.87</ele>
        <time>2019-09-14T14:04:56Z</time>
      </trkpt>
      <trkpt lat="45.98807" lon="6.46664">
        <ele>1492.58</ele>
        <time>2019-09-14T14:04:57Z</time>
      </trkpt>
      <trkpt lat="45.98808" lon="6.46666">
        <ele>1498.83</ele>
        <time>2019-09-14T14:04:58Z</time>
      </trkpt>
      <trkpt lat="45.98808" lon="6.46669">
        <ele>1493.55</ele>
        <time>2019-09-14T14:05:00Z</time>
      </trkpt>
      <trkpt lat="45.98808" lon="6.4667">
        <ele>1498.83</ele>
        <time>2019-09-14T14:05:01Z</time>
      </trkpt>
      <trkpt lat="45.98808" lon="6.46672">
        <ele>1494.51</ele>
        <time>2019-09-14T14:05:03Z</time>
      </trkpt>
      <trkpt lat="45.98809" lon="6.46674">
        <ele>1498.83</ele>
        <time>2019-09-14T14:05:04Z</time>
      </trkpt>
      <trkpt lat="45.98809" lon="6.46677">
        <ele>1494.03</ele>
        <time>2019-09-14T14:05:07Z</time>
      </trkpt>
      <trkpt lat="45.9881" lon="6.46678">
        <ele>1498.83</ele>
        <time>2019-09-14T14:05:08Z</time>
      </trkpt>
      <trkpt lat="45.98811" lon="6.46681">
        <ele>1494.03</ele>
        <time>2019-09-14T14:05:10Z</time>
      </trkpt>
      <trkpt lat="45.98811" lon="6.46682">
        <ele>1500.27</ele>
        <time>2019-09-14T14:05:11Z</time>
      </trkpt>
      <trkpt lat="45.98811" lon="6.46685">
        <ele>1493.55</ele>
        <time>2019-09-14T14:05:13Z</time>
      </trkpt>
      <trkpt lat="45.98811" lon="6.46686">
        <ele>1499.31</ele>
        <time>2019-09-14T14:05:14Z</time>
      </trkpt>
      <trkpt lat="45.98812" lon="6.46689">
        <ele>1494.99</ele>
        <time>2019-09-14T14:05:16Z</time>
      </trkpt>
      <trkpt lat="45.98812" lon="6.4669">
        <ele>1496.43</ele>
        <time>2019-09-14T14:05:17Z</time>
      </trkpt>
      <trkpt lat="45.98812" lon="6.46691">
        <ele>1500.76</ele>
        <time>2019-09-14T14:05:18Z</time>
      </trkpt>
      <trkpt lat="45.98813" lon="6.46693">
        <ele>1495.95</ele>
        <time>2019-09-14T14:05:20Z</time>
      </trkpt>
      <trkpt lat="45.98813" lon="6.46694">
        <ele>1500.76</ele>
        <time>2019-09-14T14:05:21Z</time>
      </trkpt>
      <trkpt lat="45.98813" lon="6.46696">
        <ele>1496.43</ele>
        <time>2019-09-14T14:05:23Z</time>
      </trkpt>
      <trkpt lat="45.98813" lon="6.46697">
        <ele>1501.24</ele>
        <time>2019-09-14T14:05:24Z</time>
      </trkpt>
      <trkpt lat="45.98813" lon="6.46703">
        <ele>1499.31</ele>
        <time>2019-09-14T14:05:30Z</time>
      </trkpt>
      <trkpt lat="45.98814" lon="6.46705">
        <ele>1502.68</ele>
        <time>2019-09-14T14:05:31Z</time>
      </trkpt>
      <trkpt lat="45.98814" lon="6.46706">
        <ele>1502.2</ele>
        <time>2019-09-14T14:05:32Z</time>
      </trkpt>
      <trkpt lat="45.98815" lon="6.4671">
        <ele>1498.83</ele>
        <time>2019-09-14T14:05:35Z</time>
      </trkpt>
      <trkpt lat="45.98815" lon="6.46711">
        <ele>1502.2</ele>
        <time>2019-09-14T14:05:36Z</time>
      </trkpt>
      <trkpt lat="45.98815" lon="6.46714">
        <ele>1497.39</ele>
        <time>2019-09-14T14:05:38Z</time>
      </trkpt>
      <trkpt lat="45.98815" lon="6.46715">
        <ele>1503.64</ele>
        <time>2019-09-14T14:05:39Z</time>
      </trkpt>
      <trkpt lat="45.98815" lon="6.46717">
        <ele>1499.31</ele>
        <time>2019-09-14T14:05:41Z</time>
      </trkpt>
      <trkpt lat="45.98815" lon="6.46718">
        <ele>1499.31</ele>
        <time>2019-09-14T14:05:42Z</time>
      </trkpt>
      <trkpt lat="45.98815" lon="6.46719">
        <ele>1503.64</ele>
        <time>2019-09-14T14:05:43Z</time>
      </trkpt>
      <trkpt lat="45.98815" lon="6.46721">
        <ele>1503.64</ele>
        <time>2019-09-14T14:05:44Z</time>
      </trkpt>
      <trkpt lat="45.98815" lon="6.46722">
        <ele>1500.27</ele>
        <time>2019-09-14T14:05:45Z</time>
      </trkpt>
      <trkpt lat="45.98815" lon="6.46724">
        <ele>1503.64</ele>
        <time>2019-09-14T14:05:46Z</time>
      </trkpt>
      <trkpt lat="45.98815" lon="6.46726">
        <ele>1499.31</ele>
        <time>2019-09-14T14:05:48Z</time>
      </trkpt>
      <trkpt lat="45.98815" lon="6.46727">
        <ele>1505.08</ele>
        <time>2019-09-14T14:05:49Z</time>
      </trkpt>
      <trkpt lat="45.98815" lon="6.46729">
        <ele>1499.31</ele>
        <time>2019-09-14T14:05:51Z</time>
      </trkpt>
      <trkpt lat="45.98815" lon="6.46731">
        <ele>1504.6</ele>
        <time>2019-09-14T14:05:52Z</time>
      </trkpt>
      <trkpt lat="45.98815" lon="6.4674">
        <ele>1500.27</ele>
        <time>2019-09-14T14:06:00Z</time>
      </trkpt>
      <trkpt lat="45.98816" lon="6.46742">
        <ele>1506.04</ele>
        <time>2019-09-14T14:06:01Z</time>
      </trkpt>
      <trkpt lat="45.98816" lon="6.46744">
        <ele>1500.76</ele>
        <time>2019-09-14T14:06:03Z</time>
      </trkpt>
      <trkpt lat="45.98816" lon="6.46745">
        <ele>1506.04</ele>
        <time>2019-09-14T14:06:04Z</time>
      </trkpt>
      <trkpt lat="45.98816" lon="6.46749">
        <ele>1501.24</ele>
        <time>2019-09-14T14:06:07Z</time>
      </trkpt>
      <trkpt lat="45.98816" lon="6.4675">
        <ele>1507</ele>
        <time>2019-09-14T14:06:08Z</time>
      </trkpt>
      <trkpt lat="45.98817" lon="6.46752">
        <ele>1508.45</ele>
        <time>2019-09-14T14:06:09Z</time>
      </trkpt>
      <trkpt lat="45.98818" lon="6.46754">
        <ele>1507.48</ele>
        <time>2019-09-14T14:06:11Z</time>
      </trkpt>
      <trkpt lat="45.98819" lon="6.46756">
        <ele>1503.64</ele>
        <time>2019-09-14T14:06:13Z</time>
      </trkpt>
      <trkpt lat="45.98819" lon="6.46757">
        <ele>1504.12</ele>
        <time>2019-09-14T14:06:14Z</time>
      </trkpt>
      <trkpt lat="45.9882" lon="6.46757">
        <ele>1507</ele>
        <time>2019-09-14T14:06:15Z</time>
      </trkpt>
      <trkpt lat="45.98821" lon="6.46759">
        <ele>1503.16</ele>
        <time>2019-09-14T14:06:17Z</time>
      </trkpt>
      <trkpt lat="45.98822" lon="6.46759">
        <ele>1507</ele>
        <time>2019-09-14T14:06:18Z</time>
      </trkpt>
      <trkpt lat="45.9883" lon="6.46764">
        <ele>1510.85</ele>
        <time>2019-09-14T14:06:29Z</time>
      </trkpt>
      <trkpt lat="45.98831" lon="6.46764">
        <ele>1506.04</ele>
        <time>2019-09-14T14:06:30Z</time>
      </trkpt>
      <trkpt lat="45.98831" lon="6.46764">
        <ele>1509.89</ele>
        <time>2019-09-14T14:06:31Z</time>
      </trkpt>
      <trkpt lat="45.98832" lon="6.46765">
        <ele>1507</ele>
        <time>2019-09-14T14:06:33Z</time>
      </trkpt>
      <trkpt lat="45.98833" lon="6.46766">
        <ele>1509.89</ele>
        <time>2019-09-14T14:06:34Z</time>
      </trkpt>
      <trkpt lat="45.98834" lon="6.46767">
        <ele>1506.04</ele>
        <time>2019-09-14T14:06:36Z</time>
      </trkpt>
      <trkpt lat="45.98835" lon="6.46767">
        <ele>1507.97</ele>
        <time>2019-09-14T14:06:37Z</time>
      </trkpt>
      <trkpt lat="45.98835" lon="6.46768">
        <ele>1511.81</ele>
        <time>2019-09-14T14:06:38Z</time>
      </trkpt>
      <trkpt lat="45.98836" lon="6.46769">
        <ele>1511.33</ele>
        <time>2019-09-14T14:06:39Z</time>
      </trkpt>
      <trkpt lat="45.98839" lon="6.46776">
        <ele>1507.48</ele>
        <time>2019-09-14T14:06:46Z</time>
      </trkpt>
      <trkpt lat="45.98839" lon="6.46777">
        <ele>1512.77</ele>
        <time>2019-09-14T14:06:47Z</time>
      </trkpt>
      <trkpt lat="45.9884" lon="6.46779">
        <ele>1507.48</ele>
        <time>2019-09-14T14:06:49Z</time>
      </trkpt>
      <trkpt lat="45.9884" lon="6.4678">
        <ele>1508.93</ele>
        <time>2019-09-14T14:06:50Z</time>
      </trkpt>
      <trkpt lat="45.98841" lon="6.46781">
        <ele>1514.21</ele>
        <time>2019-09-14T14:06:51Z</time>
      </trkpt>
      <trkpt lat="45.98841" lon="6.46782">
        <ele>1513.73</ele>
        <time>2019-09-14T14:06:52Z</time>
      </trkpt>
      <trkpt lat="45.98842" lon="6.46783">
        <ele>1509.41</ele>
        <time>2019-09-14T14:06:53Z</time>
      </trkpt>
      <trkpt lat="45.98842" lon="6.46784">
        <ele>1513.73</ele>
        <time>2019-09-14T14:06:54Z</time>
      </trkpt>
      <trkpt lat="45.98843" lon="6.46786">
        <ele>1509.89</ele>
        <time>2019-09-14T14:06:56Z</time>
      </trkpt>
      <trkpt lat="45.98843" lon="6.46787">
        <ele>1514.21</ele>
        <time>2019-09-14T14:06:57Z</time>
      </trkpt>
      <trkpt lat="45.98844" lon="6.46789">
        <ele>1510.85</ele>
        <time>2019-09-14T14:06:59Z</time>
      </trkpt>
      <trkpt lat="45.98845" lon="6.46791">
        <ele>1514.69</ele>
        <time>2019-09-14T14:07:00Z</time>
      </trkpt>
      <trkpt lat="45.98846" lon="6.46795">
        <ele>1507.97</ele>
        <time>2019-09-14T14:07:03Z</time>
      </trkpt>
      <trkpt lat="45.98846" lon="6.46797">
        <ele>1514.69</ele>
        <time>2019-09-14T14:07:04Z</time>
      </trkpt>
      <trkpt lat="45.98848" lon="6.46798">
        <ele>1509.41</ele>
        <time>2019-09-14T14:07:06Z</time>
      </trkpt>
      <trkpt lat="45.98849" lon="6.46799">
        <ele>1513.73</ele>
        <time>2019-09-14T14:07:07Z</time>
      </trkpt>
      <trkpt lat="45.9885" lon="6.46801">
        <ele>1512.29</ele>
        <time>2019-09-14T14:07:09Z</time>
      </trkpt>
      <trkpt lat="45.98853" lon="6.46802">
        <ele>1515.18</ele>
        <time>2019-09-14T14:07:11Z</time>
      </trkpt>
      <trkpt lat="45.98854" lon="6.46804">
        <ele>1509.41</ele>
        <time>2019-09-14T14:07:13Z</time>
      </trkpt>
      <trkpt lat="45.98855" lon="6.46804">
        <ele>1514.21</ele>
        <time>2019-09-14T14:07:14Z</time>
      </trkpt>
      <trkpt lat="45.98856" lon="6.46805">
        <ele>1510.85</ele>
        <time>2019-09-14T14:07:15Z</time>
      </trkpt>
      <trkpt lat="45.98857" lon="6.46805">
        <ele>1515.18</ele>
        <time>2019-09-14T14:07:16Z</time>
      </trkpt>
      <trkpt lat="45.98859" lon="6.46807">
        <ele>1509.41</ele>
        <time>2019-09-14T14:07:18Z</time>
      </trkpt>
      <trkpt lat="45.98859" lon="6.46808">
        <ele>1512.77</ele>
        <time>2019-09-14T14:07:19Z</time>
      </trkpt>
      <trkpt lat="45.9886" lon="6.46809">
        <ele>1516.14</ele>
        <time>2019-09-14T14:07:20Z</time>
      </trkpt>
      <trkpt lat="45.98861" lon="6.4681">
        <ele>1512.77</ele>
        <time>2019-09-14T14:07:21Z</time>
      </trkpt>
      <trkpt lat="45.98863" lon="6.46811">
        <ele>1516.14</ele>
        <time>2019-09-14T14:07:24Z</time>
      </trkpt>
      <trkpt lat="45.98864" lon="6.46812">
        <ele>1516.62</ele>
        <time>2019-09-14T14:07:25Z</time>
      </trkpt>
      <trkpt lat="45.98865" lon="6.46813">
        <ele>1512.29</ele>
        <time>2019-09-14T14:07:26Z</time>
      </trkpt>
      <trkpt lat="45.98867" lon="6.46814">
        <ele>1516.14</ele>
        <time>2019-09-14T14:07:28Z</time>
      </trkpt>
      <trkpt lat="45.98869" lon="6.46816">
        <ele>1512.29</ele>
        <time>2019-09-14T14:07:30Z</time>
      </trkpt>
      <trkpt lat="45.9887" lon="6.46816">
        <ele>1514.69</ele>
        <time>2019-09-14T14:07:31Z</time>
      </trkpt>
      <trkpt lat="45.98872" lon="6.46818">
        <ele>1518.06</ele>
        <time>2019-09-14T14:07:33Z</time>
      </trkpt>
      <trkpt lat="45.98873" lon="6.46818">
        <ele>1510.37</ele>
        <time>2019-09-14T14:07:34Z</time>
      </trkpt>
      <trkpt lat="45.98874" lon="6.46818">
        <ele>1515.66</ele>
        <time>2019-09-14T14:07:35Z</time>
      </trkpt>
      <trkpt lat="45.98874" lon="6.46819">
        <ele>1517.1</ele>
        <time>2019-09-14T14:07:36Z</time>
      </trkpt>
      <trkpt lat="45.98876" lon="6.46821">
        <ele>1518.54</ele>
        <time>2019-09-14T14:07:38Z</time>
      </trkpt>
      <trkpt lat="45.98877" lon="6.46822">
        <ele>1512.29</ele>
        <time>2019-09-14T14:07:39Z</time>
      </trkpt>
      <trkpt lat="45.98878" lon="6.46825">
        <ele>1515.18</ele>
        <time>2019-09-14T14:07:41Z</time>
      </trkpt>
      <trkpt lat="45.9888" lon="6.46827">
        <ele>1513.25</ele>
        <time>2019-09-14T14:07:44Z</time>
      </trkpt>
      <trkpt lat="45.98883" lon="6.46829">
        <ele>1514.69</ele>
        <time>2019-09-14T14:07:48Z</time>
      </trkpt>
      <trkpt lat="45.98885" lon="6.4683">
        <ele>1518.54</ele>
        <time>2019-09-14T14:07:49Z</time>
      </trkpt>
      <trkpt lat="45.98887" lon="6.46835">
        <ele>1514.21</ele>
        <time>2019-09-14T14:07:53Z</time>
      </trkpt>
      <trkpt lat="45.98888" lon="6.46837">
        <ele>1518.06</ele>
        <time>2019-09-14T14:07:54Z</time>
      </trkpt>
      <trkpt lat="45.98894" lon="6.4685">
        <ele>1514.69</ele>
        <time>2019-09-14T14:08:05Z</time>
      </trkpt>
      <trkpt lat="45.98894" lon="6.46851">
        <ele>1519.98</ele>
        <time>2019-09-14T14:08:06Z</time>
      </trkpt>
      <trkpt lat="45.98896" lon="6.46853">
        <ele>1516.62</ele>
        <time>2019-09-14T14:08:08Z</time>
      </trkpt>
      <trkpt lat="45.98896" lon="6.46854">
        <ele>1517.58</ele>
        <time>2019-09-14T14:08:09Z</time>
      </trkpt>
      <trkpt lat="45.98897" lon="6.46855">
        <ele>1520.94</ele>
        <time>2019-09-14T14:08:10Z</time>
      </trkpt>
      <trkpt lat="45.98898" lon="6.46857">
        <ele>1516.14</ele>
        <time>2019-09-14T14:08:12Z</time>
      </trkpt>
      <trkpt lat="45.98899" lon="6.46858">
        <ele>1520.46</ele>
        <time>2019-09-14T14:08:13Z</time>
      </trkpt>
      <trkpt lat="45.98899" lon="6.4686">
        <ele>1521.42</ele>
        <time>2019-09-14T14:08:14Z</time>
      </trkpt>
      <trkpt lat="45.98902" lon="6.46869">
        <ele>1517.1</ele>
        <time>2019-09-14T14:08:21Z</time>
      </trkpt>
      <trkpt lat="45.98903" lon="6.46871">
        <ele>1522.39</ele>
        <time>2019-09-14T14:08:22Z</time>
      </trkpt>
      <trkpt lat="45.98904" lon="6.46873">
        <ele>1516.62</ele>
        <time>2019-09-14T14:08:24Z</time>
      </trkpt>
      <trkpt lat="45.98904" lon="6.46874">
        <ele>1519.98</ele>
        <time>2019-09-14T14:08:25Z</time>
      </trkpt>
      <trkpt lat="45.98906" lon="6.46878">
        <ele>1523.83</ele>
        <time>2019-09-14T14:08:28Z</time>
      </trkpt>
      <trkpt lat="45.98907" lon="6.46879">
        <ele>1517.1</ele>
        <time>2019-09-14T14:08:29Z</time>
      </trkpt>
      <trkpt lat="45.98907" lon="6.46881">
        <ele>1519.5</ele>
        <time>2019-09-14T14:08:30Z</time>
      </trkpt>
      <trkpt lat="45.98907" lon="6.46882">
        <ele>1523.35</ele>
        <time>2019-09-14T14:08:31Z</time>
      </trkpt>
      <trkpt lat="45.98908" lon="6.46884">
        <ele>1521.42</ele>
        <time>2019-09-14T14:08:32Z</time>
      </trkpt>
      <trkpt lat="45.98908" lon="6.46886">
        <ele>1517.1</ele>
        <time>2019-09-14T14:08:33Z</time>
      </trkpt>
      <trkpt lat="45.98908" lon="6.46887">
        <ele>1522.87</ele>
        <time>2019-09-14T14:08:34Z</time>
      </trkpt>
      <trkpt lat="45.9891" lon="6.46893">
        <ele>1516.62</ele>
        <time>2019-09-14T14:08:38Z</time>
      </trkpt>
      <trkpt lat="45.98911" lon="6.46894">
        <ele>1522.39</ele>
        <time>2019-09-14T14:08:39Z</time>
      </trkpt>
      <trkpt lat="45.98914" lon="6.46898">
        <ele>1518.54</ele>
        <time>2019-09-14T14:08:44Z</time>
      </trkpt>
      <trkpt lat="45.98915" lon="6.46899">
        <ele>1521.9</ele>
        <time>2019-09-14T14:08:45Z</time>
      </trkpt>
      <trkpt lat="45.98916" lon="6.46901">
        <ele>1517.58</ele>
        <time>2019-09-14T14:08:47Z</time>
      </trkpt>
      <trkpt lat="45.98916" lon="6.46901">
        <ele>1523.83</ele>
        <time>2019-09-14T14:08:48Z</time>
      </trkpt>
      <trkpt lat="45.98917" lon="6.46902">
        <ele>1520.46</ele>
        <time>2019-09-14T14:08:49Z</time>
      </trkpt>
      <trkpt lat="45.98917" lon="6.46904">
        <ele>1522.87</ele>
        <time>2019-09-14T14:08:54Z</time>
      </trkpt>
      <trkpt lat="45.98918" lon="6.46908">
        <ele>1523.83</ele>
        <time>2019-09-14T14:08:57Z</time>
      </trkpt>
      <trkpt lat="45.98918" lon="6.46909">
        <ele>1518.54</ele>
        <time>2019-09-14T14:08:58Z</time>
      </trkpt>
      <trkpt lat="45.98919" lon="6.46909">
        <ele>1523.35</ele>
        <time>2019-09-14T14:08:59Z</time>
      </trkpt>
      <trkpt lat="45.98922" lon="6.46906">
        <ele>1518.54</ele>
        <time>2019-09-14T14:09:03Z</time>
      </trkpt>
      <trkpt lat="45.98922" lon="6.46904">
        <ele>1522.39</ele>
        <time>2019-09-14T14:09:04Z</time>
      </trkpt>
      <trkpt lat="45.98922" lon="6.46898">
        <ele>1519.02</ele>
        <time>2019-09-14T14:09:10Z</time>
      </trkpt>
      <trkpt lat="45.98922" lon="6.46896">
        <ele>1524.31</ele>
        <time>2019-09-14T14:09:11Z</time>
      </trkpt>
      <trkpt lat="45.98922" lon="6.46893">
        <ele>1520.46</ele>
        <time>2019-09-14T14:09:13Z</time>
      </trkpt>
      <trkpt lat="45.98922" lon="6.46891">
        <ele>1522.87</ele>
        <time>2019-09-14T14:09:14Z</time>
      </trkpt>
      <trkpt lat="45.98922" lon="6.46887">
        <ele>1525.75</ele>
        <time>2019-09-14T14:09:17Z</time>
      </trkpt>
      <trkpt lat="45.98922" lon="6.46885">
        <ele>1519.98</ele>
        <time>2019-09-14T14:09:18Z</time>
      </trkpt>
      <trkpt lat="45.98921" lon="6.46884">
        <ele>1524.79</ele>
        <time>2019-09-14T14:09:19Z</time>
      </trkpt>
      <trkpt lat="45.98921" lon="6.46881">
        <ele>1520.46</ele>
        <time>2019-09-14T14:09:21Z</time>
      </trkpt>
      <trkpt lat="45.9892" lon="6.4688">
        <ele>1523.35</ele>
        <time>2019-09-14T14:09:22Z</time>
      </trkpt>
      <trkpt lat="45.98919" lon="6.46876">
        <ele>1519.02</ele>
        <time>2019-09-14T14:09:25Z</time>
      </trkpt>
      <trkpt lat="45.98919" lon="6.46874">
        <ele>1527.19</ele>
        <time>2019-09-14T14:09:26Z</time>
      </trkpt>
      <trkpt lat="45.98918" lon="6.46873">
        <ele>1526.23</ele>
        <time>2019-09-14T14:09:27Z</time>
      </trkpt>
      <trkpt lat="45.98917" lon="6.46871">
        <ele>1521.9</ele>
        <time>2019-09-14T14:09:29Z</time>
      </trkpt>
      <trkpt lat="45.98917" lon="6.4687">
        <ele>1523.83</ele>
        <time>2019-09-14T14:09:30Z</time>
      </trkpt>
      <trkpt lat="45.98917" lon="6.46867">
        <ele>1529.11</ele>
        <time>2019-09-14T14:09:32Z</time>
      </trkpt>
      <trkpt lat="45.98916" lon="6.46865">
        <ele>1518.06</ele>
        <time>2019-09-14T14:09:33Z</time>
      </trkpt>
      <trkpt lat="45.98916" lon="6.46864">
        <ele>1527.19</ele>
        <time>2019-09-14T14:09:34Z</time>
      </trkpt>
      <trkpt lat="45.98914" lon="6.46862">
        <ele>1523.83</ele>
        <time>2019-09-14T14:09:36Z</time>
      </trkpt>
      <trkpt lat="45.98913" lon="6.46858">
        <ele>1528.63</ele>
        <time>2019-09-14T14:09:39Z</time>
      </trkpt>
      <trkpt lat="45.98913" lon="6.46854">
        <ele>1520.46</ele>
        <time>2019-09-14T14:09:42Z</time>
      </trkpt>
      <trkpt lat="45.98914" lon="6.46853">
        <ele>1526.71</ele>
        <time>2019-09-14T14:09:43Z</time>
      </trkpt>
      <trkpt lat="45.98914" lon="6.46849">
        <ele>1522.39</ele>
        <time>2019-09-14T14:09:46Z</time>
      </trkpt>
      <trkpt lat="45.98914" lon="6.46848">
        <ele>1523.83</ele>
        <time>2019-09-14T14:09:47Z</time>
      </trkpt>
      <trkpt lat="45.98915" lon="6.46843">
        <ele>1526.23</ele>
        <time>2019-09-14T14:09:50Z</time>
      </trkpt>
      <trkpt lat="45.98913" lon="6.46836">
        <ele>1525.75</ele>
        <time>2019-09-14T14:09:54Z</time>
      </trkpt>
      <trkpt lat="45.98913" lon="6.46833">
        <ele>1526.71</ele>
        <time>2019-09-14T14:09:56Z</time>
      </trkpt>
      <trkpt lat="45.98913" lon="6.46831">
        <ele>1523.35</ele>
        <time>2019-09-14T14:09:57Z</time>
      </trkpt>
      <trkpt lat="45.98913" lon="6.46828">
        <ele>1528.15</ele>
        <time>2019-09-14T14:09:59Z</time>
      </trkpt>
      <trkpt lat="45.98913" lon="6.46825">
        <ele>1523.83</ele>
        <time>2019-09-14T14:10:01Z</time>
      </trkpt>
      <trkpt lat="45.98913" lon="6.46823">
        <ele>1527.67</ele>
        <time>2019-09-14T14:10:02Z</time>
      </trkpt>
      <trkpt lat="45.98913" lon="6.46822">
        <ele>1523.35</ele>
        <time>2019-09-14T14:10:03Z</time>
      </trkpt>
      <trkpt lat="45.98914" lon="6.46819">
        <ele>1528.63</ele>
        <time>2019-09-14T14:10:05Z</time>
      </trkpt>
      <trkpt lat="45.98913" lon="6.46815">
        <ele>1521.42</ele>
        <time>2019-09-14T14:10:07Z</time>
      </trkpt>
      <trkpt lat="45.98913" lon="6.46813">
        <ele>1528.63</ele>
        <time>2019-09-14T14:10:08Z</time>
      </trkpt>
      <trkpt lat="45.98912" lon="6.46809">
        <ele>1524.79</ele>
        <time>2019-09-14T14:10:11Z</time>
      </trkpt>
      <trkpt lat="45.98912" lon="6.46808">
        <ele>1528.63</ele>
        <time>2019-09-14T14:10:12Z</time>
      </trkpt>
      <trkpt lat="45.98912" lon="6.46806">
        <ele>1523.35</ele>
        <time>2019-09-14T14:10:14Z</time>
      </trkpt>
      <trkpt lat="45.98913" lon="6.46797">
        <ele>1529.59</ele>
        <time>2019-09-14T14:10:21Z</time>
      </trkpt>
      <trkpt lat="45.98913" lon="6.46795">
        <ele>1525.27</ele>
        <time>2019-09-14T14:10:22Z</time>
      </trkpt>
      <trkpt lat="45.98913" lon="6.46794">
        <ele>1527.67</ele>
        <time>2019-09-14T14:10:23Z</time>
      </trkpt>
      <trkpt lat="45.98913" lon="6.46791">
        <ele>1529.11</ele>
        <time>2019-09-14T14:10:26Z</time>
      </trkpt>
      <trkpt lat="45.98913" lon="6.4679">
        <ele>1524.31</ele>
        <time>2019-09-14T14:10:27Z</time>
      </trkpt>
      <trkpt lat="45.98912" lon="6.46789">
        <ele>1529.11</ele>
        <time>2019-09-14T14:10:28Z</time>
      </trkpt>
      <trkpt lat="45.98913" lon="6.46786">
        <ele>1525.27</ele>
        <time>2019-09-14T14:10:30Z</time>
      </trkpt>
      <trkpt lat="45.98913" lon="6.46784">
        <ele>1526.23</ele>
        <time>2019-09-14T14:10:31Z</time>
      </trkpt>
      <trkpt lat="45.98913" lon="6.46782">
        <ele>1527.19</ele>
        <time>2019-09-14T14:10:33Z</time>
      </trkpt>
      <trkpt lat="45.98913" lon="6.46779">
        <ele>1524.31</ele>
        <time>2019-09-14T14:10:35Z</time>
      </trkpt>
      <trkpt lat="45.98913" lon="6.46776">
        <ele>1529.11</ele>
        <time>2019-09-14T14:10:37Z</time>
      </trkpt>
      <trkpt lat="45.98913" lon="6.46774">
        <ele>1524.79</ele>
        <time>2019-09-14T14:10:39Z</time>
      </trkpt>
      <trkpt lat="45.98913" lon="6.46771">
        <ele>1528.63</ele>
        <time>2019-09-14T14:10:41Z</time>
      </trkpt>
      <trkpt lat="45.98912" lon="6.4677">
        <ele>1524.31</ele>
        <time>2019-09-14T14:10:42Z</time>
      </trkpt>
      <trkpt lat="45.98912" lon="6.46769">
        <ele>1529.11</ele>
        <time>2019-09-14T14:10:43Z</time>
      </trkpt>
      <trkpt lat="45.98912" lon="6.46767">
        <ele>1524.31</ele>
        <time>2019-09-14T14:10:45Z</time>
      </trkpt>
      <trkpt lat="45.98912" lon="6.46765">
        <ele>1528.63</ele>
        <time>2019-09-14T14:10:47Z</time>
      </trkpt>
      <trkpt lat="45.98911" lon="6.46764">
        <ele>1526.71</ele>
        <time>2019-09-14T14:10:48Z</time>
      </trkpt>
      <trkpt lat="45.98907" lon="6.4676">
        <ele>1529.11</ele>
        <time>2019-09-14T14:10:57Z</time>
      </trkpt>
      <trkpt lat="45.98907" lon="6.46761">
        <ele>1524.79</ele>
        <time>2019-09-14T14:10:58Z</time>
      </trkpt>
      <trkpt lat="45.98907" lon="6.4676">
        <ele>1528.63</ele>
        <time>2019-09-14T14:11:00Z</time>
      </trkpt>
      <trkpt lat="45.98904" lon="6.46759">
        <ele>1526.71</ele>
        <time>2019-09-14T14:11:10Z</time>
      </trkpt>
      <trkpt lat="45.98904" lon="6.46759">
        <ele>1523.83</ele>
        <time>2019-09-14T14:11:21Z</time>
      </trkpt>
      <trkpt lat="45.98904" lon="6.46758">
        <ele>1527.19</ele>
        <time>2019-09-14T14:11:22Z</time>
      </trkpt>
      <trkpt lat="45.98905" lon="6.46757">
        <ele>1526.23</ele>
        <time>2019-09-14T14:11:45Z</time>
      </trkpt>
      <trkpt lat="45.98905" lon="6.46757">
        <ele>1526.23</ele>
        <time>2019-09-14T14:12:16Z</time>
      </trkpt>
      <trkpt lat="45.98905" lon="6.46757">
        <ele>1525.75</ele>
        <time>2019-09-14T14:12:46Z</time>
      </trkpt>
      <trkpt lat="45.98904" lon="6.46757">
        <ele>1525.75</ele>
        <time>2019-09-14T14:13:15Z</time>
      </trkpt>
      <trkpt lat="45.98902" lon="6.46758">
        <ele>1525.75</ele>
        <time>2019-09-14T14:13:42Z</time>
      </trkpt>
      <trkpt lat="45.98901" lon="6.46759">
        <ele>1525.75</ele>
        <time>2019-09-14T14:14:11Z</time>
      </trkpt>
      <trkpt lat="45.989" lon="6.46758">
        <ele>1525.75</ele>
        <time>2019-09-14T14:14:41Z</time>
      </trkpt>
      <trkpt lat="45.989" lon="6.46758">
        <ele>1525.27</ele>
        <time>2019-09-14T14:15:05Z</time>
      </trkpt>
      <trkpt lat="45.98901" lon="6.46758">
        <ele>1525.75</ele>
        <time>2019-09-14T14:15:31Z</time>
      </trkpt>
      <trkpt lat="45.98902" lon="6.46759">
        <ele>1524.79</ele>
        <time>2019-09-14T14:15:57Z</time>
      </trkpt>
      <trkpt lat="45.98903" lon="6.46759">
        <ele>1525.75</ele>
        <time>2019-09-14T14:16:23Z</time>
      </trkpt>
      <trkpt lat="45.98903" lon="6.46759">
        <ele>1525.27</ele>
        <time>2019-09-14T14:16:48Z</time>
      </trkpt>
      <trkpt lat="45.98903" lon="6.4676">
        <ele>1525.27</ele>
        <time>2019-09-14T14:17:19Z</time>
      </trkpt>
      <trkpt lat="45.98904" lon="6.4676">
        <ele>1525.75</ele>
        <time>2019-09-14T14:17:47Z</time>
      </trkpt>
      <trkpt lat="45.98904" lon="6.46759">
        <ele>1525.75</ele>
        <time>2019-09-14T14:18:14Z</time>
      </trkpt>
      <trkpt lat="45.98904" lon="6.46759">
        <ele>1525.75</ele>
        <time>2019-09-14T14:18:28Z</time>
      </trkpt>
      <trkpt lat="45.98904" lon="6.46758">
        <ele>1526.23</ele>
        <time>2019-09-14T14:18:42Z</time>
      </trkpt>
      <trkpt lat="45.98904" lon="6.46758">
        <ele>1526.71</ele>
        <time>2019-09-14T14:18:55Z</time>
      </trkpt>
      <trkpt lat="45.98904" lon="6.46758">
        <ele>1522.87</ele>
        <time>2019-09-14T14:19:00Z</time>
      </trkpt>
      <trkpt lat="45.98904" lon="6.46758">
        <ele>1527.19</ele>
        <time>2019-09-14T14:19:01Z</time>
      </trkpt>
      <trkpt lat="45.98904" lon="6.46759">
        <ele>1524.31</ele>
        <time>2019-09-14T14:19:09Z</time>
      </trkpt>
      <trkpt lat="45.98904" lon="6.46759">
        <ele>1527.19</ele>
        <time>2019-09-14T14:19:10Z</time>
      </trkpt>
      <trkpt lat="45.98904" lon="6.46759">
        <ele>1522.39</ele>
        <time>2019-09-14T14:19:11Z</time>
      </trkpt>
      <trkpt lat="45.98904" lon="6.46759">
        <ele>1527.67</ele>
        <time>2019-09-14T14:19:12Z</time>
      </trkpt>
      <trkpt lat="45.98904" lon="6.46759">
        <ele>1521.9</ele>
        <time>2019-09-14T14:19:13Z</time>
      </trkpt>
      <trkpt lat="45.98904" lon="6.46759">
        <ele>1527.19</ele>
        <time>2019-09-14T14:19:14Z</time>
      </trkpt>
    </trkseg>
  </trk>
</gpx>